<?xml version="1.0" encoding="UTF-8" standalone="no" ?>
<gpx xmlns="http://www.topografix.com/GPX/1/1" xmlns:xsi="http://www.w3.org/2001/XMLSchema-instance" xsi:schemaLocation="http://www.topografix.com/GPX/1/1 http://www.topografix.com/GPX/1/1/gpx.xsd" version="1.1" creator="VisuGPX - https://www.visugpx.com">
  <metadata>
    <name>Mont Mounier 07617</name>
  </metadata>
  <trk>
    <name><![CDATA[Mont Mounier 07617_1]]></name>
    <trkseg>
      <trkpt lat="44.11086" lon="6.9583">
        <ele>1745</ele>
        <time>2017-06-07T08:24:32Z</time>
      </trkpt>
      <trkpt lat="44.11091" lon="6.95829">
        <ele>1745</ele>
        <time>2017-06-07T08:24:32Z</time>
      </trkpt>
      <trkpt lat="44.11094" lon="6.95831">
        <ele>1745</ele>
        <time>2017-06-07T08:24:32Z</time>
      </trkpt>
      <trkpt lat="44.11096" lon="6.9583">
        <ele>1745</ele>
        <time>2017-06-07T08:24:32Z</time>
      </trkpt>
      <trkpt lat="44.111" lon="6.95835">
        <ele>1748</ele>
        <time>2017-06-07T08:25:08Z</time>
      </trkpt>
      <trkpt lat="44.11101" lon="6.95836">
        <ele>1748</ele>
        <time>2017-06-07T08:25:08Z</time>
      </trkpt>
      <trkpt lat="44.11104" lon="6.95837">
        <ele>1748</ele>
        <time>2017-06-07T08:25:08Z</time>
      </trkpt>
      <trkpt lat="44.11109" lon="6.95836">
        <ele>1748</ele>
        <time>2017-06-07T08:25:08Z</time>
      </trkpt>
      <trkpt lat="44.11113" lon="6.95837">
        <ele>1748</ele>
        <time>2017-06-07T08:25:09Z</time>
      </trkpt>
      <trkpt lat="44.11115" lon="6.95837">
        <ele>1748</ele>
        <time>2017-06-07T08:25:29Z</time>
      </trkpt>
      <trkpt lat="44.11119" lon="6.95837">
        <ele>1748</ele>
        <time>2017-06-07T08:25:29Z</time>
      </trkpt>
      <trkpt lat="44.11123" lon="6.95836">
        <ele>1748</ele>
        <time>2017-06-07T08:25:30Z</time>
      </trkpt>
      <trkpt lat="44.11124" lon="6.95835">
        <ele>1748</ele>
        <time>2017-06-07T08:25:31Z</time>
      </trkpt>
      <trkpt lat="44.11128" lon="6.95836">
        <ele>1752</ele>
        <time>2017-06-07T08:25:31Z</time>
      </trkpt>
      <trkpt lat="44.11128" lon="6.95834">
        <ele>1752</ele>
        <time>2017-06-07T08:25:48Z</time>
      </trkpt>
      <trkpt lat="44.11129" lon="6.95831">
        <ele>1752</ele>
        <time>2017-06-07T08:25:48Z</time>
      </trkpt>
      <trkpt lat="44.11131" lon="6.95829">
        <ele>1752</ele>
        <time>2017-06-07T08:25:48Z</time>
      </trkpt>
      <trkpt lat="44.11132" lon="6.95826">
        <ele>1752</ele>
        <time>2017-06-07T08:25:48Z</time>
      </trkpt>
      <trkpt lat="44.11136" lon="6.95825">
        <ele>1752</ele>
        <time>2017-06-07T08:25:49Z</time>
      </trkpt>
      <trkpt lat="44.1114" lon="6.95823">
        <ele>1752</ele>
        <time>2017-06-07T08:26:03Z</time>
      </trkpt>
      <trkpt lat="44.11144" lon="6.95821">
        <ele>1752</ele>
        <time>2017-06-07T08:26:03Z</time>
      </trkpt>
      <trkpt lat="44.11148" lon="6.95823">
        <ele>1752</ele>
        <time>2017-06-07T08:26:03Z</time>
      </trkpt>
      <trkpt lat="44.11152" lon="6.95824">
        <ele>1752</ele>
        <time>2017-06-07T08:26:03Z</time>
      </trkpt>
      <trkpt lat="44.11156" lon="6.95836">
        <ele>1758</ele>
        <time>2017-06-07T08:26:39Z</time>
      </trkpt>
      <trkpt lat="44.11156" lon="6.95836">
        <ele>1758</ele>
        <time>2017-06-07T08:26:39Z</time>
      </trkpt>
      <trkpt lat="44.11161" lon="6.95841">
        <ele>1758</ele>
        <time>2017-06-07T08:26:39Z</time>
      </trkpt>
      <trkpt lat="44.11163" lon="6.95844">
        <ele>1758</ele>
        <time>2017-06-07T08:26:39Z</time>
      </trkpt>
      <trkpt lat="44.11168" lon="6.95845">
        <ele>1758</ele>
        <time>2017-06-07T08:26:39Z</time>
      </trkpt>
      <trkpt lat="44.11171" lon="6.95845">
        <ele>1758</ele>
        <time>2017-06-07T08:26:55Z</time>
      </trkpt>
      <trkpt lat="44.11179" lon="6.95845">
        <ele>1758</ele>
        <time>2017-06-07T08:26:55Z</time>
      </trkpt>
      <trkpt lat="44.11184" lon="6.95846">
        <ele>1763</ele>
        <time>2017-06-07T08:26:55Z</time>
      </trkpt>
      <trkpt lat="44.11189" lon="6.95846">
        <ele>1763</ele>
        <time>2017-06-07T08:26:55Z</time>
      </trkpt>
      <trkpt lat="44.11194" lon="6.95846">
        <ele>1763</ele>
        <time>2017-06-07T08:27:13Z</time>
      </trkpt>
      <trkpt lat="44.11199" lon="6.95848">
        <ele>1752</ele>
        <time>2017-06-07T08:27:13Z</time>
      </trkpt>
      <trkpt lat="44.11202" lon="6.95849">
        <ele>1752</ele>
        <time>2017-06-07T08:27:13Z</time>
      </trkpt>
      <trkpt lat="44.11209" lon="6.95851">
        <ele>1761</ele>
        <time>2017-06-07T08:27:13Z</time>
      </trkpt>
      <trkpt lat="44.11213" lon="6.95853">
        <ele>1761</ele>
        <time>2017-06-07T08:27:29Z</time>
      </trkpt>
      <trkpt lat="44.11219" lon="6.95852">
        <ele>1761</ele>
        <time>2017-06-07T08:27:29Z</time>
      </trkpt>
      <trkpt lat="44.11221" lon="6.95853">
        <ele>1761</ele>
        <time>2017-06-07T08:27:29Z</time>
      </trkpt>
      <trkpt lat="44.11223" lon="6.95854">
        <ele>1761</ele>
        <time>2017-06-07T08:27:29Z</time>
      </trkpt>
      <trkpt lat="44.11225" lon="6.95855">
        <ele>1761</ele>
        <time>2017-06-07T08:27:45Z</time>
      </trkpt>
      <trkpt lat="44.11231" lon="6.9586">
        <ele>1761</ele>
        <time>2017-06-07T08:27:45Z</time>
      </trkpt>
      <trkpt lat="44.11233" lon="6.95865">
        <ele>1761</ele>
        <time>2017-06-07T08:27:45Z</time>
      </trkpt>
      <trkpt lat="44.11237" lon="6.95871">
        <ele>1773</ele>
        <time>2017-06-07T08:27:45Z</time>
      </trkpt>
      <trkpt lat="44.11238" lon="6.95878">
        <ele>1769</ele>
        <time>2017-06-07T08:28:01Z</time>
      </trkpt>
      <trkpt lat="44.11241" lon="6.95883">
        <ele>1769</ele>
        <time>2017-06-07T08:28:01Z</time>
      </trkpt>
      <trkpt lat="44.11242" lon="6.95889">
        <ele>1769</ele>
        <time>2017-06-07T08:28:01Z</time>
      </trkpt>
      <trkpt lat="44.11242" lon="6.95897">
        <ele>1769</ele>
        <time>2017-06-07T08:28:01Z</time>
      </trkpt>
      <trkpt lat="44.11243" lon="6.95902">
        <ele>1769</ele>
        <time>2017-06-07T08:28:17Z</time>
      </trkpt>
      <trkpt lat="44.11242" lon="6.95912">
        <ele>1767</ele>
        <time>2017-06-07T08:28:17Z</time>
      </trkpt>
      <trkpt lat="44.11243" lon="6.95918">
        <ele>1767</ele>
        <time>2017-06-07T08:28:17Z</time>
      </trkpt>
      <trkpt lat="44.11245" lon="6.95926">
        <ele>1767</ele>
        <time>2017-06-07T08:28:18Z</time>
      </trkpt>
      <trkpt lat="44.11246" lon="6.95931">
        <ele>1763</ele>
        <time>2017-06-07T08:28:33Z</time>
      </trkpt>
      <trkpt lat="44.11249" lon="6.95939">
        <ele>1763</ele>
        <time>2017-06-07T08:28:33Z</time>
      </trkpt>
      <trkpt lat="44.11251" lon="6.95945">
        <ele>1763</ele>
        <time>2017-06-07T08:28:33Z</time>
      </trkpt>
      <trkpt lat="44.11254" lon="6.9595">
        <ele>1763</ele>
        <time>2017-06-07T08:28:33Z</time>
      </trkpt>
      <trkpt lat="44.11257" lon="6.95954">
        <ele>1763</ele>
        <time>2017-06-07T08:28:49Z</time>
      </trkpt>
      <trkpt lat="44.1126" lon="6.9596">
        <ele>1756</ele>
        <time>2017-06-07T08:28:49Z</time>
      </trkpt>
      <trkpt lat="44.11263" lon="6.95963">
        <ele>1756</ele>
        <time>2017-06-07T08:28:49Z</time>
      </trkpt>
      <trkpt lat="44.11267" lon="6.95967">
        <ele>1771</ele>
        <time>2017-06-07T08:28:49Z</time>
      </trkpt>
      <trkpt lat="44.11269" lon="6.95972">
        <ele>1771</ele>
        <time>2017-06-07T08:29:03Z</time>
      </trkpt>
      <trkpt lat="44.11272" lon="6.95976">
        <ele>1771</ele>
        <time>2017-06-07T08:29:03Z</time>
      </trkpt>
      <trkpt lat="44.11275" lon="6.95982">
        <ele>1771</ele>
        <time>2017-06-07T08:29:03Z</time>
      </trkpt>
      <trkpt lat="44.11278" lon="6.95989">
        <ele>1761</ele>
        <time>2017-06-07T08:29:03Z</time>
      </trkpt>
      <trkpt lat="44.11282" lon="6.95996">
        <ele>1761</ele>
        <time>2017-06-07T08:29:21Z</time>
      </trkpt>
      <trkpt lat="44.11287" lon="6.96">
        <ele>1761</ele>
        <time>2017-06-07T08:29:21Z</time>
      </trkpt>
      <trkpt lat="44.1129" lon="6.96004">
        <ele>1761</ele>
        <time>2017-06-07T08:29:22Z</time>
      </trkpt>
      <trkpt lat="44.11293" lon="6.96007">
        <ele>1770</ele>
        <time>2017-06-07T08:29:22Z</time>
      </trkpt>
      <trkpt lat="44.11295" lon="6.96009">
        <ele>1770</ele>
        <time>2017-06-07T08:29:37Z</time>
      </trkpt>
      <trkpt lat="44.11301" lon="6.96014">
        <ele>1770</ele>
        <time>2017-06-07T08:29:37Z</time>
      </trkpt>
      <trkpt lat="44.11304" lon="6.96016">
        <ele>1763</ele>
        <time>2017-06-07T08:29:37Z</time>
      </trkpt>
      <trkpt lat="44.11309" lon="6.96018">
        <ele>1763</ele>
        <time>2017-06-07T08:29:37Z</time>
      </trkpt>
      <trkpt lat="44.11313" lon="6.9602">
        <ele>1763</ele>
        <time>2017-06-07T08:29:53Z</time>
      </trkpt>
      <trkpt lat="44.11316" lon="6.96022">
        <ele>1763</ele>
        <time>2017-06-07T08:29:53Z</time>
      </trkpt>
      <trkpt lat="44.11318" lon="6.96025">
        <ele>1763</ele>
        <time>2017-06-07T08:29:53Z</time>
      </trkpt>
      <trkpt lat="44.11324" lon="6.96024">
        <ele>1766</ele>
        <time>2017-06-07T08:29:53Z</time>
      </trkpt>
      <trkpt lat="44.11328" lon="6.96025">
        <ele>1766</ele>
        <time>2017-06-07T08:30:08Z</time>
      </trkpt>
      <trkpt lat="44.11334" lon="6.96025">
        <ele>1766</ele>
        <time>2017-06-07T08:30:08Z</time>
      </trkpt>
      <trkpt lat="44.11339" lon="6.96025">
        <ele>1766</ele>
        <time>2017-06-07T08:30:08Z</time>
      </trkpt>
      <trkpt lat="44.11344" lon="6.96026">
        <ele>1766</ele>
        <time>2017-06-07T08:30:09Z</time>
      </trkpt>
      <trkpt lat="44.11345" lon="6.96026">
        <ele>1766</ele>
        <time>2017-06-07T08:30:25Z</time>
      </trkpt>
      <trkpt lat="44.11352" lon="6.96026">
        <ele>1770</ele>
        <time>2017-06-07T08:30:25Z</time>
      </trkpt>
      <trkpt lat="44.11358" lon="6.96024">
        <ele>1770</ele>
        <time>2017-06-07T08:30:25Z</time>
      </trkpt>
      <trkpt lat="44.11364" lon="6.96023">
        <ele>1770</ele>
        <time>2017-06-07T08:30:25Z</time>
      </trkpt>
      <trkpt lat="44.11365" lon="6.96025">
        <ele>1770</ele>
        <time>2017-06-07T08:30:41Z</time>
      </trkpt>
      <trkpt lat="44.11367" lon="6.96026">
        <ele>1770</ele>
        <time>2017-06-07T08:30:41Z</time>
      </trkpt>
      <trkpt lat="44.11368" lon="6.96024">
        <ele>1770</ele>
        <time>2017-06-07T08:30:42Z</time>
      </trkpt>
      <trkpt lat="44.11375" lon="6.9602">
        <ele>1770</ele>
        <time>2017-06-07T08:30:43Z</time>
      </trkpt>
      <trkpt lat="44.11378" lon="6.96015">
        <ele>1769</ele>
        <time>2017-06-07T08:30:57Z</time>
      </trkpt>
      <trkpt lat="44.11385" lon="6.96011">
        <ele>1780</ele>
        <time>2017-06-07T08:30:57Z</time>
      </trkpt>
      <trkpt lat="44.1139" lon="6.9601">
        <ele>1780</ele>
        <time>2017-06-07T08:30:57Z</time>
      </trkpt>
      <trkpt lat="44.11393" lon="6.96011">
        <ele>1780</ele>
        <time>2017-06-07T08:30:57Z</time>
      </trkpt>
      <trkpt lat="44.11397" lon="6.96008">
        <ele>1780</ele>
        <time>2017-06-07T08:31:12Z</time>
      </trkpt>
      <trkpt lat="44.11402" lon="6.96008">
        <ele>1780</ele>
        <time>2017-06-07T08:31:12Z</time>
      </trkpt>
      <trkpt lat="44.11405" lon="6.96011">
        <ele>1783</ele>
        <time>2017-06-07T08:31:13Z</time>
      </trkpt>
      <trkpt lat="44.1141" lon="6.9601">
        <ele>1783</ele>
        <time>2017-06-07T08:31:13Z</time>
      </trkpt>
      <trkpt lat="44.11414" lon="6.9601">
        <ele>1783</ele>
        <time>2017-06-07T08:31:27Z</time>
      </trkpt>
      <trkpt lat="44.11423" lon="6.9601">
        <ele>1783</ele>
        <time>2017-06-07T08:31:27Z</time>
      </trkpt>
      <trkpt lat="44.11425" lon="6.9601">
        <ele>1783</ele>
        <time>2017-06-07T08:31:27Z</time>
      </trkpt>
      <trkpt lat="44.11426" lon="6.9601">
        <ele>1783</ele>
        <time>2017-06-07T08:31:27Z</time>
      </trkpt>
      <trkpt lat="44.11431" lon="6.9601">
        <ele>1787</ele>
        <time>2017-06-07T08:31:43Z</time>
      </trkpt>
      <trkpt lat="44.11437" lon="6.96011">
        <ele>1787</ele>
        <time>2017-06-07T08:31:43Z</time>
      </trkpt>
      <trkpt lat="44.11446" lon="6.96012">
        <ele>1787</ele>
        <time>2017-06-07T08:31:43Z</time>
      </trkpt>
      <trkpt lat="44.11451" lon="6.96014">
        <ele>1777</ele>
        <time>2017-06-07T08:31:43Z</time>
      </trkpt>
      <trkpt lat="44.11456" lon="6.96015">
        <ele>1777</ele>
        <time>2017-06-07T08:31:59Z</time>
      </trkpt>
      <trkpt lat="44.1146" lon="6.96016">
        <ele>1776</ele>
        <time>2017-06-07T08:31:59Z</time>
      </trkpt>
      <trkpt lat="44.11466" lon="6.96017">
        <ele>1776</ele>
        <time>2017-06-07T08:31:59Z</time>
      </trkpt>
      <trkpt lat="44.1147" lon="6.96019">
        <ele>1776</ele>
        <time>2017-06-07T08:31:59Z</time>
      </trkpt>
      <trkpt lat="44.11474" lon="6.96021">
        <ele>1776</ele>
        <time>2017-06-07T08:32:17Z</time>
      </trkpt>
      <trkpt lat="44.1148" lon="6.96023">
        <ele>1776</ele>
        <time>2017-06-07T08:32:17Z</time>
      </trkpt>
      <trkpt lat="44.11484" lon="6.96023">
        <ele>1776</ele>
        <time>2017-06-07T08:32:17Z</time>
      </trkpt>
      <trkpt lat="44.11489" lon="6.96025">
        <ele>1778</ele>
        <time>2017-06-07T08:32:17Z</time>
      </trkpt>
      <trkpt lat="44.11493" lon="6.96027">
        <ele>1778</ele>
        <time>2017-06-07T08:32:32Z</time>
      </trkpt>
      <trkpt lat="44.11497" lon="6.96028">
        <ele>1778</ele>
        <time>2017-06-07T08:32:32Z</time>
      </trkpt>
      <trkpt lat="44.11501" lon="6.9603">
        <ele>1778</ele>
        <time>2017-06-07T08:32:32Z</time>
      </trkpt>
      <trkpt lat="44.11507" lon="6.96031">
        <ele>1778</ele>
        <time>2017-06-07T08:32:32Z</time>
      </trkpt>
      <trkpt lat="44.11509" lon="6.96033">
        <ele>1778</ele>
        <time>2017-06-07T08:32:48Z</time>
      </trkpt>
      <trkpt lat="44.11516" lon="6.96036">
        <ele>1783</ele>
        <time>2017-06-07T08:32:48Z</time>
      </trkpt>
      <trkpt lat="44.1152" lon="6.96038">
        <ele>1783</ele>
        <time>2017-06-07T08:32:48Z</time>
      </trkpt>
      <trkpt lat="44.11525" lon="6.96039">
        <ele>1783</ele>
        <time>2017-06-07T08:32:48Z</time>
      </trkpt>
      <trkpt lat="44.11528" lon="6.96038">
        <ele>1783</ele>
        <time>2017-06-07T08:33:05Z</time>
      </trkpt>
      <trkpt lat="44.11532" lon="6.9604">
        <ele>1783</ele>
        <time>2017-06-07T08:33:05Z</time>
      </trkpt>
      <trkpt lat="44.11537" lon="6.96042">
        <ele>1776</ele>
        <time>2017-06-07T08:33:05Z</time>
      </trkpt>
      <trkpt lat="44.11541" lon="6.96044">
        <ele>1776</ele>
        <time>2017-06-07T08:33:05Z</time>
      </trkpt>
      <trkpt lat="44.11546" lon="6.96046">
        <ele>1778</ele>
        <time>2017-06-07T08:33:21Z</time>
      </trkpt>
      <trkpt lat="44.11549" lon="6.96048">
        <ele>1778</ele>
        <time>2017-06-07T08:33:21Z</time>
      </trkpt>
      <trkpt lat="44.11554" lon="6.96049">
        <ele>1778</ele>
        <time>2017-06-07T08:33:21Z</time>
      </trkpt>
      <trkpt lat="44.11558" lon="6.9605">
        <ele>1778</ele>
        <time>2017-06-07T08:33:22Z</time>
      </trkpt>
      <trkpt lat="44.11561" lon="6.96051">
        <ele>1778</ele>
        <time>2017-06-07T08:33:36Z</time>
      </trkpt>
      <trkpt lat="44.11565" lon="6.96052">
        <ele>1778</ele>
        <time>2017-06-07T08:33:37Z</time>
      </trkpt>
      <trkpt lat="44.11571" lon="6.96052">
        <ele>1780</ele>
        <time>2017-06-07T08:33:37Z</time>
      </trkpt>
      <trkpt lat="44.11578" lon="6.96053">
        <ele>1780</ele>
        <time>2017-06-07T08:33:37Z</time>
      </trkpt>
      <trkpt lat="44.11581" lon="6.96053">
        <ele>1780</ele>
        <time>2017-06-07T08:33:51Z</time>
      </trkpt>
      <trkpt lat="44.11586" lon="6.96054">
        <ele>1780</ele>
        <time>2017-06-07T08:33:51Z</time>
      </trkpt>
      <trkpt lat="44.11591" lon="6.96054">
        <ele>1780</ele>
        <time>2017-06-07T08:33:51Z</time>
      </trkpt>
      <trkpt lat="44.11596" lon="6.96055">
        <ele>1780</ele>
        <time>2017-06-07T08:33:51Z</time>
      </trkpt>
      <trkpt lat="44.11599" lon="6.96055">
        <ele>1778</ele>
        <time>2017-06-07T08:34:08Z</time>
      </trkpt>
      <trkpt lat="44.11602" lon="6.96057">
        <ele>1778</ele>
        <time>2017-06-07T08:34:08Z</time>
      </trkpt>
      <trkpt lat="44.11609" lon="6.96057">
        <ele>1778</ele>
        <time>2017-06-07T08:34:08Z</time>
      </trkpt>
      <trkpt lat="44.11613" lon="6.96056">
        <ele>1778</ele>
        <time>2017-06-07T08:34:09Z</time>
      </trkpt>
      <trkpt lat="44.11616" lon="6.96057">
        <ele>1778</ele>
        <time>2017-06-07T08:34:24Z</time>
      </trkpt>
      <trkpt lat="44.11622" lon="6.96056">
        <ele>1778</ele>
        <time>2017-06-07T08:34:24Z</time>
      </trkpt>
      <trkpt lat="44.11625" lon="6.96054">
        <ele>1778</ele>
        <time>2017-06-07T08:34:24Z</time>
      </trkpt>
      <trkpt lat="44.11631" lon="6.96052">
        <ele>1778</ele>
        <time>2017-06-07T08:34:24Z</time>
      </trkpt>
      <trkpt lat="44.11635" lon="6.9605">
        <ele>1778</ele>
        <time>2017-06-07T08:34:40Z</time>
      </trkpt>
      <trkpt lat="44.11638" lon="6.96048">
        <ele>1778</ele>
        <time>2017-06-07T08:34:40Z</time>
      </trkpt>
      <trkpt lat="44.1164" lon="6.96045">
        <ele>1778</ele>
        <time>2017-06-07T08:34:40Z</time>
      </trkpt>
      <trkpt lat="44.11643" lon="6.96043">
        <ele>1778</ele>
        <time>2017-06-07T08:34:40Z</time>
      </trkpt>
      <trkpt lat="44.11649" lon="6.96038">
        <ele>1792</ele>
        <time>2017-06-07T08:34:56Z</time>
      </trkpt>
      <trkpt lat="44.11653" lon="6.96033">
        <ele>1792</ele>
        <time>2017-06-07T08:34:57Z</time>
      </trkpt>
      <trkpt lat="44.11657" lon="6.96029">
        <ele>1789</ele>
        <time>2017-06-07T08:34:57Z</time>
      </trkpt>
      <trkpt lat="44.1166" lon="6.96026">
        <ele>1789</ele>
        <time>2017-06-07T08:34:57Z</time>
      </trkpt>
      <trkpt lat="44.1166" lon="6.96027">
        <ele>1789</ele>
        <time>2017-06-07T08:36:39Z</time>
      </trkpt>
      <trkpt lat="44.11663" lon="6.96025">
        <ele>1789</ele>
        <time>2017-06-07T08:36:39Z</time>
      </trkpt>
      <trkpt lat="44.11668" lon="6.96023">
        <ele>1789</ele>
        <time>2017-06-07T08:36:39Z</time>
      </trkpt>
      <trkpt lat="44.11672" lon="6.96021">
        <ele>1789</ele>
        <time>2017-06-07T08:36:39Z</time>
      </trkpt>
      <trkpt lat="44.11675" lon="6.96019">
        <ele>1789</ele>
        <time>2017-06-07T08:36:39Z</time>
      </trkpt>
      <trkpt lat="44.1168" lon="6.96019">
        <ele>1789</ele>
        <time>2017-06-07T08:36:57Z</time>
      </trkpt>
      <trkpt lat="44.11686" lon="6.96017">
        <ele>1783</ele>
        <time>2017-06-07T08:36:57Z</time>
      </trkpt>
      <trkpt lat="44.11692" lon="6.96016">
        <ele>1783</ele>
        <time>2017-06-07T08:36:57Z</time>
      </trkpt>
      <trkpt lat="44.11696" lon="6.96015">
        <ele>1783</ele>
        <time>2017-06-07T08:36:57Z</time>
      </trkpt>
      <trkpt lat="44.11698" lon="6.96016">
        <ele>1783</ele>
        <time>2017-06-07T08:37:12Z</time>
      </trkpt>
      <trkpt lat="44.117" lon="6.96015">
        <ele>1783</ele>
        <time>2017-06-07T08:37:12Z</time>
      </trkpt>
      <trkpt lat="44.11708" lon="6.96013">
        <ele>1791</ele>
        <time>2017-06-07T08:37:12Z</time>
      </trkpt>
      <trkpt lat="44.1171" lon="6.96013">
        <ele>1787</ele>
        <time>2017-06-07T08:37:13Z</time>
      </trkpt>
      <trkpt lat="44.11716" lon="6.9601">
        <ele>1787</ele>
        <time>2017-06-07T08:37:29Z</time>
      </trkpt>
      <trkpt lat="44.11723" lon="6.96007">
        <ele>1787</ele>
        <time>2017-06-07T08:37:29Z</time>
      </trkpt>
      <trkpt lat="44.11729" lon="6.96007">
        <ele>1787</ele>
        <time>2017-06-07T08:37:29Z</time>
      </trkpt>
      <trkpt lat="44.11734" lon="6.96006">
        <ele>1787</ele>
        <time>2017-06-07T08:37:29Z</time>
      </trkpt>
      <trkpt lat="44.11739" lon="6.96003">
        <ele>1785</ele>
        <time>2017-06-07T08:37:44Z</time>
      </trkpt>
      <trkpt lat="44.11743" lon="6.95999">
        <ele>1785</ele>
        <time>2017-06-07T08:37:44Z</time>
      </trkpt>
      <trkpt lat="44.11747" lon="6.96001">
        <ele>1785</ele>
        <time>2017-06-07T08:37:44Z</time>
      </trkpt>
      <trkpt lat="44.11752" lon="6.95998">
        <ele>1785</ele>
        <time>2017-06-07T08:37:45Z</time>
      </trkpt>
      <trkpt lat="44.11757" lon="6.95994">
        <ele>1785</ele>
        <time>2017-06-07T08:38:01Z</time>
      </trkpt>
      <trkpt lat="44.11762" lon="6.95993">
        <ele>1785</ele>
        <time>2017-06-07T08:38:01Z</time>
      </trkpt>
      <trkpt lat="44.11769" lon="6.95992">
        <ele>1779</ele>
        <time>2017-06-07T08:38:01Z</time>
      </trkpt>
      <trkpt lat="44.11771" lon="6.95991">
        <ele>1779</ele>
        <time>2017-06-07T08:38:01Z</time>
      </trkpt>
      <trkpt lat="44.11774" lon="6.9599">
        <ele>1779</ele>
        <time>2017-06-07T08:38:15Z</time>
      </trkpt>
      <trkpt lat="44.11779" lon="6.95988">
        <ele>1779</ele>
        <time>2017-06-07T08:38:15Z</time>
      </trkpt>
      <trkpt lat="44.11784" lon="6.95987">
        <ele>1779</ele>
        <time>2017-06-07T08:38:15Z</time>
      </trkpt>
      <trkpt lat="44.11789" lon="6.95984">
        <ele>1787</ele>
        <time>2017-06-07T08:38:15Z</time>
      </trkpt>
      <trkpt lat="44.11794" lon="6.95984">
        <ele>1783</ele>
        <time>2017-06-07T08:38:31Z</time>
      </trkpt>
      <trkpt lat="44.11795" lon="6.95983">
        <ele>1783</ele>
        <time>2017-06-07T08:38:31Z</time>
      </trkpt>
      <trkpt lat="44.118" lon="6.95981">
        <ele>1783</ele>
        <time>2017-06-07T08:38:31Z</time>
      </trkpt>
      <trkpt lat="44.11803" lon="6.95979">
        <ele>1783</ele>
        <time>2017-06-07T08:38:31Z</time>
      </trkpt>
      <trkpt lat="44.11808" lon="6.95977">
        <ele>1783</ele>
        <time>2017-06-07T08:38:49Z</time>
      </trkpt>
      <trkpt lat="44.11811" lon="6.95977">
        <ele>1783</ele>
        <time>2017-06-07T08:38:49Z</time>
      </trkpt>
      <trkpt lat="44.11815" lon="6.95976">
        <ele>1783</ele>
        <time>2017-06-07T08:38:49Z</time>
      </trkpt>
      <trkpt lat="44.11822" lon="6.95977">
        <ele>1785</ele>
        <time>2017-06-07T08:38:49Z</time>
      </trkpt>
      <trkpt lat="44.11826" lon="6.95977">
        <ele>1785</ele>
        <time>2017-06-07T08:39:05Z</time>
      </trkpt>
      <trkpt lat="44.11828" lon="6.95978">
        <ele>1785</ele>
        <time>2017-06-07T08:39:05Z</time>
      </trkpt>
      <trkpt lat="44.11834" lon="6.95979">
        <ele>1785</ele>
        <time>2017-06-07T08:39:05Z</time>
      </trkpt>
      <trkpt lat="44.11843" lon="6.95976">
        <ele>1785</ele>
        <time>2017-06-07T08:39:05Z</time>
      </trkpt>
      <trkpt lat="44.11851" lon="6.95979">
        <ele>1790</ele>
        <time>2017-06-07T08:42:01Z</time>
      </trkpt>
      <trkpt lat="44.11856" lon="6.9598">
        <ele>1790</ele>
        <time>2017-06-07T08:42:01Z</time>
      </trkpt>
      <trkpt lat="44.11857" lon="6.95979">
        <ele>1790</ele>
        <time>2017-06-07T08:42:01Z</time>
      </trkpt>
      <trkpt lat="44.1186" lon="6.95979">
        <ele>1790</ele>
        <time>2017-06-07T08:42:01Z</time>
      </trkpt>
      <trkpt lat="44.11864" lon="6.9598">
        <ele>1790</ele>
        <time>2017-06-07T08:42:01Z</time>
      </trkpt>
      <trkpt lat="44.11868" lon="6.95979">
        <ele>1790</ele>
        <time>2017-06-07T08:42:17Z</time>
      </trkpt>
      <trkpt lat="44.11873" lon="6.9598">
        <ele>1790</ele>
        <time>2017-06-07T08:42:17Z</time>
      </trkpt>
      <trkpt lat="44.11875" lon="6.9598">
        <ele>1794</ele>
        <time>2017-06-07T08:42:17Z</time>
      </trkpt>
      <trkpt lat="44.1188" lon="6.9598">
        <ele>1794</ele>
        <time>2017-06-07T08:42:17Z</time>
      </trkpt>
      <trkpt lat="44.11884" lon="6.95981">
        <ele>1794</ele>
        <time>2017-06-07T08:42:33Z</time>
      </trkpt>
      <trkpt lat="44.11888" lon="6.95981">
        <ele>1794</ele>
        <time>2017-06-07T08:42:33Z</time>
      </trkpt>
      <trkpt lat="44.11892" lon="6.95983">
        <ele>1794</ele>
        <time>2017-06-07T08:42:33Z</time>
      </trkpt>
      <trkpt lat="44.11896" lon="6.95985">
        <ele>1794</ele>
        <time>2017-06-07T08:42:34Z</time>
      </trkpt>
      <trkpt lat="44.11898" lon="6.95987">
        <ele>1789</ele>
        <time>2017-06-07T08:42:49Z</time>
      </trkpt>
      <trkpt lat="44.11904" lon="6.9599">
        <ele>1793</ele>
        <time>2017-06-07T08:42:49Z</time>
      </trkpt>
      <trkpt lat="44.11908" lon="6.95992">
        <ele>1793</ele>
        <time>2017-06-07T08:42:49Z</time>
      </trkpt>
      <trkpt lat="44.11915" lon="6.95996">
        <ele>1793</ele>
        <time>2017-06-07T08:42:49Z</time>
      </trkpt>
      <trkpt lat="44.11918" lon="6.95995">
        <ele>1793</ele>
        <time>2017-06-07T08:43:03Z</time>
      </trkpt>
      <trkpt lat="44.11921" lon="6.95998">
        <ele>1793</ele>
        <time>2017-06-07T08:43:03Z</time>
      </trkpt>
      <trkpt lat="44.11926" lon="6.96001">
        <ele>1793</ele>
        <time>2017-06-07T08:43:03Z</time>
      </trkpt>
      <trkpt lat="44.11929" lon="6.96002">
        <ele>1793</ele>
        <time>2017-06-07T08:43:03Z</time>
      </trkpt>
      <trkpt lat="44.11933" lon="6.96005">
        <ele>1795</ele>
        <time>2017-06-07T08:43:20Z</time>
      </trkpt>
      <trkpt lat="44.11937" lon="6.96008">
        <ele>1795</ele>
        <time>2017-06-07T08:43:20Z</time>
      </trkpt>
      <trkpt lat="44.11941" lon="6.96009">
        <ele>1795</ele>
        <time>2017-06-07T08:43:21Z</time>
      </trkpt>
      <trkpt lat="44.11944" lon="6.96013">
        <ele>1795</ele>
        <time>2017-06-07T08:43:21Z</time>
      </trkpt>
      <trkpt lat="44.11946" lon="6.96015">
        <ele>1793</ele>
        <time>2017-06-07T08:43:36Z</time>
      </trkpt>
      <trkpt lat="44.11947" lon="6.96019">
        <ele>1793</ele>
        <time>2017-06-07T08:43:36Z</time>
      </trkpt>
      <trkpt lat="44.1195" lon="6.96021">
        <ele>1793</ele>
        <time>2017-06-07T08:43:36Z</time>
      </trkpt>
      <trkpt lat="44.11951" lon="6.96025">
        <ele>1793</ele>
        <time>2017-06-07T08:43:36Z</time>
      </trkpt>
      <trkpt lat="44.11953" lon="6.96031">
        <ele>1793</ele>
        <time>2017-06-07T08:43:53Z</time>
      </trkpt>
      <trkpt lat="44.11954" lon="6.96033">
        <ele>1793</ele>
        <time>2017-06-07T08:43:53Z</time>
      </trkpt>
      <trkpt lat="44.11955" lon="6.96038">
        <ele>1793</ele>
        <time>2017-06-07T08:43:53Z</time>
      </trkpt>
      <trkpt lat="44.11958" lon="6.96042">
        <ele>1791</ele>
        <time>2017-06-07T08:43:54Z</time>
      </trkpt>
      <trkpt lat="44.11959" lon="6.96045">
        <ele>1794</ele>
        <time>2017-06-07T08:44:07Z</time>
      </trkpt>
      <trkpt lat="44.11963" lon="6.96051">
        <ele>1794</ele>
        <time>2017-06-07T08:44:08Z</time>
      </trkpt>
      <trkpt lat="44.11965" lon="6.96054">
        <ele>1794</ele>
        <time>2017-06-07T08:44:08Z</time>
      </trkpt>
      <trkpt lat="44.11967" lon="6.9606">
        <ele>1794</ele>
        <time>2017-06-07T08:44:08Z</time>
      </trkpt>
      <trkpt lat="44.11973" lon="6.96069">
        <ele>1794</ele>
        <time>2017-06-07T08:44:52Z</time>
      </trkpt>
      <trkpt lat="44.11974" lon="6.96068">
        <ele>1794</ele>
        <time>2017-06-07T08:44:52Z</time>
      </trkpt>
      <trkpt lat="44.11974" lon="6.9607">
        <ele>1793</ele>
        <time>2017-06-07T08:44:52Z</time>
      </trkpt>
      <trkpt lat="44.11974" lon="6.96071">
        <ele>1793</ele>
        <time>2017-06-07T08:44:52Z</time>
      </trkpt>
      <trkpt lat="44.11974" lon="6.96071">
        <ele>1793</ele>
        <time>2017-06-07T08:44:53Z</time>
      </trkpt>
      <trkpt lat="44.11979" lon="6.96074">
        <ele>1793</ele>
        <time>2017-06-07T08:46:24Z</time>
      </trkpt>
      <trkpt lat="44.11981" lon="6.96075">
        <ele>1793</ele>
        <time>2017-06-07T08:46:24Z</time>
      </trkpt>
      <trkpt lat="44.11982" lon="6.96074">
        <ele>1793</ele>
        <time>2017-06-07T08:46:25Z</time>
      </trkpt>
      <trkpt lat="44.11983" lon="6.96074">
        <ele>1793</ele>
        <time>2017-06-07T08:46:26Z</time>
      </trkpt>
      <trkpt lat="44.11985" lon="6.96074">
        <ele>1793</ele>
        <time>2017-06-07T08:46:26Z</time>
      </trkpt>
      <trkpt lat="44.11992" lon="6.96073">
        <ele>1797</ele>
        <time>2017-06-07T08:46:57Z</time>
      </trkpt>
      <trkpt lat="44.11992" lon="6.96073">
        <ele>1797</ele>
        <time>2017-06-07T08:46:57Z</time>
      </trkpt>
      <trkpt lat="44.11993" lon="6.96072">
        <ele>1797</ele>
        <time>2017-06-07T08:46:57Z</time>
      </trkpt>
      <trkpt lat="44.11994" lon="6.96073">
        <ele>1797</ele>
        <time>2017-06-07T08:46:57Z</time>
      </trkpt>
      <trkpt lat="44.11998" lon="6.96073">
        <ele>1797</ele>
        <time>2017-06-07T08:46:57Z</time>
      </trkpt>
      <trkpt lat="44.12001" lon="6.96076">
        <ele>1797</ele>
        <time>2017-06-07T08:47:12Z</time>
      </trkpt>
      <trkpt lat="44.12003" lon="6.96077">
        <ele>1797</ele>
        <time>2017-06-07T08:47:12Z</time>
      </trkpt>
      <trkpt lat="44.12008" lon="6.96077">
        <ele>1797</ele>
        <time>2017-06-07T08:47:12Z</time>
      </trkpt>
      <trkpt lat="44.12012" lon="6.96078">
        <ele>1797</ele>
        <time>2017-06-07T08:47:13Z</time>
      </trkpt>
      <trkpt lat="44.12017" lon="6.96081">
        <ele>1802</ele>
        <time>2017-06-07T08:47:32Z</time>
      </trkpt>
      <trkpt lat="44.12021" lon="6.96083">
        <ele>1802</ele>
        <time>2017-06-07T08:47:32Z</time>
      </trkpt>
      <trkpt lat="44.12025" lon="6.96084">
        <ele>1802</ele>
        <time>2017-06-07T08:47:33Z</time>
      </trkpt>
      <trkpt lat="44.12025" lon="6.96084">
        <ele>1802</ele>
        <time>2017-06-07T08:47:33Z</time>
      </trkpt>
      <trkpt lat="44.12029" lon="6.96087">
        <ele>1802</ele>
        <time>2017-06-07T08:47:33Z</time>
      </trkpt>
      <trkpt lat="44.12031" lon="6.96089">
        <ele>1802</ele>
        <time>2017-06-07T08:47:48Z</time>
      </trkpt>
      <trkpt lat="44.12034" lon="6.96088">
        <ele>1802</ele>
        <time>2017-06-07T08:47:48Z</time>
      </trkpt>
      <trkpt lat="44.12038" lon="6.96091">
        <ele>1802</ele>
        <time>2017-06-07T08:47:48Z</time>
      </trkpt>
      <trkpt lat="44.1204" lon="6.96092">
        <ele>1802</ele>
        <time>2017-06-07T08:47:48Z</time>
      </trkpt>
      <trkpt lat="44.12043" lon="6.96093">
        <ele>1806</ele>
        <time>2017-06-07T08:48:05Z</time>
      </trkpt>
      <trkpt lat="44.12048" lon="6.96095">
        <ele>1806</ele>
        <time>2017-06-07T08:48:05Z</time>
      </trkpt>
      <trkpt lat="44.12053" lon="6.96097">
        <ele>1806</ele>
        <time>2017-06-07T08:48:05Z</time>
      </trkpt>
      <trkpt lat="44.12054" lon="6.96098">
        <ele>1807</ele>
        <time>2017-06-07T08:48:05Z</time>
      </trkpt>
      <trkpt lat="44.12056" lon="6.96098">
        <ele>1807</ele>
        <time>2017-06-07T08:48:24Z</time>
      </trkpt>
      <trkpt lat="44.12056" lon="6.961">
        <ele>1807</ele>
        <time>2017-06-07T08:48:24Z</time>
      </trkpt>
      <trkpt lat="44.12059" lon="6.96101">
        <ele>1807</ele>
        <time>2017-06-07T08:48:24Z</time>
      </trkpt>
      <trkpt lat="44.12063" lon="6.96102">
        <ele>1807</ele>
        <time>2017-06-07T08:48:24Z</time>
      </trkpt>
      <trkpt lat="44.12065" lon="6.96103">
        <ele>1807</ele>
        <time>2017-06-07T08:48:24Z</time>
      </trkpt>
      <trkpt lat="44.12069" lon="6.96103">
        <ele>1807</ele>
        <time>2017-06-07T08:48:44Z</time>
      </trkpt>
      <trkpt lat="44.1207" lon="6.96104">
        <ele>1811</ele>
        <time>2017-06-07T08:48:44Z</time>
      </trkpt>
      <trkpt lat="44.1207" lon="6.96103">
        <ele>1811</ele>
        <time>2017-06-07T08:48:45Z</time>
      </trkpt>
      <trkpt lat="44.12074" lon="6.96105">
        <ele>1811</ele>
        <time>2017-06-07T08:48:45Z</time>
      </trkpt>
      <trkpt lat="44.12078" lon="6.96108">
        <ele>1811</ele>
        <time>2017-06-07T08:48:45Z</time>
      </trkpt>
      <trkpt lat="44.12079" lon="6.9611">
        <ele>1811</ele>
        <time>2017-06-07T08:49:05Z</time>
      </trkpt>
      <trkpt lat="44.12082" lon="6.9611">
        <ele>1811</ele>
        <time>2017-06-07T08:49:05Z</time>
      </trkpt>
      <trkpt lat="44.12083" lon="6.96111">
        <ele>1811</ele>
        <time>2017-06-07T08:49:05Z</time>
      </trkpt>
      <trkpt lat="44.12086" lon="6.96112">
        <ele>1811</ele>
        <time>2017-06-07T08:49:06Z</time>
      </trkpt>
      <trkpt lat="44.12089" lon="6.96114">
        <ele>1811</ele>
        <time>2017-06-07T08:49:06Z</time>
      </trkpt>
      <trkpt lat="44.1209" lon="6.96115">
        <ele>1811</ele>
        <time>2017-06-07T08:49:24Z</time>
      </trkpt>
      <trkpt lat="44.12095" lon="6.96116">
        <ele>1811</ele>
        <time>2017-06-07T08:49:24Z</time>
      </trkpt>
      <trkpt lat="44.12096" lon="6.96117">
        <ele>1811</ele>
        <time>2017-06-07T08:49:24Z</time>
      </trkpt>
      <trkpt lat="44.12098" lon="6.96117">
        <ele>1815</ele>
        <time>2017-06-07T08:49:24Z</time>
      </trkpt>
      <trkpt lat="44.12102" lon="6.96118">
        <ele>1815</ele>
        <time>2017-06-07T08:49:24Z</time>
      </trkpt>
      <trkpt lat="44.12106" lon="6.96121">
        <ele>1815</ele>
        <time>2017-06-07T08:49:48Z</time>
      </trkpt>
      <trkpt lat="44.12109" lon="6.96119">
        <ele>1815</ele>
        <time>2017-06-07T08:49:48Z</time>
      </trkpt>
      <trkpt lat="44.12112" lon="6.9612">
        <ele>1815</ele>
        <time>2017-06-07T08:49:48Z</time>
      </trkpt>
      <trkpt lat="44.12113" lon="6.9612">
        <ele>1815</ele>
        <time>2017-06-07T08:49:49Z</time>
      </trkpt>
      <trkpt lat="44.12114" lon="6.9612">
        <ele>1815</ele>
        <time>2017-06-07T08:49:49Z</time>
      </trkpt>
      <trkpt lat="44.1212" lon="6.96123">
        <ele>1815</ele>
        <time>2017-06-07T08:50:09Z</time>
      </trkpt>
      <trkpt lat="44.12122" lon="6.96124">
        <ele>1815</ele>
        <time>2017-06-07T08:50:09Z</time>
      </trkpt>
      <trkpt lat="44.12125" lon="6.96126">
        <ele>1824</ele>
        <time>2017-06-07T08:50:09Z</time>
      </trkpt>
      <trkpt lat="44.12127" lon="6.96128">
        <ele>1824</ele>
        <time>2017-06-07T08:50:09Z</time>
      </trkpt>
      <trkpt lat="44.12129" lon="6.9613">
        <ele>1824</ele>
        <time>2017-06-07T08:50:09Z</time>
      </trkpt>
      <trkpt lat="44.12131" lon="6.96131">
        <ele>1824</ele>
        <time>2017-06-07T08:50:25Z</time>
      </trkpt>
      <trkpt lat="44.12133" lon="6.96133">
        <ele>1824</ele>
        <time>2017-06-07T08:50:25Z</time>
      </trkpt>
      <trkpt lat="44.12136" lon="6.96135">
        <ele>1824</ele>
        <time>2017-06-07T08:50:26Z</time>
      </trkpt>
      <trkpt lat="44.12142" lon="6.96139">
        <ele>1824</ele>
        <time>2017-06-07T08:50:26Z</time>
      </trkpt>
      <trkpt lat="44.12142" lon="6.96142">
        <ele>1824</ele>
        <time>2017-06-07T08:50:41Z</time>
      </trkpt>
      <trkpt lat="44.12145" lon="6.96148">
        <ele>1824</ele>
        <time>2017-06-07T08:50:41Z</time>
      </trkpt>
      <trkpt lat="44.12145" lon="6.9615">
        <ele>1824</ele>
        <time>2017-06-07T08:50:41Z</time>
      </trkpt>
      <trkpt lat="44.12148" lon="6.96155">
        <ele>1828</ele>
        <time>2017-06-07T08:50:41Z</time>
      </trkpt>
      <trkpt lat="44.12151" lon="6.96159">
        <ele>1828</ele>
        <time>2017-06-07T08:50:57Z</time>
      </trkpt>
      <trkpt lat="44.12155" lon="6.96161">
        <ele>1832</ele>
        <time>2017-06-07T08:50:57Z</time>
      </trkpt>
      <trkpt lat="44.12156" lon="6.96165">
        <ele>1832</ele>
        <time>2017-06-07T08:50:57Z</time>
      </trkpt>
      <trkpt lat="44.12157" lon="6.9617">
        <ele>1832</ele>
        <time>2017-06-07T08:50:58Z</time>
      </trkpt>
      <trkpt lat="44.12157" lon="6.96172">
        <ele>1832</ele>
        <time>2017-06-07T08:51:12Z</time>
      </trkpt>
      <trkpt lat="44.12157" lon="6.96177">
        <ele>1832</ele>
        <time>2017-06-07T08:51:12Z</time>
      </trkpt>
      <trkpt lat="44.12157" lon="6.96185">
        <ele>1837</ele>
        <time>2017-06-07T08:51:12Z</time>
      </trkpt>
      <trkpt lat="44.12156" lon="6.96186">
        <ele>1837</ele>
        <time>2017-06-07T08:51:12Z</time>
      </trkpt>
      <trkpt lat="44.12156" lon="6.96189">
        <ele>1837</ele>
        <time>2017-06-07T08:51:28Z</time>
      </trkpt>
      <trkpt lat="44.12157" lon="6.96193">
        <ele>1837</ele>
        <time>2017-06-07T08:51:28Z</time>
      </trkpt>
      <trkpt lat="44.12156" lon="6.96201">
        <ele>1837</ele>
        <time>2017-06-07T08:51:29Z</time>
      </trkpt>
      <trkpt lat="44.12156" lon="6.96205">
        <ele>1837</ele>
        <time>2017-06-07T08:51:29Z</time>
      </trkpt>
      <trkpt lat="44.12155" lon="6.96207">
        <ele>1837</ele>
        <time>2017-06-07T08:51:48Z</time>
      </trkpt>
      <trkpt lat="44.12155" lon="6.9621">
        <ele>1840</ele>
        <time>2017-06-07T08:51:48Z</time>
      </trkpt>
      <trkpt lat="44.12156" lon="6.9621">
        <ele>1840</ele>
        <time>2017-06-07T08:51:48Z</time>
      </trkpt>
      <trkpt lat="44.12159" lon="6.96214">
        <ele>1840</ele>
        <time>2017-06-07T08:51:48Z</time>
      </trkpt>
      <trkpt lat="44.12158" lon="6.9622">
        <ele>1840</ele>
        <time>2017-06-07T08:51:49Z</time>
      </trkpt>
      <trkpt lat="44.12158" lon="6.96223">
        <ele>1840</ele>
        <time>2017-06-07T08:52:04Z</time>
      </trkpt>
      <trkpt lat="44.12157" lon="6.9623">
        <ele>1840</ele>
        <time>2017-06-07T08:52:04Z</time>
      </trkpt>
      <trkpt lat="44.12157" lon="6.96234">
        <ele>1840</ele>
        <time>2017-06-07T08:52:04Z</time>
      </trkpt>
      <trkpt lat="44.12158" lon="6.96239">
        <ele>1842</ele>
        <time>2017-06-07T08:52:04Z</time>
      </trkpt>
      <trkpt lat="44.12162" lon="6.96245">
        <ele>1842</ele>
        <time>2017-06-07T08:52:31Z</time>
      </trkpt>
      <trkpt lat="44.12162" lon="6.96245">
        <ele>1842</ele>
        <time>2017-06-07T08:52:31Z</time>
      </trkpt>
      <trkpt lat="44.12163" lon="6.96249">
        <ele>1842</ele>
        <time>2017-06-07T08:52:31Z</time>
      </trkpt>
      <trkpt lat="44.12162" lon="6.96252">
        <ele>1842</ele>
        <time>2017-06-07T08:52:31Z</time>
      </trkpt>
      <trkpt lat="44.12163" lon="6.96252">
        <ele>1842</ele>
        <time>2017-06-07T08:52:32Z</time>
      </trkpt>
      <trkpt lat="44.12162" lon="6.96253">
        <ele>1842</ele>
        <time>2017-06-07T08:52:52Z</time>
      </trkpt>
      <trkpt lat="44.12163" lon="6.96254">
        <ele>1842</ele>
        <time>2017-06-07T08:52:52Z</time>
      </trkpt>
      <trkpt lat="44.12163" lon="6.96258">
        <ele>1842</ele>
        <time>2017-06-07T08:52:52Z</time>
      </trkpt>
      <trkpt lat="44.12164" lon="6.96263">
        <ele>1842</ele>
        <time>2017-06-07T08:52:52Z</time>
      </trkpt>
      <trkpt lat="44.12163" lon="6.96267">
        <ele>1843</ele>
        <time>2017-06-07T08:52:52Z</time>
      </trkpt>
      <trkpt lat="44.12164" lon="6.96273">
        <ele>1843</ele>
        <time>2017-06-07T08:53:08Z</time>
      </trkpt>
      <trkpt lat="44.12164" lon="6.96278">
        <ele>1843</ele>
        <time>2017-06-07T08:53:08Z</time>
      </trkpt>
      <trkpt lat="44.12165" lon="6.96285">
        <ele>1843</ele>
        <time>2017-06-07T08:53:08Z</time>
      </trkpt>
      <trkpt lat="44.12165" lon="6.96289">
        <ele>1843</ele>
        <time>2017-06-07T08:53:08Z</time>
      </trkpt>
      <trkpt lat="44.12164" lon="6.96295">
        <ele>1845</ele>
        <time>2017-06-07T08:53:28Z</time>
      </trkpt>
      <trkpt lat="44.12164" lon="6.96299">
        <ele>1845</ele>
        <time>2017-06-07T08:53:28Z</time>
      </trkpt>
      <trkpt lat="44.12164" lon="6.96305">
        <ele>1845</ele>
        <time>2017-06-07T08:53:28Z</time>
      </trkpt>
      <trkpt lat="44.12165" lon="6.96307">
        <ele>1845</ele>
        <time>2017-06-07T08:53:28Z</time>
      </trkpt>
      <trkpt lat="44.12165" lon="6.96311">
        <ele>1845</ele>
        <time>2017-06-07T08:53:28Z</time>
      </trkpt>
      <trkpt lat="44.12166" lon="6.96316">
        <ele>1845</ele>
        <time>2017-06-07T08:53:49Z</time>
      </trkpt>
      <trkpt lat="44.12166" lon="6.96318">
        <ele>1845</ele>
        <time>2017-06-07T08:53:49Z</time>
      </trkpt>
      <trkpt lat="44.12166" lon="6.96323">
        <ele>1847</ele>
        <time>2017-06-07T08:53:49Z</time>
      </trkpt>
      <trkpt lat="44.12167" lon="6.96328">
        <ele>1847</ele>
        <time>2017-06-07T08:53:49Z</time>
      </trkpt>
      <trkpt lat="44.12167" lon="6.96332">
        <ele>1847</ele>
        <time>2017-06-07T08:53:49Z</time>
      </trkpt>
      <trkpt lat="44.12167" lon="6.96336">
        <ele>1847</ele>
        <time>2017-06-07T08:54:05Z</time>
      </trkpt>
      <trkpt lat="44.12169" lon="6.96341">
        <ele>1847</ele>
        <time>2017-06-07T08:54:05Z</time>
      </trkpt>
      <trkpt lat="44.1217" lon="6.96344">
        <ele>1847</ele>
        <time>2017-06-07T08:54:05Z</time>
      </trkpt>
      <trkpt lat="44.12171" lon="6.9635">
        <ele>1847</ele>
        <time>2017-06-07T08:54:05Z</time>
      </trkpt>
      <trkpt lat="44.12171" lon="6.96353">
        <ele>1847</ele>
        <time>2017-06-07T08:54:19Z</time>
      </trkpt>
      <trkpt lat="44.12174" lon="6.96359">
        <ele>1847</ele>
        <time>2017-06-07T08:54:19Z</time>
      </trkpt>
      <trkpt lat="44.12175" lon="6.96363">
        <ele>1847</ele>
        <time>2017-06-07T08:54:19Z</time>
      </trkpt>
      <trkpt lat="44.12176" lon="6.96365">
        <ele>1847</ele>
        <time>2017-06-07T08:54:19Z</time>
      </trkpt>
      <trkpt lat="44.12177" lon="6.96369">
        <ele>1847</ele>
        <time>2017-06-07T08:54:36Z</time>
      </trkpt>
      <trkpt lat="44.12179" lon="6.96374">
        <ele>1847</ele>
        <time>2017-06-07T08:54:36Z</time>
      </trkpt>
      <trkpt lat="44.12181" lon="6.96378">
        <ele>1862</ele>
        <time>2017-06-07T08:54:37Z</time>
      </trkpt>
      <trkpt lat="44.12181" lon="6.9638">
        <ele>1862</ele>
        <time>2017-06-07T08:54:37Z</time>
      </trkpt>
      <trkpt lat="44.12183" lon="6.96382">
        <ele>1862</ele>
        <time>2017-06-07T08:54:53Z</time>
      </trkpt>
      <trkpt lat="44.12184" lon="6.96389">
        <ele>1862</ele>
        <time>2017-06-07T08:54:53Z</time>
      </trkpt>
      <trkpt lat="44.12186" lon="6.96392">
        <ele>1862</ele>
        <time>2017-06-07T08:54:53Z</time>
      </trkpt>
      <trkpt lat="44.12187" lon="6.96397">
        <ele>1862</ele>
        <time>2017-06-07T08:54:53Z</time>
      </trkpt>
      <trkpt lat="44.12186" lon="6.96403">
        <ele>1860</ele>
        <time>2017-06-07T08:55:09Z</time>
      </trkpt>
      <trkpt lat="44.12188" lon="6.96411">
        <ele>1860</ele>
        <time>2017-06-07T08:55:09Z</time>
      </trkpt>
      <trkpt lat="44.12188" lon="6.96412">
        <ele>1860</ele>
        <time>2017-06-07T08:55:09Z</time>
      </trkpt>
      <trkpt lat="44.12189" lon="6.9642">
        <ele>1860</ele>
        <time>2017-06-07T08:55:09Z</time>
      </trkpt>
      <trkpt lat="44.12189" lon="6.96425">
        <ele>1860</ele>
        <time>2017-06-07T08:55:24Z</time>
      </trkpt>
      <trkpt lat="44.12193" lon="6.9643">
        <ele>1860</ele>
        <time>2017-06-07T08:55:24Z</time>
      </trkpt>
      <trkpt lat="44.12194" lon="6.96431">
        <ele>1856</ele>
        <time>2017-06-07T08:55:24Z</time>
      </trkpt>
      <trkpt lat="44.12198" lon="6.96436">
        <ele>1856</ele>
        <time>2017-06-07T08:55:24Z</time>
      </trkpt>
      <trkpt lat="44.122" lon="6.96438">
        <ele>1856</ele>
        <time>2017-06-07T08:55:45Z</time>
      </trkpt>
      <trkpt lat="44.12201" lon="6.96442">
        <ele>1856</ele>
        <time>2017-06-07T08:55:45Z</time>
      </trkpt>
      <trkpt lat="44.12202" lon="6.96446">
        <ele>1856</ele>
        <time>2017-06-07T08:55:45Z</time>
      </trkpt>
      <trkpt lat="44.12205" lon="6.96449">
        <ele>1856</ele>
        <time>2017-06-07T08:55:45Z</time>
      </trkpt>
      <trkpt lat="44.12204" lon="6.96454">
        <ele>1856</ele>
        <time>2017-06-07T08:55:45Z</time>
      </trkpt>
      <trkpt lat="44.12206" lon="6.96452">
        <ele>1856</ele>
        <time>2017-06-07T08:56:07Z</time>
      </trkpt>
      <trkpt lat="44.12207" lon="6.96453">
        <ele>1856</ele>
        <time>2017-06-07T08:56:07Z</time>
      </trkpt>
      <trkpt lat="44.12209" lon="6.96457">
        <ele>1867</ele>
        <time>2017-06-07T08:56:07Z</time>
      </trkpt>
      <trkpt lat="44.12211" lon="6.96461">
        <ele>1858</ele>
        <time>2017-06-07T08:56:07Z</time>
      </trkpt>
      <trkpt lat="44.12212" lon="6.96465">
        <ele>1858</ele>
        <time>2017-06-07T08:56:07Z</time>
      </trkpt>
      <trkpt lat="44.12216" lon="6.96469">
        <ele>1858</ele>
        <time>2017-06-07T08:56:28Z</time>
      </trkpt>
      <trkpt lat="44.1222" lon="6.96468">
        <ele>1858</ele>
        <time>2017-06-07T08:56:28Z</time>
      </trkpt>
      <trkpt lat="44.1222" lon="6.96472">
        <ele>1858</ele>
        <time>2017-06-07T08:56:28Z</time>
      </trkpt>
      <trkpt lat="44.12223" lon="6.96475">
        <ele>1858</ele>
        <time>2017-06-07T08:56:28Z</time>
      </trkpt>
      <trkpt lat="44.12228" lon="6.96476">
        <ele>1858</ele>
        <time>2017-06-07T08:56:29Z</time>
      </trkpt>
      <trkpt lat="44.1223" lon="6.96478">
        <ele>1858</ele>
        <time>2017-06-07T08:56:44Z</time>
      </trkpt>
      <trkpt lat="44.12238" lon="6.96479">
        <ele>1866</ele>
        <time>2017-06-07T08:56:44Z</time>
      </trkpt>
      <trkpt lat="44.12243" lon="6.9648">
        <ele>1866</ele>
        <time>2017-06-07T08:56:44Z</time>
      </trkpt>
      <trkpt lat="44.12246" lon="6.96483">
        <ele>1866</ele>
        <time>2017-06-07T08:56:45Z</time>
      </trkpt>
      <trkpt lat="44.12249" lon="6.96485">
        <ele>1866</ele>
        <time>2017-06-07T08:57:01Z</time>
      </trkpt>
      <trkpt lat="44.12254" lon="6.96487">
        <ele>1858</ele>
        <time>2017-06-07T08:57:01Z</time>
      </trkpt>
      <trkpt lat="44.12255" lon="6.96487">
        <ele>1858</ele>
        <time>2017-06-07T08:57:01Z</time>
      </trkpt>
      <trkpt lat="44.12261" lon="6.96489">
        <ele>1858</ele>
        <time>2017-06-07T08:57:01Z</time>
      </trkpt>
      <trkpt lat="44.12264" lon="6.9649">
        <ele>1858</ele>
        <time>2017-06-07T08:57:15Z</time>
      </trkpt>
      <trkpt lat="44.12268" lon="6.96491">
        <ele>1868</ele>
        <time>2017-06-07T08:57:15Z</time>
      </trkpt>
      <trkpt lat="44.12272" lon="6.96492">
        <ele>1868</ele>
        <time>2017-06-07T08:57:15Z</time>
      </trkpt>
      <trkpt lat="44.12277" lon="6.96493">
        <ele>1868</ele>
        <time>2017-06-07T08:57:15Z</time>
      </trkpt>
      <trkpt lat="44.12281" lon="6.96495">
        <ele>1868</ele>
        <time>2017-06-07T08:57:33Z</time>
      </trkpt>
      <trkpt lat="44.12285" lon="6.96499">
        <ele>1868</ele>
        <time>2017-06-07T08:57:33Z</time>
      </trkpt>
      <trkpt lat="44.12288" lon="6.965">
        <ele>1868</ele>
        <time>2017-06-07T08:57:33Z</time>
      </trkpt>
      <trkpt lat="44.12293" lon="6.96504">
        <ele>1875</ele>
        <time>2017-06-07T08:57:33Z</time>
      </trkpt>
      <trkpt lat="44.12296" lon="6.96508">
        <ele>1875</ele>
        <time>2017-06-07T08:57:49Z</time>
      </trkpt>
      <trkpt lat="44.12301" lon="6.96511">
        <ele>1875</ele>
        <time>2017-06-07T08:57:49Z</time>
      </trkpt>
      <trkpt lat="44.12305" lon="6.96512">
        <ele>1875</ele>
        <time>2017-06-07T08:57:49Z</time>
      </trkpt>
      <trkpt lat="44.12308" lon="6.96516">
        <ele>1868</ele>
        <time>2017-06-07T08:57:49Z</time>
      </trkpt>
      <trkpt lat="44.12313" lon="6.96519">
        <ele>1868</ele>
        <time>2017-06-07T08:58:03Z</time>
      </trkpt>
      <trkpt lat="44.12318" lon="6.96522">
        <ele>1868</ele>
        <time>2017-06-07T08:58:03Z</time>
      </trkpt>
      <trkpt lat="44.12323" lon="6.96521">
        <ele>1876</ele>
        <time>2017-06-07T08:58:03Z</time>
      </trkpt>
      <trkpt lat="44.12324" lon="6.96523">
        <ele>1876</ele>
        <time>2017-06-07T08:58:03Z</time>
      </trkpt>
      <trkpt lat="44.12329" lon="6.96524">
        <ele>1876</ele>
        <time>2017-06-07T08:58:20Z</time>
      </trkpt>
      <trkpt lat="44.1233" lon="6.96526">
        <ele>1876</ele>
        <time>2017-06-07T08:58:20Z</time>
      </trkpt>
      <trkpt lat="44.12334" lon="6.96529">
        <ele>1876</ele>
        <time>2017-06-07T08:58:21Z</time>
      </trkpt>
      <trkpt lat="44.12337" lon="6.9653">
        <ele>1876</ele>
        <time>2017-06-07T08:58:22Z</time>
      </trkpt>
      <trkpt lat="44.12339" lon="6.96531">
        <ele>1876</ele>
        <time>2017-06-07T08:58:37Z</time>
      </trkpt>
      <trkpt lat="44.12343" lon="6.96537">
        <ele>1876</ele>
        <time>2017-06-07T08:58:37Z</time>
      </trkpt>
      <trkpt lat="44.12345" lon="6.96541">
        <ele>1876</ele>
        <time>2017-06-07T08:58:37Z</time>
      </trkpt>
      <trkpt lat="44.12345" lon="6.96545">
        <ele>1870</ele>
        <time>2017-06-07T08:58:37Z</time>
      </trkpt>
      <trkpt lat="44.12347" lon="6.96546">
        <ele>1870</ele>
        <time>2017-06-07T08:58:53Z</time>
      </trkpt>
      <trkpt lat="44.12349" lon="6.9655">
        <ele>1880</ele>
        <time>2017-06-07T08:58:53Z</time>
      </trkpt>
      <trkpt lat="44.1235" lon="6.96554">
        <ele>1880</ele>
        <time>2017-06-07T08:58:54Z</time>
      </trkpt>
      <trkpt lat="44.12352" lon="6.96558">
        <ele>1880</ele>
        <time>2017-06-07T08:58:54Z</time>
      </trkpt>
      <trkpt lat="44.12355" lon="6.96559">
        <ele>1880</ele>
        <time>2017-06-07T08:59:09Z</time>
      </trkpt>
      <trkpt lat="44.12357" lon="6.96564">
        <ele>1880</ele>
        <time>2017-06-07T08:59:09Z</time>
      </trkpt>
      <trkpt lat="44.12361" lon="6.96565">
        <ele>1880</ele>
        <time>2017-06-07T08:59:09Z</time>
      </trkpt>
      <trkpt lat="44.12365" lon="6.96568">
        <ele>1880</ele>
        <time>2017-06-07T08:59:09Z</time>
      </trkpt>
      <trkpt lat="44.12368" lon="6.96572">
        <ele>1876</ele>
        <time>2017-06-07T08:59:24Z</time>
      </trkpt>
      <trkpt lat="44.12371" lon="6.96576">
        <ele>1876</ele>
        <time>2017-06-07T08:59:24Z</time>
      </trkpt>
      <trkpt lat="44.12373" lon="6.96578">
        <ele>1876</ele>
        <time>2017-06-07T08:59:24Z</time>
      </trkpt>
      <trkpt lat="44.12376" lon="6.96582">
        <ele>1889</ele>
        <time>2017-06-07T08:59:25Z</time>
      </trkpt>
      <trkpt lat="44.12378" lon="6.96583">
        <ele>1889</ele>
        <time>2017-06-07T08:59:39Z</time>
      </trkpt>
      <trkpt lat="44.1238" lon="6.96586">
        <ele>1889</ele>
        <time>2017-06-07T08:59:39Z</time>
      </trkpt>
      <trkpt lat="44.12384" lon="6.96588">
        <ele>1889</ele>
        <time>2017-06-07T08:59:39Z</time>
      </trkpt>
      <trkpt lat="44.12387" lon="6.96591">
        <ele>1889</ele>
        <time>2017-06-07T08:59:39Z</time>
      </trkpt>
      <trkpt lat="44.12388" lon="6.96593">
        <ele>1889</ele>
        <time>2017-06-07T08:59:55Z</time>
      </trkpt>
      <trkpt lat="44.12391" lon="6.96596">
        <ele>1889</ele>
        <time>2017-06-07T08:59:55Z</time>
      </trkpt>
      <trkpt lat="44.12394" lon="6.96598">
        <ele>1886</ele>
        <time>2017-06-07T08:59:55Z</time>
      </trkpt>
      <trkpt lat="44.12398" lon="6.96599">
        <ele>1886</ele>
        <time>2017-06-07T08:59:55Z</time>
      </trkpt>
      <trkpt lat="44.12399" lon="6.96603">
        <ele>1886</ele>
        <time>2017-06-07T09:00:13Z</time>
      </trkpt>
      <trkpt lat="44.12404" lon="6.96605">
        <ele>1898</ele>
        <time>2017-06-07T09:00:13Z</time>
      </trkpt>
      <trkpt lat="44.12406" lon="6.96608">
        <ele>1898</ele>
        <time>2017-06-07T09:00:13Z</time>
      </trkpt>
      <trkpt lat="44.12408" lon="6.96612">
        <ele>1898</ele>
        <time>2017-06-07T09:00:13Z</time>
      </trkpt>
      <trkpt lat="44.1241" lon="6.96617">
        <ele>1898</ele>
        <time>2017-06-07T09:00:37Z</time>
      </trkpt>
      <trkpt lat="44.12411" lon="6.96618">
        <ele>1898</ele>
        <time>2017-06-07T09:00:37Z</time>
      </trkpt>
      <trkpt lat="44.12413" lon="6.96619">
        <ele>1898</ele>
        <time>2017-06-07T09:00:37Z</time>
      </trkpt>
      <trkpt lat="44.12414" lon="6.96621">
        <ele>1898</ele>
        <time>2017-06-07T09:00:38Z</time>
      </trkpt>
      <trkpt lat="44.12417" lon="6.96624">
        <ele>1898</ele>
        <time>2017-06-07T09:00:38Z</time>
      </trkpt>
      <trkpt lat="44.12417" lon="6.96625">
        <ele>1896</ele>
        <time>2017-06-07T09:00:56Z</time>
      </trkpt>
      <trkpt lat="44.12417" lon="6.96631">
        <ele>1896</ele>
        <time>2017-06-07T09:00:56Z</time>
      </trkpt>
      <trkpt lat="44.12417" lon="6.96633">
        <ele>1896</ele>
        <time>2017-06-07T09:00:56Z</time>
      </trkpt>
      <trkpt lat="44.12416" lon="6.96637">
        <ele>1896</ele>
        <time>2017-06-07T09:00:57Z</time>
      </trkpt>
      <trkpt lat="44.12417" lon="6.96642">
        <ele>1896</ele>
        <time>2017-06-07T09:00:57Z</time>
      </trkpt>
      <trkpt lat="44.12417" lon="6.96643">
        <ele>1896</ele>
        <time>2017-06-07T09:01:16Z</time>
      </trkpt>
      <trkpt lat="44.12419" lon="6.96646">
        <ele>1896</ele>
        <time>2017-06-07T09:01:16Z</time>
      </trkpt>
      <trkpt lat="44.12419" lon="6.96649">
        <ele>1896</ele>
        <time>2017-06-07T09:01:16Z</time>
      </trkpt>
      <trkpt lat="44.12421" lon="6.96654">
        <ele>1896</ele>
        <time>2017-06-07T09:01:17Z</time>
      </trkpt>
      <trkpt lat="44.12419" lon="6.96659">
        <ele>1896</ele>
        <time>2017-06-07T09:01:17Z</time>
      </trkpt>
      <trkpt lat="44.12417" lon="6.96661">
        <ele>1896</ele>
        <time>2017-06-07T09:01:37Z</time>
      </trkpt>
      <trkpt lat="44.12414" lon="6.96663">
        <ele>1896</ele>
        <time>2017-06-07T09:01:37Z</time>
      </trkpt>
      <trkpt lat="44.12414" lon="6.96664">
        <ele>1896</ele>
        <time>2017-06-07T09:01:38Z</time>
      </trkpt>
      <trkpt lat="44.12415" lon="6.96667">
        <ele>1896</ele>
        <time>2017-06-07T09:01:38Z</time>
      </trkpt>
      <trkpt lat="44.12415" lon="6.96673">
        <ele>1896</ele>
        <time>2017-06-07T09:01:39Z</time>
      </trkpt>
      <trkpt lat="44.12414" lon="6.96677">
        <ele>1896</ele>
        <time>2017-06-07T09:01:52Z</time>
      </trkpt>
      <trkpt lat="44.12414" lon="6.96682">
        <ele>1899</ele>
        <time>2017-06-07T09:01:52Z</time>
      </trkpt>
      <trkpt lat="44.12413" lon="6.96687">
        <ele>1899</ele>
        <time>2017-06-07T09:01:53Z</time>
      </trkpt>
      <trkpt lat="44.12412" lon="6.96692">
        <ele>1899</ele>
        <time>2017-06-07T09:01:53Z</time>
      </trkpt>
      <trkpt lat="44.12413" lon="6.96696">
        <ele>1899</ele>
        <time>2017-06-07T09:02:13Z</time>
      </trkpt>
      <trkpt lat="44.12415" lon="6.96699">
        <ele>1899</ele>
        <time>2017-06-07T09:02:13Z</time>
      </trkpt>
      <trkpt lat="44.12415" lon="6.96702">
        <ele>1899</ele>
        <time>2017-06-07T09:02:14Z</time>
      </trkpt>
      <trkpt lat="44.12415" lon="6.96705">
        <ele>1899</ele>
        <time>2017-06-07T09:02:14Z</time>
      </trkpt>
      <trkpt lat="44.12417" lon="6.96711">
        <ele>1902</ele>
        <time>2017-06-07T09:02:15Z</time>
      </trkpt>
      <trkpt lat="44.12417" lon="6.96715">
        <ele>1902</ele>
        <time>2017-06-07T09:02:29Z</time>
      </trkpt>
      <trkpt lat="44.12416" lon="6.96722">
        <ele>1902</ele>
        <time>2017-06-07T09:02:29Z</time>
      </trkpt>
      <trkpt lat="44.12417" lon="6.96724">
        <ele>1902</ele>
        <time>2017-06-07T09:02:29Z</time>
      </trkpt>
      <trkpt lat="44.12417" lon="6.96729">
        <ele>1902</ele>
        <time>2017-06-07T09:02:29Z</time>
      </trkpt>
      <trkpt lat="44.12417" lon="6.96734">
        <ele>1902</ele>
        <time>2017-06-07T09:02:45Z</time>
      </trkpt>
      <trkpt lat="44.12418" lon="6.96739">
        <ele>1904</ele>
        <time>2017-06-07T09:02:45Z</time>
      </trkpt>
      <trkpt lat="44.12418" lon="6.96743">
        <ele>1904</ele>
        <time>2017-06-07T09:02:45Z</time>
      </trkpt>
      <trkpt lat="44.12419" lon="6.96748">
        <ele>1904</ele>
        <time>2017-06-07T09:02:45Z</time>
      </trkpt>
      <trkpt lat="44.1242" lon="6.96753">
        <ele>1904</ele>
        <time>2017-06-07T09:03:01Z</time>
      </trkpt>
      <trkpt lat="44.12421" lon="6.96756">
        <ele>1904</ele>
        <time>2017-06-07T09:03:01Z</time>
      </trkpt>
      <trkpt lat="44.12421" lon="6.96761">
        <ele>1904</ele>
        <time>2017-06-07T09:03:01Z</time>
      </trkpt>
      <trkpt lat="44.12421" lon="6.96766">
        <ele>1908</ele>
        <time>2017-06-07T09:03:02Z</time>
      </trkpt>
      <trkpt lat="44.12421" lon="6.96769">
        <ele>1908</ele>
        <time>2017-06-07T09:03:17Z</time>
      </trkpt>
      <trkpt lat="44.12421" lon="6.96774">
        <ele>1908</ele>
        <time>2017-06-07T09:03:17Z</time>
      </trkpt>
      <trkpt lat="44.1242" lon="6.96777">
        <ele>1908</ele>
        <time>2017-06-07T09:03:17Z</time>
      </trkpt>
      <trkpt lat="44.12419" lon="6.96783">
        <ele>1908</ele>
        <time>2017-06-07T09:03:17Z</time>
      </trkpt>
      <trkpt lat="44.12418" lon="6.96786">
        <ele>1908</ele>
        <time>2017-06-07T09:03:33Z</time>
      </trkpt>
      <trkpt lat="44.12416" lon="6.96791">
        <ele>1908</ele>
        <time>2017-06-07T09:03:33Z</time>
      </trkpt>
      <trkpt lat="44.12415" lon="6.96795">
        <ele>1915</ele>
        <time>2017-06-07T09:03:33Z</time>
      </trkpt>
      <trkpt lat="44.12414" lon="6.96799">
        <ele>1915</ele>
        <time>2017-06-07T09:03:33Z</time>
      </trkpt>
      <trkpt lat="44.12412" lon="6.96803">
        <ele>1915</ele>
        <time>2017-06-07T09:03:48Z</time>
      </trkpt>
      <trkpt lat="44.12411" lon="6.96807">
        <ele>1915</ele>
        <time>2017-06-07T09:03:48Z</time>
      </trkpt>
      <trkpt lat="44.1241" lon="6.9681">
        <ele>1915</ele>
        <time>2017-06-07T09:03:49Z</time>
      </trkpt>
      <trkpt lat="44.12408" lon="6.96815">
        <ele>1915</ele>
        <time>2017-06-07T09:03:49Z</time>
      </trkpt>
      <trkpt lat="44.12407" lon="6.96818">
        <ele>1915</ele>
        <time>2017-06-07T09:04:07Z</time>
      </trkpt>
      <trkpt lat="44.12406" lon="6.96822">
        <ele>1920</ele>
        <time>2017-06-07T09:04:07Z</time>
      </trkpt>
      <trkpt lat="44.12405" lon="6.96826">
        <ele>1920</ele>
        <time>2017-06-07T09:04:07Z</time>
      </trkpt>
      <trkpt lat="44.12404" lon="6.96827">
        <ele>1920</ele>
        <time>2017-06-07T09:04:07Z</time>
      </trkpt>
      <trkpt lat="44.12404" lon="6.96831">
        <ele>1920</ele>
        <time>2017-06-07T09:04:07Z</time>
      </trkpt>
      <trkpt lat="44.12403" lon="6.96834">
        <ele>1920</ele>
        <time>2017-06-07T09:04:27Z</time>
      </trkpt>
      <trkpt lat="44.12403" lon="6.96838">
        <ele>1920</ele>
        <time>2017-06-07T09:04:27Z</time>
      </trkpt>
      <trkpt lat="44.12403" lon="6.96841">
        <ele>1906</ele>
        <time>2017-06-07T09:04:27Z</time>
      </trkpt>
      <trkpt lat="44.12402" lon="6.96845">
        <ele>1906</ele>
        <time>2017-06-07T09:04:27Z</time>
      </trkpt>
      <trkpt lat="44.12401" lon="6.96848">
        <ele>1916</ele>
        <time>2017-06-07T09:04:27Z</time>
      </trkpt>
      <trkpt lat="44.124" lon="6.96851">
        <ele>1916</ele>
        <time>2017-06-07T09:04:47Z</time>
      </trkpt>
      <trkpt lat="44.12399" lon="6.96853">
        <ele>1916</ele>
        <time>2017-06-07T09:04:47Z</time>
      </trkpt>
      <trkpt lat="44.12398" lon="6.96856">
        <ele>1916</ele>
        <time>2017-06-07T09:04:47Z</time>
      </trkpt>
      <trkpt lat="44.12396" lon="6.96858">
        <ele>1916</ele>
        <time>2017-06-07T09:04:47Z</time>
      </trkpt>
      <trkpt lat="44.12395" lon="6.96861">
        <ele>1916</ele>
        <time>2017-06-07T09:04:47Z</time>
      </trkpt>
      <trkpt lat="44.12395" lon="6.96865">
        <ele>1916</ele>
        <time>2017-06-07T09:05:09Z</time>
      </trkpt>
      <trkpt lat="44.12394" lon="6.96866">
        <ele>1916</ele>
        <time>2017-06-07T09:05:09Z</time>
      </trkpt>
      <trkpt lat="44.12391" lon="6.96871">
        <ele>1916</ele>
        <time>2017-06-07T09:05:09Z</time>
      </trkpt>
      <trkpt lat="44.1239" lon="6.96875">
        <ele>1926</ele>
        <time>2017-06-07T09:05:10Z</time>
      </trkpt>
      <trkpt lat="44.1239" lon="6.9688">
        <ele>1926</ele>
        <time>2017-06-07T09:05:10Z</time>
      </trkpt>
      <trkpt lat="44.12391" lon="6.96881">
        <ele>1926</ele>
        <time>2017-06-07T09:05:29Z</time>
      </trkpt>
      <trkpt lat="44.12388" lon="6.96885">
        <ele>1926</ele>
        <time>2017-06-07T09:05:29Z</time>
      </trkpt>
      <trkpt lat="44.12388" lon="6.96888">
        <ele>1926</ele>
        <time>2017-06-07T09:05:29Z</time>
      </trkpt>
      <trkpt lat="44.12387" lon="6.9689">
        <ele>1926</ele>
        <time>2017-06-07T09:05:29Z</time>
      </trkpt>
      <trkpt lat="44.12384" lon="6.96894">
        <ele>1926</ele>
        <time>2017-06-07T09:05:29Z</time>
      </trkpt>
      <trkpt lat="44.12385" lon="6.96895">
        <ele>1926</ele>
        <time>2017-06-07T09:06:17Z</time>
      </trkpt>
      <trkpt lat="44.12385" lon="6.96896">
        <ele>1926</ele>
        <time>2017-06-07T09:06:17Z</time>
      </trkpt>
      <trkpt lat="44.12383" lon="6.96898">
        <ele>1926</ele>
        <time>2017-06-07T09:06:17Z</time>
      </trkpt>
      <trkpt lat="44.12381" lon="6.96902">
        <ele>1926</ele>
        <time>2017-06-07T09:06:17Z</time>
      </trkpt>
      <trkpt lat="44.12379" lon="6.96907">
        <ele>1936</ele>
        <time>2017-06-07T09:06:17Z</time>
      </trkpt>
      <trkpt lat="44.12378" lon="6.96911">
        <ele>1936</ele>
        <time>2017-06-07T09:06:36Z</time>
      </trkpt>
      <trkpt lat="44.12375" lon="6.96914">
        <ele>1936</ele>
        <time>2017-06-07T09:06:36Z</time>
      </trkpt>
      <trkpt lat="44.12374" lon="6.96919">
        <ele>1923</ele>
        <time>2017-06-07T09:06:36Z</time>
      </trkpt>
      <trkpt lat="44.12374" lon="6.96921">
        <ele>1923</ele>
        <time>2017-06-07T09:06:37Z</time>
      </trkpt>
      <trkpt lat="44.12374" lon="6.96925">
        <ele>1923</ele>
        <time>2017-06-07T09:06:37Z</time>
      </trkpt>
      <trkpt lat="44.12373" lon="6.96928">
        <ele>1923</ele>
        <time>2017-06-07T09:06:56Z</time>
      </trkpt>
      <trkpt lat="44.12369" lon="6.96928">
        <ele>1923</ele>
        <time>2017-06-07T09:06:56Z</time>
      </trkpt>
      <trkpt lat="44.12366" lon="6.96932">
        <ele>1935</ele>
        <time>2017-06-07T09:06:57Z</time>
      </trkpt>
      <trkpt lat="44.12367" lon="6.96934">
        <ele>1935</ele>
        <time>2017-06-07T09:06:57Z</time>
      </trkpt>
      <trkpt lat="44.12365" lon="6.96938">
        <ele>1935</ele>
        <time>2017-06-07T09:06:57Z</time>
      </trkpt>
      <trkpt lat="44.12364" lon="6.9694">
        <ele>1935</ele>
        <time>2017-06-07T09:07:16Z</time>
      </trkpt>
      <trkpt lat="44.12364" lon="6.96944">
        <ele>1935</ele>
        <time>2017-06-07T09:07:16Z</time>
      </trkpt>
      <trkpt lat="44.12362" lon="6.96947">
        <ele>1935</ele>
        <time>2017-06-07T09:07:16Z</time>
      </trkpt>
      <trkpt lat="44.12361" lon="6.96951">
        <ele>1935</ele>
        <time>2017-06-07T09:07:17Z</time>
      </trkpt>
      <trkpt lat="44.1236" lon="6.96953">
        <ele>1935</ele>
        <time>2017-06-07T09:07:17Z</time>
      </trkpt>
      <trkpt lat="44.12359" lon="6.96957">
        <ele>1935</ele>
        <time>2017-06-07T09:07:33Z</time>
      </trkpt>
      <trkpt lat="44.12358" lon="6.96962">
        <ele>1943</ele>
        <time>2017-06-07T09:07:33Z</time>
      </trkpt>
      <trkpt lat="44.12357" lon="6.96967">
        <ele>1943</ele>
        <time>2017-06-07T09:07:33Z</time>
      </trkpt>
      <trkpt lat="44.12355" lon="6.96972">
        <ele>1943</ele>
        <time>2017-06-07T09:07:34Z</time>
      </trkpt>
      <trkpt lat="44.12354" lon="6.96975">
        <ele>1943</ele>
        <time>2017-06-07T09:07:49Z</time>
      </trkpt>
      <trkpt lat="44.12351" lon="6.96977">
        <ele>1943</ele>
        <time>2017-06-07T09:07:49Z</time>
      </trkpt>
      <trkpt lat="44.1235" lon="6.96981">
        <ele>1943</ele>
        <time>2017-06-07T09:07:49Z</time>
      </trkpt>
      <trkpt lat="44.12348" lon="6.96986">
        <ele>1943</ele>
        <time>2017-06-07T09:07:49Z</time>
      </trkpt>
      <trkpt lat="44.12347" lon="6.96988">
        <ele>1931</ele>
        <time>2017-06-07T09:08:09Z</time>
      </trkpt>
      <trkpt lat="44.12346" lon="6.9699">
        <ele>1931</ele>
        <time>2017-06-07T09:08:09Z</time>
      </trkpt>
      <trkpt lat="44.12346" lon="6.96995">
        <ele>1931</ele>
        <time>2017-06-07T09:08:09Z</time>
      </trkpt>
      <trkpt lat="44.12345" lon="6.96998">
        <ele>1931</ele>
        <time>2017-06-07T09:08:10Z</time>
      </trkpt>
      <trkpt lat="44.12343" lon="6.97002">
        <ele>1931</ele>
        <time>2017-06-07T09:08:10Z</time>
      </trkpt>
      <trkpt lat="44.12342" lon="6.97004">
        <ele>1931</ele>
        <time>2017-06-07T09:08:25Z</time>
      </trkpt>
      <trkpt lat="44.12342" lon="6.9701">
        <ele>1931</ele>
        <time>2017-06-07T09:08:25Z</time>
      </trkpt>
      <trkpt lat="44.1234" lon="6.97015">
        <ele>1941</ele>
        <time>2017-06-07T09:08:25Z</time>
      </trkpt>
      <trkpt lat="44.12339" lon="6.97016">
        <ele>1941</ele>
        <time>2017-06-07T09:08:25Z</time>
      </trkpt>
      <trkpt lat="44.12339" lon="6.9702">
        <ele>1941</ele>
        <time>2017-06-07T09:08:44Z</time>
      </trkpt>
      <trkpt lat="44.12337" lon="6.97026">
        <ele>1941</ele>
        <time>2017-06-07T09:08:44Z</time>
      </trkpt>
      <trkpt lat="44.12334" lon="6.97028">
        <ele>1941</ele>
        <time>2017-06-07T09:08:44Z</time>
      </trkpt>
      <trkpt lat="44.12333" lon="6.97029">
        <ele>1941</ele>
        <time>2017-06-07T09:08:45Z</time>
      </trkpt>
      <trkpt lat="44.12331" lon="6.9703">
        <ele>1941</ele>
        <time>2017-06-07T09:08:45Z</time>
      </trkpt>
      <trkpt lat="44.12332" lon="6.97035">
        <ele>1941</ele>
        <time>2017-06-07T09:09:01Z</time>
      </trkpt>
      <trkpt lat="44.12331" lon="6.9704">
        <ele>1941</ele>
        <time>2017-06-07T09:09:01Z</time>
      </trkpt>
      <trkpt lat="44.12331" lon="6.97042">
        <ele>1952</ele>
        <time>2017-06-07T09:09:01Z</time>
      </trkpt>
      <trkpt lat="44.12328" lon="6.97047">
        <ele>1952</ele>
        <time>2017-06-07T09:09:01Z</time>
      </trkpt>
      <trkpt lat="44.12327" lon="6.9705">
        <ele>1952</ele>
        <time>2017-06-07T09:09:19Z</time>
      </trkpt>
      <trkpt lat="44.12324" lon="6.97053">
        <ele>1952</ele>
        <time>2017-06-07T09:09:19Z</time>
      </trkpt>
      <trkpt lat="44.12324" lon="6.97054">
        <ele>1952</ele>
        <time>2017-06-07T09:09:19Z</time>
      </trkpt>
      <trkpt lat="44.12324" lon="6.97056">
        <ele>1952</ele>
        <time>2017-06-07T09:09:19Z</time>
      </trkpt>
      <trkpt lat="44.12321" lon="6.97062">
        <ele>1952</ele>
        <time>2017-06-07T09:09:20Z</time>
      </trkpt>
      <trkpt lat="44.12317" lon="6.97071">
        <ele>1945</ele>
        <time>2017-06-07T09:09:48Z</time>
      </trkpt>
      <trkpt lat="44.12317" lon="6.97072">
        <ele>1945</ele>
        <time>2017-06-07T09:09:48Z</time>
      </trkpt>
      <trkpt lat="44.12318" lon="6.97072">
        <ele>1945</ele>
        <time>2017-06-07T09:09:48Z</time>
      </trkpt>
      <trkpt lat="44.12317" lon="6.97074">
        <ele>1945</ele>
        <time>2017-06-07T09:09:48Z</time>
      </trkpt>
      <trkpt lat="44.12315" lon="6.97081">
        <ele>1945</ele>
        <time>2017-06-07T09:09:48Z</time>
      </trkpt>
      <trkpt lat="44.12315" lon="6.97087">
        <ele>1945</ele>
        <time>2017-06-07T09:10:25Z</time>
      </trkpt>
      <trkpt lat="44.12313" lon="6.97088">
        <ele>1945</ele>
        <time>2017-06-07T09:10:25Z</time>
      </trkpt>
      <trkpt lat="44.12311" lon="6.9709">
        <ele>1945</ele>
        <time>2017-06-07T09:10:25Z</time>
      </trkpt>
      <trkpt lat="44.12312" lon="6.97091">
        <ele>1945</ele>
        <time>2017-06-07T09:10:25Z</time>
      </trkpt>
      <trkpt lat="44.12311" lon="6.97091">
        <ele>1945</ele>
        <time>2017-06-07T09:10:25Z</time>
      </trkpt>
      <trkpt lat="44.12313" lon="6.97092">
        <ele>1945</ele>
        <time>2017-06-07T09:14:03Z</time>
      </trkpt>
      <trkpt lat="44.12312" lon="6.97093">
        <ele>1945</ele>
        <time>2017-06-07T09:14:03Z</time>
      </trkpt>
      <trkpt lat="44.12311" lon="6.97095">
        <ele>1945</ele>
        <time>2017-06-07T09:14:03Z</time>
      </trkpt>
      <trkpt lat="44.12309" lon="6.97101">
        <ele>1954</ele>
        <time>2017-06-07T09:14:03Z</time>
      </trkpt>
      <trkpt lat="44.12308" lon="6.97105">
        <ele>1954</ele>
        <time>2017-06-07T09:14:03Z</time>
      </trkpt>
      <trkpt lat="44.12306" lon="6.97107">
        <ele>1954</ele>
        <time>2017-06-07T09:14:20Z</time>
      </trkpt>
      <trkpt lat="44.12303" lon="6.97114">
        <ele>1954</ele>
        <time>2017-06-07T09:14:20Z</time>
      </trkpt>
      <trkpt lat="44.12301" lon="6.97117">
        <ele>1954</ele>
        <time>2017-06-07T09:14:20Z</time>
      </trkpt>
      <trkpt lat="44.12302" lon="6.97123">
        <ele>1954</ele>
        <time>2017-06-07T09:14:21Z</time>
      </trkpt>
      <trkpt lat="44.12304" lon="6.97126">
        <ele>1960</ele>
        <time>2017-06-07T09:14:36Z</time>
      </trkpt>
      <trkpt lat="44.12304" lon="6.9713">
        <ele>1960</ele>
        <time>2017-06-07T09:14:36Z</time>
      </trkpt>
      <trkpt lat="44.12303" lon="6.97137">
        <ele>1960</ele>
        <time>2017-06-07T09:14:36Z</time>
      </trkpt>
      <trkpt lat="44.12304" lon="6.97141">
        <ele>1960</ele>
        <time>2017-06-07T09:14:36Z</time>
      </trkpt>
      <trkpt lat="44.12307" lon="6.97148">
        <ele>1960</ele>
        <time>2017-06-07T09:14:53Z</time>
      </trkpt>
      <trkpt lat="44.12308" lon="6.97154">
        <ele>1966</ele>
        <time>2017-06-07T09:14:53Z</time>
      </trkpt>
      <trkpt lat="44.12308" lon="6.97157">
        <ele>1966</ele>
        <time>2017-06-07T09:14:53Z</time>
      </trkpt>
      <trkpt lat="44.12309" lon="6.97161">
        <ele>1966</ele>
        <time>2017-06-07T09:14:53Z</time>
      </trkpt>
      <trkpt lat="44.12311" lon="6.97173">
        <ele>1966</ele>
        <time>2017-06-07T09:15:25Z</time>
      </trkpt>
      <trkpt lat="44.12312" lon="6.97173">
        <ele>1966</ele>
        <time>2017-06-07T09:15:25Z</time>
      </trkpt>
      <trkpt lat="44.12312" lon="6.97174">
        <ele>1966</ele>
        <time>2017-06-07T09:15:25Z</time>
      </trkpt>
      <trkpt lat="44.12312" lon="6.97174">
        <ele>1966</ele>
        <time>2017-06-07T09:15:25Z</time>
      </trkpt>
      <trkpt lat="44.12312" lon="6.97175">
        <ele>1966</ele>
        <time>2017-06-07T09:15:25Z</time>
      </trkpt>
      <trkpt lat="44.12313" lon="6.97176">
        <ele>1966</ele>
        <time>2017-06-07T09:15:43Z</time>
      </trkpt>
      <trkpt lat="44.12315" lon="6.9718">
        <ele>1966</ele>
        <time>2017-06-07T09:15:43Z</time>
      </trkpt>
      <trkpt lat="44.12315" lon="6.97182">
        <ele>1966</ele>
        <time>2017-06-07T09:15:43Z</time>
      </trkpt>
      <trkpt lat="44.12316" lon="6.97187">
        <ele>1966</ele>
        <time>2017-06-07T09:15:43Z</time>
      </trkpt>
      <trkpt lat="44.12318" lon="6.97191">
        <ele>1966</ele>
        <time>2017-06-07T09:15:43Z</time>
      </trkpt>
      <trkpt lat="44.12319" lon="6.97198">
        <ele>1966</ele>
        <time>2017-06-07T09:16:00Z</time>
      </trkpt>
      <trkpt lat="44.12322" lon="6.972">
        <ele>1975</ele>
        <time>2017-06-07T09:16:00Z</time>
      </trkpt>
      <trkpt lat="44.12323" lon="6.97204">
        <ele>1975</ele>
        <time>2017-06-07T09:16:00Z</time>
      </trkpt>
      <trkpt lat="44.12324" lon="6.9721">
        <ele>1971</ele>
        <time>2017-06-07T09:16:00Z</time>
      </trkpt>
      <trkpt lat="44.12325" lon="6.97211">
        <ele>1971</ele>
        <time>2017-06-07T09:16:20Z</time>
      </trkpt>
      <trkpt lat="44.12326" lon="6.97213">
        <ele>1971</ele>
        <time>2017-06-07T09:16:20Z</time>
      </trkpt>
      <trkpt lat="44.12328" lon="6.97216">
        <ele>1971</ele>
        <time>2017-06-07T09:16:21Z</time>
      </trkpt>
      <trkpt lat="44.1233" lon="6.97219">
        <ele>1971</ele>
        <time>2017-06-07T09:16:21Z</time>
      </trkpt>
      <trkpt lat="44.12332" lon="6.97222">
        <ele>1971</ele>
        <time>2017-06-07T09:16:21Z</time>
      </trkpt>
      <trkpt lat="44.12334" lon="6.97225">
        <ele>1971</ele>
        <time>2017-06-07T09:16:41Z</time>
      </trkpt>
      <trkpt lat="44.1234" lon="6.97229">
        <ele>1971</ele>
        <time>2017-06-07T09:16:41Z</time>
      </trkpt>
      <trkpt lat="44.12341" lon="6.9723">
        <ele>1971</ele>
        <time>2017-06-07T09:16:41Z</time>
      </trkpt>
      <trkpt lat="44.12343" lon="6.9723">
        <ele>1971</ele>
        <time>2017-06-07T09:16:41Z</time>
      </trkpt>
      <trkpt lat="44.12346" lon="6.97233">
        <ele>1971</ele>
        <time>2017-06-07T09:16:41Z</time>
      </trkpt>
      <trkpt lat="44.12348" lon="6.97235">
        <ele>1977</ele>
        <time>2017-06-07T09:17:07Z</time>
      </trkpt>
      <trkpt lat="44.12348" lon="6.97236">
        <ele>1977</ele>
        <time>2017-06-07T09:17:07Z</time>
      </trkpt>
      <trkpt lat="44.12351" lon="6.97238">
        <ele>1969</ele>
        <time>2017-06-07T09:17:07Z</time>
      </trkpt>
      <trkpt lat="44.12353" lon="6.9724">
        <ele>1969</ele>
        <time>2017-06-07T09:17:07Z</time>
      </trkpt>
      <trkpt lat="44.12355" lon="6.9724">
        <ele>1969</ele>
        <time>2017-06-07T09:17:07Z</time>
      </trkpt>
      <trkpt lat="44.12357" lon="6.97241">
        <ele>1969</ele>
        <time>2017-06-07T09:17:24Z</time>
      </trkpt>
      <trkpt lat="44.12361" lon="6.9724">
        <ele>1969</ele>
        <time>2017-06-07T09:17:24Z</time>
      </trkpt>
      <trkpt lat="44.12363" lon="6.9724">
        <ele>1969</ele>
        <time>2017-06-07T09:17:24Z</time>
      </trkpt>
      <trkpt lat="44.12367" lon="6.97241">
        <ele>1969</ele>
        <time>2017-06-07T09:17:24Z</time>
      </trkpt>
      <trkpt lat="44.12367" lon="6.97243">
        <ele>1969</ele>
        <time>2017-06-07T09:17:44Z</time>
      </trkpt>
      <trkpt lat="44.12371" lon="6.97243">
        <ele>1969</ele>
        <time>2017-06-07T09:17:44Z</time>
      </trkpt>
      <trkpt lat="44.12373" lon="6.97243">
        <ele>1969</ele>
        <time>2017-06-07T09:17:44Z</time>
      </trkpt>
      <trkpt lat="44.12375" lon="6.97244">
        <ele>1975</ele>
        <time>2017-06-07T09:17:44Z</time>
      </trkpt>
      <trkpt lat="44.12378" lon="6.97246">
        <ele>1975</ele>
        <time>2017-06-07T09:17:44Z</time>
      </trkpt>
      <trkpt lat="44.12381" lon="6.97246">
        <ele>1975</ele>
        <time>2017-06-07T09:18:05Z</time>
      </trkpt>
      <trkpt lat="44.12383" lon="6.97246">
        <ele>1975</ele>
        <time>2017-06-07T09:18:05Z</time>
      </trkpt>
      <trkpt lat="44.12386" lon="6.97245">
        <ele>1975</ele>
        <time>2017-06-07T09:18:05Z</time>
      </trkpt>
      <trkpt lat="44.12388" lon="6.97246">
        <ele>1975</ele>
        <time>2017-06-07T09:18:05Z</time>
      </trkpt>
      <trkpt lat="44.1239" lon="6.97251">
        <ele>1975</ele>
        <time>2017-06-07T09:18:05Z</time>
      </trkpt>
      <trkpt lat="44.12396" lon="6.9725">
        <ele>1975</ele>
        <time>2017-06-07T09:18:32Z</time>
      </trkpt>
      <trkpt lat="44.12397" lon="6.9725">
        <ele>1975</ele>
        <time>2017-06-07T09:18:32Z</time>
      </trkpt>
      <trkpt lat="44.12397" lon="6.9725">
        <ele>1975</ele>
        <time>2017-06-07T09:18:32Z</time>
      </trkpt>
      <trkpt lat="44.124" lon="6.97251">
        <ele>1975</ele>
        <time>2017-06-07T09:18:32Z</time>
      </trkpt>
      <trkpt lat="44.12403" lon="6.97251">
        <ele>1980</ele>
        <time>2017-06-07T09:18:32Z</time>
      </trkpt>
      <trkpt lat="44.12406" lon="6.97248">
        <ele>1980</ele>
        <time>2017-06-07T09:18:56Z</time>
      </trkpt>
      <trkpt lat="44.12408" lon="6.97249">
        <ele>1980</ele>
        <time>2017-06-07T09:18:56Z</time>
      </trkpt>
      <trkpt lat="44.12409" lon="6.97248">
        <ele>1980</ele>
        <time>2017-06-07T09:18:57Z</time>
      </trkpt>
      <trkpt lat="44.12411" lon="6.9725">
        <ele>1980</ele>
        <time>2017-06-07T09:18:57Z</time>
      </trkpt>
      <trkpt lat="44.12413" lon="6.9725">
        <ele>1980</ele>
        <time>2017-06-07T09:18:57Z</time>
      </trkpt>
      <trkpt lat="44.12416" lon="6.97249">
        <ele>1980</ele>
        <time>2017-06-07T09:19:17Z</time>
      </trkpt>
      <trkpt lat="44.12419" lon="6.97248">
        <ele>1980</ele>
        <time>2017-06-07T09:19:17Z</time>
      </trkpt>
      <trkpt lat="44.12423" lon="6.9725">
        <ele>1980</ele>
        <time>2017-06-07T09:19:17Z</time>
      </trkpt>
      <trkpt lat="44.12424" lon="6.97248">
        <ele>1980</ele>
        <time>2017-06-07T09:19:17Z</time>
      </trkpt>
      <trkpt lat="44.12426" lon="6.97243">
        <ele>1980</ele>
        <time>2017-06-07T09:19:18Z</time>
      </trkpt>
      <trkpt lat="44.12428" lon="6.97241">
        <ele>1980</ele>
        <time>2017-06-07T09:19:36Z</time>
      </trkpt>
      <trkpt lat="44.12431" lon="6.97238">
        <ele>1986</ele>
        <time>2017-06-07T09:19:36Z</time>
      </trkpt>
      <trkpt lat="44.12432" lon="6.97235">
        <ele>1990</ele>
        <time>2017-06-07T09:19:37Z</time>
      </trkpt>
      <trkpt lat="44.12433" lon="6.97232">
        <ele>1990</ele>
        <time>2017-06-07T09:19:37Z</time>
      </trkpt>
      <trkpt lat="44.12434" lon="6.97228">
        <ele>1990</ele>
        <time>2017-06-07T09:19:38Z</time>
      </trkpt>
      <trkpt lat="44.12435" lon="6.97224">
        <ele>1990</ele>
        <time>2017-06-07T09:19:56Z</time>
      </trkpt>
      <trkpt lat="44.12436" lon="6.97219">
        <ele>1990</ele>
        <time>2017-06-07T09:19:56Z</time>
      </trkpt>
      <trkpt lat="44.12437" lon="6.97216">
        <ele>1990</ele>
        <time>2017-06-07T09:19:57Z</time>
      </trkpt>
      <trkpt lat="44.12438" lon="6.97217">
        <ele>1990</ele>
        <time>2017-06-07T09:19:57Z</time>
      </trkpt>
      <trkpt lat="44.12438" lon="6.97212">
        <ele>1990</ele>
        <time>2017-06-07T09:19:57Z</time>
      </trkpt>
      <trkpt lat="44.12439" lon="6.97211">
        <ele>1990</ele>
        <time>2017-06-07T09:20:13Z</time>
      </trkpt>
      <trkpt lat="44.12441" lon="6.9721">
        <ele>1990</ele>
        <time>2017-06-07T09:20:13Z</time>
      </trkpt>
      <trkpt lat="44.12442" lon="6.97208">
        <ele>1994</ele>
        <time>2017-06-07T09:20:13Z</time>
      </trkpt>
      <trkpt lat="44.12444" lon="6.97198">
        <ele>1994</ele>
        <time>2017-06-07T09:20:13Z</time>
      </trkpt>
      <trkpt lat="44.12445" lon="6.97195">
        <ele>1994</ele>
        <time>2017-06-07T09:20:29Z</time>
      </trkpt>
      <trkpt lat="44.12446" lon="6.9719">
        <ele>1994</ele>
        <time>2017-06-07T09:20:29Z</time>
      </trkpt>
      <trkpt lat="44.12447" lon="6.97188">
        <ele>1994</ele>
        <time>2017-06-07T09:20:29Z</time>
      </trkpt>
      <trkpt lat="44.12449" lon="6.97182">
        <ele>1994</ele>
        <time>2017-06-07T09:20:29Z</time>
      </trkpt>
      <trkpt lat="44.1245" lon="6.97181">
        <ele>1994</ele>
        <time>2017-06-07T09:20:45Z</time>
      </trkpt>
      <trkpt lat="44.1245" lon="6.97174">
        <ele>1996</ele>
        <time>2017-06-07T09:20:45Z</time>
      </trkpt>
      <trkpt lat="44.12453" lon="6.97172">
        <ele>1996</ele>
        <time>2017-06-07T09:20:45Z</time>
      </trkpt>
      <trkpt lat="44.12454" lon="6.97169">
        <ele>1996</ele>
        <time>2017-06-07T09:20:45Z</time>
      </trkpt>
      <trkpt lat="44.12456" lon="6.97168">
        <ele>1996</ele>
        <time>2017-06-07T09:21:01Z</time>
      </trkpt>
      <trkpt lat="44.12458" lon="6.97164">
        <ele>1996</ele>
        <time>2017-06-07T09:21:01Z</time>
      </trkpt>
      <trkpt lat="44.12459" lon="6.97158">
        <ele>2005</ele>
        <time>2017-06-07T09:21:01Z</time>
      </trkpt>
      <trkpt lat="44.12461" lon="6.97154">
        <ele>2005</ele>
        <time>2017-06-07T09:21:01Z</time>
      </trkpt>
      <trkpt lat="44.12461" lon="6.97152">
        <ele>2009</ele>
        <time>2017-06-07T09:21:16Z</time>
      </trkpt>
      <trkpt lat="44.12463" lon="6.97145">
        <ele>2009</ele>
        <time>2017-06-07T09:21:16Z</time>
      </trkpt>
      <trkpt lat="44.12466" lon="6.97142">
        <ele>2009</ele>
        <time>2017-06-07T09:21:17Z</time>
      </trkpt>
      <trkpt lat="44.12467" lon="6.97138">
        <ele>2009</ele>
        <time>2017-06-07T09:21:18Z</time>
      </trkpt>
      <trkpt lat="44.12468" lon="6.97133">
        <ele>2009</ele>
        <time>2017-06-07T09:21:36Z</time>
      </trkpt>
      <trkpt lat="44.12471" lon="6.97131">
        <ele>2009</ele>
        <time>2017-06-07T09:21:36Z</time>
      </trkpt>
      <trkpt lat="44.12472" lon="6.97128">
        <ele>2009</ele>
        <time>2017-06-07T09:21:36Z</time>
      </trkpt>
      <trkpt lat="44.12474" lon="6.97124">
        <ele>2009</ele>
        <time>2017-06-07T09:21:37Z</time>
      </trkpt>
      <trkpt lat="44.12476" lon="6.97121">
        <ele>2009</ele>
        <time>2017-06-07T09:21:37Z</time>
      </trkpt>
      <trkpt lat="44.12477" lon="6.97119">
        <ele>2009</ele>
        <time>2017-06-07T09:21:56Z</time>
      </trkpt>
      <trkpt lat="44.12478" lon="6.97115">
        <ele>2009</ele>
        <time>2017-06-07T09:21:56Z</time>
      </trkpt>
      <trkpt lat="44.1248" lon="6.97112">
        <ele>2009</ele>
        <time>2017-06-07T09:21:57Z</time>
      </trkpt>
      <trkpt lat="44.12481" lon="6.97109">
        <ele>2009</ele>
        <time>2017-06-07T09:21:57Z</time>
      </trkpt>
      <trkpt lat="44.12483" lon="6.97105">
        <ele>2009</ele>
        <time>2017-06-07T09:21:57Z</time>
      </trkpt>
      <trkpt lat="44.12484" lon="6.97103">
        <ele>2009</ele>
        <time>2017-06-07T09:22:17Z</time>
      </trkpt>
      <trkpt lat="44.12486" lon="6.971">
        <ele>2009</ele>
        <time>2017-06-07T09:22:17Z</time>
      </trkpt>
      <trkpt lat="44.12489" lon="6.97097">
        <ele>2022</ele>
        <time>2017-06-07T09:22:17Z</time>
      </trkpt>
      <trkpt lat="44.12491" lon="6.97095">
        <ele>2020</ele>
        <time>2017-06-07T09:22:17Z</time>
      </trkpt>
      <trkpt lat="44.12492" lon="6.97095">
        <ele>2020</ele>
        <time>2017-06-07T09:22:17Z</time>
      </trkpt>
      <trkpt lat="44.12494" lon="6.97099">
        <ele>2022</ele>
        <time>2017-06-07T09:22:41Z</time>
      </trkpt>
      <trkpt lat="44.12495" lon="6.97098">
        <ele>2022</ele>
        <time>2017-06-07T09:22:41Z</time>
      </trkpt>
      <trkpt lat="44.12495" lon="6.971">
        <ele>2022</ele>
        <time>2017-06-07T09:22:41Z</time>
      </trkpt>
      <trkpt lat="44.12497" lon="6.97103">
        <ele>2022</ele>
        <time>2017-06-07T09:22:41Z</time>
      </trkpt>
      <trkpt lat="44.12498" lon="6.97108">
        <ele>2022</ele>
        <time>2017-06-07T09:22:41Z</time>
      </trkpt>
      <trkpt lat="44.12502" lon="6.9712">
        <ele>2022</ele>
        <time>2017-06-07T09:23:16Z</time>
      </trkpt>
      <trkpt lat="44.12506" lon="6.97124">
        <ele>2022</ele>
        <time>2017-06-07T09:23:16Z</time>
      </trkpt>
      <trkpt lat="44.12506" lon="6.97125">
        <ele>2022</ele>
        <time>2017-06-07T09:23:17Z</time>
      </trkpt>
      <trkpt lat="44.12506" lon="6.97127">
        <ele>2023</ele>
        <time>2017-06-07T09:23:17Z</time>
      </trkpt>
      <trkpt lat="44.12506" lon="6.97129">
        <ele>2023</ele>
        <time>2017-06-07T09:23:17Z</time>
      </trkpt>
      <trkpt lat="44.12511" lon="6.97137">
        <ele>2023</ele>
        <time>2017-06-07T09:23:49Z</time>
      </trkpt>
      <trkpt lat="44.12512" lon="6.97139">
        <ele>2023</ele>
        <time>2017-06-07T09:23:49Z</time>
      </trkpt>
      <trkpt lat="44.12512" lon="6.9714">
        <ele>2023</ele>
        <time>2017-06-07T09:23:49Z</time>
      </trkpt>
      <trkpt lat="44.12513" lon="6.97139">
        <ele>2023</ele>
        <time>2017-06-07T09:23:49Z</time>
      </trkpt>
      <trkpt lat="44.12513" lon="6.97142">
        <ele>2023</ele>
        <time>2017-06-07T09:23:49Z</time>
      </trkpt>
      <trkpt lat="44.12513" lon="6.97143">
        <ele>2023</ele>
        <time>2017-06-07T09:24:07Z</time>
      </trkpt>
      <trkpt lat="44.12514" lon="6.97144">
        <ele>2038</ele>
        <time>2017-06-07T09:24:07Z</time>
      </trkpt>
      <trkpt lat="44.12515" lon="6.97147">
        <ele>2038</ele>
        <time>2017-06-07T09:24:07Z</time>
      </trkpt>
      <trkpt lat="44.12518" lon="6.97149">
        <ele>2038</ele>
        <time>2017-06-07T09:24:07Z</time>
      </trkpt>
      <trkpt lat="44.1252" lon="6.97157">
        <ele>2036</ele>
        <time>2017-06-07T09:24:07Z</time>
      </trkpt>
      <trkpt lat="44.12521" lon="6.97157">
        <ele>2036</ele>
        <time>2017-06-07T09:25:28Z</time>
      </trkpt>
      <trkpt lat="44.12523" lon="6.97159">
        <ele>2036</ele>
        <time>2017-06-07T09:25:28Z</time>
      </trkpt>
      <trkpt lat="44.12525" lon="6.97161">
        <ele>2036</ele>
        <time>2017-06-07T09:25:28Z</time>
      </trkpt>
      <trkpt lat="44.12524" lon="6.97165">
        <ele>2036</ele>
        <time>2017-06-07T09:25:29Z</time>
      </trkpt>
      <trkpt lat="44.12527" lon="6.97168">
        <ele>2036</ele>
        <time>2017-06-07T09:25:29Z</time>
      </trkpt>
      <trkpt lat="44.1253" lon="6.97176">
        <ele>2036</ele>
        <time>2017-06-07T09:26:47Z</time>
      </trkpt>
      <trkpt lat="44.12531" lon="6.97177">
        <ele>2036</ele>
        <time>2017-06-07T09:26:47Z</time>
      </trkpt>
      <trkpt lat="44.12531" lon="6.97177">
        <ele>2036</ele>
        <time>2017-06-07T09:26:47Z</time>
      </trkpt>
      <trkpt lat="44.12532" lon="6.97178">
        <ele>2036</ele>
        <time>2017-06-07T09:26:47Z</time>
      </trkpt>
      <trkpt lat="44.12533" lon="6.97181">
        <ele>2033</ele>
        <time>2017-06-07T09:26:47Z</time>
      </trkpt>
      <trkpt lat="44.12537" lon="6.97182">
        <ele>2033</ele>
        <time>2017-06-07T09:27:25Z</time>
      </trkpt>
      <trkpt lat="44.12538" lon="6.97179">
        <ele>2036</ele>
        <time>2017-06-07T09:27:25Z</time>
      </trkpt>
      <trkpt lat="44.12539" lon="6.97178">
        <ele>2036</ele>
        <time>2017-06-07T09:27:25Z</time>
      </trkpt>
      <trkpt lat="44.12539" lon="6.97177">
        <ele>2036</ele>
        <time>2017-06-07T09:27:25Z</time>
      </trkpt>
      <trkpt lat="44.12541" lon="6.97179">
        <ele>2036</ele>
        <time>2017-06-07T09:27:25Z</time>
      </trkpt>
      <trkpt lat="44.12546" lon="6.97188">
        <ele>2045</ele>
        <time>2017-06-07T09:28:00Z</time>
      </trkpt>
      <trkpt lat="44.12548" lon="6.97189">
        <ele>2045</ele>
        <time>2017-06-07T09:28:00Z</time>
      </trkpt>
      <trkpt lat="44.12547" lon="6.97191">
        <ele>2045</ele>
        <time>2017-06-07T09:28:00Z</time>
      </trkpt>
      <trkpt lat="44.12546" lon="6.97194">
        <ele>2045</ele>
        <time>2017-06-07T09:28:00Z</time>
      </trkpt>
      <trkpt lat="44.12547" lon="6.97196">
        <ele>2045</ele>
        <time>2017-06-07T09:28:01Z</time>
      </trkpt>
      <trkpt lat="44.12546" lon="6.97201">
        <ele>2045</ele>
        <time>2017-06-07T09:29:01Z</time>
      </trkpt>
      <trkpt lat="44.12549" lon="6.972">
        <ele>2045</ele>
        <time>2017-06-07T09:29:01Z</time>
      </trkpt>
      <trkpt lat="44.12551" lon="6.97196">
        <ele>2045</ele>
        <time>2017-06-07T09:29:01Z</time>
      </trkpt>
      <trkpt lat="44.12552" lon="6.97194">
        <ele>2045</ele>
        <time>2017-06-07T09:29:01Z</time>
      </trkpt>
      <trkpt lat="44.12556" lon="6.97195">
        <ele>2045</ele>
        <time>2017-06-07T09:29:01Z</time>
      </trkpt>
      <trkpt lat="44.12568" lon="6.97189">
        <ele>2045</ele>
        <time>2017-06-07T09:30:20Z</time>
      </trkpt>
      <trkpt lat="44.1257" lon="6.97194">
        <ele>2054</ele>
        <time>2017-06-07T09:30:20Z</time>
      </trkpt>
      <trkpt lat="44.12571" lon="6.97194">
        <ele>2054</ele>
        <time>2017-06-07T09:30:20Z</time>
      </trkpt>
      <trkpt lat="44.12571" lon="6.97196">
        <ele>2054</ele>
        <time>2017-06-07T09:30:20Z</time>
      </trkpt>
      <trkpt lat="44.12574" lon="6.97199">
        <ele>2054</ele>
        <time>2017-06-07T09:30:20Z</time>
      </trkpt>
      <trkpt lat="44.12575" lon="6.97203">
        <ele>2054</ele>
        <time>2017-06-07T09:30:44Z</time>
      </trkpt>
      <trkpt lat="44.12574" lon="6.97205">
        <ele>2054</ele>
        <time>2017-06-07T09:30:44Z</time>
      </trkpt>
      <trkpt lat="44.12574" lon="6.97209">
        <ele>2055</ele>
        <time>2017-06-07T09:30:45Z</time>
      </trkpt>
      <trkpt lat="44.12574" lon="6.97211">
        <ele>2055</ele>
        <time>2017-06-07T09:30:45Z</time>
      </trkpt>
      <trkpt lat="44.12575" lon="6.97212">
        <ele>2055</ele>
        <time>2017-06-07T09:30:46Z</time>
      </trkpt>
      <trkpt lat="44.1258" lon="6.97231">
        <ele>2055</ele>
        <time>2017-06-07T09:31:36Z</time>
      </trkpt>
      <trkpt lat="44.12582" lon="6.97232">
        <ele>2055</ele>
        <time>2017-06-07T09:31:36Z</time>
      </trkpt>
      <trkpt lat="44.12582" lon="6.97232">
        <ele>2055</ele>
        <time>2017-06-07T09:31:36Z</time>
      </trkpt>
      <trkpt lat="44.12582" lon="6.97233">
        <ele>2055</ele>
        <time>2017-06-07T09:31:37Z</time>
      </trkpt>
      <trkpt lat="44.12585" lon="6.97234">
        <ele>2055</ele>
        <time>2017-06-07T09:31:37Z</time>
      </trkpt>
      <trkpt lat="44.12588" lon="6.97236">
        <ele>2055</ele>
        <time>2017-06-07T09:32:00Z</time>
      </trkpt>
      <trkpt lat="44.1259" lon="6.97234">
        <ele>2055</ele>
        <time>2017-06-07T09:32:00Z</time>
      </trkpt>
      <trkpt lat="44.12591" lon="6.97231">
        <ele>2055</ele>
        <time>2017-06-07T09:32:00Z</time>
      </trkpt>
      <trkpt lat="44.12592" lon="6.9723">
        <ele>2055</ele>
        <time>2017-06-07T09:32:00Z</time>
      </trkpt>
      <trkpt lat="44.12593" lon="6.97224">
        <ele>2055</ele>
        <time>2017-06-07T09:32:00Z</time>
      </trkpt>
      <trkpt lat="44.12593" lon="6.97222">
        <ele>2055</ele>
        <time>2017-06-07T09:32:16Z</time>
      </trkpt>
      <trkpt lat="44.12594" lon="6.97219">
        <ele>2055</ele>
        <time>2017-06-07T09:32:16Z</time>
      </trkpt>
      <trkpt lat="44.12594" lon="6.97213">
        <ele>2055</ele>
        <time>2017-06-07T09:32:16Z</time>
      </trkpt>
      <trkpt lat="44.12593" lon="6.97208">
        <ele>2054</ele>
        <time>2017-06-07T09:32:17Z</time>
      </trkpt>
      <trkpt lat="44.12596" lon="6.97203">
        <ele>2054</ele>
        <time>2017-06-07T09:32:51Z</time>
      </trkpt>
      <trkpt lat="44.12595" lon="6.97199">
        <ele>2054</ele>
        <time>2017-06-07T09:32:51Z</time>
      </trkpt>
      <trkpt lat="44.12596" lon="6.97199">
        <ele>2054</ele>
        <time>2017-06-07T09:32:51Z</time>
      </trkpt>
      <trkpt lat="44.12596" lon="6.97196">
        <ele>2054</ele>
        <time>2017-06-07T09:32:51Z</time>
      </trkpt>
      <trkpt lat="44.12599" lon="6.9719">
        <ele>2069</ele>
        <time>2017-06-07T09:32:51Z</time>
      </trkpt>
      <trkpt lat="44.12605" lon="6.97183">
        <ele>2069</ele>
        <time>2017-06-07T09:33:21Z</time>
      </trkpt>
      <trkpt lat="44.12605" lon="6.97182">
        <ele>2069</ele>
        <time>2017-06-07T09:33:21Z</time>
      </trkpt>
      <trkpt lat="44.12605" lon="6.97181">
        <ele>2069</ele>
        <time>2017-06-07T09:33:21Z</time>
      </trkpt>
      <trkpt lat="44.12605" lon="6.97174">
        <ele>2074</ele>
        <time>2017-06-07T09:33:21Z</time>
      </trkpt>
      <trkpt lat="44.12604" lon="6.97172">
        <ele>2074</ele>
        <time>2017-06-07T09:33:21Z</time>
      </trkpt>
      <trkpt lat="44.12603" lon="6.97171">
        <ele>2074</ele>
        <time>2017-06-07T09:33:44Z</time>
      </trkpt>
      <trkpt lat="44.12602" lon="6.97167">
        <ele>2074</ele>
        <time>2017-06-07T09:33:44Z</time>
      </trkpt>
      <trkpt lat="44.12602" lon="6.97167">
        <ele>2074</ele>
        <time>2017-06-07T09:33:44Z</time>
      </trkpt>
      <trkpt lat="44.12602" lon="6.97161">
        <ele>2074</ele>
        <time>2017-06-07T09:33:45Z</time>
      </trkpt>
      <trkpt lat="44.12601" lon="6.97158">
        <ele>2074</ele>
        <time>2017-06-07T09:33:45Z</time>
      </trkpt>
      <trkpt lat="44.12601" lon="6.97156">
        <ele>2074</ele>
        <time>2017-06-07T09:34:00Z</time>
      </trkpt>
      <trkpt lat="44.12599" lon="6.9715">
        <ele>2078</ele>
        <time>2017-06-07T09:34:01Z</time>
      </trkpt>
      <trkpt lat="44.12599" lon="6.97147">
        <ele>2078</ele>
        <time>2017-06-07T09:34:01Z</time>
      </trkpt>
      <trkpt lat="44.12598" lon="6.97143">
        <ele>2078</ele>
        <time>2017-06-07T09:34:01Z</time>
      </trkpt>
      <trkpt lat="44.12598" lon="6.9714">
        <ele>2078</ele>
        <time>2017-06-07T09:34:17Z</time>
      </trkpt>
      <trkpt lat="44.12597" lon="6.97135">
        <ele>2060</ele>
        <time>2017-06-07T09:34:17Z</time>
      </trkpt>
      <trkpt lat="44.12598" lon="6.97131">
        <ele>2078</ele>
        <time>2017-06-07T09:34:17Z</time>
      </trkpt>
      <trkpt lat="44.126" lon="6.97124">
        <ele>2082</ele>
        <time>2017-06-07T09:34:17Z</time>
      </trkpt>
      <trkpt lat="44.12601" lon="6.97118">
        <ele>2082</ele>
        <time>2017-06-07T09:34:36Z</time>
      </trkpt>
      <trkpt lat="44.12603" lon="6.97114">
        <ele>2082</ele>
        <time>2017-06-07T09:34:36Z</time>
      </trkpt>
      <trkpt lat="44.12604" lon="6.97113">
        <ele>2082</ele>
        <time>2017-06-07T09:34:36Z</time>
      </trkpt>
      <trkpt lat="44.12606" lon="6.97111">
        <ele>2082</ele>
        <time>2017-06-07T09:34:36Z</time>
      </trkpt>
      <trkpt lat="44.12608" lon="6.97109">
        <ele>2082</ele>
        <time>2017-06-07T09:34:37Z</time>
      </trkpt>
      <trkpt lat="44.12611" lon="6.97105">
        <ele>2082</ele>
        <time>2017-06-07T09:35:20Z</time>
      </trkpt>
      <trkpt lat="44.12616" lon="6.97112">
        <ele>2082</ele>
        <time>2017-06-07T09:35:20Z</time>
      </trkpt>
      <trkpt lat="44.12618" lon="6.97113">
        <ele>2082</ele>
        <time>2017-06-07T09:35:20Z</time>
      </trkpt>
      <trkpt lat="44.12618" lon="6.97112">
        <ele>2082</ele>
        <time>2017-06-07T09:35:20Z</time>
      </trkpt>
      <trkpt lat="44.12619" lon="6.97115">
        <ele>2082</ele>
        <time>2017-06-07T09:35:21Z</time>
      </trkpt>
      <trkpt lat="44.12623" lon="6.97117">
        <ele>2082</ele>
        <time>2017-06-07T09:35:40Z</time>
      </trkpt>
      <trkpt lat="44.12624" lon="6.97118">
        <ele>2082</ele>
        <time>2017-06-07T09:35:40Z</time>
      </trkpt>
      <trkpt lat="44.12625" lon="6.97118">
        <ele>2082</ele>
        <time>2017-06-07T09:35:40Z</time>
      </trkpt>
      <trkpt lat="44.1263" lon="6.97121">
        <ele>2100</ele>
        <time>2017-06-07T09:35:40Z</time>
      </trkpt>
      <trkpt lat="44.12632" lon="6.97123">
        <ele>2100</ele>
        <time>2017-06-07T09:35:40Z</time>
      </trkpt>
      <trkpt lat="44.12641" lon="6.97129">
        <ele>2097</ele>
        <time>2017-06-07T09:36:25Z</time>
      </trkpt>
      <trkpt lat="44.12643" lon="6.97129">
        <ele>2097</ele>
        <time>2017-06-07T09:36:25Z</time>
      </trkpt>
      <trkpt lat="44.12643" lon="6.9713">
        <ele>2097</ele>
        <time>2017-06-07T09:36:25Z</time>
      </trkpt>
      <trkpt lat="44.12645" lon="6.97131">
        <ele>2097</ele>
        <time>2017-06-07T09:36:25Z</time>
      </trkpt>
      <trkpt lat="44.12646" lon="6.97131">
        <ele>2097</ele>
        <time>2017-06-07T09:36:25Z</time>
      </trkpt>
      <trkpt lat="44.12658" lon="6.97149">
        <ele>2106</ele>
        <time>2017-06-07T09:38:17Z</time>
      </trkpt>
      <trkpt lat="44.12657" lon="6.97149">
        <ele>2106</ele>
        <time>2017-06-07T09:38:17Z</time>
      </trkpt>
      <trkpt lat="44.12659" lon="6.97148">
        <ele>2106</ele>
        <time>2017-06-07T09:38:17Z</time>
      </trkpt>
      <trkpt lat="44.12659" lon="6.97148">
        <ele>2106</ele>
        <time>2017-06-07T09:38:17Z</time>
      </trkpt>
      <trkpt lat="44.12659" lon="6.97148">
        <ele>2106</ele>
        <time>2017-06-07T09:38:17Z</time>
      </trkpt>
      <trkpt lat="44.12663" lon="6.97155">
        <ele>2102</ele>
        <time>2017-06-07T09:40:36Z</time>
      </trkpt>
      <trkpt lat="44.12664" lon="6.97154">
        <ele>2102</ele>
        <time>2017-06-07T09:40:36Z</time>
      </trkpt>
      <trkpt lat="44.12665" lon="6.97155">
        <ele>2102</ele>
        <time>2017-06-07T09:40:37Z</time>
      </trkpt>
      <trkpt lat="44.12666" lon="6.97156">
        <ele>2102</ele>
        <time>2017-06-07T09:40:37Z</time>
      </trkpt>
      <trkpt lat="44.12667" lon="6.9716">
        <ele>2102</ele>
        <time>2017-06-07T09:40:37Z</time>
      </trkpt>
      <trkpt lat="44.12669" lon="6.97161">
        <ele>2102</ele>
        <time>2017-06-07T09:41:28Z</time>
      </trkpt>
      <trkpt lat="44.1267" lon="6.97158">
        <ele>2102</ele>
        <time>2017-06-07T09:41:28Z</time>
      </trkpt>
      <trkpt lat="44.1267" lon="6.97156">
        <ele>2102</ele>
        <time>2017-06-07T09:41:29Z</time>
      </trkpt>
      <trkpt lat="44.1267" lon="6.97151">
        <ele>2106</ele>
        <time>2017-06-07T09:41:29Z</time>
      </trkpt>
      <trkpt lat="44.1267" lon="6.97146">
        <ele>2106</ele>
        <time>2017-06-07T09:41:30Z</time>
      </trkpt>
      <trkpt lat="44.1267" lon="6.97143">
        <ele>2106</ele>
        <time>2017-06-07T09:41:44Z</time>
      </trkpt>
      <trkpt lat="44.12669" lon="6.97139">
        <ele>2106</ele>
        <time>2017-06-07T09:41:44Z</time>
      </trkpt>
      <trkpt lat="44.12667" lon="6.97135">
        <ele>2106</ele>
        <time>2017-06-07T09:41:44Z</time>
      </trkpt>
      <trkpt lat="44.12666" lon="6.97129">
        <ele>2106</ele>
        <time>2017-06-07T09:41:44Z</time>
      </trkpt>
      <trkpt lat="44.12665" lon="6.97128">
        <ele>2106</ele>
        <time>2017-06-07T09:42:04Z</time>
      </trkpt>
      <trkpt lat="44.12665" lon="6.97126">
        <ele>2106</ele>
        <time>2017-06-07T09:42:04Z</time>
      </trkpt>
      <trkpt lat="44.12666" lon="6.97123">
        <ele>2110</ele>
        <time>2017-06-07T09:42:04Z</time>
      </trkpt>
      <trkpt lat="44.12666" lon="6.97119">
        <ele>2110</ele>
        <time>2017-06-07T09:42:04Z</time>
      </trkpt>
      <trkpt lat="44.12666" lon="6.97115">
        <ele>2110</ele>
        <time>2017-06-07T09:42:05Z</time>
      </trkpt>
      <trkpt lat="44.1267" lon="6.9711">
        <ele>2110</ele>
        <time>2017-06-07T09:42:32Z</time>
      </trkpt>
      <trkpt lat="44.1267" lon="6.97109">
        <ele>2110</ele>
        <time>2017-06-07T09:42:32Z</time>
      </trkpt>
      <trkpt lat="44.12669" lon="6.97104">
        <ele>2110</ele>
        <time>2017-06-07T09:42:32Z</time>
      </trkpt>
      <trkpt lat="44.1267" lon="6.97103">
        <ele>2110</ele>
        <time>2017-06-07T09:42:33Z</time>
      </trkpt>
      <trkpt lat="44.1267" lon="6.97102">
        <ele>2110</ele>
        <time>2017-06-07T09:42:33Z</time>
      </trkpt>
      <trkpt lat="44.1267" lon="6.9709">
        <ele>2112</ele>
        <time>2017-06-07T09:43:05Z</time>
      </trkpt>
      <trkpt lat="44.1267" lon="6.9709">
        <ele>2112</ele>
        <time>2017-06-07T09:43:05Z</time>
      </trkpt>
      <trkpt lat="44.1267" lon="6.97088">
        <ele>2112</ele>
        <time>2017-06-07T09:43:05Z</time>
      </trkpt>
      <trkpt lat="44.12671" lon="6.97087">
        <ele>2112</ele>
        <time>2017-06-07T09:43:05Z</time>
      </trkpt>
      <trkpt lat="44.12672" lon="6.97084">
        <ele>2112</ele>
        <time>2017-06-07T09:43:05Z</time>
      </trkpt>
      <trkpt lat="44.12674" lon="6.97081">
        <ele>2112</ele>
        <time>2017-06-07T09:43:19Z</time>
      </trkpt>
      <trkpt lat="44.12673" lon="6.97078">
        <ele>2112</ele>
        <time>2017-06-07T09:43:19Z</time>
      </trkpt>
      <trkpt lat="44.12673" lon="6.97073">
        <ele>2112</ele>
        <time>2017-06-07T09:43:19Z</time>
      </trkpt>
      <trkpt lat="44.12671" lon="6.97068">
        <ele>2115</ele>
        <time>2017-06-07T09:43:20Z</time>
      </trkpt>
      <trkpt lat="44.12673" lon="6.97063">
        <ele>2115</ele>
        <time>2017-06-07T09:43:56Z</time>
      </trkpt>
      <trkpt lat="44.12674" lon="6.97065">
        <ele>2115</ele>
        <time>2017-06-07T09:43:56Z</time>
      </trkpt>
      <trkpt lat="44.12675" lon="6.97067">
        <ele>2115</ele>
        <time>2017-06-07T09:43:56Z</time>
      </trkpt>
      <trkpt lat="44.12676" lon="6.97069">
        <ele>2115</ele>
        <time>2017-06-07T09:43:57Z</time>
      </trkpt>
      <trkpt lat="44.12676" lon="6.9707">
        <ele>2112</ele>
        <time>2017-06-07T09:43:57Z</time>
      </trkpt>
      <trkpt lat="44.12678" lon="6.97076">
        <ele>2112</ele>
        <time>2017-06-07T09:44:16Z</time>
      </trkpt>
      <trkpt lat="44.12679" lon="6.9708">
        <ele>2112</ele>
        <time>2017-06-07T09:44:16Z</time>
      </trkpt>
      <trkpt lat="44.12679" lon="6.97084">
        <ele>2112</ele>
        <time>2017-06-07T09:44:16Z</time>
      </trkpt>
      <trkpt lat="44.1268" lon="6.97087">
        <ele>2112</ele>
        <time>2017-06-07T09:44:16Z</time>
      </trkpt>
      <trkpt lat="44.12681" lon="6.97091">
        <ele>2127</ele>
        <time>2017-06-07T09:44:16Z</time>
      </trkpt>
      <trkpt lat="44.12686" lon="6.97097">
        <ele>2127</ele>
        <time>2017-06-07T09:44:44Z</time>
      </trkpt>
      <trkpt lat="44.12686" lon="6.971">
        <ele>2123</ele>
        <time>2017-06-07T09:44:44Z</time>
      </trkpt>
      <trkpt lat="44.12684" lon="6.97103">
        <ele>2123</ele>
        <time>2017-06-07T09:44:44Z</time>
      </trkpt>
      <trkpt lat="44.12685" lon="6.97104">
        <ele>2123</ele>
        <time>2017-06-07T09:44:45Z</time>
      </trkpt>
      <trkpt lat="44.12687" lon="6.97104">
        <ele>2123</ele>
        <time>2017-06-07T09:44:45Z</time>
      </trkpt>
      <trkpt lat="44.12688" lon="6.97108">
        <ele>2123</ele>
        <time>2017-06-07T09:44:59Z</time>
      </trkpt>
      <trkpt lat="44.1269" lon="6.97111">
        <ele>2123</ele>
        <time>2017-06-07T09:44:59Z</time>
      </trkpt>
      <trkpt lat="44.12692" lon="6.97114">
        <ele>2123</ele>
        <time>2017-06-07T09:44:59Z</time>
      </trkpt>
      <trkpt lat="44.12694" lon="6.97118">
        <ele>2123</ele>
        <time>2017-06-07T09:44:59Z</time>
      </trkpt>
      <trkpt lat="44.12695" lon="6.9712">
        <ele>2123</ele>
        <time>2017-06-07T09:45:19Z</time>
      </trkpt>
      <trkpt lat="44.12697" lon="6.97122">
        <ele>2123</ele>
        <time>2017-06-07T09:45:19Z</time>
      </trkpt>
      <trkpt lat="44.12698" lon="6.97124">
        <ele>2123</ele>
        <time>2017-06-07T09:45:19Z</time>
      </trkpt>
      <trkpt lat="44.12701" lon="6.97127">
        <ele>2118</ele>
        <time>2017-06-07T09:45:19Z</time>
      </trkpt>
      <trkpt lat="44.12702" lon="6.97128">
        <ele>2118</ele>
        <time>2017-06-07T09:45:19Z</time>
      </trkpt>
      <trkpt lat="44.12703" lon="6.97131">
        <ele>2118</ele>
        <time>2017-06-07T09:46:40Z</time>
      </trkpt>
      <trkpt lat="44.12705" lon="6.97134">
        <ele>2118</ele>
        <time>2017-06-07T09:46:40Z</time>
      </trkpt>
      <trkpt lat="44.12708" lon="6.97136">
        <ele>2118</ele>
        <time>2017-06-07T09:46:41Z</time>
      </trkpt>
      <trkpt lat="44.12709" lon="6.97139">
        <ele>2135</ele>
        <time>2017-06-07T09:46:41Z</time>
      </trkpt>
      <trkpt lat="44.12711" lon="6.97143">
        <ele>2135</ele>
        <time>2017-06-07T09:46:41Z</time>
      </trkpt>
      <trkpt lat="44.12714" lon="6.97145">
        <ele>2135</ele>
        <time>2017-06-07T09:47:00Z</time>
      </trkpt>
      <trkpt lat="44.12717" lon="6.97146">
        <ele>2135</ele>
        <time>2017-06-07T09:47:00Z</time>
      </trkpt>
      <trkpt lat="44.12718" lon="6.97147">
        <ele>2135</ele>
        <time>2017-06-07T09:47:00Z</time>
      </trkpt>
      <trkpt lat="44.12722" lon="6.97147">
        <ele>2135</ele>
        <time>2017-06-07T09:47:00Z</time>
      </trkpt>
      <trkpt lat="44.12724" lon="6.9715">
        <ele>2135</ele>
        <time>2017-06-07T09:47:00Z</time>
      </trkpt>
      <trkpt lat="44.12726" lon="6.9715">
        <ele>2135</ele>
        <time>2017-06-07T09:47:16Z</time>
      </trkpt>
      <trkpt lat="44.1273" lon="6.97154">
        <ele>2129</ele>
        <time>2017-06-07T09:47:16Z</time>
      </trkpt>
      <trkpt lat="44.12732" lon="6.97156">
        <ele>2129</ele>
        <time>2017-06-07T09:47:16Z</time>
      </trkpt>
      <trkpt lat="44.12736" lon="6.97157">
        <ele>2144</ele>
        <time>2017-06-07T09:47:16Z</time>
      </trkpt>
      <trkpt lat="44.12744" lon="6.97166">
        <ele>2144</ele>
        <time>2017-06-07T09:48:00Z</time>
      </trkpt>
      <trkpt lat="44.12747" lon="6.97166">
        <ele>2144</ele>
        <time>2017-06-07T09:48:00Z</time>
      </trkpt>
      <trkpt lat="44.12751" lon="6.9717">
        <ele>2144</ele>
        <time>2017-06-07T09:48:01Z</time>
      </trkpt>
      <trkpt lat="44.12754" lon="6.97171">
        <ele>2144</ele>
        <time>2017-06-07T09:48:02Z</time>
      </trkpt>
      <trkpt lat="44.12755" lon="6.97172">
        <ele>2144</ele>
        <time>2017-06-07T09:48:02Z</time>
      </trkpt>
      <trkpt lat="44.12757" lon="6.97177">
        <ele>2144</ele>
        <time>2017-06-07T09:48:16Z</time>
      </trkpt>
      <trkpt lat="44.12759" lon="6.97179">
        <ele>2144</ele>
        <time>2017-06-07T09:48:16Z</time>
      </trkpt>
      <trkpt lat="44.12763" lon="6.9718">
        <ele>2144</ele>
        <time>2017-06-07T09:48:16Z</time>
      </trkpt>
      <trkpt lat="44.12765" lon="6.97183">
        <ele>2147</ele>
        <time>2017-06-07T09:48:17Z</time>
      </trkpt>
      <trkpt lat="44.12768" lon="6.97185">
        <ele>2147</ele>
        <time>2017-06-07T09:48:36Z</time>
      </trkpt>
      <trkpt lat="44.12772" lon="6.97188">
        <ele>2147</ele>
        <time>2017-06-07T09:48:36Z</time>
      </trkpt>
      <trkpt lat="44.12774" lon="6.9719">
        <ele>2147</ele>
        <time>2017-06-07T09:48:36Z</time>
      </trkpt>
      <trkpt lat="44.12776" lon="6.97189">
        <ele>2147</ele>
        <time>2017-06-07T09:48:37Z</time>
      </trkpt>
      <trkpt lat="44.12778" lon="6.97189">
        <ele>2147</ele>
        <time>2017-06-07T09:48:37Z</time>
      </trkpt>
      <trkpt lat="44.12781" lon="6.97194">
        <ele>2147</ele>
        <time>2017-06-07T09:49:03Z</time>
      </trkpt>
      <trkpt lat="44.12782" lon="6.97195">
        <ele>2147</ele>
        <time>2017-06-07T09:49:03Z</time>
      </trkpt>
      <trkpt lat="44.12782" lon="6.97196">
        <ele>2147</ele>
        <time>2017-06-07T09:49:03Z</time>
      </trkpt>
      <trkpt lat="44.12783" lon="6.97197">
        <ele>2147</ele>
        <time>2017-06-07T09:49:03Z</time>
      </trkpt>
      <trkpt lat="44.12787" lon="6.97198">
        <ele>2147</ele>
        <time>2017-06-07T09:49:03Z</time>
      </trkpt>
      <trkpt lat="44.12792" lon="6.97203">
        <ele>2161</ele>
        <time>2017-06-07T09:49:28Z</time>
      </trkpt>
      <trkpt lat="44.12793" lon="6.97203">
        <ele>2161</ele>
        <time>2017-06-07T09:49:28Z</time>
      </trkpt>
      <trkpt lat="44.12798" lon="6.97203">
        <ele>2161</ele>
        <time>2017-06-07T09:49:29Z</time>
      </trkpt>
      <trkpt lat="44.12799" lon="6.97203">
        <ele>2161</ele>
        <time>2017-06-07T09:49:29Z</time>
      </trkpt>
      <trkpt lat="44.12801" lon="6.97205">
        <ele>2161</ele>
        <time>2017-06-07T09:49:29Z</time>
      </trkpt>
      <trkpt lat="44.12805" lon="6.97208">
        <ele>2161</ele>
        <time>2017-06-07T09:51:44Z</time>
      </trkpt>
      <trkpt lat="44.12807" lon="6.9721">
        <ele>2159</ele>
        <time>2017-06-07T09:51:44Z</time>
      </trkpt>
      <trkpt lat="44.1281" lon="6.97214">
        <ele>2159</ele>
        <time>2017-06-07T09:51:44Z</time>
      </trkpt>
      <trkpt lat="44.12812" lon="6.97215">
        <ele>2159</ele>
        <time>2017-06-07T09:51:45Z</time>
      </trkpt>
      <trkpt lat="44.12813" lon="6.97215">
        <ele>2159</ele>
        <time>2017-06-07T09:51:45Z</time>
      </trkpt>
      <trkpt lat="44.12815" lon="6.97216">
        <ele>2159</ele>
        <time>2017-06-07T09:52:03Z</time>
      </trkpt>
      <trkpt lat="44.12817" lon="6.97217">
        <ele>2159</ele>
        <time>2017-06-07T09:52:03Z</time>
      </trkpt>
      <trkpt lat="44.12818" lon="6.97219">
        <ele>2159</ele>
        <time>2017-06-07T09:52:03Z</time>
      </trkpt>
      <trkpt lat="44.12821" lon="6.97219">
        <ele>2171</ele>
        <time>2017-06-07T09:52:03Z</time>
      </trkpt>
      <trkpt lat="44.12824" lon="6.97221">
        <ele>2171</ele>
        <time>2017-06-07T09:52:03Z</time>
      </trkpt>
      <trkpt lat="44.12826" lon="6.97221">
        <ele>2171</ele>
        <time>2017-06-07T09:52:28Z</time>
      </trkpt>
      <trkpt lat="44.12827" lon="6.97222">
        <ele>2171</ele>
        <time>2017-06-07T09:52:28Z</time>
      </trkpt>
      <trkpt lat="44.1283" lon="6.97223">
        <ele>2171</ele>
        <time>2017-06-07T09:52:28Z</time>
      </trkpt>
      <trkpt lat="44.12832" lon="6.97222">
        <ele>2171</ele>
        <time>2017-06-07T09:52:28Z</time>
      </trkpt>
      <trkpt lat="44.12836" lon="6.9722">
        <ele>2171</ele>
        <time>2017-06-07T09:52:29Z</time>
      </trkpt>
      <trkpt lat="44.12836" lon="6.97222">
        <ele>2171</ele>
        <time>2017-06-07T09:52:44Z</time>
      </trkpt>
      <trkpt lat="44.12839" lon="6.97223">
        <ele>2171</ele>
        <time>2017-06-07T09:52:44Z</time>
      </trkpt>
      <trkpt lat="44.12842" lon="6.97225">
        <ele>2171</ele>
        <time>2017-06-07T09:52:44Z</time>
      </trkpt>
      <trkpt lat="44.12845" lon="6.97226">
        <ele>2171</ele>
        <time>2017-06-07T09:52:45Z</time>
      </trkpt>
      <trkpt lat="44.12858" lon="6.97228">
        <ele>2178</ele>
        <time>2017-06-07T09:54:36Z</time>
      </trkpt>
      <trkpt lat="44.12864" lon="6.97229">
        <ele>2178</ele>
        <time>2017-06-07T09:54:36Z</time>
      </trkpt>
      <trkpt lat="44.12867" lon="6.97229">
        <ele>2178</ele>
        <time>2017-06-07T09:54:36Z</time>
      </trkpt>
      <trkpt lat="44.12872" lon="6.97231">
        <ele>2178</ele>
        <time>2017-06-07T09:54:36Z</time>
      </trkpt>
      <trkpt lat="44.12874" lon="6.9723">
        <ele>2178</ele>
        <time>2017-06-07T09:54:36Z</time>
      </trkpt>
      <trkpt lat="44.12879" lon="6.97232">
        <ele>2184</ele>
        <time>2017-06-07T09:55:08Z</time>
      </trkpt>
      <trkpt lat="44.1288" lon="6.97232">
        <ele>2184</ele>
        <time>2017-06-07T09:55:08Z</time>
      </trkpt>
      <trkpt lat="44.12884" lon="6.97233">
        <ele>2184</ele>
        <time>2017-06-07T09:55:08Z</time>
      </trkpt>
      <trkpt lat="44.12886" lon="6.97233">
        <ele>2184</ele>
        <time>2017-06-07T09:55:08Z</time>
      </trkpt>
      <trkpt lat="44.12888" lon="6.97234">
        <ele>2184</ele>
        <time>2017-06-07T09:55:08Z</time>
      </trkpt>
      <trkpt lat="44.12896" lon="6.97236">
        <ele>2184</ele>
        <time>2017-06-07T09:55:36Z</time>
      </trkpt>
      <trkpt lat="44.12897" lon="6.97237">
        <ele>2179</ele>
        <time>2017-06-07T09:55:36Z</time>
      </trkpt>
      <trkpt lat="44.12897" lon="6.97238">
        <ele>2179</ele>
        <time>2017-06-07T09:55:36Z</time>
      </trkpt>
      <trkpt lat="44.12898" lon="6.97238">
        <ele>2179</ele>
        <time>2017-06-07T09:55:37Z</time>
      </trkpt>
      <trkpt lat="44.12901" lon="6.97237">
        <ele>2179</ele>
        <time>2017-06-07T09:55:37Z</time>
      </trkpt>
      <trkpt lat="44.12903" lon="6.97235">
        <ele>2184</ele>
        <time>2017-06-07T09:56:33Z</time>
      </trkpt>
      <trkpt lat="44.12905" lon="6.97236">
        <ele>2195</ele>
        <time>2017-06-07T09:56:33Z</time>
      </trkpt>
      <trkpt lat="44.12907" lon="6.97236">
        <ele>2195</ele>
        <time>2017-06-07T09:56:33Z</time>
      </trkpt>
      <trkpt lat="44.12908" lon="6.97237">
        <ele>2186</ele>
        <time>2017-06-07T09:56:33Z</time>
      </trkpt>
      <trkpt lat="44.12911" lon="6.97239">
        <ele>2186</ele>
        <time>2017-06-07T09:56:33Z</time>
      </trkpt>
      <trkpt lat="44.12914" lon="6.97238">
        <ele>2186</ele>
        <time>2017-06-07T09:56:49Z</time>
      </trkpt>
      <trkpt lat="44.12921" lon="6.97237">
        <ele>2186</ele>
        <time>2017-06-07T09:56:49Z</time>
      </trkpt>
      <trkpt lat="44.12924" lon="6.97238">
        <ele>2186</ele>
        <time>2017-06-07T09:56:49Z</time>
      </trkpt>
      <trkpt lat="44.12927" lon="6.97239">
        <ele>2186</ele>
        <time>2017-06-07T09:56:49Z</time>
      </trkpt>
      <trkpt lat="44.12931" lon="6.97239">
        <ele>2196</ele>
        <time>2017-06-07T09:57:13Z</time>
      </trkpt>
      <trkpt lat="44.12932" lon="6.97241">
        <ele>2196</ele>
        <time>2017-06-07T09:57:13Z</time>
      </trkpt>
      <trkpt lat="44.12933" lon="6.97241">
        <ele>2196</ele>
        <time>2017-06-07T09:57:13Z</time>
      </trkpt>
      <trkpt lat="44.12936" lon="6.97242">
        <ele>2196</ele>
        <time>2017-06-07T09:57:13Z</time>
      </trkpt>
      <trkpt lat="44.12943" lon="6.97244">
        <ele>2196</ele>
        <time>2017-06-07T09:57:14Z</time>
      </trkpt>
      <trkpt lat="44.1295" lon="6.97245">
        <ele>2196</ele>
        <time>2017-06-07T09:58:24Z</time>
      </trkpt>
      <trkpt lat="44.12953" lon="6.97244">
        <ele>2196</ele>
        <time>2017-06-07T09:58:24Z</time>
      </trkpt>
      <trkpt lat="44.12954" lon="6.97245">
        <ele>2196</ele>
        <time>2017-06-07T09:58:24Z</time>
      </trkpt>
      <trkpt lat="44.12955" lon="6.97246">
        <ele>2196</ele>
        <time>2017-06-07T09:58:24Z</time>
      </trkpt>
      <trkpt lat="44.12956" lon="6.97241">
        <ele>2196</ele>
        <time>2017-06-07T09:58:24Z</time>
      </trkpt>
      <trkpt lat="44.12956" lon="6.97235">
        <ele>2205</ele>
        <time>2017-06-07T09:58:40Z</time>
      </trkpt>
      <trkpt lat="44.12956" lon="6.97231">
        <ele>2205</ele>
        <time>2017-06-07T09:58:40Z</time>
      </trkpt>
      <trkpt lat="44.12956" lon="6.97221">
        <ele>2205</ele>
        <time>2017-06-07T09:58:41Z</time>
      </trkpt>
      <trkpt lat="44.12956" lon="6.97215">
        <ele>2205</ele>
        <time>2017-06-07T09:58:41Z</time>
      </trkpt>
      <trkpt lat="44.12956" lon="6.97212">
        <ele>2205</ele>
        <time>2017-06-07T09:58:56Z</time>
      </trkpt>
      <trkpt lat="44.12955" lon="6.97205">
        <ele>2208</ele>
        <time>2017-06-07T09:58:56Z</time>
      </trkpt>
      <trkpt lat="44.12955" lon="6.97197">
        <ele>2208</ele>
        <time>2017-06-07T09:58:56Z</time>
      </trkpt>
      <trkpt lat="44.12956" lon="6.97191">
        <ele>2208</ele>
        <time>2017-06-07T09:58:56Z</time>
      </trkpt>
      <trkpt lat="44.12956" lon="6.97186">
        <ele>2208</ele>
        <time>2017-06-07T09:59:12Z</time>
      </trkpt>
      <trkpt lat="44.12954" lon="6.97177">
        <ele>2210</ele>
        <time>2017-06-07T09:59:12Z</time>
      </trkpt>
      <trkpt lat="44.12954" lon="6.9717">
        <ele>2210</ele>
        <time>2017-06-07T09:59:13Z</time>
      </trkpt>
      <trkpt lat="44.12955" lon="6.97164">
        <ele>2210</ele>
        <time>2017-06-07T09:59:13Z</time>
      </trkpt>
      <trkpt lat="44.12954" lon="6.97157">
        <ele>2210</ele>
        <time>2017-06-07T09:59:32Z</time>
      </trkpt>
      <trkpt lat="44.12956" lon="6.97153">
        <ele>2210</ele>
        <time>2017-06-07T09:59:32Z</time>
      </trkpt>
      <trkpt lat="44.12958" lon="6.97153">
        <ele>2210</ele>
        <time>2017-06-07T09:59:32Z</time>
      </trkpt>
      <trkpt lat="44.1296" lon="6.9715">
        <ele>2223</ele>
        <time>2017-06-07T09:59:33Z</time>
      </trkpt>
      <trkpt lat="44.12961" lon="6.97148">
        <ele>2223</ele>
        <time>2017-06-07T09:59:33Z</time>
      </trkpt>
      <trkpt lat="44.12963" lon="6.97141">
        <ele>2223</ele>
        <time>2017-06-07T09:59:56Z</time>
      </trkpt>
      <trkpt lat="44.12964" lon="6.97143">
        <ele>2223</ele>
        <time>2017-06-07T09:59:56Z</time>
      </trkpt>
      <trkpt lat="44.12965" lon="6.97148">
        <ele>2223</ele>
        <time>2017-06-07T09:59:57Z</time>
      </trkpt>
      <trkpt lat="44.12966" lon="6.97149">
        <ele>2223</ele>
        <time>2017-06-07T09:59:57Z</time>
      </trkpt>
      <trkpt lat="44.12968" lon="6.97153">
        <ele>2218</ele>
        <time>2017-06-07T09:59:57Z</time>
      </trkpt>
      <trkpt lat="44.1297" lon="6.97163">
        <ele>2218</ele>
        <time>2017-06-07T10:00:20Z</time>
      </trkpt>
      <trkpt lat="44.12973" lon="6.97165">
        <ele>2218</ele>
        <time>2017-06-07T10:00:20Z</time>
      </trkpt>
      <trkpt lat="44.12974" lon="6.97168">
        <ele>2218</ele>
        <time>2017-06-07T10:00:21Z</time>
      </trkpt>
      <trkpt lat="44.12976" lon="6.97168">
        <ele>2218</ele>
        <time>2017-06-07T10:00:21Z</time>
      </trkpt>
      <trkpt lat="44.12976" lon="6.97171">
        <ele>2218</ele>
        <time>2017-06-07T10:00:21Z</time>
      </trkpt>
      <trkpt lat="44.12978" lon="6.97173">
        <ele>2218</ele>
        <time>2017-06-07T10:00:37Z</time>
      </trkpt>
      <trkpt lat="44.12982" lon="6.97177">
        <ele>2218</ele>
        <time>2017-06-07T10:00:37Z</time>
      </trkpt>
      <trkpt lat="44.12983" lon="6.97179">
        <ele>2218</ele>
        <time>2017-06-07T10:00:37Z</time>
      </trkpt>
      <trkpt lat="44.12985" lon="6.97184">
        <ele>2213</ele>
        <time>2017-06-07T10:00:37Z</time>
      </trkpt>
      <trkpt lat="44.12985" lon="6.97185">
        <ele>2213</ele>
        <time>2017-06-07T10:00:56Z</time>
      </trkpt>
      <trkpt lat="44.12986" lon="6.97188">
        <ele>2213</ele>
        <time>2017-06-07T10:00:56Z</time>
      </trkpt>
      <trkpt lat="44.12989" lon="6.97192">
        <ele>2223</ele>
        <time>2017-06-07T10:00:56Z</time>
      </trkpt>
      <trkpt lat="44.1299" lon="6.97194">
        <ele>2223</ele>
        <time>2017-06-07T10:00:57Z</time>
      </trkpt>
      <trkpt lat="44.12992" lon="6.97194">
        <ele>2223</ele>
        <time>2017-06-07T10:00:57Z</time>
      </trkpt>
      <trkpt lat="44.12992" lon="6.97199">
        <ele>2223</ele>
        <time>2017-06-07T10:01:19Z</time>
      </trkpt>
      <trkpt lat="44.12993" lon="6.97201">
        <ele>2223</ele>
        <time>2017-06-07T10:01:19Z</time>
      </trkpt>
      <trkpt lat="44.12995" lon="6.97204">
        <ele>2223</ele>
        <time>2017-06-07T10:01:19Z</time>
      </trkpt>
      <trkpt lat="44.12996" lon="6.97207">
        <ele>2223</ele>
        <time>2017-06-07T10:01:19Z</time>
      </trkpt>
      <trkpt lat="44.12997" lon="6.97208">
        <ele>2219</ele>
        <time>2017-06-07T10:01:19Z</time>
      </trkpt>
      <trkpt lat="44.13001" lon="6.97213">
        <ele>2219</ele>
        <time>2017-06-07T10:01:59Z</time>
      </trkpt>
      <trkpt lat="44.13003" lon="6.97214">
        <ele>2219</ele>
        <time>2017-06-07T10:01:59Z</time>
      </trkpt>
      <trkpt lat="44.13004" lon="6.97216">
        <ele>2219</ele>
        <time>2017-06-07T10:01:59Z</time>
      </trkpt>
      <trkpt lat="44.13006" lon="6.97217">
        <ele>2219</ele>
        <time>2017-06-07T10:01:59Z</time>
      </trkpt>
      <trkpt lat="44.13007" lon="6.97219">
        <ele>2219</ele>
        <time>2017-06-07T10:01:59Z</time>
      </trkpt>
      <trkpt lat="44.13019" lon="6.97226">
        <ele>2225</ele>
        <time>2017-06-07T10:02:52Z</time>
      </trkpt>
      <trkpt lat="44.1302" lon="6.97225">
        <ele>2225</ele>
        <time>2017-06-07T10:02:52Z</time>
      </trkpt>
      <trkpt lat="44.1302" lon="6.97225">
        <ele>2225</ele>
        <time>2017-06-07T10:02:52Z</time>
      </trkpt>
      <trkpt lat="44.1302" lon="6.97225">
        <ele>2225</ele>
        <time>2017-06-07T10:02:52Z</time>
      </trkpt>
      <trkpt lat="44.1302" lon="6.97226">
        <ele>2225</ele>
        <time>2017-06-07T10:02:53Z</time>
      </trkpt>
      <trkpt lat="44.13024" lon="6.97229">
        <ele>2225</ele>
        <time>2017-06-07T10:03:20Z</time>
      </trkpt>
      <trkpt lat="44.13026" lon="6.97231">
        <ele>2225</ele>
        <time>2017-06-07T10:03:20Z</time>
      </trkpt>
      <trkpt lat="44.13027" lon="6.97232">
        <ele>2225</ele>
        <time>2017-06-07T10:03:20Z</time>
      </trkpt>
      <trkpt lat="44.13028" lon="6.97234">
        <ele>2225</ele>
        <time>2017-06-07T10:03:20Z</time>
      </trkpt>
      <trkpt lat="44.13031" lon="6.97233">
        <ele>2225</ele>
        <time>2017-06-07T10:03:20Z</time>
      </trkpt>
      <trkpt lat="44.1303" lon="6.97229">
        <ele>2225</ele>
        <time>2017-06-07T10:03:40Z</time>
      </trkpt>
      <trkpt lat="44.1303" lon="6.97227">
        <ele>2225</ele>
        <time>2017-06-07T10:03:40Z</time>
      </trkpt>
      <trkpt lat="44.13031" lon="6.97222">
        <ele>2225</ele>
        <time>2017-06-07T10:03:40Z</time>
      </trkpt>
      <trkpt lat="44.1303" lon="6.97217">
        <ele>2225</ele>
        <time>2017-06-07T10:03:40Z</time>
      </trkpt>
      <trkpt lat="44.1303" lon="6.97213">
        <ele>2225</ele>
        <time>2017-06-07T10:03:40Z</time>
      </trkpt>
      <trkpt lat="44.13029" lon="6.97211">
        <ele>2225</ele>
        <time>2017-06-07T10:03:56Z</time>
      </trkpt>
      <trkpt lat="44.13028" lon="6.97206">
        <ele>2233</ele>
        <time>2017-06-07T10:03:56Z</time>
      </trkpt>
      <trkpt lat="44.13027" lon="6.97201">
        <ele>2233</ele>
        <time>2017-06-07T10:03:56Z</time>
      </trkpt>
      <trkpt lat="44.13026" lon="6.97194">
        <ele>2233</ele>
        <time>2017-06-07T10:03:56Z</time>
      </trkpt>
      <trkpt lat="44.13027" lon="6.97192">
        <ele>2233</ele>
        <time>2017-06-07T10:04:12Z</time>
      </trkpt>
      <trkpt lat="44.13029" lon="6.97195">
        <ele>2233</ele>
        <time>2017-06-07T10:04:12Z</time>
      </trkpt>
      <trkpt lat="44.13032" lon="6.97198">
        <ele>2233</ele>
        <time>2017-06-07T10:04:12Z</time>
      </trkpt>
      <trkpt lat="44.13035" lon="6.97198">
        <ele>2233</ele>
        <time>2017-06-07T10:04:12Z</time>
      </trkpt>
      <trkpt lat="44.13035" lon="6.97198">
        <ele>2233</ele>
        <time>2017-06-07T10:04:32Z</time>
      </trkpt>
      <trkpt lat="44.13039" lon="6.97202">
        <ele>2233</ele>
        <time>2017-06-07T10:04:32Z</time>
      </trkpt>
      <trkpt lat="44.13041" lon="6.97203">
        <ele>2233</ele>
        <time>2017-06-07T10:04:32Z</time>
      </trkpt>
      <trkpt lat="44.13043" lon="6.97204">
        <ele>2241</ele>
        <time>2017-06-07T10:04:32Z</time>
      </trkpt>
      <trkpt lat="44.13045" lon="6.97205">
        <ele>2241</ele>
        <time>2017-06-07T10:04:33Z</time>
      </trkpt>
      <trkpt lat="44.13046" lon="6.97206">
        <ele>2241</ele>
        <time>2017-06-07T10:04:48Z</time>
      </trkpt>
      <trkpt lat="44.13048" lon="6.97206">
        <ele>2241</ele>
        <time>2017-06-07T10:04:48Z</time>
      </trkpt>
      <trkpt lat="44.13052" lon="6.97206">
        <ele>2241</ele>
        <time>2017-06-07T10:04:48Z</time>
      </trkpt>
      <trkpt lat="44.13057" lon="6.97208">
        <ele>2241</ele>
        <time>2017-06-07T10:04:48Z</time>
      </trkpt>
      <trkpt lat="44.13057" lon="6.97207">
        <ele>2241</ele>
        <time>2017-06-07T10:05:04Z</time>
      </trkpt>
      <trkpt lat="44.13059" lon="6.97207">
        <ele>2241</ele>
        <time>2017-06-07T10:05:04Z</time>
      </trkpt>
      <trkpt lat="44.13062" lon="6.97209">
        <ele>2230</ele>
        <time>2017-06-07T10:05:04Z</time>
      </trkpt>
      <trkpt lat="44.13066" lon="6.9721">
        <ele>2230</ele>
        <time>2017-06-07T10:05:05Z</time>
      </trkpt>
      <trkpt lat="44.13066" lon="6.97209">
        <ele>2230</ele>
        <time>2017-06-07T10:05:20Z</time>
      </trkpt>
      <trkpt lat="44.13065" lon="6.97202">
        <ele>2241</ele>
        <time>2017-06-07T10:05:20Z</time>
      </trkpt>
      <trkpt lat="44.13066" lon="6.972">
        <ele>2241</ele>
        <time>2017-06-07T10:05:20Z</time>
      </trkpt>
      <trkpt lat="44.13065" lon="6.97195">
        <ele>2241</ele>
        <time>2017-06-07T10:05:20Z</time>
      </trkpt>
      <trkpt lat="44.13067" lon="6.97188">
        <ele>2241</ele>
        <time>2017-06-07T10:05:48Z</time>
      </trkpt>
      <trkpt lat="44.13066" lon="6.97187">
        <ele>2241</ele>
        <time>2017-06-07T10:05:48Z</time>
      </trkpt>
      <trkpt lat="44.13065" lon="6.97186">
        <ele>2241</ele>
        <time>2017-06-07T10:05:48Z</time>
      </trkpt>
      <trkpt lat="44.13065" lon="6.97185">
        <ele>2241</ele>
        <time>2017-06-07T10:05:48Z</time>
      </trkpt>
      <trkpt lat="44.13064" lon="6.97179">
        <ele>2250</ele>
        <time>2017-06-07T10:05:48Z</time>
      </trkpt>
      <trkpt lat="44.13064" lon="6.97177">
        <ele>2250</ele>
        <time>2017-06-07T10:06:03Z</time>
      </trkpt>
      <trkpt lat="44.13063" lon="6.97171">
        <ele>2250</ele>
        <time>2017-06-07T10:06:03Z</time>
      </trkpt>
      <trkpt lat="44.13064" lon="6.97168">
        <ele>2250</ele>
        <time>2017-06-07T10:06:03Z</time>
      </trkpt>
      <trkpt lat="44.13065" lon="6.97164">
        <ele>2250</ele>
        <time>2017-06-07T10:06:03Z</time>
      </trkpt>
      <trkpt lat="44.13067" lon="6.97155">
        <ele>2250</ele>
        <time>2017-06-07T10:06:44Z</time>
      </trkpt>
      <trkpt lat="44.13067" lon="6.97153">
        <ele>2250</ele>
        <time>2017-06-07T10:06:44Z</time>
      </trkpt>
      <trkpt lat="44.13068" lon="6.97152">
        <ele>2253</ele>
        <time>2017-06-07T10:06:44Z</time>
      </trkpt>
      <trkpt lat="44.13068" lon="6.97148">
        <ele>2253</ele>
        <time>2017-06-07T10:06:44Z</time>
      </trkpt>
      <trkpt lat="44.13068" lon="6.97145">
        <ele>2253</ele>
        <time>2017-06-07T10:06:44Z</time>
      </trkpt>
      <trkpt lat="44.13069" lon="6.97139">
        <ele>2253</ele>
        <time>2017-06-07T10:07:00Z</time>
      </trkpt>
      <trkpt lat="44.13069" lon="6.97133">
        <ele>2253</ele>
        <time>2017-06-07T10:07:00Z</time>
      </trkpt>
      <trkpt lat="44.1307" lon="6.9713">
        <ele>2262</ele>
        <time>2017-06-07T10:07:00Z</time>
      </trkpt>
      <trkpt lat="44.1307" lon="6.97124">
        <ele>2264</ele>
        <time>2017-06-07T10:07:00Z</time>
      </trkpt>
      <trkpt lat="44.13077" lon="6.9712">
        <ele>2264</ele>
        <time>2017-06-07T10:07:44Z</time>
      </trkpt>
      <trkpt lat="44.1308" lon="6.9712">
        <ele>2264</ele>
        <time>2017-06-07T10:07:44Z</time>
      </trkpt>
      <trkpt lat="44.13083" lon="6.97123">
        <ele>2264</ele>
        <time>2017-06-07T10:07:44Z</time>
      </trkpt>
      <trkpt lat="44.13084" lon="6.97124">
        <ele>2264</ele>
        <time>2017-06-07T10:07:44Z</time>
      </trkpt>
      <trkpt lat="44.13085" lon="6.97126">
        <ele>2262</ele>
        <time>2017-06-07T10:07:44Z</time>
      </trkpt>
      <trkpt lat="44.13088" lon="6.97135">
        <ele>2262</ele>
        <time>2017-06-07T10:08:16Z</time>
      </trkpt>
      <trkpt lat="44.13088" lon="6.97138">
        <ele>2262</ele>
        <time>2017-06-07T10:08:16Z</time>
      </trkpt>
      <trkpt lat="44.1309" lon="6.97141">
        <ele>2262</ele>
        <time>2017-06-07T10:08:16Z</time>
      </trkpt>
      <trkpt lat="44.13089" lon="6.97142">
        <ele>2262</ele>
        <time>2017-06-07T10:08:16Z</time>
      </trkpt>
      <trkpt lat="44.1309" lon="6.97145">
        <ele>2262</ele>
        <time>2017-06-07T10:08:16Z</time>
      </trkpt>
      <trkpt lat="44.131" lon="6.97149">
        <ele>2269</ele>
        <time>2017-06-07T10:10:56Z</time>
      </trkpt>
      <trkpt lat="44.131" lon="6.97143">
        <ele>2269</ele>
        <time>2017-06-07T10:10:56Z</time>
      </trkpt>
      <trkpt lat="44.13101" lon="6.97141">
        <ele>2269</ele>
        <time>2017-06-07T10:10:56Z</time>
      </trkpt>
      <trkpt lat="44.13101" lon="6.97138">
        <ele>2269</ele>
        <time>2017-06-07T10:10:56Z</time>
      </trkpt>
      <trkpt lat="44.131" lon="6.97135">
        <ele>2269</ele>
        <time>2017-06-07T10:10:56Z</time>
      </trkpt>
      <trkpt lat="44.13099" lon="6.97133">
        <ele>2269</ele>
        <time>2017-06-07T10:11:15Z</time>
      </trkpt>
      <trkpt lat="44.131" lon="6.9713">
        <ele>2269</ele>
        <time>2017-06-07T10:11:15Z</time>
      </trkpt>
      <trkpt lat="44.131" lon="6.97126">
        <ele>2269</ele>
        <time>2017-06-07T10:11:15Z</time>
      </trkpt>
      <trkpt lat="44.131" lon="6.97123">
        <ele>2274</ele>
        <time>2017-06-07T10:11:15Z</time>
      </trkpt>
      <trkpt lat="44.131" lon="6.9712">
        <ele>2274</ele>
        <time>2017-06-07T10:11:15Z</time>
      </trkpt>
      <trkpt lat="44.13101" lon="6.97109">
        <ele>2274</ele>
        <time>2017-06-07T10:11:44Z</time>
      </trkpt>
      <trkpt lat="44.13102" lon="6.97106">
        <ele>2274</ele>
        <time>2017-06-07T10:11:44Z</time>
      </trkpt>
      <trkpt lat="44.13103" lon="6.97103">
        <ele>2274</ele>
        <time>2017-06-07T10:11:44Z</time>
      </trkpt>
      <trkpt lat="44.13102" lon="6.97103">
        <ele>2274</ele>
        <time>2017-06-07T10:11:45Z</time>
      </trkpt>
      <trkpt lat="44.13104" lon="6.971">
        <ele>2274</ele>
        <time>2017-06-07T10:11:45Z</time>
      </trkpt>
      <trkpt lat="44.13104" lon="6.97095">
        <ele>2277</ele>
        <time>2017-06-07T10:12:03Z</time>
      </trkpt>
      <trkpt lat="44.13105" lon="6.97092">
        <ele>2277</ele>
        <time>2017-06-07T10:12:03Z</time>
      </trkpt>
      <trkpt lat="44.13106" lon="6.97088">
        <ele>2277</ele>
        <time>2017-06-07T10:12:03Z</time>
      </trkpt>
      <trkpt lat="44.13106" lon="6.97084">
        <ele>2277</ele>
        <time>2017-06-07T10:12:03Z</time>
      </trkpt>
      <trkpt lat="44.13106" lon="6.97081">
        <ele>2277</ele>
        <time>2017-06-07T10:12:03Z</time>
      </trkpt>
      <trkpt lat="44.13112" lon="6.97068">
        <ele>2278</ele>
        <time>2017-06-07T10:13:00Z</time>
      </trkpt>
      <trkpt lat="44.13115" lon="6.97071">
        <ele>2277</ele>
        <time>2017-06-07T10:13:00Z</time>
      </trkpt>
      <trkpt lat="44.13117" lon="6.97073">
        <ele>2277</ele>
        <time>2017-06-07T10:13:00Z</time>
      </trkpt>
      <trkpt lat="44.13118" lon="6.97076">
        <ele>2277</ele>
        <time>2017-06-07T10:13:00Z</time>
      </trkpt>
      <trkpt lat="44.13121" lon="6.97078">
        <ele>2277</ele>
        <time>2017-06-07T10:13:00Z</time>
      </trkpt>
      <trkpt lat="44.13122" lon="6.97081">
        <ele>2277</ele>
        <time>2017-06-07T10:13:20Z</time>
      </trkpt>
      <trkpt lat="44.13126" lon="6.97083">
        <ele>2282</ele>
        <time>2017-06-07T10:13:20Z</time>
      </trkpt>
      <trkpt lat="44.13128" lon="6.97084">
        <ele>2282</ele>
        <time>2017-06-07T10:13:20Z</time>
      </trkpt>
      <trkpt lat="44.13128" lon="6.97087">
        <ele>2282</ele>
        <time>2017-06-07T10:13:20Z</time>
      </trkpt>
      <trkpt lat="44.13129" lon="6.97089">
        <ele>2282</ele>
        <time>2017-06-07T10:13:20Z</time>
      </trkpt>
      <trkpt lat="44.13136" lon="6.97085">
        <ele>2282</ele>
        <time>2017-06-07T10:13:52Z</time>
      </trkpt>
      <trkpt lat="44.13136" lon="6.97085">
        <ele>2282</ele>
        <time>2017-06-07T10:13:52Z</time>
      </trkpt>
      <trkpt lat="44.13137" lon="6.97084">
        <ele>2282</ele>
        <time>2017-06-07T10:13:52Z</time>
      </trkpt>
      <trkpt lat="44.13137" lon="6.97081">
        <ele>2282</ele>
        <time>2017-06-07T10:13:52Z</time>
      </trkpt>
      <trkpt lat="44.13139" lon="6.97078">
        <ele>2282</ele>
        <time>2017-06-07T10:13:52Z</time>
      </trkpt>
      <trkpt lat="44.13138" lon="6.97069">
        <ele>2287</ele>
        <time>2017-06-07T10:14:20Z</time>
      </trkpt>
      <trkpt lat="44.13139" lon="6.97067">
        <ele>2287</ele>
        <time>2017-06-07T10:14:20Z</time>
      </trkpt>
      <trkpt lat="44.13139" lon="6.97065">
        <ele>2287</ele>
        <time>2017-06-07T10:14:20Z</time>
      </trkpt>
      <trkpt lat="44.13139" lon="6.97064">
        <ele>2287</ele>
        <time>2017-06-07T10:14:20Z</time>
      </trkpt>
      <trkpt lat="44.13138" lon="6.9706">
        <ele>2287</ele>
        <time>2017-06-07T10:14:20Z</time>
      </trkpt>
      <trkpt lat="44.13141" lon="6.97055">
        <ele>2287</ele>
        <time>2017-06-07T10:17:20Z</time>
      </trkpt>
      <trkpt lat="44.13143" lon="6.97055">
        <ele>2287</ele>
        <time>2017-06-07T10:17:20Z</time>
      </trkpt>
      <trkpt lat="44.13144" lon="6.97052">
        <ele>2287</ele>
        <time>2017-06-07T10:17:21Z</time>
      </trkpt>
      <trkpt lat="44.13146" lon="6.97049">
        <ele>2287</ele>
        <time>2017-06-07T10:17:21Z</time>
      </trkpt>
      <trkpt lat="44.13147" lon="6.97043">
        <ele>2287</ele>
        <time>2017-06-07T10:17:22Z</time>
      </trkpt>
      <trkpt lat="44.13147" lon="6.97039">
        <ele>2289</ele>
        <time>2017-06-07T10:17:36Z</time>
      </trkpt>
      <trkpt lat="44.1315" lon="6.97034">
        <ele>2289</ele>
        <time>2017-06-07T10:17:36Z</time>
      </trkpt>
      <trkpt lat="44.13151" lon="6.97029">
        <ele>2289</ele>
        <time>2017-06-07T10:17:36Z</time>
      </trkpt>
      <trkpt lat="44.13152" lon="6.97025">
        <ele>2289</ele>
        <time>2017-06-07T10:17:36Z</time>
      </trkpt>
      <trkpt lat="44.13155" lon="6.9702">
        <ele>2298</ele>
        <time>2017-06-07T10:17:52Z</time>
      </trkpt>
      <trkpt lat="44.13157" lon="6.97015">
        <ele>2298</ele>
        <time>2017-06-07T10:17:52Z</time>
      </trkpt>
      <trkpt lat="44.13157" lon="6.97013">
        <ele>2301</ele>
        <time>2017-06-07T10:17:52Z</time>
      </trkpt>
      <trkpt lat="44.1316" lon="6.97008">
        <ele>2301</ele>
        <time>2017-06-07T10:17:52Z</time>
      </trkpt>
      <trkpt lat="44.13163" lon="6.97002">
        <ele>2301</ele>
        <time>2017-06-07T10:18:08Z</time>
      </trkpt>
      <trkpt lat="44.13165" lon="6.97">
        <ele>2301</ele>
        <time>2017-06-07T10:18:08Z</time>
      </trkpt>
      <trkpt lat="44.13167" lon="6.96995">
        <ele>2301</ele>
        <time>2017-06-07T10:18:08Z</time>
      </trkpt>
      <trkpt lat="44.13171" lon="6.96993">
        <ele>2301</ele>
        <time>2017-06-07T10:18:08Z</time>
      </trkpt>
      <trkpt lat="44.13174" lon="6.96992">
        <ele>2301</ele>
        <time>2017-06-07T10:18:24Z</time>
      </trkpt>
      <trkpt lat="44.13176" lon="6.96989">
        <ele>2301</ele>
        <time>2017-06-07T10:18:24Z</time>
      </trkpt>
      <trkpt lat="44.13179" lon="6.96984">
        <ele>2302</ele>
        <time>2017-06-07T10:18:25Z</time>
      </trkpt>
      <trkpt lat="44.13181" lon="6.96979">
        <ele>2311</ele>
        <time>2017-06-07T10:18:26Z</time>
      </trkpt>
      <trkpt lat="44.13192" lon="6.96983">
        <ele>2311</ele>
        <time>2017-06-07T10:19:08Z</time>
      </trkpt>
      <trkpt lat="44.13192" lon="6.96986">
        <ele>2311</ele>
        <time>2017-06-07T10:19:08Z</time>
      </trkpt>
      <trkpt lat="44.13194" lon="6.9699">
        <ele>2306</ele>
        <time>2017-06-07T10:19:08Z</time>
      </trkpt>
      <trkpt lat="44.13195" lon="6.96993">
        <ele>2306</ele>
        <time>2017-06-07T10:19:08Z</time>
      </trkpt>
      <trkpt lat="44.132" lon="6.96996">
        <ele>2306</ele>
        <time>2017-06-07T10:19:08Z</time>
      </trkpt>
      <trkpt lat="44.13204" lon="6.96992">
        <ele>2306</ele>
        <time>2017-06-07T10:19:32Z</time>
      </trkpt>
      <trkpt lat="44.13203" lon="6.96991">
        <ele>2306</ele>
        <time>2017-06-07T10:19:32Z</time>
      </trkpt>
      <trkpt lat="44.13204" lon="6.96987">
        <ele>2306</ele>
        <time>2017-06-07T10:19:32Z</time>
      </trkpt>
      <trkpt lat="44.13205" lon="6.96984">
        <ele>2311</ele>
        <time>2017-06-07T10:19:32Z</time>
      </trkpt>
      <trkpt lat="44.13207" lon="6.96978">
        <ele>2311</ele>
        <time>2017-06-07T10:19:32Z</time>
      </trkpt>
      <trkpt lat="44.13209" lon="6.96971">
        <ele>2316</ele>
        <time>2017-06-07T10:19:52Z</time>
      </trkpt>
      <trkpt lat="44.13211" lon="6.96968">
        <ele>2316</ele>
        <time>2017-06-07T10:19:52Z</time>
      </trkpt>
      <trkpt lat="44.13213" lon="6.96969">
        <ele>2316</ele>
        <time>2017-06-07T10:19:53Z</time>
      </trkpt>
      <trkpt lat="44.13217" lon="6.96967">
        <ele>2316</ele>
        <time>2017-06-07T10:19:53Z</time>
      </trkpt>
      <trkpt lat="44.1322" lon="6.96965">
        <ele>2316</ele>
        <time>2017-06-07T10:19:54Z</time>
      </trkpt>
      <trkpt lat="44.13222" lon="6.96963">
        <ele>2316</ele>
        <time>2017-06-07T10:20:12Z</time>
      </trkpt>
      <trkpt lat="44.13224" lon="6.96958">
        <ele>2321</ele>
        <time>2017-06-07T10:20:12Z</time>
      </trkpt>
      <trkpt lat="44.13224" lon="6.96954">
        <ele>2321</ele>
        <time>2017-06-07T10:20:12Z</time>
      </trkpt>
      <trkpt lat="44.13224" lon="6.96953">
        <ele>2321</ele>
        <time>2017-06-07T10:20:12Z</time>
      </trkpt>
      <trkpt lat="44.13224" lon="6.96946">
        <ele>2321</ele>
        <time>2017-06-07T10:20:12Z</time>
      </trkpt>
      <trkpt lat="44.13224" lon="6.9694">
        <ele>2321</ele>
        <time>2017-06-07T10:20:36Z</time>
      </trkpt>
      <trkpt lat="44.13225" lon="6.96937">
        <ele>2321</ele>
        <time>2017-06-07T10:20:36Z</time>
      </trkpt>
      <trkpt lat="44.13225" lon="6.96934">
        <ele>2321</ele>
        <time>2017-06-07T10:20:36Z</time>
      </trkpt>
      <trkpt lat="44.13227" lon="6.96933">
        <ele>2321</ele>
        <time>2017-06-07T10:20:36Z</time>
      </trkpt>
      <trkpt lat="44.13227" lon="6.96927">
        <ele>2324</ele>
        <time>2017-06-07T10:20:36Z</time>
      </trkpt>
      <trkpt lat="44.13228" lon="6.96926">
        <ele>2324</ele>
        <time>2017-06-07T10:20:51Z</time>
      </trkpt>
      <trkpt lat="44.13228" lon="6.96922">
        <ele>2324</ele>
        <time>2017-06-07T10:20:52Z</time>
      </trkpt>
      <trkpt lat="44.13227" lon="6.96916">
        <ele>2324</ele>
        <time>2017-06-07T10:20:52Z</time>
      </trkpt>
      <trkpt lat="44.13227" lon="6.96909">
        <ele>2324</ele>
        <time>2017-06-07T10:20:52Z</time>
      </trkpt>
      <trkpt lat="44.13232" lon="6.96901">
        <ele>2326</ele>
        <time>2017-06-07T10:21:20Z</time>
      </trkpt>
      <trkpt lat="44.13234" lon="6.96902">
        <ele>2326</ele>
        <time>2017-06-07T10:21:20Z</time>
      </trkpt>
      <trkpt lat="44.13236" lon="6.96904">
        <ele>2324</ele>
        <time>2017-06-07T10:21:20Z</time>
      </trkpt>
      <trkpt lat="44.13238" lon="6.96906">
        <ele>2332</ele>
        <time>2017-06-07T10:21:20Z</time>
      </trkpt>
      <trkpt lat="44.13243" lon="6.96906">
        <ele>2332</ele>
        <time>2017-06-07T10:21:20Z</time>
      </trkpt>
      <trkpt lat="44.13245" lon="6.96906">
        <ele>2332</ele>
        <time>2017-06-07T10:21:36Z</time>
      </trkpt>
      <trkpt lat="44.13249" lon="6.96907">
        <ele>2332</ele>
        <time>2017-06-07T10:21:36Z</time>
      </trkpt>
      <trkpt lat="44.13251" lon="6.96906">
        <ele>2332</ele>
        <time>2017-06-07T10:21:36Z</time>
      </trkpt>
      <trkpt lat="44.13254" lon="6.96905">
        <ele>2332</ele>
        <time>2017-06-07T10:21:36Z</time>
      </trkpt>
      <trkpt lat="44.1326" lon="6.96905">
        <ele>2332</ele>
        <time>2017-06-07T10:22:00Z</time>
      </trkpt>
      <trkpt lat="44.13261" lon="6.96901">
        <ele>2335</ele>
        <time>2017-06-07T10:22:00Z</time>
      </trkpt>
      <trkpt lat="44.1326" lon="6.96897">
        <ele>2335</ele>
        <time>2017-06-07T10:22:00Z</time>
      </trkpt>
      <trkpt lat="44.13261" lon="6.96894">
        <ele>2335</ele>
        <time>2017-06-07T10:22:00Z</time>
      </trkpt>
      <trkpt lat="44.13263" lon="6.96894">
        <ele>2335</ele>
        <time>2017-06-07T10:22:00Z</time>
      </trkpt>
      <trkpt lat="44.13262" lon="6.96891">
        <ele>2335</ele>
        <time>2017-06-07T10:22:20Z</time>
      </trkpt>
      <trkpt lat="44.13264" lon="6.96889">
        <ele>2335</ele>
        <time>2017-06-07T10:22:20Z</time>
      </trkpt>
      <trkpt lat="44.13264" lon="6.96887">
        <ele>2341</ele>
        <time>2017-06-07T10:22:20Z</time>
      </trkpt>
      <trkpt lat="44.13264" lon="6.96883">
        <ele>2341</ele>
        <time>2017-06-07T10:22:20Z</time>
      </trkpt>
      <trkpt lat="44.13264" lon="6.96878">
        <ele>2335</ele>
        <time>2017-06-07T10:22:20Z</time>
      </trkpt>
      <trkpt lat="44.13273" lon="6.96864">
        <ele>2344</ele>
        <time>2017-06-07T10:31:19Z</time>
      </trkpt>
      <trkpt lat="44.13274" lon="6.96862">
        <ele>2344</ele>
        <time>2017-06-07T10:31:19Z</time>
      </trkpt>
      <trkpt lat="44.13274" lon="6.96862">
        <ele>2344</ele>
        <time>2017-06-07T10:31:19Z</time>
      </trkpt>
      <trkpt lat="44.13274" lon="6.96861">
        <ele>2344</ele>
        <time>2017-06-07T10:31:20Z</time>
      </trkpt>
      <trkpt lat="44.13274" lon="6.9686">
        <ele>2344</ele>
        <time>2017-06-07T10:31:20Z</time>
      </trkpt>
      <trkpt lat="44.13274" lon="6.9686">
        <ele>2344</ele>
        <time>2017-06-07T10:33:44Z</time>
      </trkpt>
      <trkpt lat="44.13276" lon="6.96859">
        <ele>2344</ele>
        <time>2017-06-07T10:33:44Z</time>
      </trkpt>
      <trkpt lat="44.13277" lon="6.96854">
        <ele>2344</ele>
        <time>2017-06-07T10:33:44Z</time>
      </trkpt>
      <trkpt lat="44.13278" lon="6.96853">
        <ele>2344</ele>
        <time>2017-06-07T10:33:44Z</time>
      </trkpt>
      <trkpt lat="44.1328" lon="6.9685">
        <ele>2344</ele>
        <time>2017-06-07T10:33:44Z</time>
      </trkpt>
      <trkpt lat="44.13284" lon="6.96836">
        <ele>2347</ele>
        <time>2017-06-07T10:34:28Z</time>
      </trkpt>
      <trkpt lat="44.13284" lon="6.96832">
        <ele>2347</ele>
        <time>2017-06-07T10:34:28Z</time>
      </trkpt>
      <trkpt lat="44.13284" lon="6.96827">
        <ele>2347</ele>
        <time>2017-06-07T10:34:28Z</time>
      </trkpt>
      <trkpt lat="44.13285" lon="6.96827">
        <ele>2347</ele>
        <time>2017-06-07T10:34:28Z</time>
      </trkpt>
      <trkpt lat="44.13284" lon="6.96822">
        <ele>2347</ele>
        <time>2017-06-07T10:34:28Z</time>
      </trkpt>
      <trkpt lat="44.13285" lon="6.96819">
        <ele>2349</ele>
        <time>2017-06-07T10:34:44Z</time>
      </trkpt>
      <trkpt lat="44.13286" lon="6.96813">
        <ele>2349</ele>
        <time>2017-06-07T10:34:44Z</time>
      </trkpt>
      <trkpt lat="44.13286" lon="6.9681">
        <ele>2349</ele>
        <time>2017-06-07T10:34:45Z</time>
      </trkpt>
      <trkpt lat="44.13287" lon="6.96807">
        <ele>2349</ele>
        <time>2017-06-07T10:34:45Z</time>
      </trkpt>
      <trkpt lat="44.1329" lon="6.96799">
        <ele>2349</ele>
        <time>2017-06-07T10:35:23Z</time>
      </trkpt>
      <trkpt lat="44.13291" lon="6.96797">
        <ele>2349</ele>
        <time>2017-06-07T10:35:23Z</time>
      </trkpt>
      <trkpt lat="44.1329" lon="6.96789">
        <ele>2352</ele>
        <time>2017-06-07T10:35:23Z</time>
      </trkpt>
      <trkpt lat="44.13289" lon="6.96785">
        <ele>2352</ele>
        <time>2017-06-07T10:35:23Z</time>
      </trkpt>
      <trkpt lat="44.1329" lon="6.9678">
        <ele>2352</ele>
        <time>2017-06-07T10:35:23Z</time>
      </trkpt>
      <trkpt lat="44.13289" lon="6.96773">
        <ele>2352</ele>
        <time>2017-06-07T10:35:47Z</time>
      </trkpt>
      <trkpt lat="44.13289" lon="6.96771">
        <ele>2352</ele>
        <time>2017-06-07T10:35:47Z</time>
      </trkpt>
      <trkpt lat="44.1329" lon="6.96768">
        <ele>2352</ele>
        <time>2017-06-07T10:35:47Z</time>
      </trkpt>
      <trkpt lat="44.1329" lon="6.96765">
        <ele>2352</ele>
        <time>2017-06-07T10:35:47Z</time>
      </trkpt>
      <trkpt lat="44.13289" lon="6.9676">
        <ele>2356</ele>
        <time>2017-06-07T10:35:47Z</time>
      </trkpt>
      <trkpt lat="44.1329" lon="6.96757">
        <ele>2356</ele>
        <time>2017-06-07T10:36:08Z</time>
      </trkpt>
      <trkpt lat="44.13291" lon="6.96752">
        <ele>2356</ele>
        <time>2017-06-07T10:36:08Z</time>
      </trkpt>
      <trkpt lat="44.13292" lon="6.96749">
        <ele>2356</ele>
        <time>2017-06-07T10:36:08Z</time>
      </trkpt>
      <trkpt lat="44.13292" lon="6.96746">
        <ele>2368</ele>
        <time>2017-06-07T10:36:08Z</time>
      </trkpt>
      <trkpt lat="44.13292" lon="6.96743">
        <ele>2368</ele>
        <time>2017-06-07T10:36:08Z</time>
      </trkpt>
      <trkpt lat="44.13292" lon="6.96736">
        <ele>2372</ele>
        <time>2017-06-07T10:36:40Z</time>
      </trkpt>
      <trkpt lat="44.13293" lon="6.96736">
        <ele>2372</ele>
        <time>2017-06-07T10:36:40Z</time>
      </trkpt>
      <trkpt lat="44.13293" lon="6.96731">
        <ele>2372</ele>
        <time>2017-06-07T10:36:40Z</time>
      </trkpt>
      <trkpt lat="44.13293" lon="6.96729">
        <ele>2372</ele>
        <time>2017-06-07T10:36:40Z</time>
      </trkpt>
      <trkpt lat="44.13292" lon="6.96723">
        <ele>2372</ele>
        <time>2017-06-07T10:36:40Z</time>
      </trkpt>
      <trkpt lat="44.13295" lon="6.96718">
        <ele>2372</ele>
        <time>2017-06-07T10:37:16Z</time>
      </trkpt>
      <trkpt lat="44.13294" lon="6.96716">
        <ele>2372</ele>
        <time>2017-06-07T10:37:16Z</time>
      </trkpt>
      <trkpt lat="44.13294" lon="6.96714">
        <ele>2372</ele>
        <time>2017-06-07T10:37:17Z</time>
      </trkpt>
      <trkpt lat="44.13294" lon="6.9671">
        <ele>2372</ele>
        <time>2017-06-07T10:37:17Z</time>
      </trkpt>
      <trkpt lat="44.13294" lon="6.96707">
        <ele>2375</ele>
        <time>2017-06-07T10:37:18Z</time>
      </trkpt>
      <trkpt lat="44.13295" lon="6.96708">
        <ele>2375</ele>
        <time>2017-06-07T10:37:35Z</time>
      </trkpt>
      <trkpt lat="44.13295" lon="6.96705">
        <ele>2375</ele>
        <time>2017-06-07T10:37:35Z</time>
      </trkpt>
      <trkpt lat="44.13294" lon="6.96702">
        <ele>2375</ele>
        <time>2017-06-07T10:37:35Z</time>
      </trkpt>
      <trkpt lat="44.13294" lon="6.96699">
        <ele>2375</ele>
        <time>2017-06-07T10:37:35Z</time>
      </trkpt>
      <trkpt lat="44.13292" lon="6.96695">
        <ele>2375</ele>
        <time>2017-06-07T10:37:35Z</time>
      </trkpt>
      <trkpt lat="44.13294" lon="6.96683">
        <ele>2375</ele>
        <time>2017-06-07T10:38:08Z</time>
      </trkpt>
      <trkpt lat="44.13294" lon="6.96682">
        <ele>2375</ele>
        <time>2017-06-07T10:38:08Z</time>
      </trkpt>
      <trkpt lat="44.13293" lon="6.96682">
        <ele>2375</ele>
        <time>2017-06-07T10:38:08Z</time>
      </trkpt>
      <trkpt lat="44.13293" lon="6.9668">
        <ele>2378</ele>
        <time>2017-06-07T10:38:08Z</time>
      </trkpt>
      <trkpt lat="44.13293" lon="6.96678">
        <ele>2378</ele>
        <time>2017-06-07T10:38:08Z</time>
      </trkpt>
      <trkpt lat="44.13295" lon="6.96677">
        <ele>2378</ele>
        <time>2017-06-07T10:38:40Z</time>
      </trkpt>
      <trkpt lat="44.133" lon="6.96678">
        <ele>2378</ele>
        <time>2017-06-07T10:38:40Z</time>
      </trkpt>
      <trkpt lat="44.13301" lon="6.96679">
        <ele>2378</ele>
        <time>2017-06-07T10:38:40Z</time>
      </trkpt>
      <trkpt lat="44.13303" lon="6.96682">
        <ele>2375</ele>
        <time>2017-06-07T10:38:40Z</time>
      </trkpt>
      <trkpt lat="44.13304" lon="6.96683">
        <ele>2375</ele>
        <time>2017-06-07T10:38:40Z</time>
      </trkpt>
      <trkpt lat="44.13308" lon="6.96687">
        <ele>2375</ele>
        <time>2017-06-07T10:39:28Z</time>
      </trkpt>
      <trkpt lat="44.13311" lon="6.96686">
        <ele>2375</ele>
        <time>2017-06-07T10:39:28Z</time>
      </trkpt>
      <trkpt lat="44.13316" lon="6.96689">
        <ele>2375</ele>
        <time>2017-06-07T10:39:29Z</time>
      </trkpt>
      <trkpt lat="44.13316" lon="6.96693">
        <ele>2375</ele>
        <time>2017-06-07T10:39:29Z</time>
      </trkpt>
      <trkpt lat="44.13318" lon="6.96695">
        <ele>2375</ele>
        <time>2017-06-07T10:39:29Z</time>
      </trkpt>
      <trkpt lat="44.13319" lon="6.96695">
        <ele>2375</ele>
        <time>2017-06-07T10:39:52Z</time>
      </trkpt>
      <trkpt lat="44.13322" lon="6.96696">
        <ele>2386</ele>
        <time>2017-06-07T10:39:52Z</time>
      </trkpt>
      <trkpt lat="44.13325" lon="6.96695">
        <ele>2386</ele>
        <time>2017-06-07T10:39:52Z</time>
      </trkpt>
      <trkpt lat="44.13327" lon="6.96695">
        <ele>2386</ele>
        <time>2017-06-07T10:39:53Z</time>
      </trkpt>
      <trkpt lat="44.13328" lon="6.96696">
        <ele>2386</ele>
        <time>2017-06-07T10:39:53Z</time>
      </trkpt>
      <trkpt lat="44.13333" lon="6.96695">
        <ele>2386</ele>
        <time>2017-06-07T10:40:15Z</time>
      </trkpt>
      <trkpt lat="44.13333" lon="6.96695">
        <ele>2386</ele>
        <time>2017-06-07T10:40:15Z</time>
      </trkpt>
      <trkpt lat="44.13336" lon="6.96693">
        <ele>2386</ele>
        <time>2017-06-07T10:40:15Z</time>
      </trkpt>
      <trkpt lat="44.13337" lon="6.96691">
        <ele>2386</ele>
        <time>2017-06-07T10:40:15Z</time>
      </trkpt>
      <trkpt lat="44.1334" lon="6.96687">
        <ele>2386</ele>
        <time>2017-06-07T10:40:15Z</time>
      </trkpt>
      <trkpt lat="44.13342" lon="6.96677">
        <ele>2390</ele>
        <time>2017-06-07T10:40:44Z</time>
      </trkpt>
      <trkpt lat="44.13343" lon="6.96676">
        <ele>2390</ele>
        <time>2017-06-07T10:40:44Z</time>
      </trkpt>
      <trkpt lat="44.13344" lon="6.96674">
        <ele>2390</ele>
        <time>2017-06-07T10:40:44Z</time>
      </trkpt>
      <trkpt lat="44.13344" lon="6.96673">
        <ele>2390</ele>
        <time>2017-06-07T10:40:44Z</time>
      </trkpt>
      <trkpt lat="44.13343" lon="6.96668">
        <ele>2390</ele>
        <time>2017-06-07T10:40:44Z</time>
      </trkpt>
      <trkpt lat="44.13341" lon="6.96664">
        <ele>2390</ele>
        <time>2017-06-07T10:41:07Z</time>
      </trkpt>
      <trkpt lat="44.13341" lon="6.96659">
        <ele>2390</ele>
        <time>2017-06-07T10:41:07Z</time>
      </trkpt>
      <trkpt lat="44.13342" lon="6.96655">
        <ele>2390</ele>
        <time>2017-06-07T10:41:07Z</time>
      </trkpt>
      <trkpt lat="44.13342" lon="6.96653">
        <ele>2390</ele>
        <time>2017-06-07T10:41:08Z</time>
      </trkpt>
      <trkpt lat="44.13343" lon="6.9665">
        <ele>2392</ele>
        <time>2017-06-07T10:41:08Z</time>
      </trkpt>
      <trkpt lat="44.13343" lon="6.96648">
        <ele>2392</ele>
        <time>2017-06-07T10:41:24Z</time>
      </trkpt>
      <trkpt lat="44.13345" lon="6.96643">
        <ele>2392</ele>
        <time>2017-06-07T10:41:24Z</time>
      </trkpt>
      <trkpt lat="44.13347" lon="6.96639">
        <ele>2392</ele>
        <time>2017-06-07T10:41:24Z</time>
      </trkpt>
      <trkpt lat="44.13349" lon="6.96635">
        <ele>2400</ele>
        <time>2017-06-07T10:41:24Z</time>
      </trkpt>
      <trkpt lat="44.13354" lon="6.96623">
        <ele>2402</ele>
        <time>2017-06-07T10:42:03Z</time>
      </trkpt>
      <trkpt lat="44.13354" lon="6.96621">
        <ele>2402</ele>
        <time>2017-06-07T10:42:03Z</time>
      </trkpt>
      <trkpt lat="44.13356" lon="6.96616">
        <ele>2402</ele>
        <time>2017-06-07T10:42:04Z</time>
      </trkpt>
      <trkpt lat="44.13358" lon="6.96613">
        <ele>2402</ele>
        <time>2017-06-07T10:42:04Z</time>
      </trkpt>
      <trkpt lat="44.13359" lon="6.96609">
        <ele>2402</ele>
        <time>2017-06-07T10:42:05Z</time>
      </trkpt>
      <trkpt lat="44.13363" lon="6.96604">
        <ele>2402</ele>
        <time>2017-06-07T10:42:19Z</time>
      </trkpt>
      <trkpt lat="44.13365" lon="6.966">
        <ele>2402</ele>
        <time>2017-06-07T10:42:19Z</time>
      </trkpt>
      <trkpt lat="44.13368" lon="6.96599">
        <ele>2402</ele>
        <time>2017-06-07T10:42:19Z</time>
      </trkpt>
      <trkpt lat="44.13371" lon="6.96598">
        <ele>2402</ele>
        <time>2017-06-07T10:42:19Z</time>
      </trkpt>
      <trkpt lat="44.13373" lon="6.96595">
        <ele>2405</ele>
        <time>2017-06-07T10:42:44Z</time>
      </trkpt>
      <trkpt lat="44.13375" lon="6.96593">
        <ele>2410</ele>
        <time>2017-06-07T10:42:44Z</time>
      </trkpt>
      <trkpt lat="44.13379" lon="6.96594">
        <ele>2410</ele>
        <time>2017-06-07T10:42:44Z</time>
      </trkpt>
      <trkpt lat="44.13381" lon="6.96593">
        <ele>2410</ele>
        <time>2017-06-07T10:42:44Z</time>
      </trkpt>
      <trkpt lat="44.13385" lon="6.9659">
        <ele>2410</ele>
        <time>2017-06-07T10:42:44Z</time>
      </trkpt>
      <trkpt lat="44.13387" lon="6.96588">
        <ele>2410</ele>
        <time>2017-06-07T10:42:59Z</time>
      </trkpt>
      <trkpt lat="44.13389" lon="6.96588">
        <ele>2410</ele>
        <time>2017-06-07T10:43:00Z</time>
      </trkpt>
      <trkpt lat="44.13392" lon="6.96585">
        <ele>2410</ele>
        <time>2017-06-07T10:43:00Z</time>
      </trkpt>
      <trkpt lat="44.13396" lon="6.96585">
        <ele>2410</ele>
        <time>2017-06-07T10:43:00Z</time>
      </trkpt>
      <trkpt lat="44.13397" lon="6.96585">
        <ele>2410</ele>
        <time>2017-06-07T10:43:20Z</time>
      </trkpt>
      <trkpt lat="44.13399" lon="6.96584">
        <ele>2410</ele>
        <time>2017-06-07T10:43:20Z</time>
      </trkpt>
      <trkpt lat="44.13401" lon="6.96582">
        <ele>2410</ele>
        <time>2017-06-07T10:43:20Z</time>
      </trkpt>
      <trkpt lat="44.13403" lon="6.96581">
        <ele>2413</ele>
        <time>2017-06-07T10:43:20Z</time>
      </trkpt>
      <trkpt lat="44.13407" lon="6.96579">
        <ele>2413</ele>
        <time>2017-06-07T10:43:20Z</time>
      </trkpt>
      <trkpt lat="44.13411" lon="6.96577">
        <ele>2413</ele>
        <time>2017-06-07T10:43:36Z</time>
      </trkpt>
      <trkpt lat="44.13415" lon="6.96574">
        <ele>2413</ele>
        <time>2017-06-07T10:43:36Z</time>
      </trkpt>
      <trkpt lat="44.13418" lon="6.96573">
        <ele>2413</ele>
        <time>2017-06-07T10:43:36Z</time>
      </trkpt>
      <trkpt lat="44.1342" lon="6.96573">
        <ele>2413</ele>
        <time>2017-06-07T10:43:36Z</time>
      </trkpt>
      <trkpt lat="44.1342" lon="6.96572">
        <ele>2413</ele>
        <time>2017-06-07T10:43:56Z</time>
      </trkpt>
      <trkpt lat="44.13424" lon="6.9657">
        <ele>2413</ele>
        <time>2017-06-07T10:43:56Z</time>
      </trkpt>
      <trkpt lat="44.13426" lon="6.96571">
        <ele>2413</ele>
        <time>2017-06-07T10:43:56Z</time>
      </trkpt>
      <trkpt lat="44.13428" lon="6.9657">
        <ele>2413</ele>
        <time>2017-06-07T10:43:56Z</time>
      </trkpt>
      <trkpt lat="44.13431" lon="6.9657">
        <ele>2414</ele>
        <time>2017-06-07T10:43:56Z</time>
      </trkpt>
      <trkpt lat="44.13436" lon="6.96569">
        <ele>2413</ele>
        <time>2017-06-07T10:44:28Z</time>
      </trkpt>
      <trkpt lat="44.13438" lon="6.96568">
        <ele>2413</ele>
        <time>2017-06-07T10:44:28Z</time>
      </trkpt>
      <trkpt lat="44.13439" lon="6.96568">
        <ele>2413</ele>
        <time>2017-06-07T10:44:28Z</time>
      </trkpt>
      <trkpt lat="44.13442" lon="6.9657">
        <ele>2414</ele>
        <time>2017-06-07T10:44:28Z</time>
      </trkpt>
      <trkpt lat="44.13443" lon="6.9657">
        <ele>2414</ele>
        <time>2017-06-07T10:44:28Z</time>
      </trkpt>
      <trkpt lat="44.13443" lon="6.96571">
        <ele>2414</ele>
        <time>2017-06-07T10:44:44Z</time>
      </trkpt>
      <trkpt lat="44.13446" lon="6.96572">
        <ele>2414</ele>
        <time>2017-06-07T10:44:44Z</time>
      </trkpt>
      <trkpt lat="44.13449" lon="6.96572">
        <ele>2414</ele>
        <time>2017-06-07T10:44:44Z</time>
      </trkpt>
      <trkpt lat="44.13453" lon="6.96571">
        <ele>2414</ele>
        <time>2017-06-07T10:44:44Z</time>
      </trkpt>
      <trkpt lat="44.13472" lon="6.96572">
        <ele>2415</ele>
        <time>2017-06-07T10:46:32Z</time>
      </trkpt>
      <trkpt lat="44.13474" lon="6.96573">
        <ele>2415</ele>
        <time>2017-06-07T10:46:32Z</time>
      </trkpt>
      <trkpt lat="44.13475" lon="6.96574">
        <ele>2415</ele>
        <time>2017-06-07T10:46:32Z</time>
      </trkpt>
      <trkpt lat="44.13479" lon="6.96577">
        <ele>2415</ele>
        <time>2017-06-07T10:46:32Z</time>
      </trkpt>
      <trkpt lat="44.1348" lon="6.9658">
        <ele>2415</ele>
        <time>2017-06-07T10:46:32Z</time>
      </trkpt>
      <trkpt lat="44.13484" lon="6.9658">
        <ele>2415</ele>
        <time>2017-06-07T10:46:47Z</time>
      </trkpt>
      <trkpt lat="44.13488" lon="6.96581">
        <ele>2420</ele>
        <time>2017-06-07T10:46:47Z</time>
      </trkpt>
      <trkpt lat="44.13491" lon="6.96581">
        <ele>2420</ele>
        <time>2017-06-07T10:46:47Z</time>
      </trkpt>
      <trkpt lat="44.13494" lon="6.96582">
        <ele>2420</ele>
        <time>2017-06-07T10:46:47Z</time>
      </trkpt>
      <trkpt lat="44.13495" lon="6.96582">
        <ele>2420</ele>
        <time>2017-06-07T10:47:28Z</time>
      </trkpt>
      <trkpt lat="44.13497" lon="6.96585">
        <ele>2420</ele>
        <time>2017-06-07T10:47:28Z</time>
      </trkpt>
      <trkpt lat="44.13496" lon="6.96589">
        <ele>2420</ele>
        <time>2017-06-07T10:47:29Z</time>
      </trkpt>
      <trkpt lat="44.13498" lon="6.96592">
        <ele>2420</ele>
        <time>2017-06-07T10:47:29Z</time>
      </trkpt>
      <trkpt lat="44.13502" lon="6.96594">
        <ele>2420</ele>
        <time>2017-06-07T10:47:29Z</time>
      </trkpt>
      <trkpt lat="44.13506" lon="6.96598">
        <ele>2421</ele>
        <time>2017-06-07T10:47:44Z</time>
      </trkpt>
      <trkpt lat="44.13511" lon="6.96599">
        <ele>2421</ele>
        <time>2017-06-07T10:47:44Z</time>
      </trkpt>
      <trkpt lat="44.13512" lon="6.96602">
        <ele>2421</ele>
        <time>2017-06-07T10:47:44Z</time>
      </trkpt>
      <trkpt lat="44.13515" lon="6.96604">
        <ele>2428</ele>
        <time>2017-06-07T10:47:44Z</time>
      </trkpt>
      <trkpt lat="44.1352" lon="6.96606">
        <ele>2428</ele>
        <time>2017-06-07T10:48:12Z</time>
      </trkpt>
      <trkpt lat="44.13523" lon="6.96605">
        <ele>2428</ele>
        <time>2017-06-07T10:48:12Z</time>
      </trkpt>
      <trkpt lat="44.13526" lon="6.96606">
        <ele>2428</ele>
        <time>2017-06-07T10:48:12Z</time>
      </trkpt>
      <trkpt lat="44.13531" lon="6.96605">
        <ele>2428</ele>
        <time>2017-06-07T10:48:12Z</time>
      </trkpt>
      <trkpt lat="44.13536" lon="6.96603">
        <ele>2428</ele>
        <time>2017-06-07T10:48:12Z</time>
      </trkpt>
      <trkpt lat="44.1354" lon="6.96596">
        <ele>2426</ele>
        <time>2017-06-07T10:48:44Z</time>
      </trkpt>
      <trkpt lat="44.13541" lon="6.96596">
        <ele>2426</ele>
        <time>2017-06-07T10:48:44Z</time>
      </trkpt>
      <trkpt lat="44.13542" lon="6.96596">
        <ele>2430</ele>
        <time>2017-06-07T10:48:44Z</time>
      </trkpt>
      <trkpt lat="44.13546" lon="6.96594">
        <ele>2430</ele>
        <time>2017-06-07T10:48:44Z</time>
      </trkpt>
      <trkpt lat="44.13549" lon="6.96592">
        <ele>2430</ele>
        <time>2017-06-07T10:48:44Z</time>
      </trkpt>
      <trkpt lat="44.13551" lon="6.96589">
        <ele>2430</ele>
        <time>2017-06-07T10:49:00Z</time>
      </trkpt>
      <trkpt lat="44.13555" lon="6.96588">
        <ele>2430</ele>
        <time>2017-06-07T10:49:00Z</time>
      </trkpt>
      <trkpt lat="44.13558" lon="6.96585">
        <ele>2430</ele>
        <time>2017-06-07T10:49:00Z</time>
      </trkpt>
      <trkpt lat="44.13562" lon="6.96582">
        <ele>2430</ele>
        <time>2017-06-07T10:49:00Z</time>
      </trkpt>
      <trkpt lat="44.13565" lon="6.96579">
        <ele>2430</ele>
        <time>2017-06-07T10:49:20Z</time>
      </trkpt>
      <trkpt lat="44.13567" lon="6.96577">
        <ele>2430</ele>
        <time>2017-06-07T10:49:20Z</time>
      </trkpt>
      <trkpt lat="44.13569" lon="6.96574">
        <ele>2430</ele>
        <time>2017-06-07T10:49:20Z</time>
      </trkpt>
      <trkpt lat="44.1357" lon="6.96572">
        <ele>2430</ele>
        <time>2017-06-07T10:49:20Z</time>
      </trkpt>
      <trkpt lat="44.13573" lon="6.9657">
        <ele>2430</ele>
        <time>2017-06-07T10:49:20Z</time>
      </trkpt>
      <trkpt lat="44.13575" lon="6.96568">
        <ele>2428</ele>
        <time>2017-06-07T10:49:43Z</time>
      </trkpt>
      <trkpt lat="44.13578" lon="6.96565">
        <ele>2428</ele>
        <time>2017-06-07T10:49:43Z</time>
      </trkpt>
      <trkpt lat="44.1358" lon="6.96565">
        <ele>2428</ele>
        <time>2017-06-07T10:49:43Z</time>
      </trkpt>
      <trkpt lat="44.13583" lon="6.96563">
        <ele>2428</ele>
        <time>2017-06-07T10:49:44Z</time>
      </trkpt>
      <trkpt lat="44.13584" lon="6.96561">
        <ele>2428</ele>
        <time>2017-06-07T10:49:44Z</time>
      </trkpt>
      <trkpt lat="44.13585" lon="6.96557">
        <ele>2428</ele>
        <time>2017-06-07T10:50:12Z</time>
      </trkpt>
      <trkpt lat="44.13586" lon="6.96557">
        <ele>2428</ele>
        <time>2017-06-07T10:50:12Z</time>
      </trkpt>
      <trkpt lat="44.13586" lon="6.96553">
        <ele>2428</ele>
        <time>2017-06-07T10:50:12Z</time>
      </trkpt>
      <trkpt lat="44.13588" lon="6.96549">
        <ele>2428</ele>
        <time>2017-06-07T10:50:12Z</time>
      </trkpt>
      <trkpt lat="44.13589" lon="6.96545">
        <ele>2428</ele>
        <time>2017-06-07T10:50:12Z</time>
      </trkpt>
      <trkpt lat="44.13589" lon="6.96545">
        <ele>2428</ele>
        <time>2017-06-07T10:50:52Z</time>
      </trkpt>
      <trkpt lat="44.13591" lon="6.96541">
        <ele>2425</ele>
        <time>2017-06-07T10:50:52Z</time>
      </trkpt>
      <trkpt lat="44.13594" lon="6.96539">
        <ele>2425</ele>
        <time>2017-06-07T10:50:52Z</time>
      </trkpt>
      <trkpt lat="44.13596" lon="6.96539">
        <ele>2425</ele>
        <time>2017-06-07T10:50:52Z</time>
      </trkpt>
      <trkpt lat="44.13598" lon="6.96539">
        <ele>2428</ele>
        <time>2017-06-07T10:50:52Z</time>
      </trkpt>
      <trkpt lat="44.13599" lon="6.96541">
        <ele>2428</ele>
        <time>2017-06-07T10:51:52Z</time>
      </trkpt>
      <trkpt lat="44.136" lon="6.96541">
        <ele>2428</ele>
        <time>2017-06-07T10:51:52Z</time>
      </trkpt>
      <trkpt lat="44.13603" lon="6.96544">
        <ele>2429</ele>
        <time>2017-06-07T10:51:53Z</time>
      </trkpt>
      <trkpt lat="44.13605" lon="6.96544">
        <ele>2429</ele>
        <time>2017-06-07T10:51:53Z</time>
      </trkpt>
      <trkpt lat="44.13607" lon="6.96544">
        <ele>2429</ele>
        <time>2017-06-07T10:51:53Z</time>
      </trkpt>
      <trkpt lat="44.13614" lon="6.9654">
        <ele>2428</ele>
        <time>2017-06-07T10:52:28Z</time>
      </trkpt>
      <trkpt lat="44.13615" lon="6.96539">
        <ele>2428</ele>
        <time>2017-06-07T10:52:28Z</time>
      </trkpt>
      <trkpt lat="44.13616" lon="6.96539">
        <ele>2428</ele>
        <time>2017-06-07T10:52:28Z</time>
      </trkpt>
      <trkpt lat="44.13618" lon="6.96538">
        <ele>2428</ele>
        <time>2017-06-07T10:52:28Z</time>
      </trkpt>
      <trkpt lat="44.13622" lon="6.96536">
        <ele>2428</ele>
        <time>2017-06-07T10:52:28Z</time>
      </trkpt>
      <trkpt lat="44.13624" lon="6.96533">
        <ele>2428</ele>
        <time>2017-06-07T10:52:44Z</time>
      </trkpt>
      <trkpt lat="44.13627" lon="6.96533">
        <ele>2436</ele>
        <time>2017-06-07T10:52:44Z</time>
      </trkpt>
      <trkpt lat="44.1363" lon="6.96531">
        <ele>2436</ele>
        <time>2017-06-07T10:52:44Z</time>
      </trkpt>
      <trkpt lat="44.13634" lon="6.96527">
        <ele>2436</ele>
        <time>2017-06-07T10:52:44Z</time>
      </trkpt>
      <trkpt lat="44.13638" lon="6.96523">
        <ele>2436</ele>
        <time>2017-06-07T10:53:00Z</time>
      </trkpt>
      <trkpt lat="44.1364" lon="6.96521">
        <ele>2436</ele>
        <time>2017-06-07T10:53:00Z</time>
      </trkpt>
      <trkpt lat="44.13643" lon="6.96517">
        <ele>2436</ele>
        <time>2017-06-07T10:53:00Z</time>
      </trkpt>
      <trkpt lat="44.13645" lon="6.96514">
        <ele>2436</ele>
        <time>2017-06-07T10:53:00Z</time>
      </trkpt>
      <trkpt lat="44.13648" lon="6.96511">
        <ele>2437</ele>
        <time>2017-06-07T10:53:20Z</time>
      </trkpt>
      <trkpt lat="44.1365" lon="6.96512">
        <ele>2437</ele>
        <time>2017-06-07T10:53:20Z</time>
      </trkpt>
      <trkpt lat="44.13653" lon="6.9651">
        <ele>2441</ele>
        <time>2017-06-07T10:53:20Z</time>
      </trkpt>
      <trkpt lat="44.13657" lon="6.96512">
        <ele>2441</ele>
        <time>2017-06-07T10:53:21Z</time>
      </trkpt>
      <trkpt lat="44.1366" lon="6.96512">
        <ele>2441</ele>
        <time>2017-06-07T10:53:21Z</time>
      </trkpt>
      <trkpt lat="44.13662" lon="6.96513">
        <ele>2441</ele>
        <time>2017-06-07T10:53:44Z</time>
      </trkpt>
      <trkpt lat="44.13663" lon="6.96514">
        <ele>2438</ele>
        <time>2017-06-07T10:53:44Z</time>
      </trkpt>
      <trkpt lat="44.13664" lon="6.96513">
        <ele>2441</ele>
        <time>2017-06-07T10:53:44Z</time>
      </trkpt>
      <trkpt lat="44.13668" lon="6.96512">
        <ele>2441</ele>
        <time>2017-06-07T10:53:44Z</time>
      </trkpt>
      <trkpt lat="44.13671" lon="6.96514">
        <ele>2441</ele>
        <time>2017-06-07T10:53:44Z</time>
      </trkpt>
      <trkpt lat="44.13671" lon="6.96514">
        <ele>2441</ele>
        <time>2017-06-07T10:54:03Z</time>
      </trkpt>
      <trkpt lat="44.13675" lon="6.96515">
        <ele>2438</ele>
        <time>2017-06-07T10:54:03Z</time>
      </trkpt>
      <trkpt lat="44.13676" lon="6.96515">
        <ele>2438</ele>
        <time>2017-06-07T10:54:03Z</time>
      </trkpt>
      <trkpt lat="44.13678" lon="6.96517">
        <ele>2438</ele>
        <time>2017-06-07T10:54:03Z</time>
      </trkpt>
      <trkpt lat="44.13681" lon="6.96518">
        <ele>2439</ele>
        <time>2017-06-07T10:54:04Z</time>
      </trkpt>
      <trkpt lat="44.13682" lon="6.96519">
        <ele>2439</ele>
        <time>2017-06-07T10:54:24Z</time>
      </trkpt>
      <trkpt lat="44.13684" lon="6.96523">
        <ele>2439</ele>
        <time>2017-06-07T10:54:24Z</time>
      </trkpt>
      <trkpt lat="44.13686" lon="6.96525">
        <ele>2439</ele>
        <time>2017-06-07T10:54:24Z</time>
      </trkpt>
      <trkpt lat="44.13687" lon="6.96529">
        <ele>2439</ele>
        <time>2017-06-07T10:54:24Z</time>
      </trkpt>
      <trkpt lat="44.13689" lon="6.96534">
        <ele>2439</ele>
        <time>2017-06-07T10:54:25Z</time>
      </trkpt>
      <trkpt lat="44.13694" lon="6.96536">
        <ele>2439</ele>
        <time>2017-06-07T10:54:48Z</time>
      </trkpt>
      <trkpt lat="44.13696" lon="6.96537">
        <ele>2439</ele>
        <time>2017-06-07T10:54:48Z</time>
      </trkpt>
      <trkpt lat="44.13697" lon="6.96538">
        <ele>2439</ele>
        <time>2017-06-07T10:54:48Z</time>
      </trkpt>
      <trkpt lat="44.13699" lon="6.9654">
        <ele>2439</ele>
        <time>2017-06-07T10:54:48Z</time>
      </trkpt>
      <trkpt lat="44.13701" lon="6.96539">
        <ele>2439</ele>
        <time>2017-06-07T10:54:49Z</time>
      </trkpt>
      <trkpt lat="44.13701" lon="6.96539">
        <ele>2439</ele>
        <time>2017-06-07T10:55:04Z</time>
      </trkpt>
      <trkpt lat="44.13703" lon="6.9654">
        <ele>2439</ele>
        <time>2017-06-07T10:55:04Z</time>
      </trkpt>
      <trkpt lat="44.13708" lon="6.96539">
        <ele>2439</ele>
        <time>2017-06-07T10:55:05Z</time>
      </trkpt>
      <trkpt lat="44.13711" lon="6.96538">
        <ele>2443</ele>
        <time>2017-06-07T10:55:05Z</time>
      </trkpt>
      <trkpt lat="44.13711" lon="6.96539">
        <ele>2443</ele>
        <time>2017-06-07T10:55:19Z</time>
      </trkpt>
      <trkpt lat="44.13715" lon="6.96539">
        <ele>2443</ele>
        <time>2017-06-07T10:55:19Z</time>
      </trkpt>
      <trkpt lat="44.13718" lon="6.96541">
        <ele>2443</ele>
        <time>2017-06-07T10:55:19Z</time>
      </trkpt>
      <trkpt lat="44.13721" lon="6.96541">
        <ele>2443</ele>
        <time>2017-06-07T10:55:19Z</time>
      </trkpt>
      <trkpt lat="44.13726" lon="6.96541">
        <ele>2443</ele>
        <time>2017-06-07T10:55:40Z</time>
      </trkpt>
      <trkpt lat="44.13728" lon="6.96541">
        <ele>2443</ele>
        <time>2017-06-07T10:55:40Z</time>
      </trkpt>
      <trkpt lat="44.13731" lon="6.96538">
        <ele>2443</ele>
        <time>2017-06-07T10:55:40Z</time>
      </trkpt>
      <trkpt lat="44.13733" lon="6.96535">
        <ele>2443</ele>
        <time>2017-06-07T10:55:40Z</time>
      </trkpt>
      <trkpt lat="44.13737" lon="6.96532">
        <ele>2444</ele>
        <time>2017-06-07T10:55:40Z</time>
      </trkpt>
      <trkpt lat="44.13739" lon="6.96531">
        <ele>2444</ele>
        <time>2017-06-07T10:55:56Z</time>
      </trkpt>
      <trkpt lat="44.13743" lon="6.96527">
        <ele>2444</ele>
        <time>2017-06-07T10:55:56Z</time>
      </trkpt>
      <trkpt lat="44.13745" lon="6.96523">
        <ele>2444</ele>
        <time>2017-06-07T10:55:56Z</time>
      </trkpt>
      <trkpt lat="44.13749" lon="6.9652">
        <ele>2444</ele>
        <time>2017-06-07T10:55:56Z</time>
      </trkpt>
      <trkpt lat="44.13754" lon="6.96513">
        <ele>2444</ele>
        <time>2017-06-07T10:56:20Z</time>
      </trkpt>
      <trkpt lat="44.13757" lon="6.96511">
        <ele>2444</ele>
        <time>2017-06-07T10:56:20Z</time>
      </trkpt>
      <trkpt lat="44.13758" lon="6.9651">
        <ele>2444</ele>
        <time>2017-06-07T10:56:20Z</time>
      </trkpt>
      <trkpt lat="44.13759" lon="6.9651">
        <ele>2444</ele>
        <time>2017-06-07T10:56:20Z</time>
      </trkpt>
      <trkpt lat="44.13762" lon="6.96508">
        <ele>2444</ele>
        <time>2017-06-07T10:56:20Z</time>
      </trkpt>
      <trkpt lat="44.13765" lon="6.96504">
        <ele>2445</ele>
        <time>2017-06-07T10:56:36Z</time>
      </trkpt>
      <trkpt lat="44.13768" lon="6.96501">
        <ele>2445</ele>
        <time>2017-06-07T10:56:36Z</time>
      </trkpt>
      <trkpt lat="44.13772" lon="6.965">
        <ele>2445</ele>
        <time>2017-06-07T10:56:36Z</time>
      </trkpt>
      <trkpt lat="44.13774" lon="6.96497">
        <ele>2445</ele>
        <time>2017-06-07T10:56:36Z</time>
      </trkpt>
      <trkpt lat="44.13777" lon="6.96494">
        <ele>2445</ele>
        <time>2017-06-07T10:56:52Z</time>
      </trkpt>
      <trkpt lat="44.13782" lon="6.96491">
        <ele>2445</ele>
        <time>2017-06-07T10:56:52Z</time>
      </trkpt>
      <trkpt lat="44.13786" lon="6.96488">
        <ele>2445</ele>
        <time>2017-06-07T10:56:53Z</time>
      </trkpt>
      <trkpt lat="44.13787" lon="6.96486">
        <ele>2446</ele>
        <time>2017-06-07T10:56:54Z</time>
      </trkpt>
      <trkpt lat="44.13791" lon="6.96484">
        <ele>2446</ele>
        <time>2017-06-07T10:57:08Z</time>
      </trkpt>
      <trkpt lat="44.13797" lon="6.96482">
        <ele>2443</ele>
        <time>2017-06-07T10:57:08Z</time>
      </trkpt>
      <trkpt lat="44.13799" lon="6.96481">
        <ele>2443</ele>
        <time>2017-06-07T10:57:08Z</time>
      </trkpt>
      <trkpt lat="44.13803" lon="6.96479">
        <ele>2443</ele>
        <time>2017-06-07T10:57:08Z</time>
      </trkpt>
      <trkpt lat="44.13808" lon="6.96478">
        <ele>2443</ele>
        <time>2017-06-07T10:57:24Z</time>
      </trkpt>
      <trkpt lat="44.1381" lon="6.96477">
        <ele>2443</ele>
        <time>2017-06-07T10:57:24Z</time>
      </trkpt>
      <trkpt lat="44.13814" lon="6.96479">
        <ele>2443</ele>
        <time>2017-06-07T10:57:24Z</time>
      </trkpt>
      <trkpt lat="44.13817" lon="6.96475">
        <ele>2443</ele>
        <time>2017-06-07T10:57:24Z</time>
      </trkpt>
      <trkpt lat="44.13821" lon="6.96471">
        <ele>2438</ele>
        <time>2017-06-07T10:57:40Z</time>
      </trkpt>
      <trkpt lat="44.13824" lon="6.96468">
        <ele>2438</ele>
        <time>2017-06-07T10:57:40Z</time>
      </trkpt>
      <trkpt lat="44.13827" lon="6.96466">
        <ele>2438</ele>
        <time>2017-06-07T10:57:40Z</time>
      </trkpt>
      <trkpt lat="44.13831" lon="6.96463">
        <ele>2438</ele>
        <time>2017-06-07T10:57:40Z</time>
      </trkpt>
      <trkpt lat="44.13836" lon="6.96462">
        <ele>2438</ele>
        <time>2017-06-07T10:57:56Z</time>
      </trkpt>
      <trkpt lat="44.13837" lon="6.96461">
        <ele>2438</ele>
        <time>2017-06-07T10:57:56Z</time>
      </trkpt>
      <trkpt lat="44.13839" lon="6.96458">
        <ele>2440</ele>
        <time>2017-06-07T10:57:57Z</time>
      </trkpt>
      <trkpt lat="44.13843" lon="6.96454">
        <ele>2440</ele>
        <time>2017-06-07T10:57:57Z</time>
      </trkpt>
      <trkpt lat="44.13858" lon="6.96451">
        <ele>2438</ele>
        <time>2017-06-07T10:58:56Z</time>
      </trkpt>
      <trkpt lat="44.13859" lon="6.96449">
        <ele>2438</ele>
        <time>2017-06-07T10:58:56Z</time>
      </trkpt>
      <trkpt lat="44.13859" lon="6.96447">
        <ele>2438</ele>
        <time>2017-06-07T10:58:56Z</time>
      </trkpt>
      <trkpt lat="44.1386" lon="6.96443">
        <ele>2438</ele>
        <time>2017-06-07T10:58:56Z</time>
      </trkpt>
      <trkpt lat="44.13861" lon="6.9644">
        <ele>2438</ele>
        <time>2017-06-07T10:58:56Z</time>
      </trkpt>
      <trkpt lat="44.13864" lon="6.96435">
        <ele>2438</ele>
        <time>2017-06-07T10:59:12Z</time>
      </trkpt>
      <trkpt lat="44.13864" lon="6.96431">
        <ele>2438</ele>
        <time>2017-06-07T10:59:12Z</time>
      </trkpt>
      <trkpt lat="44.13864" lon="6.96426">
        <ele>2440</ele>
        <time>2017-06-07T10:59:13Z</time>
      </trkpt>
      <trkpt lat="44.13866" lon="6.96422">
        <ele>2440</ele>
        <time>2017-06-07T10:59:13Z</time>
      </trkpt>
      <trkpt lat="44.13866" lon="6.96419">
        <ele>2440</ele>
        <time>2017-06-07T10:59:28Z</time>
      </trkpt>
      <trkpt lat="44.13868" lon="6.96416">
        <ele>2440</ele>
        <time>2017-06-07T10:59:28Z</time>
      </trkpt>
      <trkpt lat="44.1387" lon="6.96411">
        <ele>2440</ele>
        <time>2017-06-07T10:59:28Z</time>
      </trkpt>
      <trkpt lat="44.13872" lon="6.96406">
        <ele>2440</ele>
        <time>2017-06-07T10:59:28Z</time>
      </trkpt>
      <trkpt lat="44.13872" lon="6.96404">
        <ele>2440</ele>
        <time>2017-06-07T10:59:44Z</time>
      </trkpt>
      <trkpt lat="44.13873" lon="6.96398">
        <ele>2445</ele>
        <time>2017-06-07T10:59:44Z</time>
      </trkpt>
      <trkpt lat="44.13874" lon="6.96393">
        <ele>2445</ele>
        <time>2017-06-07T10:59:44Z</time>
      </trkpt>
      <trkpt lat="44.13875" lon="6.96386">
        <ele>2437</ele>
        <time>2017-06-07T10:59:45Z</time>
      </trkpt>
      <trkpt lat="44.13877" lon="6.96382">
        <ele>2437</ele>
        <time>2017-06-07T11:00:00Z</time>
      </trkpt>
      <trkpt lat="44.13879" lon="6.96378">
        <ele>2437</ele>
        <time>2017-06-07T11:00:00Z</time>
      </trkpt>
      <trkpt lat="44.13881" lon="6.96373">
        <ele>2437</ele>
        <time>2017-06-07T11:00:00Z</time>
      </trkpt>
      <trkpt lat="44.13881" lon="6.96371">
        <ele>2437</ele>
        <time>2017-06-07T11:00:00Z</time>
      </trkpt>
      <trkpt lat="44.13883" lon="6.96368">
        <ele>2437</ele>
        <time>2017-06-07T11:00:16Z</time>
      </trkpt>
      <trkpt lat="44.13886" lon="6.96366">
        <ele>2437</ele>
        <time>2017-06-07T11:00:16Z</time>
      </trkpt>
      <trkpt lat="44.13887" lon="6.9636">
        <ele>2437</ele>
        <time>2017-06-07T11:00:16Z</time>
      </trkpt>
      <trkpt lat="44.13889" lon="6.96358">
        <ele>2437</ele>
        <time>2017-06-07T11:00:16Z</time>
      </trkpt>
      <trkpt lat="44.13893" lon="6.96355">
        <ele>2437</ele>
        <time>2017-06-07T11:00:32Z</time>
      </trkpt>
      <trkpt lat="44.13894" lon="6.96352">
        <ele>2437</ele>
        <time>2017-06-07T11:00:32Z</time>
      </trkpt>
      <trkpt lat="44.13895" lon="6.96347">
        <ele>2438</ele>
        <time>2017-06-07T11:00:32Z</time>
      </trkpt>
      <trkpt lat="44.13897" lon="6.9634">
        <ele>2438</ele>
        <time>2017-06-07T11:00:32Z</time>
      </trkpt>
      <trkpt lat="44.139" lon="6.96333">
        <ele>2438</ele>
        <time>2017-06-07T11:00:48Z</time>
      </trkpt>
      <trkpt lat="44.13901" lon="6.96328">
        <ele>2438</ele>
        <time>2017-06-07T11:00:48Z</time>
      </trkpt>
      <trkpt lat="44.13905" lon="6.96322">
        <ele>2433</ele>
        <time>2017-06-07T11:00:48Z</time>
      </trkpt>
      <trkpt lat="44.13907" lon="6.96319">
        <ele>2437</ele>
        <time>2017-06-07T11:00:48Z</time>
      </trkpt>
      <trkpt lat="44.13907" lon="6.96316">
        <ele>2437</ele>
        <time>2017-06-07T11:01:56Z</time>
      </trkpt>
      <trkpt lat="44.13907" lon="6.96316">
        <ele>2437</ele>
        <time>2017-06-07T11:01:56Z</time>
      </trkpt>
      <trkpt lat="44.13908" lon="6.96314">
        <ele>2437</ele>
        <time>2017-06-07T11:01:56Z</time>
      </trkpt>
      <trkpt lat="44.1391" lon="6.96309">
        <ele>2437</ele>
        <time>2017-06-07T11:01:57Z</time>
      </trkpt>
      <trkpt lat="44.13911" lon="6.96302">
        <ele>2437</ele>
        <time>2017-06-07T11:01:57Z</time>
      </trkpt>
      <trkpt lat="44.13913" lon="6.96296">
        <ele>2437</ele>
        <time>2017-06-07T11:02:12Z</time>
      </trkpt>
      <trkpt lat="44.13913" lon="6.9629">
        <ele>2442</ele>
        <time>2017-06-07T11:02:12Z</time>
      </trkpt>
      <trkpt lat="44.13913" lon="6.96283">
        <ele>2442</ele>
        <time>2017-06-07T11:02:12Z</time>
      </trkpt>
      <trkpt lat="44.13916" lon="6.96278">
        <ele>2442</ele>
        <time>2017-06-07T11:02:12Z</time>
      </trkpt>
      <trkpt lat="44.1392" lon="6.96272">
        <ele>2442</ele>
        <time>2017-06-07T11:02:28Z</time>
      </trkpt>
      <trkpt lat="44.13923" lon="6.96268">
        <ele>2442</ele>
        <time>2017-06-07T11:02:28Z</time>
      </trkpt>
      <trkpt lat="44.13925" lon="6.96262">
        <ele>2444</ele>
        <time>2017-06-07T11:02:29Z</time>
      </trkpt>
      <trkpt lat="44.13926" lon="6.96256">
        <ele>2444</ele>
        <time>2017-06-07T11:02:29Z</time>
      </trkpt>
      <trkpt lat="44.13927" lon="6.96251">
        <ele>2444</ele>
        <time>2017-06-07T11:02:44Z</time>
      </trkpt>
      <trkpt lat="44.13929" lon="6.96244">
        <ele>2444</ele>
        <time>2017-06-07T11:02:44Z</time>
      </trkpt>
      <trkpt lat="44.1393" lon="6.96238">
        <ele>2444</ele>
        <time>2017-06-07T11:02:44Z</time>
      </trkpt>
      <trkpt lat="44.13933" lon="6.96232">
        <ele>2430</ele>
        <time>2017-06-07T11:02:44Z</time>
      </trkpt>
      <trkpt lat="44.13935" lon="6.96226">
        <ele>2430</ele>
        <time>2017-06-07T11:03:00Z</time>
      </trkpt>
      <trkpt lat="44.13938" lon="6.96216">
        <ele>2430</ele>
        <time>2017-06-07T11:03:00Z</time>
      </trkpt>
      <trkpt lat="44.13941" lon="6.96211">
        <ele>2430</ele>
        <time>2017-06-07T11:03:00Z</time>
      </trkpt>
      <trkpt lat="44.13943" lon="6.96205">
        <ele>2437</ele>
        <time>2017-06-07T11:03:00Z</time>
      </trkpt>
      <trkpt lat="44.13944" lon="6.962">
        <ele>2437</ele>
        <time>2017-06-07T11:03:16Z</time>
      </trkpt>
      <trkpt lat="44.13946" lon="6.96194">
        <ele>2437</ele>
        <time>2017-06-07T11:03:16Z</time>
      </trkpt>
      <trkpt lat="44.13949" lon="6.96187">
        <ele>2437</ele>
        <time>2017-06-07T11:03:16Z</time>
      </trkpt>
      <trkpt lat="44.1395" lon="6.96181">
        <ele>2437</ele>
        <time>2017-06-07T11:03:16Z</time>
      </trkpt>
      <trkpt lat="44.13955" lon="6.96179">
        <ele>2444</ele>
        <time>2017-06-07T11:03:32Z</time>
      </trkpt>
      <trkpt lat="44.13957" lon="6.96173">
        <ele>2444</ele>
        <time>2017-06-07T11:03:32Z</time>
      </trkpt>
      <trkpt lat="44.1396" lon="6.96168">
        <ele>2432</ele>
        <time>2017-06-07T11:03:33Z</time>
      </trkpt>
      <trkpt lat="44.13961" lon="6.96162">
        <ele>2432</ele>
        <time>2017-06-07T11:03:33Z</time>
      </trkpt>
      <trkpt lat="44.13963" lon="6.96156">
        <ele>2432</ele>
        <time>2017-06-07T11:03:47Z</time>
      </trkpt>
      <trkpt lat="44.13967" lon="6.9615">
        <ele>2434</ele>
        <time>2017-06-07T11:03:48Z</time>
      </trkpt>
      <trkpt lat="44.13968" lon="6.96146">
        <ele>2434</ele>
        <time>2017-06-07T11:03:48Z</time>
      </trkpt>
      <trkpt lat="44.1397" lon="6.9614">
        <ele>2434</ele>
        <time>2017-06-07T11:03:48Z</time>
      </trkpt>
      <trkpt lat="44.13971" lon="6.96132">
        <ele>2434</ele>
        <time>2017-06-07T11:04:04Z</time>
      </trkpt>
      <trkpt lat="44.13973" lon="6.96125">
        <ele>2434</ele>
        <time>2017-06-07T11:04:04Z</time>
      </trkpt>
      <trkpt lat="44.13975" lon="6.96121">
        <ele>2434</ele>
        <time>2017-06-07T11:04:04Z</time>
      </trkpt>
      <trkpt lat="44.13978" lon="6.96117">
        <ele>2434</ele>
        <time>2017-06-07T11:04:04Z</time>
      </trkpt>
      <trkpt lat="44.1398" lon="6.96111">
        <ele>2434</ele>
        <time>2017-06-07T11:04:20Z</time>
      </trkpt>
      <trkpt lat="44.13982" lon="6.96105">
        <ele>2434</ele>
        <time>2017-06-07T11:04:20Z</time>
      </trkpt>
      <trkpt lat="44.13984" lon="6.96098">
        <ele>2434</ele>
        <time>2017-06-07T11:04:20Z</time>
      </trkpt>
      <trkpt lat="44.13985" lon="6.96093">
        <ele>2435</ele>
        <time>2017-06-07T11:04:20Z</time>
      </trkpt>
      <trkpt lat="44.13987" lon="6.96089">
        <ele>2430</ele>
        <time>2017-06-07T11:04:36Z</time>
      </trkpt>
      <trkpt lat="44.1399" lon="6.96083">
        <ele>2430</ele>
        <time>2017-06-07T11:04:36Z</time>
      </trkpt>
      <trkpt lat="44.13994" lon="6.96078">
        <ele>2430</ele>
        <time>2017-06-07T11:04:36Z</time>
      </trkpt>
      <trkpt lat="44.13997" lon="6.96072">
        <ele>2430</ele>
        <time>2017-06-07T11:04:36Z</time>
      </trkpt>
      <trkpt lat="44.13999" lon="6.96064">
        <ele>2432</ele>
        <time>2017-06-07T11:04:52Z</time>
      </trkpt>
      <trkpt lat="44.14002" lon="6.96056">
        <ele>2432</ele>
        <time>2017-06-07T11:04:52Z</time>
      </trkpt>
      <trkpt lat="44.14004" lon="6.9605">
        <ele>2432</ele>
        <time>2017-06-07T11:04:53Z</time>
      </trkpt>
      <trkpt lat="44.14006" lon="6.96044">
        <ele>2432</ele>
        <time>2017-06-07T11:04:53Z</time>
      </trkpt>
      <trkpt lat="44.14008" lon="6.96038">
        <ele>2433</ele>
        <time>2017-06-07T11:05:08Z</time>
      </trkpt>
      <trkpt lat="44.14009" lon="6.96031">
        <ele>2433</ele>
        <time>2017-06-07T11:05:08Z</time>
      </trkpt>
      <trkpt lat="44.1401" lon="6.96024">
        <ele>2433</ele>
        <time>2017-06-07T11:05:08Z</time>
      </trkpt>
      <trkpt lat="44.14013" lon="6.9602">
        <ele>2433</ele>
        <time>2017-06-07T11:05:08Z</time>
      </trkpt>
      <trkpt lat="44.14016" lon="6.96014">
        <ele>2431</ele>
        <time>2017-06-07T11:05:24Z</time>
      </trkpt>
      <trkpt lat="44.14018" lon="6.96007">
        <ele>2431</ele>
        <time>2017-06-07T11:05:24Z</time>
      </trkpt>
      <trkpt lat="44.14021" lon="6.96001">
        <ele>2431</ele>
        <time>2017-06-07T11:05:24Z</time>
      </trkpt>
      <trkpt lat="44.14022" lon="6.95996">
        <ele>2431</ele>
        <time>2017-06-07T11:05:24Z</time>
      </trkpt>
      <trkpt lat="44.14023" lon="6.95992">
        <ele>2431</ele>
        <time>2017-06-07T11:05:40Z</time>
      </trkpt>
      <trkpt lat="44.14023" lon="6.95985">
        <ele>2431</ele>
        <time>2017-06-07T11:05:40Z</time>
      </trkpt>
      <trkpt lat="44.14026" lon="6.95977">
        <ele>2431</ele>
        <time>2017-06-07T11:05:40Z</time>
      </trkpt>
      <trkpt lat="44.14027" lon="6.9597">
        <ele>2431</ele>
        <time>2017-06-07T11:05:40Z</time>
      </trkpt>
      <trkpt lat="44.14027" lon="6.95965">
        <ele>2431</ele>
        <time>2017-06-07T11:05:56Z</time>
      </trkpt>
      <trkpt lat="44.1403" lon="6.95962">
        <ele>2431</ele>
        <time>2017-06-07T11:05:56Z</time>
      </trkpt>
      <trkpt lat="44.14032" lon="6.95959">
        <ele>2431</ele>
        <time>2017-06-07T11:05:56Z</time>
      </trkpt>
      <trkpt lat="44.14037" lon="6.95956">
        <ele>2431</ele>
        <time>2017-06-07T11:05:56Z</time>
      </trkpt>
      <trkpt lat="44.14042" lon="6.95955">
        <ele>2431</ele>
        <time>2017-06-07T11:06:11Z</time>
      </trkpt>
      <trkpt lat="44.14045" lon="6.95951">
        <ele>2431</ele>
        <time>2017-06-07T11:06:11Z</time>
      </trkpt>
      <trkpt lat="44.14047" lon="6.95945">
        <ele>2431</ele>
        <time>2017-06-07T11:06:11Z</time>
      </trkpt>
      <trkpt lat="44.14051" lon="6.9594">
        <ele>2431</ele>
        <time>2017-06-07T11:06:11Z</time>
      </trkpt>
      <trkpt lat="44.14053" lon="6.95934">
        <ele>2431</ele>
        <time>2017-06-07T11:06:27Z</time>
      </trkpt>
      <trkpt lat="44.14056" lon="6.95929">
        <ele>2430</ele>
        <time>2017-06-07T11:06:27Z</time>
      </trkpt>
      <trkpt lat="44.14059" lon="6.95921">
        <ele>2430</ele>
        <time>2017-06-07T11:06:27Z</time>
      </trkpt>
      <trkpt lat="44.14061" lon="6.95916">
        <ele>2430</ele>
        <time>2017-06-07T11:06:27Z</time>
      </trkpt>
      <trkpt lat="44.14064" lon="6.95912">
        <ele>2430</ele>
        <time>2017-06-07T11:06:43Z</time>
      </trkpt>
      <trkpt lat="44.14067" lon="6.95911">
        <ele>2430</ele>
        <time>2017-06-07T11:06:43Z</time>
      </trkpt>
      <trkpt lat="44.1407" lon="6.95905">
        <ele>2428</ele>
        <time>2017-06-07T11:06:43Z</time>
      </trkpt>
      <trkpt lat="44.14073" lon="6.95897">
        <ele>2428</ele>
        <time>2017-06-07T11:06:43Z</time>
      </trkpt>
      <trkpt lat="44.14075" lon="6.95892">
        <ele>2428</ele>
        <time>2017-06-07T11:06:59Z</time>
      </trkpt>
      <trkpt lat="44.14076" lon="6.95885">
        <ele>2428</ele>
        <time>2017-06-07T11:06:59Z</time>
      </trkpt>
      <trkpt lat="44.14079" lon="6.95878">
        <ele>2428</ele>
        <time>2017-06-07T11:06:59Z</time>
      </trkpt>
      <trkpt lat="44.14082" lon="6.9587">
        <ele>2430</ele>
        <time>2017-06-07T11:06:59Z</time>
      </trkpt>
      <trkpt lat="44.14087" lon="6.95866">
        <ele>2430</ele>
        <time>2017-06-07T11:07:16Z</time>
      </trkpt>
      <trkpt lat="44.1409" lon="6.95862">
        <ele>2430</ele>
        <time>2017-06-07T11:07:16Z</time>
      </trkpt>
      <trkpt lat="44.14093" lon="6.95859">
        <ele>2430</ele>
        <time>2017-06-07T11:07:16Z</time>
      </trkpt>
      <trkpt lat="44.14095" lon="6.95851">
        <ele>2430</ele>
        <time>2017-06-07T11:07:16Z</time>
      </trkpt>
      <trkpt lat="44.14097" lon="6.95846">
        <ele>2431</ele>
        <time>2017-06-07T11:07:32Z</time>
      </trkpt>
      <trkpt lat="44.14099" lon="6.9584">
        <ele>2435</ele>
        <time>2017-06-07T11:07:32Z</time>
      </trkpt>
      <trkpt lat="44.14102" lon="6.95834">
        <ele>2435</ele>
        <time>2017-06-07T11:07:32Z</time>
      </trkpt>
      <trkpt lat="44.14104" lon="6.95827">
        <ele>2435</ele>
        <time>2017-06-07T11:07:32Z</time>
      </trkpt>
      <trkpt lat="44.14107" lon="6.95823">
        <ele>2435</ele>
        <time>2017-06-07T11:07:48Z</time>
      </trkpt>
      <trkpt lat="44.1411" lon="6.9582">
        <ele>2435</ele>
        <time>2017-06-07T11:07:48Z</time>
      </trkpt>
      <trkpt lat="44.14113" lon="6.95812">
        <ele>2438</ele>
        <time>2017-06-07T11:07:48Z</time>
      </trkpt>
      <trkpt lat="44.14116" lon="6.95806">
        <ele>2438</ele>
        <time>2017-06-07T11:07:48Z</time>
      </trkpt>
      <trkpt lat="44.14119" lon="6.95805">
        <ele>2438</ele>
        <time>2017-06-07T11:08:04Z</time>
      </trkpt>
      <trkpt lat="44.14121" lon="6.95799">
        <ele>2438</ele>
        <time>2017-06-07T11:08:04Z</time>
      </trkpt>
      <trkpt lat="44.14123" lon="6.95794">
        <ele>2438</ele>
        <time>2017-06-07T11:08:04Z</time>
      </trkpt>
      <trkpt lat="44.14126" lon="6.95789">
        <ele>2444</ele>
        <time>2017-06-07T11:08:04Z</time>
      </trkpt>
      <trkpt lat="44.14128" lon="6.95784">
        <ele>2444</ele>
        <time>2017-06-07T11:08:19Z</time>
      </trkpt>
      <trkpt lat="44.1413" lon="6.9578">
        <ele>2444</ele>
        <time>2017-06-07T11:08:19Z</time>
      </trkpt>
      <trkpt lat="44.14132" lon="6.95776">
        <ele>2444</ele>
        <time>2017-06-07T11:08:19Z</time>
      </trkpt>
      <trkpt lat="44.14135" lon="6.95772">
        <ele>2444</ele>
        <time>2017-06-07T11:08:19Z</time>
      </trkpt>
      <trkpt lat="44.14137" lon="6.95767">
        <ele>2444</ele>
        <time>2017-06-07T11:08:36Z</time>
      </trkpt>
      <trkpt lat="44.14139" lon="6.95761">
        <ele>2447</ele>
        <time>2017-06-07T11:08:36Z</time>
      </trkpt>
      <trkpt lat="44.14141" lon="6.95755">
        <ele>2447</ele>
        <time>2017-06-07T11:08:36Z</time>
      </trkpt>
      <trkpt lat="44.14144" lon="6.95749">
        <ele>2447</ele>
        <time>2017-06-07T11:08:36Z</time>
      </trkpt>
      <trkpt lat="44.14145" lon="6.95746">
        <ele>2447</ele>
        <time>2017-06-07T11:08:56Z</time>
      </trkpt>
      <trkpt lat="44.14147" lon="6.95742">
        <ele>2447</ele>
        <time>2017-06-07T11:08:56Z</time>
      </trkpt>
      <trkpt lat="44.14149" lon="6.95739">
        <ele>2447</ele>
        <time>2017-06-07T11:08:57Z</time>
      </trkpt>
      <trkpt lat="44.1415" lon="6.95736">
        <ele>2447</ele>
        <time>2017-06-07T11:08:57Z</time>
      </trkpt>
      <trkpt lat="44.1415" lon="6.95732">
        <ele>2447</ele>
        <time>2017-06-07T11:08:58Z</time>
      </trkpt>
      <trkpt lat="44.14151" lon="6.95729">
        <ele>2447</ele>
        <time>2017-06-07T11:09:12Z</time>
      </trkpt>
      <trkpt lat="44.14153" lon="6.95725">
        <ele>2447</ele>
        <time>2017-06-07T11:09:12Z</time>
      </trkpt>
      <trkpt lat="44.14153" lon="6.95722">
        <ele>2450</ele>
        <time>2017-06-07T11:09:12Z</time>
      </trkpt>
      <trkpt lat="44.14155" lon="6.95718">
        <ele>2450</ele>
        <time>2017-06-07T11:09:12Z</time>
      </trkpt>
      <trkpt lat="44.14159" lon="6.95715">
        <ele>2450</ele>
        <time>2017-06-07T11:10:24Z</time>
      </trkpt>
      <trkpt lat="44.14158" lon="6.95712">
        <ele>2450</ele>
        <time>2017-06-07T11:10:24Z</time>
      </trkpt>
      <trkpt lat="44.14159" lon="6.95707">
        <ele>2452</ele>
        <time>2017-06-07T11:10:24Z</time>
      </trkpt>
      <trkpt lat="44.14161" lon="6.95704">
        <ele>2452</ele>
        <time>2017-06-07T11:10:24Z</time>
      </trkpt>
      <trkpt lat="44.14163" lon="6.95701">
        <ele>2452</ele>
        <time>2017-06-07T11:10:24Z</time>
      </trkpt>
      <trkpt lat="44.14165" lon="6.95697">
        <ele>2452</ele>
        <time>2017-06-07T11:10:44Z</time>
      </trkpt>
      <trkpt lat="44.14166" lon="6.95694">
        <ele>2452</ele>
        <time>2017-06-07T11:10:44Z</time>
      </trkpt>
      <trkpt lat="44.14167" lon="6.95692">
        <ele>2452</ele>
        <time>2017-06-07T11:10:45Z</time>
      </trkpt>
      <trkpt lat="44.14168" lon="6.95688">
        <ele>2452</ele>
        <time>2017-06-07T11:10:45Z</time>
      </trkpt>
      <trkpt lat="44.14171" lon="6.95687">
        <ele>2452</ele>
        <time>2017-06-07T11:10:45Z</time>
      </trkpt>
      <trkpt lat="44.14173" lon="6.95684">
        <ele>2452</ele>
        <time>2017-06-07T11:11:03Z</time>
      </trkpt>
      <trkpt lat="44.14175" lon="6.95682">
        <ele>2452</ele>
        <time>2017-06-07T11:11:03Z</time>
      </trkpt>
      <trkpt lat="44.14177" lon="6.95678">
        <ele>2458</ele>
        <time>2017-06-07T11:11:03Z</time>
      </trkpt>
      <trkpt lat="44.14179" lon="6.95677">
        <ele>2458</ele>
        <time>2017-06-07T11:11:03Z</time>
      </trkpt>
      <trkpt lat="44.14181" lon="6.95674">
        <ele>2459</ele>
        <time>2017-06-07T11:11:03Z</time>
      </trkpt>
      <trkpt lat="44.14183" lon="6.9567">
        <ele>2459</ele>
        <time>2017-06-07T11:11:28Z</time>
      </trkpt>
      <trkpt lat="44.14185" lon="6.95667">
        <ele>2459</ele>
        <time>2017-06-07T11:11:28Z</time>
      </trkpt>
      <trkpt lat="44.14187" lon="6.95665">
        <ele>2459</ele>
        <time>2017-06-07T11:11:28Z</time>
      </trkpt>
      <trkpt lat="44.14188" lon="6.95663">
        <ele>2459</ele>
        <time>2017-06-07T11:11:28Z</time>
      </trkpt>
      <trkpt lat="44.14188" lon="6.95662">
        <ele>2459</ele>
        <time>2017-06-07T11:11:28Z</time>
      </trkpt>
      <trkpt lat="44.1419" lon="6.95657">
        <ele>2459</ele>
        <time>2017-06-07T11:11:52Z</time>
      </trkpt>
      <trkpt lat="44.14192" lon="6.95655">
        <ele>2459</ele>
        <time>2017-06-07T11:11:52Z</time>
      </trkpt>
      <trkpt lat="44.14193" lon="6.95653">
        <ele>2466</ele>
        <time>2017-06-07T11:11:52Z</time>
      </trkpt>
      <trkpt lat="44.14194" lon="6.95648">
        <ele>2466</ele>
        <time>2017-06-07T11:11:52Z</time>
      </trkpt>
      <trkpt lat="44.14195" lon="6.95646">
        <ele>2466</ele>
        <time>2017-06-07T11:11:52Z</time>
      </trkpt>
      <trkpt lat="44.14197" lon="6.95639">
        <ele>2466</ele>
        <time>2017-06-07T11:12:20Z</time>
      </trkpt>
      <trkpt lat="44.14199" lon="6.95638">
        <ele>2466</ele>
        <time>2017-06-07T11:12:20Z</time>
      </trkpt>
      <trkpt lat="44.14201" lon="6.95635">
        <ele>2466</ele>
        <time>2017-06-07T11:12:21Z</time>
      </trkpt>
      <trkpt lat="44.14202" lon="6.95635">
        <ele>2466</ele>
        <time>2017-06-07T11:12:21Z</time>
      </trkpt>
      <trkpt lat="44.14203" lon="6.95632">
        <ele>2466</ele>
        <time>2017-06-07T11:12:21Z</time>
      </trkpt>
      <trkpt lat="44.14204" lon="6.95633">
        <ele>2466</ele>
        <time>2017-06-07T11:13:12Z</time>
      </trkpt>
      <trkpt lat="44.14205" lon="6.95627">
        <ele>2466</ele>
        <time>2017-06-07T11:13:12Z</time>
      </trkpt>
      <trkpt lat="44.14208" lon="6.95624">
        <ele>2470</ele>
        <time>2017-06-07T11:13:13Z</time>
      </trkpt>
      <trkpt lat="44.14208" lon="6.95621">
        <ele>2470</ele>
        <time>2017-06-07T11:13:13Z</time>
      </trkpt>
      <trkpt lat="44.14209" lon="6.95616">
        <ele>2473</ele>
        <time>2017-06-07T11:13:13Z</time>
      </trkpt>
      <trkpt lat="44.14211" lon="6.95612">
        <ele>2473</ele>
        <time>2017-06-07T11:13:28Z</time>
      </trkpt>
      <trkpt lat="44.14213" lon="6.95608">
        <ele>2473</ele>
        <time>2017-06-07T11:13:28Z</time>
      </trkpt>
      <trkpt lat="44.14215" lon="6.95605">
        <ele>2473</ele>
        <time>2017-06-07T11:13:28Z</time>
      </trkpt>
      <trkpt lat="44.14217" lon="6.95603">
        <ele>2473</ele>
        <time>2017-06-07T11:13:28Z</time>
      </trkpt>
      <trkpt lat="44.14219" lon="6.95602">
        <ele>2473</ele>
        <time>2017-06-07T11:13:44Z</time>
      </trkpt>
      <trkpt lat="44.1422" lon="6.95598">
        <ele>2473</ele>
        <time>2017-06-07T11:13:44Z</time>
      </trkpt>
      <trkpt lat="44.14222" lon="6.95596">
        <ele>2478</ele>
        <time>2017-06-07T11:13:45Z</time>
      </trkpt>
      <trkpt lat="44.14223" lon="6.9559">
        <ele>2478</ele>
        <time>2017-06-07T11:13:45Z</time>
      </trkpt>
      <trkpt lat="44.14226" lon="6.95587">
        <ele>2478</ele>
        <time>2017-06-07T11:14:27Z</time>
      </trkpt>
      <trkpt lat="44.14226" lon="6.95583">
        <ele>2478</ele>
        <time>2017-06-07T11:14:27Z</time>
      </trkpt>
      <trkpt lat="44.14227" lon="6.95579">
        <ele>2478</ele>
        <time>2017-06-07T11:14:27Z</time>
      </trkpt>
      <trkpt lat="44.14229" lon="6.95575">
        <ele>2478</ele>
        <time>2017-06-07T11:14:27Z</time>
      </trkpt>
      <trkpt lat="44.1423" lon="6.95574">
        <ele>2478</ele>
        <time>2017-06-07T11:14:27Z</time>
      </trkpt>
      <trkpt lat="44.14232" lon="6.9557">
        <ele>2478</ele>
        <time>2017-06-07T11:14:52Z</time>
      </trkpt>
      <trkpt lat="44.14233" lon="6.95569">
        <ele>2477</ele>
        <time>2017-06-07T11:14:52Z</time>
      </trkpt>
      <trkpt lat="44.14234" lon="6.95565">
        <ele>2477</ele>
        <time>2017-06-07T11:14:52Z</time>
      </trkpt>
      <trkpt lat="44.14235" lon="6.95562">
        <ele>2477</ele>
        <time>2017-06-07T11:14:52Z</time>
      </trkpt>
      <trkpt lat="44.14237" lon="6.95559">
        <ele>2485</ele>
        <time>2017-06-07T11:14:52Z</time>
      </trkpt>
      <trkpt lat="44.1424" lon="6.95556">
        <ele>2485</ele>
        <time>2017-06-07T11:15:56Z</time>
      </trkpt>
      <trkpt lat="44.1424" lon="6.95556">
        <ele>2485</ele>
        <time>2017-06-07T11:15:56Z</time>
      </trkpt>
      <trkpt lat="44.14241" lon="6.95552">
        <ele>2485</ele>
        <time>2017-06-07T11:15:56Z</time>
      </trkpt>
      <trkpt lat="44.14243" lon="6.95543">
        <ele>2485</ele>
        <time>2017-06-07T11:15:56Z</time>
      </trkpt>
      <trkpt lat="44.14246" lon="6.95539">
        <ele>2485</ele>
        <time>2017-06-07T11:15:56Z</time>
      </trkpt>
      <trkpt lat="44.14247" lon="6.95536">
        <ele>2485</ele>
        <time>2017-06-07T11:16:12Z</time>
      </trkpt>
      <trkpt lat="44.14248" lon="6.95533">
        <ele>2485</ele>
        <time>2017-06-07T11:16:12Z</time>
      </trkpt>
      <trkpt lat="44.1425" lon="6.95528">
        <ele>2485</ele>
        <time>2017-06-07T11:16:12Z</time>
      </trkpt>
      <trkpt lat="44.14254" lon="6.95525">
        <ele>2485</ele>
        <time>2017-06-07T11:16:13Z</time>
      </trkpt>
      <trkpt lat="44.14255" lon="6.95518">
        <ele>2485</ele>
        <time>2017-06-07T11:16:36Z</time>
      </trkpt>
      <trkpt lat="44.14257" lon="6.95517">
        <ele>2485</ele>
        <time>2017-06-07T11:16:36Z</time>
      </trkpt>
      <trkpt lat="44.14259" lon="6.95515">
        <ele>2485</ele>
        <time>2017-06-07T11:16:36Z</time>
      </trkpt>
      <trkpt lat="44.14262" lon="6.95515">
        <ele>2485</ele>
        <time>2017-06-07T11:16:36Z</time>
      </trkpt>
      <trkpt lat="44.14264" lon="6.95511">
        <ele>2484</ele>
        <time>2017-06-07T11:16:36Z</time>
      </trkpt>
      <trkpt lat="44.14267" lon="6.95508">
        <ele>2490</ele>
        <time>2017-06-07T11:16:52Z</time>
      </trkpt>
      <trkpt lat="44.14269" lon="6.95507">
        <ele>2490</ele>
        <time>2017-06-07T11:16:52Z</time>
      </trkpt>
      <trkpt lat="44.14272" lon="6.95502">
        <ele>2490</ele>
        <time>2017-06-07T11:16:52Z</time>
      </trkpt>
      <trkpt lat="44.14274" lon="6.95499">
        <ele>2490</ele>
        <time>2017-06-07T11:16:53Z</time>
      </trkpt>
      <trkpt lat="44.14275" lon="6.95497">
        <ele>2490</ele>
        <time>2017-06-07T11:17:07Z</time>
      </trkpt>
      <trkpt lat="44.14277" lon="6.95491">
        <ele>2490</ele>
        <time>2017-06-07T11:17:07Z</time>
      </trkpt>
      <trkpt lat="44.14279" lon="6.95487">
        <ele>2490</ele>
        <time>2017-06-07T11:17:07Z</time>
      </trkpt>
      <trkpt lat="44.14281" lon="6.95485">
        <ele>2492</ele>
        <time>2017-06-07T11:17:07Z</time>
      </trkpt>
      <trkpt lat="44.14284" lon="6.95482">
        <ele>2492</ele>
        <time>2017-06-07T11:17:27Z</time>
      </trkpt>
      <trkpt lat="44.14285" lon="6.95479">
        <ele>2492</ele>
        <time>2017-06-07T11:17:27Z</time>
      </trkpt>
      <trkpt lat="44.14288" lon="6.95475">
        <ele>2492</ele>
        <time>2017-06-07T11:17:27Z</time>
      </trkpt>
      <trkpt lat="44.14291" lon="6.95475">
        <ele>2492</ele>
        <time>2017-06-07T11:17:27Z</time>
      </trkpt>
      <trkpt lat="44.14294" lon="6.95472">
        <ele>2502</ele>
        <time>2017-06-07T11:17:28Z</time>
      </trkpt>
      <trkpt lat="44.14297" lon="6.95471">
        <ele>2502</ele>
        <time>2017-06-07T11:17:44Z</time>
      </trkpt>
      <trkpt lat="44.143" lon="6.9547">
        <ele>2502</ele>
        <time>2017-06-07T11:17:44Z</time>
      </trkpt>
      <trkpt lat="44.14306" lon="6.95467">
        <ele>2502</ele>
        <time>2017-06-07T11:17:44Z</time>
      </trkpt>
      <trkpt lat="44.14307" lon="6.95466">
        <ele>2502</ele>
        <time>2017-06-07T11:17:44Z</time>
      </trkpt>
      <trkpt lat="44.14312" lon="6.95461">
        <ele>2502</ele>
        <time>2017-06-07T11:18:08Z</time>
      </trkpt>
      <trkpt lat="44.14315" lon="6.95463">
        <ele>2502</ele>
        <time>2017-06-07T11:18:08Z</time>
      </trkpt>
      <trkpt lat="44.14316" lon="6.95461">
        <ele>2502</ele>
        <time>2017-06-07T11:18:09Z</time>
      </trkpt>
      <trkpt lat="44.14317" lon="6.95458">
        <ele>2506</ele>
        <time>2017-06-07T11:18:09Z</time>
      </trkpt>
      <trkpt lat="44.14316" lon="6.95452">
        <ele>2506</ele>
        <time>2017-06-07T11:18:09Z</time>
      </trkpt>
      <trkpt lat="44.14316" lon="6.95448">
        <ele>2506</ele>
        <time>2017-06-07T11:18:28Z</time>
      </trkpt>
      <trkpt lat="44.14312" lon="6.95447">
        <ele>2506</ele>
        <time>2017-06-07T11:18:28Z</time>
      </trkpt>
      <trkpt lat="44.1431" lon="6.95444">
        <ele>2506</ele>
        <time>2017-06-07T11:18:28Z</time>
      </trkpt>
      <trkpt lat="44.1431" lon="6.95442">
        <ele>2506</ele>
        <time>2017-06-07T11:18:29Z</time>
      </trkpt>
      <trkpt lat="44.14311" lon="6.95435">
        <ele>2506</ele>
        <time>2017-06-07T11:18:29Z</time>
      </trkpt>
      <trkpt lat="44.14314" lon="6.95434">
        <ele>2506</ele>
        <time>2017-06-07T11:18:44Z</time>
      </trkpt>
      <trkpt lat="44.14318" lon="6.9543">
        <ele>2507</ele>
        <time>2017-06-07T11:18:44Z</time>
      </trkpt>
      <trkpt lat="44.14321" lon="6.95427">
        <ele>2515</ele>
        <time>2017-06-07T11:18:44Z</time>
      </trkpt>
      <trkpt lat="44.14324" lon="6.95427">
        <ele>2515</ele>
        <time>2017-06-07T11:18:44Z</time>
      </trkpt>
      <trkpt lat="44.14328" lon="6.95426">
        <ele>2515</ele>
        <time>2017-06-07T11:19:03Z</time>
      </trkpt>
      <trkpt lat="44.1433" lon="6.95426">
        <ele>2515</ele>
        <time>2017-06-07T11:19:03Z</time>
      </trkpt>
      <trkpt lat="44.14332" lon="6.95424">
        <ele>2515</ele>
        <time>2017-06-07T11:19:03Z</time>
      </trkpt>
      <trkpt lat="44.14335" lon="6.95423">
        <ele>2515</ele>
        <time>2017-06-07T11:19:03Z</time>
      </trkpt>
      <trkpt lat="44.14338" lon="6.9542">
        <ele>2515</ele>
        <time>2017-06-07T11:19:03Z</time>
      </trkpt>
      <trkpt lat="44.14347" lon="6.95421">
        <ele>2515</ele>
        <time>2017-06-07T11:20:12Z</time>
      </trkpt>
      <trkpt lat="44.14348" lon="6.95418">
        <ele>2520</ele>
        <time>2017-06-07T11:20:12Z</time>
      </trkpt>
      <trkpt lat="44.14351" lon="6.95418">
        <ele>2520</ele>
        <time>2017-06-07T11:20:13Z</time>
      </trkpt>
      <trkpt lat="44.14354" lon="6.95415">
        <ele>2520</ele>
        <time>2017-06-07T11:20:13Z</time>
      </trkpt>
      <trkpt lat="44.14357" lon="6.9541">
        <ele>2520</ele>
        <time>2017-06-07T11:20:14Z</time>
      </trkpt>
      <trkpt lat="44.14357" lon="6.95409">
        <ele>2520</ele>
        <time>2017-06-07T11:20:28Z</time>
      </trkpt>
      <trkpt lat="44.14363" lon="6.95406">
        <ele>2520</ele>
        <time>2017-06-07T11:20:28Z</time>
      </trkpt>
      <trkpt lat="44.14364" lon="6.95405">
        <ele>2520</ele>
        <time>2017-06-07T11:20:28Z</time>
      </trkpt>
      <trkpt lat="44.14365" lon="6.95404">
        <ele>2520</ele>
        <time>2017-06-07T11:20:28Z</time>
      </trkpt>
      <trkpt lat="44.14369" lon="6.95399">
        <ele>2527</ele>
        <time>2017-06-07T11:20:52Z</time>
      </trkpt>
      <trkpt lat="44.14369" lon="6.95397">
        <ele>2527</ele>
        <time>2017-06-07T11:20:52Z</time>
      </trkpt>
      <trkpt lat="44.1437" lon="6.95396">
        <ele>2527</ele>
        <time>2017-06-07T11:20:52Z</time>
      </trkpt>
      <trkpt lat="44.14372" lon="6.95392">
        <ele>2527</ele>
        <time>2017-06-07T11:20:52Z</time>
      </trkpt>
      <trkpt lat="44.14374" lon="6.95389">
        <ele>2527</ele>
        <time>2017-06-07T11:20:53Z</time>
      </trkpt>
      <trkpt lat="44.14375" lon="6.95391">
        <ele>2536</ele>
        <time>2017-06-07T11:21:16Z</time>
      </trkpt>
      <trkpt lat="44.14378" lon="6.95391">
        <ele>2536</ele>
        <time>2017-06-07T11:21:16Z</time>
      </trkpt>
      <trkpt lat="44.1438" lon="6.95389">
        <ele>2536</ele>
        <time>2017-06-07T11:21:17Z</time>
      </trkpt>
      <trkpt lat="44.14381" lon="6.95389">
        <ele>2536</ele>
        <time>2017-06-07T11:21:17Z</time>
      </trkpt>
      <trkpt lat="44.14382" lon="6.95385">
        <ele>2536</ele>
        <time>2017-06-07T11:21:18Z</time>
      </trkpt>
      <trkpt lat="44.14386" lon="6.95383">
        <ele>2536</ele>
        <time>2017-06-07T11:21:36Z</time>
      </trkpt>
      <trkpt lat="44.14389" lon="6.9538">
        <ele>2536</ele>
        <time>2017-06-07T11:21:36Z</time>
      </trkpt>
      <trkpt lat="44.14391" lon="6.95375">
        <ele>2536</ele>
        <time>2017-06-07T11:21:36Z</time>
      </trkpt>
      <trkpt lat="44.14393" lon="6.95376">
        <ele>2536</ele>
        <time>2017-06-07T11:21:36Z</time>
      </trkpt>
      <trkpt lat="44.14395" lon="6.95375">
        <ele>2536</ele>
        <time>2017-06-07T11:21:36Z</time>
      </trkpt>
      <trkpt lat="44.14405" lon="6.95367">
        <ele>2552</ele>
        <time>2017-06-07T11:22:12Z</time>
      </trkpt>
      <trkpt lat="44.14407" lon="6.95364">
        <ele>2552</ele>
        <time>2017-06-07T11:22:12Z</time>
      </trkpt>
      <trkpt lat="44.1441" lon="6.95362">
        <ele>2552</ele>
        <time>2017-06-07T11:22:12Z</time>
      </trkpt>
      <trkpt lat="44.14413" lon="6.95362">
        <ele>2552</ele>
        <time>2017-06-07T11:22:12Z</time>
      </trkpt>
      <trkpt lat="44.14416" lon="6.95361">
        <ele>2552</ele>
        <time>2017-06-07T11:22:12Z</time>
      </trkpt>
      <trkpt lat="44.14418" lon="6.95359">
        <ele>2552</ele>
        <time>2017-06-07T11:22:32Z</time>
      </trkpt>
      <trkpt lat="44.1442" lon="6.95359">
        <ele>2552</ele>
        <time>2017-06-07T11:22:32Z</time>
      </trkpt>
      <trkpt lat="44.14421" lon="6.95359">
        <ele>2552</ele>
        <time>2017-06-07T11:22:32Z</time>
      </trkpt>
      <trkpt lat="44.14425" lon="6.95356">
        <ele>2552</ele>
        <time>2017-06-07T11:22:33Z</time>
      </trkpt>
      <trkpt lat="44.14428" lon="6.95356">
        <ele>2552</ele>
        <time>2017-06-07T11:22:33Z</time>
      </trkpt>
      <trkpt lat="44.1443" lon="6.95352">
        <ele>2552</ele>
        <time>2017-06-07T11:22:48Z</time>
      </trkpt>
      <trkpt lat="44.14432" lon="6.95349">
        <ele>2551</ele>
        <time>2017-06-07T11:22:48Z</time>
      </trkpt>
      <trkpt lat="44.14436" lon="6.95346">
        <ele>2563</ele>
        <time>2017-06-07T11:22:48Z</time>
      </trkpt>
      <trkpt lat="44.1444" lon="6.95346">
        <ele>2563</ele>
        <time>2017-06-07T11:22:48Z</time>
      </trkpt>
      <trkpt lat="44.14442" lon="6.95346">
        <ele>2563</ele>
        <time>2017-06-07T11:23:04Z</time>
      </trkpt>
      <trkpt lat="44.14445" lon="6.95347">
        <ele>2563</ele>
        <time>2017-06-07T11:23:04Z</time>
      </trkpt>
      <trkpt lat="44.14448" lon="6.95346">
        <ele>2563</ele>
        <time>2017-06-07T11:23:04Z</time>
      </trkpt>
      <trkpt lat="44.14452" lon="6.95343">
        <ele>2563</ele>
        <time>2017-06-07T11:23:04Z</time>
      </trkpt>
      <trkpt lat="44.14454" lon="6.95343">
        <ele>2563</ele>
        <time>2017-06-07T11:23:19Z</time>
      </trkpt>
      <trkpt lat="44.14458" lon="6.95343">
        <ele>2563</ele>
        <time>2017-06-07T11:23:19Z</time>
      </trkpt>
      <trkpt lat="44.14461" lon="6.95343">
        <ele>2568</ele>
        <time>2017-06-07T11:23:19Z</time>
      </trkpt>
      <trkpt lat="44.14464" lon="6.95344">
        <ele>2568</ele>
        <time>2017-06-07T11:23:19Z</time>
      </trkpt>
      <trkpt lat="44.14465" lon="6.95334">
        <ele>2568</ele>
        <time>2017-06-07T11:24:28Z</time>
      </trkpt>
      <trkpt lat="44.14466" lon="6.95332">
        <ele>2568</ele>
        <time>2017-06-07T11:24:28Z</time>
      </trkpt>
      <trkpt lat="44.14467" lon="6.9533">
        <ele>2568</ele>
        <time>2017-06-07T11:24:28Z</time>
      </trkpt>
      <trkpt lat="44.14468" lon="6.95324">
        <ele>2568</ele>
        <time>2017-06-07T11:24:28Z</time>
      </trkpt>
      <trkpt lat="44.1447" lon="6.95323">
        <ele>2568</ele>
        <time>2017-06-07T11:24:28Z</time>
      </trkpt>
      <trkpt lat="44.1447" lon="6.95316">
        <ele>2574</ele>
        <time>2017-06-07T11:25:12Z</time>
      </trkpt>
      <trkpt lat="44.14472" lon="6.95312">
        <ele>2574</ele>
        <time>2017-06-07T11:25:12Z</time>
      </trkpt>
      <trkpt lat="44.14473" lon="6.95309">
        <ele>2574</ele>
        <time>2017-06-07T11:25:12Z</time>
      </trkpt>
      <trkpt lat="44.14475" lon="6.9531">
        <ele>2574</ele>
        <time>2017-06-07T11:25:13Z</time>
      </trkpt>
      <trkpt lat="44.14477" lon="6.95309">
        <ele>2574</ele>
        <time>2017-06-07T11:25:13Z</time>
      </trkpt>
      <trkpt lat="44.14479" lon="6.95304">
        <ele>2574</ele>
        <time>2017-06-07T11:25:40Z</time>
      </trkpt>
      <trkpt lat="44.14479" lon="6.95302">
        <ele>2574</ele>
        <time>2017-06-07T11:25:40Z</time>
      </trkpt>
      <trkpt lat="44.14479" lon="6.95299">
        <ele>2574</ele>
        <time>2017-06-07T11:25:40Z</time>
      </trkpt>
      <trkpt lat="44.14479" lon="6.95299">
        <ele>2574</ele>
        <time>2017-06-07T11:25:40Z</time>
      </trkpt>
      <trkpt lat="44.14481" lon="6.95297">
        <ele>2574</ele>
        <time>2017-06-07T11:25:40Z</time>
      </trkpt>
      <trkpt lat="44.14486" lon="6.95292">
        <ele>2574</ele>
        <time>2017-06-07T11:26:28Z</time>
      </trkpt>
      <trkpt lat="44.14486" lon="6.95292">
        <ele>2574</ele>
        <time>2017-06-07T11:26:28Z</time>
      </trkpt>
      <trkpt lat="44.14486" lon="6.95287">
        <ele>2574</ele>
        <time>2017-06-07T11:26:28Z</time>
      </trkpt>
      <trkpt lat="44.14489" lon="6.95287">
        <ele>2572</ele>
        <time>2017-06-07T11:26:28Z</time>
      </trkpt>
      <trkpt lat="44.1449" lon="6.95287">
        <ele>2572</ele>
        <time>2017-06-07T11:26:28Z</time>
      </trkpt>
      <trkpt lat="44.14494" lon="6.95289">
        <ele>2572</ele>
        <time>2017-06-07T11:26:44Z</time>
      </trkpt>
      <trkpt lat="44.14498" lon="6.95291">
        <ele>2572</ele>
        <time>2017-06-07T11:26:44Z</time>
      </trkpt>
      <trkpt lat="44.145" lon="6.95291">
        <ele>2572</ele>
        <time>2017-06-07T11:26:44Z</time>
      </trkpt>
      <trkpt lat="44.14504" lon="6.95291">
        <ele>2572</ele>
        <time>2017-06-07T11:26:44Z</time>
      </trkpt>
      <trkpt lat="44.14513" lon="6.95296">
        <ele>2576</ele>
        <time>2017-06-07T11:31:16Z</time>
      </trkpt>
      <trkpt lat="44.14514" lon="6.95297">
        <ele>2576</ele>
        <time>2017-06-07T11:31:16Z</time>
      </trkpt>
      <trkpt lat="44.14514" lon="6.95297">
        <ele>2576</ele>
        <time>2017-06-07T11:31:16Z</time>
      </trkpt>
      <trkpt lat="44.14514" lon="6.95297">
        <ele>2577</ele>
        <time>2017-06-07T11:31:16Z</time>
      </trkpt>
      <trkpt lat="44.14514" lon="6.95296">
        <ele>2577</ele>
        <time>2017-06-07T11:31:16Z</time>
      </trkpt>
      <trkpt lat="44.14513" lon="6.95297">
        <ele>2576</ele>
        <time>2017-06-07T11:38:25Z</time>
      </trkpt>
      <trkpt lat="44.14516" lon="6.95297">
        <ele>2577</ele>
        <time>2017-06-07T11:38:25Z</time>
      </trkpt>
      <trkpt lat="44.14519" lon="6.95297">
        <ele>2577</ele>
        <time>2017-06-07T11:38:25Z</time>
      </trkpt>
      <trkpt lat="44.14521" lon="6.95297">
        <ele>2577</ele>
        <time>2017-06-07T11:38:25Z</time>
      </trkpt>
      <trkpt lat="44.14525" lon="6.95296">
        <ele>2577</ele>
        <time>2017-06-07T11:38:25Z</time>
      </trkpt>
      <trkpt lat="44.14527" lon="6.95295">
        <ele>2577</ele>
        <time>2017-06-07T11:38:40Z</time>
      </trkpt>
      <trkpt lat="44.14531" lon="6.95297">
        <ele>2577</ele>
        <time>2017-06-07T11:38:40Z</time>
      </trkpt>
      <trkpt lat="44.14533" lon="6.95298">
        <ele>2577</ele>
        <time>2017-06-07T11:38:41Z</time>
      </trkpt>
      <trkpt lat="44.14538" lon="6.95298">
        <ele>2577</ele>
        <time>2017-06-07T11:38:41Z</time>
      </trkpt>
      <trkpt lat="44.14541" lon="6.95301">
        <ele>2577</ele>
        <time>2017-06-07T11:38:56Z</time>
      </trkpt>
      <trkpt lat="44.14545" lon="6.95301">
        <ele>2576</ele>
        <time>2017-06-07T11:38:57Z</time>
      </trkpt>
      <trkpt lat="44.14549" lon="6.953">
        <ele>2576</ele>
        <time>2017-06-07T11:38:57Z</time>
      </trkpt>
      <trkpt lat="44.14553" lon="6.95302">
        <ele>2576</ele>
        <time>2017-06-07T11:38:57Z</time>
      </trkpt>
      <trkpt lat="44.14556" lon="6.95305">
        <ele>2576</ele>
        <time>2017-06-07T11:39:12Z</time>
      </trkpt>
      <trkpt lat="44.14559" lon="6.95304">
        <ele>2576</ele>
        <time>2017-06-07T11:39:12Z</time>
      </trkpt>
      <trkpt lat="44.14564" lon="6.95306">
        <ele>2576</ele>
        <time>2017-06-07T11:39:13Z</time>
      </trkpt>
      <trkpt lat="44.14567" lon="6.95307">
        <ele>2576</ele>
        <time>2017-06-07T11:39:13Z</time>
      </trkpt>
      <trkpt lat="44.14573" lon="6.95312">
        <ele>2578</ele>
        <time>2017-06-07T11:39:37Z</time>
      </trkpt>
      <trkpt lat="44.14576" lon="6.95314">
        <ele>2578</ele>
        <time>2017-06-07T11:39:37Z</time>
      </trkpt>
      <trkpt lat="44.14577" lon="6.95313">
        <ele>2578</ele>
        <time>2017-06-07T11:39:37Z</time>
      </trkpt>
      <trkpt lat="44.14578" lon="6.95312">
        <ele>2578</ele>
        <time>2017-06-07T11:39:37Z</time>
      </trkpt>
      <trkpt lat="44.1458" lon="6.95313">
        <ele>2578</ele>
        <time>2017-06-07T11:39:37Z</time>
      </trkpt>
      <trkpt lat="44.14584" lon="6.95319">
        <ele>2578</ele>
        <time>2017-06-07T11:40:25Z</time>
      </trkpt>
      <trkpt lat="44.14584" lon="6.95319">
        <ele>2578</ele>
        <time>2017-06-07T11:40:25Z</time>
      </trkpt>
      <trkpt lat="44.14584" lon="6.95319">
        <ele>2578</ele>
        <time>2017-06-07T11:40:25Z</time>
      </trkpt>
      <trkpt lat="44.14587" lon="6.9532">
        <ele>2577</ele>
        <time>2017-06-07T11:40:25Z</time>
      </trkpt>
      <trkpt lat="44.14592" lon="6.95319">
        <ele>2578</ele>
        <time>2017-06-07T11:40:25Z</time>
      </trkpt>
      <trkpt lat="44.14606" lon="6.95322">
        <ele>2584</ele>
        <time>2017-06-07T11:41:00Z</time>
      </trkpt>
      <trkpt lat="44.14608" lon="6.95323">
        <ele>2584</ele>
        <time>2017-06-07T11:41:00Z</time>
      </trkpt>
      <trkpt lat="44.1461" lon="6.95323">
        <ele>2584</ele>
        <time>2017-06-07T11:41:00Z</time>
      </trkpt>
      <trkpt lat="44.14614" lon="6.95324">
        <ele>2584</ele>
        <time>2017-06-07T11:41:00Z</time>
      </trkpt>
      <trkpt lat="44.14615" lon="6.95325">
        <ele>2584</ele>
        <time>2017-06-07T11:41:00Z</time>
      </trkpt>
      <trkpt lat="44.14619" lon="6.95329">
        <ele>2584</ele>
        <time>2017-06-07T11:41:17Z</time>
      </trkpt>
      <trkpt lat="44.14621" lon="6.9533">
        <ele>2584</ele>
        <time>2017-06-07T11:41:17Z</time>
      </trkpt>
      <trkpt lat="44.14624" lon="6.95331">
        <ele>2584</ele>
        <time>2017-06-07T11:41:17Z</time>
      </trkpt>
      <trkpt lat="44.14628" lon="6.95332">
        <ele>2586</ele>
        <time>2017-06-07T11:41:17Z</time>
      </trkpt>
      <trkpt lat="44.14631" lon="6.95333">
        <ele>2586</ele>
        <time>2017-06-07T11:41:33Z</time>
      </trkpt>
      <trkpt lat="44.14633" lon="6.95334">
        <ele>2586</ele>
        <time>2017-06-07T11:41:33Z</time>
      </trkpt>
      <trkpt lat="44.14637" lon="6.95334">
        <ele>2586</ele>
        <time>2017-06-07T11:41:33Z</time>
      </trkpt>
      <trkpt lat="44.14641" lon="6.95334">
        <ele>2586</ele>
        <time>2017-06-07T11:41:33Z</time>
      </trkpt>
      <trkpt lat="44.14642" lon="6.95334">
        <ele>2586</ele>
        <time>2017-06-07T11:41:49Z</time>
      </trkpt>
      <trkpt lat="44.14647" lon="6.95335">
        <ele>2586</ele>
        <time>2017-06-07T11:41:49Z</time>
      </trkpt>
      <trkpt lat="44.1465" lon="6.95337">
        <ele>2586</ele>
        <time>2017-06-07T11:41:49Z</time>
      </trkpt>
      <trkpt lat="44.14653" lon="6.95337">
        <ele>2590</ele>
        <time>2017-06-07T11:41:49Z</time>
      </trkpt>
      <trkpt lat="44.14655" lon="6.95339">
        <ele>2590</ele>
        <time>2017-06-07T11:42:08Z</time>
      </trkpt>
      <trkpt lat="44.14658" lon="6.95341">
        <ele>2590</ele>
        <time>2017-06-07T11:42:09Z</time>
      </trkpt>
      <trkpt lat="44.14662" lon="6.95344">
        <ele>2590</ele>
        <time>2017-06-07T11:42:09Z</time>
      </trkpt>
      <trkpt lat="44.14663" lon="6.95342">
        <ele>2590</ele>
        <time>2017-06-07T11:42:09Z</time>
      </trkpt>
      <trkpt lat="44.14666" lon="6.95339">
        <ele>2590</ele>
        <time>2017-06-07T11:42:09Z</time>
      </trkpt>
      <trkpt lat="44.1467" lon="6.9534">
        <ele>2590</ele>
        <time>2017-06-07T11:42:29Z</time>
      </trkpt>
      <trkpt lat="44.14674" lon="6.9534">
        <ele>2590</ele>
        <time>2017-06-07T11:42:29Z</time>
      </trkpt>
      <trkpt lat="44.14677" lon="6.95341">
        <ele>2590</ele>
        <time>2017-06-07T11:42:29Z</time>
      </trkpt>
      <trkpt lat="44.14678" lon="6.95342">
        <ele>2590</ele>
        <time>2017-06-07T11:42:29Z</time>
      </trkpt>
      <trkpt lat="44.14682" lon="6.95342">
        <ele>2594</ele>
        <time>2017-06-07T11:42:29Z</time>
      </trkpt>
      <trkpt lat="44.14689" lon="6.95344">
        <ele>2594</ele>
        <time>2017-06-07T11:43:08Z</time>
      </trkpt>
      <trkpt lat="44.14688" lon="6.95348">
        <ele>2595</ele>
        <time>2017-06-07T11:43:08Z</time>
      </trkpt>
      <trkpt lat="44.14688" lon="6.95351">
        <ele>2595</ele>
        <time>2017-06-07T11:43:09Z</time>
      </trkpt>
      <trkpt lat="44.14685" lon="6.95356">
        <ele>2595</ele>
        <time>2017-06-07T11:43:09Z</time>
      </trkpt>
      <trkpt lat="44.14685" lon="6.95357">
        <ele>2595</ele>
        <time>2017-06-07T11:43:09Z</time>
      </trkpt>
      <trkpt lat="44.1469" lon="6.95357">
        <ele>2595</ele>
        <time>2017-06-07T11:43:45Z</time>
      </trkpt>
      <trkpt lat="44.14692" lon="6.95353">
        <ele>2595</ele>
        <time>2017-06-07T11:43:45Z</time>
      </trkpt>
      <trkpt lat="44.14694" lon="6.95353">
        <ele>2595</ele>
        <time>2017-06-07T11:43:45Z</time>
      </trkpt>
      <trkpt lat="44.14697" lon="6.95353">
        <ele>2595</ele>
        <time>2017-06-07T11:43:45Z</time>
      </trkpt>
      <trkpt lat="44.14697" lon="6.95355">
        <ele>2595</ele>
        <time>2017-06-07T11:43:45Z</time>
      </trkpt>
      <trkpt lat="44.14698" lon="6.95355">
        <ele>2595</ele>
        <time>2017-06-07T11:44:00Z</time>
      </trkpt>
      <trkpt lat="44.14703" lon="6.95354">
        <ele>2595</ele>
        <time>2017-06-07T11:44:00Z</time>
      </trkpt>
      <trkpt lat="44.14706" lon="6.95353">
        <ele>2595</ele>
        <time>2017-06-07T11:44:00Z</time>
      </trkpt>
      <trkpt lat="44.14708" lon="6.95352">
        <ele>2595</ele>
        <time>2017-06-07T11:44:00Z</time>
      </trkpt>
      <trkpt lat="44.14709" lon="6.95352">
        <ele>2600</ele>
        <time>2017-06-07T11:44:17Z</time>
      </trkpt>
      <trkpt lat="44.14711" lon="6.95353">
        <ele>2600</ele>
        <time>2017-06-07T11:44:17Z</time>
      </trkpt>
      <trkpt lat="44.14713" lon="6.95352">
        <ele>2600</ele>
        <time>2017-06-07T11:44:17Z</time>
      </trkpt>
      <trkpt lat="44.14718" lon="6.9535">
        <ele>2600</ele>
        <time>2017-06-07T11:44:17Z</time>
      </trkpt>
      <trkpt lat="44.14726" lon="6.95353">
        <ele>2600</ele>
        <time>2017-06-07T11:44:49Z</time>
      </trkpt>
      <trkpt lat="44.14726" lon="6.95356">
        <ele>2600</ele>
        <time>2017-06-07T11:44:49Z</time>
      </trkpt>
      <trkpt lat="44.14724" lon="6.95359">
        <ele>2600</ele>
        <time>2017-06-07T11:44:49Z</time>
      </trkpt>
      <trkpt lat="44.14724" lon="6.95362">
        <ele>2600</ele>
        <time>2017-06-07T11:44:49Z</time>
      </trkpt>
      <trkpt lat="44.14723" lon="6.95365">
        <ele>2600</ele>
        <time>2017-06-07T11:44:49Z</time>
      </trkpt>
      <trkpt lat="44.14723" lon="6.95367">
        <ele>2600</ele>
        <time>2017-06-07T11:45:28Z</time>
      </trkpt>
      <trkpt lat="44.14726" lon="6.95367">
        <ele>2600</ele>
        <time>2017-06-07T11:45:28Z</time>
      </trkpt>
      <trkpt lat="44.14728" lon="6.95365">
        <ele>2600</ele>
        <time>2017-06-07T11:45:28Z</time>
      </trkpt>
      <trkpt lat="44.1473" lon="6.95364">
        <ele>2600</ele>
        <time>2017-06-07T11:45:28Z</time>
      </trkpt>
      <trkpt lat="44.14734" lon="6.95367">
        <ele>2600</ele>
        <time>2017-06-07T11:45:28Z</time>
      </trkpt>
      <trkpt lat="44.14736" lon="6.95367">
        <ele>2600</ele>
        <time>2017-06-07T11:45:45Z</time>
      </trkpt>
      <trkpt lat="44.14739" lon="6.95367">
        <ele>2612</ele>
        <time>2017-06-07T11:45:45Z</time>
      </trkpt>
      <trkpt lat="44.14742" lon="6.95367">
        <ele>2612</ele>
        <time>2017-06-07T11:45:45Z</time>
      </trkpt>
      <trkpt lat="44.14745" lon="6.95371">
        <ele>2612</ele>
        <time>2017-06-07T11:45:45Z</time>
      </trkpt>
      <trkpt lat="44.14745" lon="6.9538">
        <ele>2619</ele>
        <time>2017-06-07T11:46:37Z</time>
      </trkpt>
      <trkpt lat="44.14749" lon="6.95378">
        <ele>2619</ele>
        <time>2017-06-07T11:46:37Z</time>
      </trkpt>
      <trkpt lat="44.14751" lon="6.95379">
        <ele>2619</ele>
        <time>2017-06-07T11:46:37Z</time>
      </trkpt>
      <trkpt lat="44.14753" lon="6.95378">
        <ele>2619</ele>
        <time>2017-06-07T11:46:38Z</time>
      </trkpt>
      <trkpt lat="44.14756" lon="6.95378">
        <ele>2619</ele>
        <time>2017-06-07T11:46:38Z</time>
      </trkpt>
      <trkpt lat="44.14758" lon="6.95386">
        <ele>2619</ele>
        <time>2017-06-07T11:47:21Z</time>
      </trkpt>
      <trkpt lat="44.14759" lon="6.95386">
        <ele>2619</ele>
        <time>2017-06-07T11:47:21Z</time>
      </trkpt>
      <trkpt lat="44.14761" lon="6.95387">
        <ele>2619</ele>
        <time>2017-06-07T11:47:22Z</time>
      </trkpt>
      <trkpt lat="44.14762" lon="6.95387">
        <ele>2619</ele>
        <time>2017-06-07T11:47:22Z</time>
      </trkpt>
      <trkpt lat="44.14765" lon="6.95387">
        <ele>2624</ele>
        <time>2017-06-07T11:47:22Z</time>
      </trkpt>
      <trkpt lat="44.14768" lon="6.95388">
        <ele>2624</ele>
        <time>2017-06-07T11:48:00Z</time>
      </trkpt>
      <trkpt lat="44.14767" lon="6.95389">
        <ele>2624</ele>
        <time>2017-06-07T11:48:00Z</time>
      </trkpt>
      <trkpt lat="44.14769" lon="6.9539">
        <ele>2624</ele>
        <time>2017-06-07T11:48:00Z</time>
      </trkpt>
      <trkpt lat="44.14771" lon="6.95389">
        <ele>2624</ele>
        <time>2017-06-07T11:48:00Z</time>
      </trkpt>
      <trkpt lat="44.14774" lon="6.9539">
        <ele>2624</ele>
        <time>2017-06-07T11:48:00Z</time>
      </trkpt>
      <trkpt lat="44.14776" lon="6.95395">
        <ele>2624</ele>
        <time>2017-06-07T11:48:23Z</time>
      </trkpt>
      <trkpt lat="44.14776" lon="6.95398">
        <ele>2624</ele>
        <time>2017-06-07T11:48:23Z</time>
      </trkpt>
      <trkpt lat="44.14779" lon="6.95399">
        <ele>2624</ele>
        <time>2017-06-07T11:48:23Z</time>
      </trkpt>
      <trkpt lat="44.1478" lon="6.95401">
        <ele>2624</ele>
        <time>2017-06-07T11:48:23Z</time>
      </trkpt>
      <trkpt lat="44.14782" lon="6.95403">
        <ele>2630</ele>
        <time>2017-06-07T11:48:24Z</time>
      </trkpt>
      <trkpt lat="44.14784" lon="6.95407">
        <ele>2630</ele>
        <time>2017-06-07T11:48:39Z</time>
      </trkpt>
      <trkpt lat="44.14786" lon="6.95411">
        <ele>2630</ele>
        <time>2017-06-07T11:48:39Z</time>
      </trkpt>
      <trkpt lat="44.14788" lon="6.95416">
        <ele>2630</ele>
        <time>2017-06-07T11:48:39Z</time>
      </trkpt>
      <trkpt lat="44.1479" lon="6.95419">
        <ele>2630</ele>
        <time>2017-06-07T11:48:39Z</time>
      </trkpt>
      <trkpt lat="44.14793" lon="6.95425">
        <ele>2633</ele>
        <time>2017-06-07T11:48:55Z</time>
      </trkpt>
      <trkpt lat="44.14797" lon="6.95428">
        <ele>2633</ele>
        <time>2017-06-07T11:48:55Z</time>
      </trkpt>
      <trkpt lat="44.148" lon="6.95431">
        <ele>2637</ele>
        <time>2017-06-07T11:48:55Z</time>
      </trkpt>
      <trkpt lat="44.14804" lon="6.95435">
        <ele>2637</ele>
        <time>2017-06-07T11:48:55Z</time>
      </trkpt>
      <trkpt lat="44.14807" lon="6.9544">
        <ele>2637</ele>
        <time>2017-06-07T11:49:12Z</time>
      </trkpt>
      <trkpt lat="44.14807" lon="6.95447">
        <ele>2637</ele>
        <time>2017-06-07T11:49:12Z</time>
      </trkpt>
      <trkpt lat="44.1481" lon="6.95453">
        <ele>2637</ele>
        <time>2017-06-07T11:49:13Z</time>
      </trkpt>
      <trkpt lat="44.14811" lon="6.95461">
        <ele>2637</ele>
        <time>2017-06-07T11:49:13Z</time>
      </trkpt>
      <trkpt lat="44.14812" lon="6.95465">
        <ele>2637</ele>
        <time>2017-06-07T11:49:29Z</time>
      </trkpt>
      <trkpt lat="44.14812" lon="6.95469">
        <ele>2637</ele>
        <time>2017-06-07T11:49:29Z</time>
      </trkpt>
      <trkpt lat="44.14813" lon="6.95473">
        <ele>2637</ele>
        <time>2017-06-07T11:49:29Z</time>
      </trkpt>
      <trkpt lat="44.14814" lon="6.95479">
        <ele>2637</ele>
        <time>2017-06-07T11:49:29Z</time>
      </trkpt>
      <trkpt lat="44.14817" lon="6.95485">
        <ele>2637</ele>
        <time>2017-06-07T11:49:45Z</time>
      </trkpt>
      <trkpt lat="44.14817" lon="6.95489">
        <ele>2636</ele>
        <time>2017-06-07T11:49:45Z</time>
      </trkpt>
      <trkpt lat="44.14818" lon="6.95495">
        <ele>2636</ele>
        <time>2017-06-07T11:49:45Z</time>
      </trkpt>
      <trkpt lat="44.14818" lon="6.95499">
        <ele>2636</ele>
        <time>2017-06-07T11:49:46Z</time>
      </trkpt>
      <trkpt lat="44.14818" lon="6.95501">
        <ele>2636</ele>
        <time>2017-06-07T11:50:01Z</time>
      </trkpt>
      <trkpt lat="44.14821" lon="6.9551">
        <ele>2646</ele>
        <time>2017-06-07T11:50:01Z</time>
      </trkpt>
      <trkpt lat="44.14821" lon="6.95513">
        <ele>2646</ele>
        <time>2017-06-07T11:50:01Z</time>
      </trkpt>
      <trkpt lat="44.14823" lon="6.9552">
        <ele>2643</ele>
        <time>2017-06-07T11:50:01Z</time>
      </trkpt>
      <trkpt lat="44.14825" lon="6.95525">
        <ele>2643</ele>
        <time>2017-06-07T11:50:15Z</time>
      </trkpt>
      <trkpt lat="44.14827" lon="6.9553">
        <ele>2643</ele>
        <time>2017-06-07T11:50:15Z</time>
      </trkpt>
      <trkpt lat="44.14829" lon="6.95536">
        <ele>2643</ele>
        <time>2017-06-07T11:50:15Z</time>
      </trkpt>
      <trkpt lat="44.14832" lon="6.95541">
        <ele>2643</ele>
        <time>2017-06-07T11:50:15Z</time>
      </trkpt>
      <trkpt lat="44.14834" lon="6.95546">
        <ele>2639</ele>
        <time>2017-06-07T11:50:31Z</time>
      </trkpt>
      <trkpt lat="44.14838" lon="6.95549">
        <ele>2639</ele>
        <time>2017-06-07T11:50:31Z</time>
      </trkpt>
      <trkpt lat="44.14841" lon="6.95554">
        <ele>2639</ele>
        <time>2017-06-07T11:50:31Z</time>
      </trkpt>
      <trkpt lat="44.14844" lon="6.95559">
        <ele>2639</ele>
        <time>2017-06-07T11:50:31Z</time>
      </trkpt>
      <trkpt lat="44.14847" lon="6.95564">
        <ele>2639</ele>
        <time>2017-06-07T11:50:47Z</time>
      </trkpt>
      <trkpt lat="44.1485" lon="6.95568">
        <ele>2643</ele>
        <time>2017-06-07T11:50:47Z</time>
      </trkpt>
      <trkpt lat="44.14852" lon="6.95571">
        <ele>2640</ele>
        <time>2017-06-07T11:50:47Z</time>
      </trkpt>
      <trkpt lat="44.14856" lon="6.95576">
        <ele>2640</ele>
        <time>2017-06-07T11:50:47Z</time>
      </trkpt>
      <trkpt lat="44.1486" lon="6.95581">
        <ele>2640</ele>
        <time>2017-06-07T11:51:03Z</time>
      </trkpt>
      <trkpt lat="44.14862" lon="6.95586">
        <ele>2640</ele>
        <time>2017-06-07T11:51:03Z</time>
      </trkpt>
      <trkpt lat="44.14864" lon="6.95591">
        <ele>2640</ele>
        <time>2017-06-07T11:51:03Z</time>
      </trkpt>
      <trkpt lat="44.14866" lon="6.95594">
        <ele>2640</ele>
        <time>2017-06-07T11:51:03Z</time>
      </trkpt>
      <trkpt lat="44.1487" lon="6.95601">
        <ele>2638</ele>
        <time>2017-06-07T11:51:20Z</time>
      </trkpt>
      <trkpt lat="44.14871" lon="6.95605">
        <ele>2638</ele>
        <time>2017-06-07T11:51:20Z</time>
      </trkpt>
      <trkpt lat="44.14874" lon="6.95614">
        <ele>2638</ele>
        <time>2017-06-07T11:51:20Z</time>
      </trkpt>
      <trkpt lat="44.14877" lon="6.95622">
        <ele>2643</ele>
        <time>2017-06-07T11:51:21Z</time>
      </trkpt>
      <trkpt lat="44.14878" lon="6.95627">
        <ele>2644</ele>
        <time>2017-06-07T11:51:37Z</time>
      </trkpt>
      <trkpt lat="44.14878" lon="6.95636">
        <ele>2644</ele>
        <time>2017-06-07T11:51:37Z</time>
      </trkpt>
      <trkpt lat="44.14879" lon="6.95638">
        <ele>2644</ele>
        <time>2017-06-07T11:51:37Z</time>
      </trkpt>
      <trkpt lat="44.14882" lon="6.95644">
        <ele>2644</ele>
        <time>2017-06-07T11:51:38Z</time>
      </trkpt>
      <trkpt lat="44.14882" lon="6.95649">
        <ele>2644</ele>
        <time>2017-06-07T11:51:53Z</time>
      </trkpt>
      <trkpt lat="44.14882" lon="6.95657">
        <ele>2648</ele>
        <time>2017-06-07T11:51:53Z</time>
      </trkpt>
      <trkpt lat="44.14881" lon="6.95661">
        <ele>2648</ele>
        <time>2017-06-07T11:51:53Z</time>
      </trkpt>
      <trkpt lat="44.1488" lon="6.95667">
        <ele>2648</ele>
        <time>2017-06-07T11:51:53Z</time>
      </trkpt>
      <trkpt lat="44.14877" lon="6.95676">
        <ele>2648</ele>
        <time>2017-06-07T11:52:15Z</time>
      </trkpt>
      <trkpt lat="44.14876" lon="6.95679">
        <ele>2648</ele>
        <time>2017-06-07T11:52:15Z</time>
      </trkpt>
      <trkpt lat="44.14875" lon="6.95681">
        <ele>2652</ele>
        <time>2017-06-07T11:52:15Z</time>
      </trkpt>
      <trkpt lat="44.14875" lon="6.95682">
        <ele>2650</ele>
        <time>2017-06-07T11:52:15Z</time>
      </trkpt>
      <trkpt lat="44.14873" lon="6.95685">
        <ele>2650</ele>
        <time>2017-06-07T11:52:15Z</time>
      </trkpt>
      <trkpt lat="44.14873" lon="6.95689">
        <ele>2650</ele>
        <time>2017-06-07T11:53:00Z</time>
      </trkpt>
      <trkpt lat="44.14874" lon="6.9569">
        <ele>2650</ele>
        <time>2017-06-07T11:53:00Z</time>
      </trkpt>
      <trkpt lat="44.14875" lon="6.95692">
        <ele>2650</ele>
        <time>2017-06-07T11:53:00Z</time>
      </trkpt>
      <trkpt lat="44.14877" lon="6.95692">
        <ele>2652</ele>
        <time>2017-06-07T11:53:00Z</time>
      </trkpt>
      <trkpt lat="44.1488" lon="6.95695">
        <ele>2652</ele>
        <time>2017-06-07T11:53:00Z</time>
      </trkpt>
      <trkpt lat="44.14883" lon="6.95698">
        <ele>2652</ele>
        <time>2017-06-07T11:53:25Z</time>
      </trkpt>
      <trkpt lat="44.14885" lon="6.95701">
        <ele>2652</ele>
        <time>2017-06-07T11:53:25Z</time>
      </trkpt>
      <trkpt lat="44.14886" lon="6.95705">
        <ele>2652</ele>
        <time>2017-06-07T11:53:25Z</time>
      </trkpt>
      <trkpt lat="44.14885" lon="6.95707">
        <ele>2652</ele>
        <time>2017-06-07T11:53:25Z</time>
      </trkpt>
      <trkpt lat="44.14886" lon="6.9571">
        <ele>2658</ele>
        <time>2017-06-07T11:53:25Z</time>
      </trkpt>
      <trkpt lat="44.14887" lon="6.95709">
        <ele>2658</ele>
        <time>2017-06-07T11:53:41Z</time>
      </trkpt>
      <trkpt lat="44.1489" lon="6.95715">
        <ele>2658</ele>
        <time>2017-06-07T11:53:41Z</time>
      </trkpt>
      <trkpt lat="44.14892" lon="6.95715">
        <ele>2658</ele>
        <time>2017-06-07T11:53:42Z</time>
      </trkpt>
      <trkpt lat="44.14896" lon="6.95719">
        <ele>2658</ele>
        <time>2017-06-07T11:53:42Z</time>
      </trkpt>
      <trkpt lat="44.14895" lon="6.9572">
        <ele>2658</ele>
        <time>2017-06-07T11:53:57Z</time>
      </trkpt>
      <trkpt lat="44.149" lon="6.95726">
        <ele>2658</ele>
        <time>2017-06-07T11:53:57Z</time>
      </trkpt>
      <trkpt lat="44.14901" lon="6.95728">
        <ele>2658</ele>
        <time>2017-06-07T11:53:57Z</time>
      </trkpt>
      <trkpt lat="44.14902" lon="6.95731">
        <ele>2658</ele>
        <time>2017-06-07T11:53:57Z</time>
      </trkpt>
      <trkpt lat="44.14905" lon="6.95733">
        <ele>2656</ele>
        <time>2017-06-07T11:54:17Z</time>
      </trkpt>
      <trkpt lat="44.14907" lon="6.95733">
        <ele>2656</ele>
        <time>2017-06-07T11:54:17Z</time>
      </trkpt>
      <trkpt lat="44.14907" lon="6.95737">
        <ele>2664</ele>
        <time>2017-06-07T11:54:17Z</time>
      </trkpt>
      <trkpt lat="44.14908" lon="6.95742">
        <ele>2664</ele>
        <time>2017-06-07T11:54:18Z</time>
      </trkpt>
      <trkpt lat="44.14908" lon="6.95745">
        <ele>2664</ele>
        <time>2017-06-07T11:54:18Z</time>
      </trkpt>
      <trkpt lat="44.14909" lon="6.95746">
        <ele>2664</ele>
        <time>2017-06-07T11:54:33Z</time>
      </trkpt>
      <trkpt lat="44.14913" lon="6.95747">
        <ele>2664</ele>
        <time>2017-06-07T11:54:33Z</time>
      </trkpt>
      <trkpt lat="44.14915" lon="6.95748">
        <ele>2664</ele>
        <time>2017-06-07T11:54:33Z</time>
      </trkpt>
      <trkpt lat="44.14918" lon="6.95751">
        <ele>2664</ele>
        <time>2017-06-07T11:54:33Z</time>
      </trkpt>
      <trkpt lat="44.14919" lon="6.95754">
        <ele>2664</ele>
        <time>2017-06-07T11:54:53Z</time>
      </trkpt>
      <trkpt lat="44.1492" lon="6.95758">
        <ele>2664</ele>
        <time>2017-06-07T11:54:53Z</time>
      </trkpt>
      <trkpt lat="44.14922" lon="6.95761">
        <ele>2664</ele>
        <time>2017-06-07T11:54:54Z</time>
      </trkpt>
      <trkpt lat="44.14925" lon="6.95763">
        <ele>2664</ele>
        <time>2017-06-07T11:54:54Z</time>
      </trkpt>
      <trkpt lat="44.14927" lon="6.95766">
        <ele>2672</ele>
        <time>2017-06-07T11:54:54Z</time>
      </trkpt>
      <trkpt lat="44.14932" lon="6.95773">
        <ele>2671</ele>
        <time>2017-06-07T11:55:21Z</time>
      </trkpt>
      <trkpt lat="44.14937" lon="6.95775">
        <ele>2671</ele>
        <time>2017-06-07T11:55:21Z</time>
      </trkpt>
      <trkpt lat="44.1494" lon="6.95779">
        <ele>2671</ele>
        <time>2017-06-07T11:55:21Z</time>
      </trkpt>
      <trkpt lat="44.1494" lon="6.95782">
        <ele>2671</ele>
        <time>2017-06-07T11:55:21Z</time>
      </trkpt>
      <trkpt lat="44.14943" lon="6.95786">
        <ele>2671</ele>
        <time>2017-06-07T11:55:22Z</time>
      </trkpt>
      <trkpt lat="44.14944" lon="6.95789">
        <ele>2671</ele>
        <time>2017-06-07T11:55:37Z</time>
      </trkpt>
      <trkpt lat="44.14948" lon="6.9579">
        <ele>2671</ele>
        <time>2017-06-07T11:55:37Z</time>
      </trkpt>
      <trkpt lat="44.14954" lon="6.95791">
        <ele>2671</ele>
        <time>2017-06-07T11:55:37Z</time>
      </trkpt>
      <trkpt lat="44.14954" lon="6.95791">
        <ele>2671</ele>
        <time>2017-06-07T11:55:37Z</time>
      </trkpt>
      <trkpt lat="44.14956" lon="6.95803">
        <ele>2677</ele>
        <time>2017-06-07T11:56:19Z</time>
      </trkpt>
      <trkpt lat="44.14954" lon="6.95805">
        <ele>2677</ele>
        <time>2017-06-07T11:56:19Z</time>
      </trkpt>
      <trkpt lat="44.14952" lon="6.95806">
        <ele>2677</ele>
        <time>2017-06-07T11:56:19Z</time>
      </trkpt>
      <trkpt lat="44.14951" lon="6.95809">
        <ele>2677</ele>
        <time>2017-06-07T11:56:19Z</time>
      </trkpt>
      <trkpt lat="44.14951" lon="6.95811">
        <ele>2677</ele>
        <time>2017-06-07T11:56:19Z</time>
      </trkpt>
      <trkpt lat="44.14946" lon="6.9581">
        <ele>2677</ele>
        <time>2017-06-07T11:56:43Z</time>
      </trkpt>
      <trkpt lat="44.14945" lon="6.95812">
        <ele>2677</ele>
        <time>2017-06-07T11:56:43Z</time>
      </trkpt>
      <trkpt lat="44.14942" lon="6.95811">
        <ele>2677</ele>
        <time>2017-06-07T11:56:43Z</time>
      </trkpt>
      <trkpt lat="44.1494" lon="6.9581">
        <ele>2677</ele>
        <time>2017-06-07T11:56:43Z</time>
      </trkpt>
      <trkpt lat="44.14937" lon="6.9581">
        <ele>2677</ele>
        <time>2017-06-07T11:56:43Z</time>
      </trkpt>
      <trkpt lat="44.14934" lon="6.95811">
        <ele>2677</ele>
        <time>2017-06-07T11:56:59Z</time>
      </trkpt>
      <trkpt lat="44.14931" lon="6.95808">
        <ele>2677</ele>
        <time>2017-06-07T11:56:59Z</time>
      </trkpt>
      <trkpt lat="44.14926" lon="6.9581">
        <ele>2677</ele>
        <time>2017-06-07T11:56:59Z</time>
      </trkpt>
      <trkpt lat="44.14923" lon="6.95809">
        <ele>2677</ele>
        <time>2017-06-07T11:56:59Z</time>
      </trkpt>
      <trkpt lat="44.14916" lon="6.95807">
        <ele>2677</ele>
        <time>2017-06-07T11:57:28Z</time>
      </trkpt>
      <trkpt lat="44.14915" lon="6.95811">
        <ele>2677</ele>
        <time>2017-06-07T11:57:28Z</time>
      </trkpt>
      <trkpt lat="44.14914" lon="6.95811">
        <ele>2677</ele>
        <time>2017-06-07T11:57:28Z</time>
      </trkpt>
      <trkpt lat="44.14912" lon="6.9581">
        <ele>2677</ele>
        <time>2017-06-07T11:57:28Z</time>
      </trkpt>
      <trkpt lat="44.1491" lon="6.95811">
        <ele>2677</ele>
        <time>2017-06-07T11:57:28Z</time>
      </trkpt>
      <trkpt lat="44.14899" lon="6.95834">
        <ele>2676</ele>
        <time>2017-06-07T11:59:16Z</time>
      </trkpt>
      <trkpt lat="44.149" lon="6.95835">
        <ele>2676</ele>
        <time>2017-06-07T11:59:16Z</time>
      </trkpt>
      <trkpt lat="44.149" lon="6.95838">
        <ele>2676</ele>
        <time>2017-06-07T11:59:17Z</time>
      </trkpt>
      <trkpt lat="44.14901" lon="6.95841">
        <ele>2676</ele>
        <time>2017-06-07T11:59:17Z</time>
      </trkpt>
      <trkpt lat="44.14903" lon="6.95844">
        <ele>2676</ele>
        <time>2017-06-07T11:59:17Z</time>
      </trkpt>
      <trkpt lat="44.14908" lon="6.95848">
        <ele>2683</ele>
        <time>2017-06-07T11:59:49Z</time>
      </trkpt>
      <trkpt lat="44.14909" lon="6.95849">
        <ele>2683</ele>
        <time>2017-06-07T11:59:49Z</time>
      </trkpt>
      <trkpt lat="44.1491" lon="6.95849">
        <ele>2683</ele>
        <time>2017-06-07T11:59:50Z</time>
      </trkpt>
      <trkpt lat="44.14912" lon="6.95852">
        <ele>2683</ele>
        <time>2017-06-07T11:59:50Z</time>
      </trkpt>
      <trkpt lat="44.14915" lon="6.95854">
        <ele>2683</ele>
        <time>2017-06-07T11:59:50Z</time>
      </trkpt>
      <trkpt lat="44.14916" lon="6.95856">
        <ele>2683</ele>
        <time>2017-06-07T12:00:05Z</time>
      </trkpt>
      <trkpt lat="44.14919" lon="6.95861">
        <ele>2683</ele>
        <time>2017-06-07T12:00:05Z</time>
      </trkpt>
      <trkpt lat="44.1492" lon="6.95863">
        <ele>2683</ele>
        <time>2017-06-07T12:00:05Z</time>
      </trkpt>
      <trkpt lat="44.1492" lon="6.95869">
        <ele>2683</ele>
        <time>2017-06-07T12:00:05Z</time>
      </trkpt>
      <trkpt lat="44.1492" lon="6.95871">
        <ele>2683</ele>
        <time>2017-06-07T12:00:19Z</time>
      </trkpt>
      <trkpt lat="44.14924" lon="6.95875">
        <ele>2686</ele>
        <time>2017-06-07T12:00:19Z</time>
      </trkpt>
      <trkpt lat="44.14925" lon="6.95879">
        <ele>2686</ele>
        <time>2017-06-07T12:00:19Z</time>
      </trkpt>
      <trkpt lat="44.14926" lon="6.95882">
        <ele>2686</ele>
        <time>2017-06-07T12:00:19Z</time>
      </trkpt>
      <trkpt lat="44.14931" lon="6.95885">
        <ele>2694</ele>
        <time>2017-06-07T12:00:44Z</time>
      </trkpt>
      <trkpt lat="44.14933" lon="6.95888">
        <ele>2694</ele>
        <time>2017-06-07T12:00:44Z</time>
      </trkpt>
      <trkpt lat="44.14934" lon="6.9589">
        <ele>2694</ele>
        <time>2017-06-07T12:00:44Z</time>
      </trkpt>
      <trkpt lat="44.14936" lon="6.95892">
        <ele>2694</ele>
        <time>2017-06-07T12:00:45Z</time>
      </trkpt>
      <trkpt lat="44.14936" lon="6.95897">
        <ele>2694</ele>
        <time>2017-06-07T12:00:45Z</time>
      </trkpt>
      <trkpt lat="44.1494" lon="6.95901">
        <ele>2694</ele>
        <time>2017-06-07T12:01:09Z</time>
      </trkpt>
      <trkpt lat="44.14941" lon="6.95905">
        <ele>2699</ele>
        <time>2017-06-07T12:01:09Z</time>
      </trkpt>
      <trkpt lat="44.14942" lon="6.95905">
        <ele>2699</ele>
        <time>2017-06-07T12:01:10Z</time>
      </trkpt>
      <trkpt lat="44.14944" lon="6.95906">
        <ele>2699</ele>
        <time>2017-06-07T12:01:10Z</time>
      </trkpt>
      <trkpt lat="44.14947" lon="6.95905">
        <ele>2699</ele>
        <time>2017-06-07T12:01:11Z</time>
      </trkpt>
      <trkpt lat="44.14947" lon="6.95905">
        <ele>2699</ele>
        <time>2017-06-07T12:01:27Z</time>
      </trkpt>
      <trkpt lat="44.1495" lon="6.95905">
        <ele>2699</ele>
        <time>2017-06-07T12:01:27Z</time>
      </trkpt>
      <trkpt lat="44.14953" lon="6.95909">
        <ele>2699</ele>
        <time>2017-06-07T12:01:27Z</time>
      </trkpt>
      <trkpt lat="44.14954" lon="6.95913">
        <ele>2699</ele>
        <time>2017-06-07T12:01:27Z</time>
      </trkpt>
      <trkpt lat="44.14957" lon="6.95918">
        <ele>2699</ele>
        <time>2017-06-07T12:01:27Z</time>
      </trkpt>
      <trkpt lat="44.14959" lon="6.95921">
        <ele>2703</ele>
        <time>2017-06-07T12:01:43Z</time>
      </trkpt>
      <trkpt lat="44.14961" lon="6.95928">
        <ele>2703</ele>
        <time>2017-06-07T12:01:43Z</time>
      </trkpt>
      <trkpt lat="44.14961" lon="6.95933">
        <ele>2704</ele>
        <time>2017-06-07T12:01:43Z</time>
      </trkpt>
      <trkpt lat="44.14962" lon="6.95935">
        <ele>2704</ele>
        <time>2017-06-07T12:01:43Z</time>
      </trkpt>
      <trkpt lat="44.14961" lon="6.95939">
        <ele>2704</ele>
        <time>2017-06-07T12:02:04Z</time>
      </trkpt>
      <trkpt lat="44.14961" lon="6.95943">
        <ele>2704</ele>
        <time>2017-06-07T12:02:04Z</time>
      </trkpt>
      <trkpt lat="44.14963" lon="6.95945">
        <ele>2704</ele>
        <time>2017-06-07T12:02:04Z</time>
      </trkpt>
      <trkpt lat="44.14965" lon="6.95948">
        <ele>2704</ele>
        <time>2017-06-07T12:02:04Z</time>
      </trkpt>
      <trkpt lat="44.14966" lon="6.95953">
        <ele>2704</ele>
        <time>2017-06-07T12:02:04Z</time>
      </trkpt>
      <trkpt lat="44.14969" lon="6.95961">
        <ele>2703</ele>
        <time>2017-06-07T12:03:03Z</time>
      </trkpt>
      <trkpt lat="44.14971" lon="6.95966">
        <ele>2703</ele>
        <time>2017-06-07T12:03:03Z</time>
      </trkpt>
      <trkpt lat="44.14971" lon="6.95971">
        <ele>2703</ele>
        <time>2017-06-07T12:03:03Z</time>
      </trkpt>
      <trkpt lat="44.14973" lon="6.95976">
        <ele>2703</ele>
        <time>2017-06-07T12:03:03Z</time>
      </trkpt>
      <trkpt lat="44.14973" lon="6.95983">
        <ele>2703</ele>
        <time>2017-06-07T12:03:03Z</time>
      </trkpt>
      <trkpt lat="44.14974" lon="6.95988">
        <ele>2702</ele>
        <time>2017-06-07T12:03:19Z</time>
      </trkpt>
      <trkpt lat="44.14976" lon="6.95993">
        <ele>2702</ele>
        <time>2017-06-07T12:03:19Z</time>
      </trkpt>
      <trkpt lat="44.14977" lon="6.95997">
        <ele>2702</ele>
        <time>2017-06-07T12:03:19Z</time>
      </trkpt>
      <trkpt lat="44.14978" lon="6.96004">
        <ele>2702</ele>
        <time>2017-06-07T12:03:19Z</time>
      </trkpt>
      <trkpt lat="44.14979" lon="6.96008">
        <ele>2702</ele>
        <time>2017-06-07T12:03:37Z</time>
      </trkpt>
      <trkpt lat="44.14979" lon="6.96014">
        <ele>2704</ele>
        <time>2017-06-07T12:03:37Z</time>
      </trkpt>
      <trkpt lat="44.14981" lon="6.9602">
        <ele>2704</ele>
        <time>2017-06-07T12:03:37Z</time>
      </trkpt>
      <trkpt lat="44.14983" lon="6.96025">
        <ele>2704</ele>
        <time>2017-06-07T12:03:37Z</time>
      </trkpt>
      <trkpt lat="44.14985" lon="6.96029">
        <ele>2704</ele>
        <time>2017-06-07T12:03:52Z</time>
      </trkpt>
      <trkpt lat="44.14986" lon="6.96035">
        <ele>2711</ele>
        <time>2017-06-07T12:03:52Z</time>
      </trkpt>
      <trkpt lat="44.14987" lon="6.96043">
        <ele>2710</ele>
        <time>2017-06-07T12:03:52Z</time>
      </trkpt>
      <trkpt lat="44.14987" lon="6.96049">
        <ele>2710</ele>
        <time>2017-06-07T12:03:53Z</time>
      </trkpt>
      <trkpt lat="44.14986" lon="6.96052">
        <ele>2710</ele>
        <time>2017-06-07T12:04:09Z</time>
      </trkpt>
      <trkpt lat="44.14987" lon="6.96059">
        <ele>2710</ele>
        <time>2017-06-07T12:04:09Z</time>
      </trkpt>
      <trkpt lat="44.14988" lon="6.96062">
        <ele>2710</ele>
        <time>2017-06-07T12:04:09Z</time>
      </trkpt>
      <trkpt lat="44.14988" lon="6.96068">
        <ele>2710</ele>
        <time>2017-06-07T12:04:09Z</time>
      </trkpt>
      <trkpt lat="44.14987" lon="6.96073">
        <ele>2711</ele>
        <time>2017-06-07T12:04:24Z</time>
      </trkpt>
      <trkpt lat="44.14985" lon="6.96079">
        <ele>2709</ele>
        <time>2017-06-07T12:04:24Z</time>
      </trkpt>
      <trkpt lat="44.14985" lon="6.96083">
        <ele>2709</ele>
        <time>2017-06-07T12:04:25Z</time>
      </trkpt>
      <trkpt lat="44.14985" lon="6.96089">
        <ele>2709</ele>
        <time>2017-06-07T12:04:25Z</time>
      </trkpt>
      <trkpt lat="44.14984" lon="6.96096">
        <ele>2709</ele>
        <time>2017-06-07T12:04:41Z</time>
      </trkpt>
      <trkpt lat="44.14985" lon="6.961">
        <ele>2713</ele>
        <time>2017-06-07T12:04:41Z</time>
      </trkpt>
      <trkpt lat="44.14985" lon="6.96106">
        <ele>2713</ele>
        <time>2017-06-07T12:04:41Z</time>
      </trkpt>
      <trkpt lat="44.14984" lon="6.96111">
        <ele>2713</ele>
        <time>2017-06-07T12:04:41Z</time>
      </trkpt>
      <trkpt lat="44.14982" lon="6.96114">
        <ele>2713</ele>
        <time>2017-06-07T12:04:57Z</time>
      </trkpt>
      <trkpt lat="44.14979" lon="6.96119">
        <ele>2713</ele>
        <time>2017-06-07T12:04:57Z</time>
      </trkpt>
      <trkpt lat="44.14979" lon="6.96123">
        <ele>2713</ele>
        <time>2017-06-07T12:04:57Z</time>
      </trkpt>
      <trkpt lat="44.14978" lon="6.96127">
        <ele>2715</ele>
        <time>2017-06-07T12:04:57Z</time>
      </trkpt>
      <trkpt lat="44.14977" lon="6.96129">
        <ele>2715</ele>
        <time>2017-06-07T12:05:13Z</time>
      </trkpt>
      <trkpt lat="44.14973" lon="6.96134">
        <ele>2715</ele>
        <time>2017-06-07T12:05:13Z</time>
      </trkpt>
      <trkpt lat="44.14971" lon="6.96137">
        <ele>2715</ele>
        <time>2017-06-07T12:05:13Z</time>
      </trkpt>
      <trkpt lat="44.1497" lon="6.96141">
        <ele>2715</ele>
        <time>2017-06-07T12:05:13Z</time>
      </trkpt>
      <trkpt lat="44.14974" lon="6.96145">
        <ele>2715</ele>
        <time>2017-06-07T12:07:03Z</time>
      </trkpt>
      <trkpt lat="44.14975" lon="6.96146">
        <ele>2715</ele>
        <time>2017-06-07T12:07:03Z</time>
      </trkpt>
      <trkpt lat="44.14977" lon="6.96149">
        <ele>2715</ele>
        <time>2017-06-07T12:07:03Z</time>
      </trkpt>
      <trkpt lat="44.14979" lon="6.96151">
        <ele>2715</ele>
        <time>2017-06-07T12:07:03Z</time>
      </trkpt>
      <trkpt lat="44.14978" lon="6.96152">
        <ele>2715</ele>
        <time>2017-06-07T12:07:03Z</time>
      </trkpt>
      <trkpt lat="44.14979" lon="6.96155">
        <ele>2717</ele>
        <time>2017-06-07T12:07:20Z</time>
      </trkpt>
      <trkpt lat="44.14977" lon="6.9616">
        <ele>2717</ele>
        <time>2017-06-07T12:07:20Z</time>
      </trkpt>
      <trkpt lat="44.14976" lon="6.96164">
        <ele>2717</ele>
        <time>2017-06-07T12:07:21Z</time>
      </trkpt>
      <trkpt lat="44.14974" lon="6.96168">
        <ele>2717</ele>
        <time>2017-06-07T12:07:21Z</time>
      </trkpt>
      <trkpt lat="44.14974" lon="6.96179">
        <ele>2717</ele>
        <time>2017-06-07T12:14:15Z</time>
      </trkpt>
      <trkpt lat="44.14976" lon="6.9618">
        <ele>2717</ele>
        <time>2017-06-07T12:14:15Z</time>
      </trkpt>
      <trkpt lat="44.14979" lon="6.96183">
        <ele>2719</ele>
        <time>2017-06-07T12:14:15Z</time>
      </trkpt>
      <trkpt lat="44.1498" lon="6.96182">
        <ele>2719</ele>
        <time>2017-06-07T12:14:15Z</time>
      </trkpt>
      <trkpt lat="44.14985" lon="6.96181">
        <ele>2719</ele>
        <time>2017-06-07T12:14:16Z</time>
      </trkpt>
      <trkpt lat="44.14987" lon="6.96181">
        <ele>2715</ele>
        <time>2017-06-07T12:14:36Z</time>
      </trkpt>
      <trkpt lat="44.1499" lon="6.96178">
        <ele>2717</ele>
        <time>2017-06-07T12:14:36Z</time>
      </trkpt>
      <trkpt lat="44.14992" lon="6.96177">
        <ele>2717</ele>
        <time>2017-06-07T12:14:37Z</time>
      </trkpt>
      <trkpt lat="44.14994" lon="6.96176">
        <ele>2717</ele>
        <time>2017-06-07T12:14:37Z</time>
      </trkpt>
      <trkpt lat="44.14998" lon="6.96178">
        <ele>2717</ele>
        <time>2017-06-07T12:14:37Z</time>
      </trkpt>
      <trkpt lat="44.15002" lon="6.96177">
        <ele>2717</ele>
        <time>2017-06-07T12:14:56Z</time>
      </trkpt>
      <trkpt lat="44.15006" lon="6.96177">
        <ele>2717</ele>
        <time>2017-06-07T12:14:56Z</time>
      </trkpt>
      <trkpt lat="44.15008" lon="6.96178">
        <ele>2717</ele>
        <time>2017-06-07T12:14:57Z</time>
      </trkpt>
      <trkpt lat="44.1501" lon="6.96181">
        <ele>2715</ele>
        <time>2017-06-07T12:14:57Z</time>
      </trkpt>
      <trkpt lat="44.1501" lon="6.96184">
        <ele>2715</ele>
        <time>2017-06-07T12:14:58Z</time>
      </trkpt>
      <trkpt lat="44.15013" lon="6.96186">
        <ele>2715</ele>
        <time>2017-06-07T12:15:13Z</time>
      </trkpt>
      <trkpt lat="44.15018" lon="6.96192">
        <ele>2713</ele>
        <time>2017-06-07T12:15:13Z</time>
      </trkpt>
      <trkpt lat="44.15019" lon="6.96195">
        <ele>2713</ele>
        <time>2017-06-07T12:15:13Z</time>
      </trkpt>
      <trkpt lat="44.1502" lon="6.96195">
        <ele>2713</ele>
        <time>2017-06-07T12:15:13Z</time>
      </trkpt>
      <trkpt lat="44.1502" lon="6.96195">
        <ele>2713</ele>
        <time>2017-06-07T12:15:29Z</time>
      </trkpt>
      <trkpt lat="44.15021" lon="6.962">
        <ele>2713</ele>
        <time>2017-06-07T12:15:29Z</time>
      </trkpt>
      <trkpt lat="44.15024" lon="6.96204">
        <ele>2713</ele>
        <time>2017-06-07T12:15:30Z</time>
      </trkpt>
      <trkpt lat="44.15027" lon="6.96208">
        <ele>2713</ele>
        <time>2017-06-07T12:15:30Z</time>
      </trkpt>
      <trkpt lat="44.15029" lon="6.96212">
        <ele>2716</ele>
        <time>2017-06-07T12:15:44Z</time>
      </trkpt>
      <trkpt lat="44.15035" lon="6.96217">
        <ele>2716</ele>
        <time>2017-06-07T12:15:45Z</time>
      </trkpt>
      <trkpt lat="44.15036" lon="6.96217">
        <ele>2716</ele>
        <time>2017-06-07T12:15:45Z</time>
      </trkpt>
      <trkpt lat="44.15038" lon="6.96219">
        <ele>2716</ele>
        <time>2017-06-07T12:15:45Z</time>
      </trkpt>
      <trkpt lat="44.15039" lon="6.96222">
        <ele>2716</ele>
        <time>2017-06-07T12:16:01Z</time>
      </trkpt>
      <trkpt lat="44.15042" lon="6.96227">
        <ele>2716</ele>
        <time>2017-06-07T12:16:02Z</time>
      </trkpt>
      <trkpt lat="44.15043" lon="6.96232">
        <ele>2710</ele>
        <time>2017-06-07T12:16:02Z</time>
      </trkpt>
      <trkpt lat="44.15047" lon="6.96237">
        <ele>2717</ele>
        <time>2017-06-07T12:16:02Z</time>
      </trkpt>
      <trkpt lat="44.15049" lon="6.96237">
        <ele>2717</ele>
        <time>2017-06-07T12:16:17Z</time>
      </trkpt>
      <trkpt lat="44.15056" lon="6.9624">
        <ele>2717</ele>
        <time>2017-06-07T12:16:17Z</time>
      </trkpt>
      <trkpt lat="44.15058" lon="6.9624">
        <ele>2717</ele>
        <time>2017-06-07T12:16:17Z</time>
      </trkpt>
      <trkpt lat="44.1506" lon="6.96244">
        <ele>2717</ele>
        <time>2017-06-07T12:16:17Z</time>
      </trkpt>
      <trkpt lat="44.15062" lon="6.96247">
        <ele>2717</ele>
        <time>2017-06-07T12:16:31Z</time>
      </trkpt>
      <trkpt lat="44.15064" lon="6.96251">
        <ele>2717</ele>
        <time>2017-06-07T12:16:31Z</time>
      </trkpt>
      <trkpt lat="44.15067" lon="6.96253">
        <ele>2717</ele>
        <time>2017-06-07T12:16:31Z</time>
      </trkpt>
      <trkpt lat="44.1507" lon="6.96257">
        <ele>2706</ele>
        <time>2017-06-07T12:16:31Z</time>
      </trkpt>
      <trkpt lat="44.1507" lon="6.96257">
        <ele>2706</ele>
        <time>2017-06-07T12:16:47Z</time>
      </trkpt>
      <trkpt lat="44.15072" lon="6.9626">
        <ele>2706</ele>
        <time>2017-06-07T12:16:47Z</time>
      </trkpt>
      <trkpt lat="44.15073" lon="6.96263">
        <ele>2706</ele>
        <time>2017-06-07T12:16:47Z</time>
      </trkpt>
      <trkpt lat="44.15074" lon="6.96268">
        <ele>2706</ele>
        <time>2017-06-07T12:16:47Z</time>
      </trkpt>
      <trkpt lat="44.15076" lon="6.96273">
        <ele>2706</ele>
        <time>2017-06-07T12:17:05Z</time>
      </trkpt>
      <trkpt lat="44.15081" lon="6.96277">
        <ele>2706</ele>
        <time>2017-06-07T12:17:05Z</time>
      </trkpt>
      <trkpt lat="44.15084" lon="6.96278">
        <ele>2706</ele>
        <time>2017-06-07T12:17:05Z</time>
      </trkpt>
      <trkpt lat="44.15089" lon="6.96283">
        <ele>2706</ele>
        <time>2017-06-07T12:17:05Z</time>
      </trkpt>
      <trkpt lat="44.15089" lon="6.96288">
        <ele>2706</ele>
        <time>2017-06-07T12:17:49Z</time>
      </trkpt>
      <trkpt lat="44.15088" lon="6.96289">
        <ele>2706</ele>
        <time>2017-06-07T12:17:49Z</time>
      </trkpt>
      <trkpt lat="44.15091" lon="6.96291">
        <ele>2706</ele>
        <time>2017-06-07T12:17:50Z</time>
      </trkpt>
      <trkpt lat="44.15092" lon="6.96295">
        <ele>2703</ele>
        <time>2017-06-07T12:17:50Z</time>
      </trkpt>
      <trkpt lat="44.15096" lon="6.96301">
        <ele>2703</ele>
        <time>2017-06-07T12:17:50Z</time>
      </trkpt>
      <trkpt lat="44.15097" lon="6.96303">
        <ele>2682</ele>
        <time>2017-06-07T12:18:03Z</time>
      </trkpt>
      <trkpt lat="44.15099" lon="6.96311">
        <ele>2682</ele>
        <time>2017-06-07T12:18:03Z</time>
      </trkpt>
      <trkpt lat="44.15099" lon="6.96314">
        <ele>2682</ele>
        <time>2017-06-07T12:18:03Z</time>
      </trkpt>
      <trkpt lat="44.15099" lon="6.96318">
        <ele>2682</ele>
        <time>2017-06-07T12:18:03Z</time>
      </trkpt>
      <trkpt lat="44.15099" lon="6.96323">
        <ele>2687</ele>
        <time>2017-06-07T12:18:23Z</time>
      </trkpt>
      <trkpt lat="44.15101" lon="6.96323">
        <ele>2687</ele>
        <time>2017-06-07T12:18:23Z</time>
      </trkpt>
      <trkpt lat="44.15102" lon="6.96325">
        <ele>2687</ele>
        <time>2017-06-07T12:18:23Z</time>
      </trkpt>
      <trkpt lat="44.15102" lon="6.96327">
        <ele>2687</ele>
        <time>2017-06-07T12:18:23Z</time>
      </trkpt>
      <trkpt lat="44.15107" lon="6.96331">
        <ele>2687</ele>
        <time>2017-06-07T12:18:24Z</time>
      </trkpt>
      <trkpt lat="44.15109" lon="6.96334">
        <ele>2687</ele>
        <time>2017-06-07T12:18:39Z</time>
      </trkpt>
      <trkpt lat="44.15111" lon="6.96339">
        <ele>2687</ele>
        <time>2017-06-07T12:18:39Z</time>
      </trkpt>
      <trkpt lat="44.15113" lon="6.96344">
        <ele>2687</ele>
        <time>2017-06-07T12:18:39Z</time>
      </trkpt>
      <trkpt lat="44.15114" lon="6.96349">
        <ele>2696</ele>
        <time>2017-06-07T12:18:39Z</time>
      </trkpt>
      <trkpt lat="44.15116" lon="6.96353">
        <ele>2696</ele>
        <time>2017-06-07T12:18:55Z</time>
      </trkpt>
      <trkpt lat="44.15121" lon="6.96355">
        <ele>2696</ele>
        <time>2017-06-07T12:18:55Z</time>
      </trkpt>
      <trkpt lat="44.15123" lon="6.96358">
        <ele>2696</ele>
        <time>2017-06-07T12:18:55Z</time>
      </trkpt>
      <trkpt lat="44.15126" lon="6.9636">
        <ele>2682</ele>
        <time>2017-06-07T12:18:55Z</time>
      </trkpt>
      <trkpt lat="44.15128" lon="6.96362">
        <ele>2682</ele>
        <time>2017-06-07T12:19:17Z</time>
      </trkpt>
      <trkpt lat="44.15129" lon="6.96366">
        <ele>2682</ele>
        <time>2017-06-07T12:19:17Z</time>
      </trkpt>
      <trkpt lat="44.15131" lon="6.96371">
        <ele>2682</ele>
        <time>2017-06-07T12:19:18Z</time>
      </trkpt>
      <trkpt lat="44.15132" lon="6.96373">
        <ele>2682</ele>
        <time>2017-06-07T12:19:18Z</time>
      </trkpt>
      <trkpt lat="44.15134" lon="6.96377">
        <ele>2685</ele>
        <time>2017-06-07T12:19:18Z</time>
      </trkpt>
      <trkpt lat="44.15135" lon="6.96378">
        <ele>2685</ele>
        <time>2017-06-07T12:19:33Z</time>
      </trkpt>
      <trkpt lat="44.15139" lon="6.96382">
        <ele>2685</ele>
        <time>2017-06-07T12:19:33Z</time>
      </trkpt>
      <trkpt lat="44.1514" lon="6.96385">
        <ele>2685</ele>
        <time>2017-06-07T12:19:33Z</time>
      </trkpt>
      <trkpt lat="44.15142" lon="6.9639">
        <ele>2685</ele>
        <time>2017-06-07T12:19:33Z</time>
      </trkpt>
      <trkpt lat="44.15144" lon="6.96395">
        <ele>2685</ele>
        <time>2017-06-07T12:19:49Z</time>
      </trkpt>
      <trkpt lat="44.15146" lon="6.96399">
        <ele>2685</ele>
        <time>2017-06-07T12:19:49Z</time>
      </trkpt>
      <trkpt lat="44.15148" lon="6.96402">
        <ele>2685</ele>
        <time>2017-06-07T12:19:49Z</time>
      </trkpt>
      <trkpt lat="44.1515" lon="6.96406">
        <ele>2687</ele>
        <time>2017-06-07T12:19:49Z</time>
      </trkpt>
      <trkpt lat="44.1515" lon="6.96409">
        <ele>2687</ele>
        <time>2017-06-07T12:20:35Z</time>
      </trkpt>
      <trkpt lat="44.15149" lon="6.96412">
        <ele>2687</ele>
        <time>2017-06-07T12:20:35Z</time>
      </trkpt>
      <trkpt lat="44.15149" lon="6.96418">
        <ele>2687</ele>
        <time>2017-06-07T12:20:35Z</time>
      </trkpt>
      <trkpt lat="44.15149" lon="6.96423">
        <ele>2687</ele>
        <time>2017-06-07T12:20:35Z</time>
      </trkpt>
      <trkpt lat="44.15151" lon="6.96428">
        <ele>2687</ele>
        <time>2017-06-07T12:20:35Z</time>
      </trkpt>
      <trkpt lat="44.15155" lon="6.96433">
        <ele>2676</ele>
        <time>2017-06-07T12:20:59Z</time>
      </trkpt>
      <trkpt lat="44.15156" lon="6.96433">
        <ele>2676</ele>
        <time>2017-06-07T12:20:59Z</time>
      </trkpt>
      <trkpt lat="44.15156" lon="6.96436">
        <ele>2676</ele>
        <time>2017-06-07T12:20:59Z</time>
      </trkpt>
      <trkpt lat="44.15157" lon="6.9644">
        <ele>2676</ele>
        <time>2017-06-07T12:20:59Z</time>
      </trkpt>
      <trkpt lat="44.15159" lon="6.96443">
        <ele>2676</ele>
        <time>2017-06-07T12:20:59Z</time>
      </trkpt>
      <trkpt lat="44.15164" lon="6.96452">
        <ele>2676</ele>
        <time>2017-06-07T12:21:17Z</time>
      </trkpt>
      <trkpt lat="44.15165" lon="6.96456">
        <ele>2676</ele>
        <time>2017-06-07T12:21:17Z</time>
      </trkpt>
      <trkpt lat="44.15168" lon="6.96461">
        <ele>2678</ele>
        <time>2017-06-07T12:21:17Z</time>
      </trkpt>
      <trkpt lat="44.15169" lon="6.96467">
        <ele>2678</ele>
        <time>2017-06-07T12:21:17Z</time>
      </trkpt>
      <trkpt lat="44.15171" lon="6.96469">
        <ele>2678</ele>
        <time>2017-06-07T12:21:33Z</time>
      </trkpt>
      <trkpt lat="44.15173" lon="6.96474">
        <ele>2678</ele>
        <time>2017-06-07T12:21:33Z</time>
      </trkpt>
      <trkpt lat="44.15175" lon="6.96478">
        <ele>2678</ele>
        <time>2017-06-07T12:21:34Z</time>
      </trkpt>
      <trkpt lat="44.15178" lon="6.96483">
        <ele>2678</ele>
        <time>2017-06-07T12:21:34Z</time>
      </trkpt>
      <trkpt lat="44.15178" lon="6.96484">
        <ele>2678</ele>
        <time>2017-06-07T12:21:48Z</time>
      </trkpt>
      <trkpt lat="44.15181" lon="6.96491">
        <ele>2681</ele>
        <time>2017-06-07T12:21:48Z</time>
      </trkpt>
      <trkpt lat="44.15185" lon="6.96497">
        <ele>2671</ele>
        <time>2017-06-07T12:21:48Z</time>
      </trkpt>
      <trkpt lat="44.15188" lon="6.96501">
        <ele>2671</ele>
        <time>2017-06-07T12:21:48Z</time>
      </trkpt>
      <trkpt lat="44.15188" lon="6.96504">
        <ele>2671</ele>
        <time>2017-06-07T12:22:09Z</time>
      </trkpt>
      <trkpt lat="44.1519" lon="6.96508">
        <ele>2671</ele>
        <time>2017-06-07T12:22:09Z</time>
      </trkpt>
      <trkpt lat="44.15191" lon="6.96509">
        <ele>2671</ele>
        <time>2017-06-07T12:22:10Z</time>
      </trkpt>
      <trkpt lat="44.15193" lon="6.96512">
        <ele>2671</ele>
        <time>2017-06-07T12:22:10Z</time>
      </trkpt>
      <trkpt lat="44.15194" lon="6.96517">
        <ele>2678</ele>
        <time>2017-06-07T12:22:10Z</time>
      </trkpt>
      <trkpt lat="44.15192" lon="6.96519">
        <ele>2678</ele>
        <time>2017-06-07T12:22:33Z</time>
      </trkpt>
      <trkpt lat="44.15193" lon="6.96522">
        <ele>2678</ele>
        <time>2017-06-07T12:22:33Z</time>
      </trkpt>
      <trkpt lat="44.15193" lon="6.96523">
        <ele>2678</ele>
        <time>2017-06-07T12:22:33Z</time>
      </trkpt>
      <trkpt lat="44.15193" lon="6.96526">
        <ele>2678</ele>
        <time>2017-06-07T12:22:33Z</time>
      </trkpt>
      <trkpt lat="44.15194" lon="6.96531">
        <ele>2678</ele>
        <time>2017-06-07T12:22:33Z</time>
      </trkpt>
      <trkpt lat="44.15189" lon="6.96537">
        <ele>2678</ele>
        <time>2017-06-07T12:23:11Z</time>
      </trkpt>
      <trkpt lat="44.1519" lon="6.96538">
        <ele>2678</ele>
        <time>2017-06-07T12:23:11Z</time>
      </trkpt>
      <trkpt lat="44.15192" lon="6.96541">
        <ele>2678</ele>
        <time>2017-06-07T12:23:11Z</time>
      </trkpt>
      <trkpt lat="44.15193" lon="6.96543">
        <ele>2675</ele>
        <time>2017-06-07T12:23:11Z</time>
      </trkpt>
      <trkpt lat="44.15193" lon="6.96544">
        <ele>2675</ele>
        <time>2017-06-07T12:23:11Z</time>
      </trkpt>
      <trkpt lat="44.15203" lon="6.96555">
        <ele>2675</ele>
        <time>2017-06-07T12:24:08Z</time>
      </trkpt>
      <trkpt lat="44.15204" lon="6.96558">
        <ele>2675</ele>
        <time>2017-06-07T12:24:08Z</time>
      </trkpt>
      <trkpt lat="44.15204" lon="6.9656">
        <ele>2675</ele>
        <time>2017-06-07T12:24:08Z</time>
      </trkpt>
      <trkpt lat="44.15207" lon="6.96566">
        <ele>2675</ele>
        <time>2017-06-07T12:24:09Z</time>
      </trkpt>
      <trkpt lat="44.15208" lon="6.96568">
        <ele>2675</ele>
        <time>2017-06-07T12:24:09Z</time>
      </trkpt>
      <trkpt lat="44.15207" lon="6.96574">
        <ele>2668</ele>
        <time>2017-06-07T12:25:36Z</time>
      </trkpt>
      <trkpt lat="44.15209" lon="6.96578">
        <ele>2677</ele>
        <time>2017-06-07T12:25:36Z</time>
      </trkpt>
      <trkpt lat="44.1521" lon="6.9658">
        <ele>2677</ele>
        <time>2017-06-07T12:25:36Z</time>
      </trkpt>
      <trkpt lat="44.15211" lon="6.96583">
        <ele>2677</ele>
        <time>2017-06-07T12:25:36Z</time>
      </trkpt>
      <trkpt lat="44.1521" lon="6.96584">
        <ele>2677</ele>
        <time>2017-06-07T12:25:36Z</time>
      </trkpt>
      <trkpt lat="44.15214" lon="6.9659">
        <ele>2677</ele>
        <time>2017-06-07T12:27:29Z</time>
      </trkpt>
      <trkpt lat="44.15215" lon="6.96589">
        <ele>2677</ele>
        <time>2017-06-07T12:27:29Z</time>
      </trkpt>
      <trkpt lat="44.15218" lon="6.96593">
        <ele>2677</ele>
        <time>2017-06-07T12:27:29Z</time>
      </trkpt>
      <trkpt lat="44.15219" lon="6.96599">
        <ele>2683</ele>
        <time>2017-06-07T12:27:29Z</time>
      </trkpt>
      <trkpt lat="44.15223" lon="6.96605">
        <ele>2683</ele>
        <time>2017-06-07T12:27:29Z</time>
      </trkpt>
      <trkpt lat="44.15226" lon="6.9661">
        <ele>2683</ele>
        <time>2017-06-07T12:27:45Z</time>
      </trkpt>
      <trkpt lat="44.1523" lon="6.96616">
        <ele>2683</ele>
        <time>2017-06-07T12:27:45Z</time>
      </trkpt>
      <trkpt lat="44.15233" lon="6.9662">
        <ele>2683</ele>
        <time>2017-06-07T12:27:45Z</time>
      </trkpt>
      <trkpt lat="44.15232" lon="6.96623">
        <ele>2683</ele>
        <time>2017-06-07T12:27:45Z</time>
      </trkpt>
      <trkpt lat="44.15234" lon="6.96625">
        <ele>2685</ele>
        <time>2017-06-07T12:28:01Z</time>
      </trkpt>
      <trkpt lat="44.15237" lon="6.96629">
        <ele>2681</ele>
        <time>2017-06-07T12:28:01Z</time>
      </trkpt>
      <trkpt lat="44.15237" lon="6.96633">
        <ele>2681</ele>
        <time>2017-06-07T12:28:01Z</time>
      </trkpt>
      <trkpt lat="44.15239" lon="6.96637">
        <ele>2681</ele>
        <time>2017-06-07T12:28:01Z</time>
      </trkpt>
      <trkpt lat="44.15239" lon="6.96641">
        <ele>2681</ele>
        <time>2017-06-07T12:28:23Z</time>
      </trkpt>
      <trkpt lat="44.1524" lon="6.96642">
        <ele>2681</ele>
        <time>2017-06-07T12:28:23Z</time>
      </trkpt>
      <trkpt lat="44.15242" lon="6.96644">
        <ele>2681</ele>
        <time>2017-06-07T12:28:23Z</time>
      </trkpt>
      <trkpt lat="44.15242" lon="6.96649">
        <ele>2681</ele>
        <time>2017-06-07T12:28:23Z</time>
      </trkpt>
      <trkpt lat="44.15243" lon="6.96651">
        <ele>2681</ele>
        <time>2017-06-07T12:28:24Z</time>
      </trkpt>
      <trkpt lat="44.15244" lon="6.96653">
        <ele>2681</ele>
        <time>2017-06-07T12:28:41Z</time>
      </trkpt>
      <trkpt lat="44.15246" lon="6.96656">
        <ele>2682</ele>
        <time>2017-06-07T12:28:41Z</time>
      </trkpt>
      <trkpt lat="44.15248" lon="6.9666">
        <ele>2682</ele>
        <time>2017-06-07T12:28:41Z</time>
      </trkpt>
      <trkpt lat="44.15249" lon="6.96663">
        <ele>2682</ele>
        <time>2017-06-07T12:28:41Z</time>
      </trkpt>
      <trkpt lat="44.15251" lon="6.96667">
        <ele>2682</ele>
        <time>2017-06-07T12:29:01Z</time>
      </trkpt>
      <trkpt lat="44.15253" lon="6.96673">
        <ele>2682</ele>
        <time>2017-06-07T12:29:01Z</time>
      </trkpt>
      <trkpt lat="44.15254" lon="6.96674">
        <ele>2682</ele>
        <time>2017-06-07T12:29:01Z</time>
      </trkpt>
      <trkpt lat="44.15253" lon="6.96675">
        <ele>2682</ele>
        <time>2017-06-07T12:29:01Z</time>
      </trkpt>
      <trkpt lat="44.15255" lon="6.9668">
        <ele>2682</ele>
        <time>2017-06-07T12:29:01Z</time>
      </trkpt>
      <trkpt lat="44.15259" lon="6.96692">
        <ele>2686</ele>
        <time>2017-06-07T12:29:40Z</time>
      </trkpt>
      <trkpt lat="44.1526" lon="6.96692">
        <ele>2686</ele>
        <time>2017-06-07T12:29:40Z</time>
      </trkpt>
      <trkpt lat="44.1526" lon="6.96695">
        <ele>2686</ele>
        <time>2017-06-07T12:29:40Z</time>
      </trkpt>
      <trkpt lat="44.15261" lon="6.967">
        <ele>2686</ele>
        <time>2017-06-07T12:29:41Z</time>
      </trkpt>
      <trkpt lat="44.15261" lon="6.96701">
        <ele>2686</ele>
        <time>2017-06-07T12:29:41Z</time>
      </trkpt>
      <trkpt lat="44.15262" lon="6.96704">
        <ele>2686</ele>
        <time>2017-06-07T12:29:57Z</time>
      </trkpt>
      <trkpt lat="44.15263" lon="6.96711">
        <ele>2684</ele>
        <time>2017-06-07T12:29:57Z</time>
      </trkpt>
      <trkpt lat="44.15264" lon="6.96714">
        <ele>2689</ele>
        <time>2017-06-07T12:29:57Z</time>
      </trkpt>
      <trkpt lat="44.15266" lon="6.96718">
        <ele>2689</ele>
        <time>2017-06-07T12:29:57Z</time>
      </trkpt>
      <trkpt lat="44.15266" lon="6.9672">
        <ele>2689</ele>
        <time>2017-06-07T12:30:12Z</time>
      </trkpt>
      <trkpt lat="44.15267" lon="6.96724">
        <ele>2689</ele>
        <time>2017-06-07T12:30:12Z</time>
      </trkpt>
      <trkpt lat="44.15269" lon="6.96727">
        <ele>2689</ele>
        <time>2017-06-07T12:30:12Z</time>
      </trkpt>
      <trkpt lat="44.1527" lon="6.96732">
        <ele>2689</ele>
        <time>2017-06-07T12:30:12Z</time>
      </trkpt>
      <trkpt lat="44.15271" lon="6.96738">
        <ele>2690</ele>
        <time>2017-06-07T12:30:57Z</time>
      </trkpt>
      <trkpt lat="44.15272" lon="6.96739">
        <ele>2690</ele>
        <time>2017-06-07T12:30:57Z</time>
      </trkpt>
      <trkpt lat="44.15273" lon="6.96741">
        <ele>2690</ele>
        <time>2017-06-07T12:30:57Z</time>
      </trkpt>
      <trkpt lat="44.15274" lon="6.96743">
        <ele>2690</ele>
        <time>2017-06-07T12:30:57Z</time>
      </trkpt>
      <trkpt lat="44.15274" lon="6.96746">
        <ele>2690</ele>
        <time>2017-06-07T12:30:57Z</time>
      </trkpt>
      <trkpt lat="44.15275" lon="6.96749">
        <ele>2690</ele>
        <time>2017-06-07T12:31:13Z</time>
      </trkpt>
      <trkpt lat="44.15276" lon="6.96753">
        <ele>2690</ele>
        <time>2017-06-07T12:31:13Z</time>
      </trkpt>
      <trkpt lat="44.15277" lon="6.96756">
        <ele>2690</ele>
        <time>2017-06-07T12:31:14Z</time>
      </trkpt>
      <trkpt lat="44.15279" lon="6.9676">
        <ele>2690</ele>
        <time>2017-06-07T12:31:14Z</time>
      </trkpt>
      <trkpt lat="44.15278" lon="6.96765">
        <ele>2698</ele>
        <time>2017-06-07T12:31:40Z</time>
      </trkpt>
      <trkpt lat="44.15279" lon="6.96768">
        <ele>2698</ele>
        <time>2017-06-07T12:31:40Z</time>
      </trkpt>
      <trkpt lat="44.1528" lon="6.9677">
        <ele>2698</ele>
        <time>2017-06-07T12:31:40Z</time>
      </trkpt>
      <trkpt lat="44.15282" lon="6.96772">
        <ele>2698</ele>
        <time>2017-06-07T12:31:40Z</time>
      </trkpt>
      <trkpt lat="44.15282" lon="6.96774">
        <ele>2698</ele>
        <time>2017-06-07T12:31:40Z</time>
      </trkpt>
      <trkpt lat="44.15282" lon="6.9678">
        <ele>2698</ele>
        <time>2017-06-07T12:32:20Z</time>
      </trkpt>
      <trkpt lat="44.15282" lon="6.96781">
        <ele>2698</ele>
        <time>2017-06-07T12:32:20Z</time>
      </trkpt>
      <trkpt lat="44.15282" lon="6.96781">
        <ele>2698</ele>
        <time>2017-06-07T12:32:20Z</time>
      </trkpt>
      <trkpt lat="44.15282" lon="6.96785">
        <ele>2698</ele>
        <time>2017-06-07T12:32:20Z</time>
      </trkpt>
      <trkpt lat="44.15281" lon="6.96788">
        <ele>2698</ele>
        <time>2017-06-07T12:32:20Z</time>
      </trkpt>
      <trkpt lat="44.15285" lon="6.96801">
        <ele>2700</ele>
        <time>2017-06-07T12:33:04Z</time>
      </trkpt>
      <trkpt lat="44.15285" lon="6.96802">
        <ele>2700</ele>
        <time>2017-06-07T12:33:05Z</time>
      </trkpt>
      <trkpt lat="44.15286" lon="6.96804">
        <ele>2700</ele>
        <time>2017-06-07T12:33:05Z</time>
      </trkpt>
      <trkpt lat="44.15286" lon="6.96805">
        <ele>2700</ele>
        <time>2017-06-07T12:33:05Z</time>
      </trkpt>
      <trkpt lat="44.15286" lon="6.96806">
        <ele>2700</ele>
        <time>2017-06-07T12:33:05Z</time>
      </trkpt>
      <trkpt lat="44.15286" lon="6.96807">
        <ele>2700</ele>
        <time>2017-06-07T12:33:25Z</time>
      </trkpt>
      <trkpt lat="44.15286" lon="6.9681">
        <ele>2700</ele>
        <time>2017-06-07T12:33:25Z</time>
      </trkpt>
      <trkpt lat="44.15286" lon="6.96813">
        <ele>2700</ele>
        <time>2017-06-07T12:33:25Z</time>
      </trkpt>
      <trkpt lat="44.15289" lon="6.96817">
        <ele>2700</ele>
        <time>2017-06-07T12:33:25Z</time>
      </trkpt>
      <trkpt lat="44.1529" lon="6.9682">
        <ele>2709</ele>
        <time>2017-06-07T12:33:25Z</time>
      </trkpt>
      <trkpt lat="44.15292" lon="6.96826">
        <ele>2710</ele>
        <time>2017-06-07T12:34:00Z</time>
      </trkpt>
      <trkpt lat="44.15291" lon="6.96826">
        <ele>2709</ele>
        <time>2017-06-07T12:34:00Z</time>
      </trkpt>
      <trkpt lat="44.15292" lon="6.96827">
        <ele>2710</ele>
        <time>2017-06-07T12:34:00Z</time>
      </trkpt>
      <trkpt lat="44.15293" lon="6.9683">
        <ele>2710</ele>
        <time>2017-06-07T12:34:00Z</time>
      </trkpt>
      <trkpt lat="44.15294" lon="6.96834">
        <ele>2710</ele>
        <time>2017-06-07T12:34:00Z</time>
      </trkpt>
      <trkpt lat="44.15295" lon="6.96837">
        <ele>2710</ele>
        <time>2017-06-07T12:34:20Z</time>
      </trkpt>
      <trkpt lat="44.15297" lon="6.9684">
        <ele>2710</ele>
        <time>2017-06-07T12:34:20Z</time>
      </trkpt>
      <trkpt lat="44.153" lon="6.96842">
        <ele>2710</ele>
        <time>2017-06-07T12:34:20Z</time>
      </trkpt>
      <trkpt lat="44.15301" lon="6.96845">
        <ele>2710</ele>
        <time>2017-06-07T12:34:20Z</time>
      </trkpt>
      <trkpt lat="44.15302" lon="6.96847">
        <ele>2720</ele>
        <time>2017-06-07T12:34:20Z</time>
      </trkpt>
      <trkpt lat="44.15306" lon="6.9686">
        <ele>2720</ele>
        <time>2017-06-07T12:35:00Z</time>
      </trkpt>
      <trkpt lat="44.15306" lon="6.96861">
        <ele>2720</ele>
        <time>2017-06-07T12:35:00Z</time>
      </trkpt>
      <trkpt lat="44.15305" lon="6.96862">
        <ele>2720</ele>
        <time>2017-06-07T12:35:00Z</time>
      </trkpt>
      <trkpt lat="44.15306" lon="6.96862">
        <ele>2720</ele>
        <time>2017-06-07T12:35:00Z</time>
      </trkpt>
      <trkpt lat="44.15306" lon="6.96866">
        <ele>2720</ele>
        <time>2017-06-07T12:35:00Z</time>
      </trkpt>
      <trkpt lat="44.15307" lon="6.96878">
        <ele>2721</ele>
        <time>2017-06-07T12:35:45Z</time>
      </trkpt>
      <trkpt lat="44.15307" lon="6.9688">
        <ele>2721</ele>
        <time>2017-06-07T12:35:45Z</time>
      </trkpt>
      <trkpt lat="44.15308" lon="6.9688">
        <ele>2721</ele>
        <time>2017-06-07T12:35:45Z</time>
      </trkpt>
      <trkpt lat="44.15308" lon="6.96884">
        <ele>2721</ele>
        <time>2017-06-07T12:35:45Z</time>
      </trkpt>
      <trkpt lat="44.1531" lon="6.96888">
        <ele>2721</ele>
        <time>2017-06-07T12:35:45Z</time>
      </trkpt>
      <trkpt lat="44.1531" lon="6.96889">
        <ele>2721</ele>
        <time>2017-06-07T12:36:04Z</time>
      </trkpt>
      <trkpt lat="44.15313" lon="6.96895">
        <ele>2721</ele>
        <time>2017-06-07T12:36:05Z</time>
      </trkpt>
      <trkpt lat="44.15313" lon="6.96896">
        <ele>2721</ele>
        <time>2017-06-07T12:36:05Z</time>
      </trkpt>
      <trkpt lat="44.15313" lon="6.96898">
        <ele>2721</ele>
        <time>2017-06-07T12:36:05Z</time>
      </trkpt>
      <trkpt lat="44.15315" lon="6.969">
        <ele>2721</ele>
        <time>2017-06-07T12:36:05Z</time>
      </trkpt>
      <trkpt lat="44.15319" lon="6.96906">
        <ele>2716</ele>
        <time>2017-06-07T12:36:48Z</time>
      </trkpt>
      <trkpt lat="44.1532" lon="6.96908">
        <ele>2717</ele>
        <time>2017-06-07T12:36:49Z</time>
      </trkpt>
      <trkpt lat="44.1532" lon="6.96908">
        <ele>2717</ele>
        <time>2017-06-07T12:36:49Z</time>
      </trkpt>
      <trkpt lat="44.1532" lon="6.96909">
        <ele>2717</ele>
        <time>2017-06-07T12:36:49Z</time>
      </trkpt>
      <trkpt lat="44.1532" lon="6.96915">
        <ele>2717</ele>
        <time>2017-06-07T12:36:49Z</time>
      </trkpt>
      <trkpt lat="44.15322" lon="6.96917">
        <ele>2717</ele>
        <time>2017-06-07T12:37:24Z</time>
      </trkpt>
      <trkpt lat="44.15323" lon="6.96919">
        <ele>2717</ele>
        <time>2017-06-07T12:37:25Z</time>
      </trkpt>
      <trkpt lat="44.15326" lon="6.9692">
        <ele>2717</ele>
        <time>2017-06-07T12:37:25Z</time>
      </trkpt>
      <trkpt lat="44.15327" lon="6.96921">
        <ele>2717</ele>
        <time>2017-06-07T12:37:25Z</time>
      </trkpt>
      <trkpt lat="44.15329" lon="6.96924">
        <ele>2717</ele>
        <time>2017-06-07T12:37:25Z</time>
      </trkpt>
      <trkpt lat="44.15337" lon="6.96941">
        <ele>2722</ele>
        <time>2017-06-07T12:38:20Z</time>
      </trkpt>
      <trkpt lat="44.15339" lon="6.96945">
        <ele>2722</ele>
        <time>2017-06-07T12:38:21Z</time>
      </trkpt>
      <trkpt lat="44.1534" lon="6.96947">
        <ele>2722</ele>
        <time>2017-06-07T12:38:21Z</time>
      </trkpt>
      <trkpt lat="44.15341" lon="6.96951">
        <ele>2722</ele>
        <time>2017-06-07T12:38:21Z</time>
      </trkpt>
      <trkpt lat="44.15342" lon="6.96953">
        <ele>2722</ele>
        <time>2017-06-07T12:38:21Z</time>
      </trkpt>
      <trkpt lat="44.15348" lon="6.96965">
        <ele>2732</ele>
        <time>2017-06-07T12:39:29Z</time>
      </trkpt>
      <trkpt lat="44.15349" lon="6.96968">
        <ele>2732</ele>
        <time>2017-06-07T12:39:29Z</time>
      </trkpt>
      <trkpt lat="44.15351" lon="6.96969">
        <ele>2732</ele>
        <time>2017-06-07T12:39:29Z</time>
      </trkpt>
      <trkpt lat="44.15353" lon="6.96973">
        <ele>2732</ele>
        <time>2017-06-07T12:39:29Z</time>
      </trkpt>
      <trkpt lat="44.15353" lon="6.96975">
        <ele>2732</ele>
        <time>2017-06-07T12:39:29Z</time>
      </trkpt>
      <trkpt lat="44.15353" lon="6.96975">
        <ele>2732</ele>
        <time>2017-06-07T12:39:48Z</time>
      </trkpt>
      <trkpt lat="44.15353" lon="6.9698">
        <ele>2732</ele>
        <time>2017-06-07T12:39:48Z</time>
      </trkpt>
      <trkpt lat="44.15353" lon="6.96983">
        <ele>2732</ele>
        <time>2017-06-07T12:39:49Z</time>
      </trkpt>
      <trkpt lat="44.15354" lon="6.96985">
        <ele>2732</ele>
        <time>2017-06-07T12:39:49Z</time>
      </trkpt>
      <trkpt lat="44.15355" lon="6.96987">
        <ele>2745</ele>
        <time>2017-06-07T12:39:49Z</time>
      </trkpt>
      <trkpt lat="44.15357" lon="6.96992">
        <ele>2745</ele>
        <time>2017-06-07T12:40:21Z</time>
      </trkpt>
      <trkpt lat="44.15357" lon="6.96995">
        <ele>2745</ele>
        <time>2017-06-07T12:40:21Z</time>
      </trkpt>
      <trkpt lat="44.15359" lon="6.96997">
        <ele>2745</ele>
        <time>2017-06-07T12:40:21Z</time>
      </trkpt>
      <trkpt lat="44.15359" lon="6.96998">
        <ele>2745</ele>
        <time>2017-06-07T12:40:21Z</time>
      </trkpt>
      <trkpt lat="44.1536" lon="6.96998">
        <ele>2745</ele>
        <time>2017-06-07T12:40:22Z</time>
      </trkpt>
      <trkpt lat="44.15361" lon="6.97005">
        <ele>2745</ele>
        <time>2017-06-07T12:43:19Z</time>
      </trkpt>
      <trkpt lat="44.15362" lon="6.97006">
        <ele>2745</ele>
        <time>2017-06-07T12:43:19Z</time>
      </trkpt>
      <trkpt lat="44.15363" lon="6.97007">
        <ele>2745</ele>
        <time>2017-06-07T12:43:19Z</time>
      </trkpt>
      <trkpt lat="44.15364" lon="6.97009">
        <ele>2745</ele>
        <time>2017-06-07T12:43:19Z</time>
      </trkpt>
      <trkpt lat="44.15364" lon="6.97012">
        <ele>2745</ele>
        <time>2017-06-07T12:43:19Z</time>
      </trkpt>
      <trkpt lat="44.15371" lon="6.9702">
        <ele>2744</ele>
        <time>2017-06-07T12:43:53Z</time>
      </trkpt>
      <trkpt lat="44.15372" lon="6.97021">
        <ele>2744</ele>
        <time>2017-06-07T12:43:53Z</time>
      </trkpt>
      <trkpt lat="44.15371" lon="6.97022">
        <ele>2744</ele>
        <time>2017-06-07T12:43:54Z</time>
      </trkpt>
      <trkpt lat="44.15372" lon="6.97023">
        <ele>2744</ele>
        <time>2017-06-07T12:43:54Z</time>
      </trkpt>
      <trkpt lat="44.15372" lon="6.97027">
        <ele>2744</ele>
        <time>2017-06-07T12:43:54Z</time>
      </trkpt>
      <trkpt lat="44.15372" lon="6.97031">
        <ele>2744</ele>
        <time>2017-06-07T12:44:15Z</time>
      </trkpt>
      <trkpt lat="44.15372" lon="6.97033">
        <ele>2744</ele>
        <time>2017-06-07T12:44:15Z</time>
      </trkpt>
      <trkpt lat="44.15371" lon="6.97037">
        <ele>2744</ele>
        <time>2017-06-07T12:44:15Z</time>
      </trkpt>
      <trkpt lat="44.1537" lon="6.97039">
        <ele>2744</ele>
        <time>2017-06-07T12:44:15Z</time>
      </trkpt>
      <trkpt lat="44.15371" lon="6.97041">
        <ele>2744</ele>
        <time>2017-06-07T12:44:15Z</time>
      </trkpt>
      <trkpt lat="44.15373" lon="6.97043">
        <ele>2753</ele>
        <time>2017-06-07T12:44:36Z</time>
      </trkpt>
      <trkpt lat="44.15374" lon="6.97048">
        <ele>2753</ele>
        <time>2017-06-07T12:44:36Z</time>
      </trkpt>
      <trkpt lat="44.15376" lon="6.97051">
        <ele>2764</ele>
        <time>2017-06-07T12:44:37Z</time>
      </trkpt>
      <trkpt lat="44.15376" lon="6.97053">
        <ele>2764</ele>
        <time>2017-06-07T12:44:37Z</time>
      </trkpt>
      <trkpt lat="44.15377" lon="6.97054">
        <ele>2764</ele>
        <time>2017-06-07T12:44:37Z</time>
      </trkpt>
      <trkpt lat="44.15378" lon="6.97058">
        <ele>2764</ele>
        <time>2017-06-07T12:45:01Z</time>
      </trkpt>
      <trkpt lat="44.15379" lon="6.9706">
        <ele>2764</ele>
        <time>2017-06-07T12:45:01Z</time>
      </trkpt>
      <trkpt lat="44.1538" lon="6.97062">
        <ele>2764</ele>
        <time>2017-06-07T12:45:01Z</time>
      </trkpt>
      <trkpt lat="44.15382" lon="6.97064">
        <ele>2764</ele>
        <time>2017-06-07T12:45:01Z</time>
      </trkpt>
      <trkpt lat="44.15381" lon="6.97066">
        <ele>2764</ele>
        <time>2017-06-07T12:45:01Z</time>
      </trkpt>
      <trkpt lat="44.15383" lon="6.97069">
        <ele>2764</ele>
        <time>2017-06-07T12:45:25Z</time>
      </trkpt>
      <trkpt lat="44.15384" lon="6.9707">
        <ele>2779</ele>
        <time>2017-06-07T12:45:25Z</time>
      </trkpt>
      <trkpt lat="44.15386" lon="6.97072">
        <ele>2779</ele>
        <time>2017-06-07T12:45:25Z</time>
      </trkpt>
      <trkpt lat="44.15387" lon="6.97074">
        <ele>2779</ele>
        <time>2017-06-07T12:45:25Z</time>
      </trkpt>
      <trkpt lat="44.15388" lon="6.97078">
        <ele>2779</ele>
        <time>2017-06-07T12:45:25Z</time>
      </trkpt>
      <trkpt lat="44.15391" lon="6.9709">
        <ele>2779</ele>
        <time>2017-06-07T12:46:03Z</time>
      </trkpt>
      <trkpt lat="44.15392" lon="6.97092">
        <ele>2779</ele>
        <time>2017-06-07T12:46:03Z</time>
      </trkpt>
      <trkpt lat="44.15392" lon="6.97094">
        <ele>2779</ele>
        <time>2017-06-07T12:46:03Z</time>
      </trkpt>
      <trkpt lat="44.15393" lon="6.97094">
        <ele>2779</ele>
        <time>2017-06-07T12:46:03Z</time>
      </trkpt>
      <trkpt lat="44.15392" lon="6.97096">
        <ele>2779</ele>
        <time>2017-06-07T12:46:03Z</time>
      </trkpt>
      <trkpt lat="44.154" lon="6.9711">
        <ele>2783</ele>
        <time>2017-06-07T12:46:48Z</time>
      </trkpt>
      <trkpt lat="44.154" lon="6.97112">
        <ele>2783</ele>
        <time>2017-06-07T12:46:48Z</time>
      </trkpt>
      <trkpt lat="44.154" lon="6.97113">
        <ele>2783</ele>
        <time>2017-06-07T12:46:49Z</time>
      </trkpt>
      <trkpt lat="44.15399" lon="6.97114">
        <ele>2783</ele>
        <time>2017-06-07T12:46:49Z</time>
      </trkpt>
      <trkpt lat="44.15398" lon="6.97116">
        <ele>2783</ele>
        <time>2017-06-07T12:46:49Z</time>
      </trkpt>
      <trkpt lat="44.15402" lon="6.97122">
        <ele>2783</ele>
        <time>2017-06-07T12:47:16Z</time>
      </trkpt>
      <trkpt lat="44.15402" lon="6.97125">
        <ele>2783</ele>
        <time>2017-06-07T12:47:16Z</time>
      </trkpt>
      <trkpt lat="44.15403" lon="6.97128">
        <ele>2785</ele>
        <time>2017-06-07T12:47:16Z</time>
      </trkpt>
      <trkpt lat="44.15403" lon="6.97129">
        <ele>2785</ele>
        <time>2017-06-07T12:47:17Z</time>
      </trkpt>
      <trkpt lat="44.15404" lon="6.97131">
        <ele>2785</ele>
        <time>2017-06-07T12:47:17Z</time>
      </trkpt>
      <trkpt lat="44.15406" lon="6.97135">
        <ele>2785</ele>
        <time>2017-06-07T12:48:00Z</time>
      </trkpt>
      <trkpt lat="44.15406" lon="6.97136">
        <ele>2785</ele>
        <time>2017-06-07T12:48:00Z</time>
      </trkpt>
      <trkpt lat="44.15407" lon="6.97137">
        <ele>2785</ele>
        <time>2017-06-07T12:48:00Z</time>
      </trkpt>
      <trkpt lat="44.15409" lon="6.97139">
        <ele>2785</ele>
        <time>2017-06-07T12:48:00Z</time>
      </trkpt>
      <trkpt lat="44.1541" lon="6.9714">
        <ele>2785</ele>
        <time>2017-06-07T12:48:01Z</time>
      </trkpt>
      <trkpt lat="44.15414" lon="6.97146">
        <ele>2785</ele>
        <time>2017-06-07T12:48:40Z</time>
      </trkpt>
      <trkpt lat="44.15414" lon="6.97149">
        <ele>2785</ele>
        <time>2017-06-07T12:48:40Z</time>
      </trkpt>
      <trkpt lat="44.15414" lon="6.9715">
        <ele>2785</ele>
        <time>2017-06-07T12:48:41Z</time>
      </trkpt>
      <trkpt lat="44.15415" lon="6.97151">
        <ele>2785</ele>
        <time>2017-06-07T12:48:41Z</time>
      </trkpt>
      <trkpt lat="44.15417" lon="6.97153">
        <ele>2791</ele>
        <time>2017-06-07T12:48:41Z</time>
      </trkpt>
      <trkpt lat="44.15422" lon="6.97157">
        <ele>2791</ele>
        <time>2017-06-07T12:49:09Z</time>
      </trkpt>
      <trkpt lat="44.15423" lon="6.97159">
        <ele>2791</ele>
        <time>2017-06-07T12:49:09Z</time>
      </trkpt>
      <trkpt lat="44.15424" lon="6.97161">
        <ele>2791</ele>
        <time>2017-06-07T12:49:09Z</time>
      </trkpt>
      <trkpt lat="44.15424" lon="6.97161">
        <ele>2791</ele>
        <time>2017-06-07T12:49:09Z</time>
      </trkpt>
      <trkpt lat="44.15426" lon="6.97161">
        <ele>2791</ele>
        <time>2017-06-07T12:49:09Z</time>
      </trkpt>
      <trkpt lat="44.15426" lon="6.97163">
        <ele>2791</ele>
        <time>2017-06-07T12:49:28Z</time>
      </trkpt>
      <trkpt lat="44.15427" lon="6.97165">
        <ele>2791</ele>
        <time>2017-06-07T12:49:28Z</time>
      </trkpt>
      <trkpt lat="44.15429" lon="6.9717">
        <ele>2791</ele>
        <time>2017-06-07T12:49:29Z</time>
      </trkpt>
      <trkpt lat="44.15431" lon="6.97172">
        <ele>2782</ele>
        <time>2017-06-07T12:49:29Z</time>
      </trkpt>
      <trkpt lat="44.15431" lon="6.97174">
        <ele>2782</ele>
        <time>2017-06-07T12:49:29Z</time>
      </trkpt>
      <trkpt lat="44.1544" lon="6.97191">
        <ele>2789</ele>
        <time>2017-06-07T12:50:28Z</time>
      </trkpt>
      <trkpt lat="44.1544" lon="6.97191">
        <ele>2789</ele>
        <time>2017-06-07T12:50:28Z</time>
      </trkpt>
      <trkpt lat="44.15442" lon="6.97192">
        <ele>2789</ele>
        <time>2017-06-07T12:50:28Z</time>
      </trkpt>
      <trkpt lat="44.15444" lon="6.97195">
        <ele>2789</ele>
        <time>2017-06-07T12:50:28Z</time>
      </trkpt>
      <trkpt lat="44.15445" lon="6.97196">
        <ele>2789</ele>
        <time>2017-06-07T12:50:28Z</time>
      </trkpt>
      <trkpt lat="44.15439" lon="6.97192">
        <ele>2789</ele>
        <time>2017-06-07T13:45:42Z</time>
      </trkpt>
      <trkpt lat="44.15439" lon="6.97189">
        <ele>2789</ele>
        <time>2017-06-07T13:45:42Z</time>
      </trkpt>
      <trkpt lat="44.15439" lon="6.97186">
        <ele>2789</ele>
        <time>2017-06-07T13:45:42Z</time>
      </trkpt>
      <trkpt lat="44.15438" lon="6.9718">
        <ele>2782</ele>
        <time>2017-06-07T13:45:42Z</time>
      </trkpt>
      <trkpt lat="44.15437" lon="6.97176">
        <ele>2782</ele>
        <time>2017-06-07T13:45:42Z</time>
      </trkpt>
      <trkpt lat="44.15437" lon="6.97176">
        <ele>2782</ele>
        <time>2017-06-07T13:54:43Z</time>
      </trkpt>
      <trkpt lat="44.15435" lon="6.97176">
        <ele>2782</ele>
        <time>2017-06-07T13:54:43Z</time>
      </trkpt>
      <trkpt lat="44.15431" lon="6.97175">
        <ele>2782</ele>
        <time>2017-06-07T13:54:43Z</time>
      </trkpt>
      <trkpt lat="44.15431" lon="6.97172">
        <ele>2791</ele>
        <time>2017-06-07T13:54:43Z</time>
      </trkpt>
      <trkpt lat="44.15429" lon="6.97166">
        <ele>2791</ele>
        <time>2017-06-07T13:54:43Z</time>
      </trkpt>
      <trkpt lat="44.15425" lon="6.97159">
        <ele>2791</ele>
        <time>2017-06-07T13:55:22Z</time>
      </trkpt>
      <trkpt lat="44.15423" lon="6.97154">
        <ele>2791</ele>
        <time>2017-06-07T13:55:23Z</time>
      </trkpt>
      <trkpt lat="44.15423" lon="6.97154">
        <ele>2791</ele>
        <time>2017-06-07T13:55:23Z</time>
      </trkpt>
      <trkpt lat="44.15422" lon="6.97153">
        <ele>2791</ele>
        <time>2017-06-07T13:55:23Z</time>
      </trkpt>
      <trkpt lat="44.15419" lon="6.97151">
        <ele>2785</ele>
        <time>2017-06-07T13:55:23Z</time>
      </trkpt>
      <trkpt lat="44.15411" lon="6.97136">
        <ele>2785</ele>
        <time>2017-06-07T13:56:20Z</time>
      </trkpt>
      <trkpt lat="44.15409" lon="6.97136">
        <ele>2785</ele>
        <time>2017-06-07T13:56:21Z</time>
      </trkpt>
      <trkpt lat="44.15408" lon="6.97136">
        <ele>2785</ele>
        <time>2017-06-07T13:56:21Z</time>
      </trkpt>
      <trkpt lat="44.15406" lon="6.97131">
        <ele>2785</ele>
        <time>2017-06-07T13:56:21Z</time>
      </trkpt>
      <trkpt lat="44.15406" lon="6.9713">
        <ele>2785</ele>
        <time>2017-06-07T13:56:21Z</time>
      </trkpt>
      <trkpt lat="44.15406" lon="6.97128">
        <ele>2785</ele>
        <time>2017-06-07T13:56:48Z</time>
      </trkpt>
      <trkpt lat="44.15405" lon="6.97122">
        <ele>2777</ele>
        <time>2017-06-07T13:56:48Z</time>
      </trkpt>
      <trkpt lat="44.15403" lon="6.97119">
        <ele>2777</ele>
        <time>2017-06-07T13:56:48Z</time>
      </trkpt>
      <trkpt lat="44.15402" lon="6.97118">
        <ele>2783</ele>
        <time>2017-06-07T13:56:48Z</time>
      </trkpt>
      <trkpt lat="44.154" lon="6.97114">
        <ele>2783</ele>
        <time>2017-06-07T13:56:48Z</time>
      </trkpt>
      <trkpt lat="44.15397" lon="6.97105">
        <ele>2783</ele>
        <time>2017-06-07T13:57:52Z</time>
      </trkpt>
      <trkpt lat="44.15396" lon="6.97103">
        <ele>2783</ele>
        <time>2017-06-07T13:57:52Z</time>
      </trkpt>
      <trkpt lat="44.15391" lon="6.97097">
        <ele>2779</ele>
        <time>2017-06-07T13:57:53Z</time>
      </trkpt>
      <trkpt lat="44.15389" lon="6.9709">
        <ele>2779</ele>
        <time>2017-06-07T13:57:53Z</time>
      </trkpt>
      <trkpt lat="44.15388" lon="6.97087">
        <ele>2779</ele>
        <time>2017-06-07T13:57:53Z</time>
      </trkpt>
      <trkpt lat="44.15387" lon="6.97085">
        <ele>2779</ele>
        <time>2017-06-07T13:58:11Z</time>
      </trkpt>
      <trkpt lat="44.15386" lon="6.97079">
        <ele>2779</ele>
        <time>2017-06-07T13:58:11Z</time>
      </trkpt>
      <trkpt lat="44.15385" lon="6.97077">
        <ele>2779</ele>
        <time>2017-06-07T13:58:11Z</time>
      </trkpt>
      <trkpt lat="44.15385" lon="6.97075">
        <ele>2779</ele>
        <time>2017-06-07T13:58:11Z</time>
      </trkpt>
      <trkpt lat="44.15384" lon="6.97073">
        <ele>2779</ele>
        <time>2017-06-07T13:58:11Z</time>
      </trkpt>
      <trkpt lat="44.1538" lon="6.9706">
        <ele>2764</ele>
        <time>2017-06-07T13:58:52Z</time>
      </trkpt>
      <trkpt lat="44.15378" lon="6.97058">
        <ele>2764</ele>
        <time>2017-06-07T13:58:52Z</time>
      </trkpt>
      <trkpt lat="44.15374" lon="6.97054">
        <ele>2753</ele>
        <time>2017-06-07T13:58:52Z</time>
      </trkpt>
      <trkpt lat="44.15374" lon="6.97052">
        <ele>2753</ele>
        <time>2017-06-07T13:58:52Z</time>
      </trkpt>
      <trkpt lat="44.15375" lon="6.97051">
        <ele>2753</ele>
        <time>2017-06-07T13:58:53Z</time>
      </trkpt>
      <trkpt lat="44.15374" lon="6.97032">
        <ele>2744</ele>
        <time>2017-06-07T13:59:37Z</time>
      </trkpt>
      <trkpt lat="44.15373" lon="6.97028">
        <ele>2744</ele>
        <time>2017-06-07T13:59:37Z</time>
      </trkpt>
      <trkpt lat="44.15373" lon="6.97028">
        <ele>2744</ele>
        <time>2017-06-07T13:59:37Z</time>
      </trkpt>
      <trkpt lat="44.15372" lon="6.97023">
        <ele>2744</ele>
        <time>2017-06-07T13:59:37Z</time>
      </trkpt>
      <trkpt lat="44.15372" lon="6.97022">
        <ele>2744</ele>
        <time>2017-06-07T13:59:37Z</time>
      </trkpt>
      <trkpt lat="44.15371" lon="6.9702">
        <ele>2744</ele>
        <time>2017-06-07T13:59:55Z</time>
      </trkpt>
      <trkpt lat="44.1537" lon="6.97018">
        <ele>2744</ele>
        <time>2017-06-07T13:59:55Z</time>
      </trkpt>
      <trkpt lat="44.15368" lon="6.97016">
        <ele>2744</ele>
        <time>2017-06-07T13:59:55Z</time>
      </trkpt>
      <trkpt lat="44.15362" lon="6.97015">
        <ele>2744</ele>
        <time>2017-06-07T13:59:55Z</time>
      </trkpt>
      <trkpt lat="44.1536" lon="6.97015">
        <ele>2744</ele>
        <time>2017-06-07T14:00:21Z</time>
      </trkpt>
      <trkpt lat="44.1536" lon="6.97013">
        <ele>2745</ele>
        <time>2017-06-07T14:00:22Z</time>
      </trkpt>
      <trkpt lat="44.1536" lon="6.97009">
        <ele>2745</ele>
        <time>2017-06-07T14:00:22Z</time>
      </trkpt>
      <trkpt lat="44.15361" lon="6.97007">
        <ele>2745</ele>
        <time>2017-06-07T14:00:22Z</time>
      </trkpt>
      <trkpt lat="44.15362" lon="6.97003">
        <ele>2745</ele>
        <time>2017-06-07T14:00:22Z</time>
      </trkpt>
      <trkpt lat="44.1536" lon="6.96992">
        <ele>2745</ele>
        <time>2017-06-07T14:00:46Z</time>
      </trkpt>
      <trkpt lat="44.15359" lon="6.96989">
        <ele>2745</ele>
        <time>2017-06-07T14:00:46Z</time>
      </trkpt>
      <trkpt lat="44.15357" lon="6.96986">
        <ele>2732</ele>
        <time>2017-06-07T14:00:46Z</time>
      </trkpt>
      <trkpt lat="44.15357" lon="6.96984">
        <ele>2732</ele>
        <time>2017-06-07T14:00:46Z</time>
      </trkpt>
      <trkpt lat="44.15356" lon="6.96982">
        <ele>2732</ele>
        <time>2017-06-07T14:00:46Z</time>
      </trkpt>
      <trkpt lat="44.15352" lon="6.9697">
        <ele>2732</ele>
        <time>2017-06-07T14:01:36Z</time>
      </trkpt>
      <trkpt lat="44.15349" lon="6.96969">
        <ele>2732</ele>
        <time>2017-06-07T14:01:36Z</time>
      </trkpt>
      <trkpt lat="44.15349" lon="6.96969">
        <ele>2732</ele>
        <time>2017-06-07T14:01:36Z</time>
      </trkpt>
      <trkpt lat="44.15349" lon="6.96968">
        <ele>2732</ele>
        <time>2017-06-07T14:01:37Z</time>
      </trkpt>
      <trkpt lat="44.15346" lon="6.96962">
        <ele>2729</ele>
        <time>2017-06-07T14:01:37Z</time>
      </trkpt>
      <trkpt lat="44.15344" lon="6.96945">
        <ele>2722</ele>
        <time>2017-06-07T14:02:17Z</time>
      </trkpt>
      <trkpt lat="44.1534" lon="6.96942">
        <ele>2722</ele>
        <time>2017-06-07T14:02:17Z</time>
      </trkpt>
      <trkpt lat="44.1534" lon="6.9694">
        <ele>2722</ele>
        <time>2017-06-07T14:02:17Z</time>
      </trkpt>
      <trkpt lat="44.15336" lon="6.96937">
        <ele>2722</ele>
        <time>2017-06-07T14:02:17Z</time>
      </trkpt>
      <trkpt lat="44.15336" lon="6.96937">
        <ele>2722</ele>
        <time>2017-06-07T14:02:17Z</time>
      </trkpt>
      <trkpt lat="44.1533" lon="6.96934">
        <ele>2722</ele>
        <time>2017-06-07T14:02:38Z</time>
      </trkpt>
      <trkpt lat="44.15327" lon="6.96929">
        <ele>2717</ele>
        <time>2017-06-07T14:02:38Z</time>
      </trkpt>
      <trkpt lat="44.15325" lon="6.96927">
        <ele>2717</ele>
        <time>2017-06-07T14:02:38Z</time>
      </trkpt>
      <trkpt lat="44.15325" lon="6.96925">
        <ele>2717</ele>
        <time>2017-06-07T14:02:38Z</time>
      </trkpt>
      <trkpt lat="44.15323" lon="6.96922">
        <ele>2717</ele>
        <time>2017-06-07T14:02:38Z</time>
      </trkpt>
      <trkpt lat="44.15319" lon="6.96916">
        <ele>2716</ele>
        <time>2017-06-07T14:03:04Z</time>
      </trkpt>
      <trkpt lat="44.15317" lon="6.96914">
        <ele>2716</ele>
        <time>2017-06-07T14:03:04Z</time>
      </trkpt>
      <trkpt lat="44.15315" lon="6.96914">
        <ele>2716</ele>
        <time>2017-06-07T14:03:05Z</time>
      </trkpt>
      <trkpt lat="44.15316" lon="6.96913">
        <ele>2716</ele>
        <time>2017-06-07T14:03:05Z</time>
      </trkpt>
      <trkpt lat="44.15315" lon="6.96911">
        <ele>2716</ele>
        <time>2017-06-07T14:03:05Z</time>
      </trkpt>
      <trkpt lat="44.15312" lon="6.96894">
        <ele>2721</ele>
        <time>2017-06-07T14:04:05Z</time>
      </trkpt>
      <trkpt lat="44.15308" lon="6.96888">
        <ele>2721</ele>
        <time>2017-06-07T14:04:05Z</time>
      </trkpt>
      <trkpt lat="44.15306" lon="6.96882">
        <ele>2721</ele>
        <time>2017-06-07T14:04:05Z</time>
      </trkpt>
      <trkpt lat="44.15306" lon="6.96875">
        <ele>2721</ele>
        <time>2017-06-07T14:04:05Z</time>
      </trkpt>
      <trkpt lat="44.15307" lon="6.96872">
        <ele>2720</ele>
        <time>2017-06-07T14:04:05Z</time>
      </trkpt>
      <trkpt lat="44.15306" lon="6.96869">
        <ele>2720</ele>
        <time>2017-06-07T14:04:23Z</time>
      </trkpt>
      <trkpt lat="44.15306" lon="6.96864">
        <ele>2720</ele>
        <time>2017-06-07T14:04:23Z</time>
      </trkpt>
      <trkpt lat="44.15305" lon="6.9686">
        <ele>2720</ele>
        <time>2017-06-07T14:04:24Z</time>
      </trkpt>
      <trkpt lat="44.15302" lon="6.96857">
        <ele>2720</ele>
        <time>2017-06-07T14:04:24Z</time>
      </trkpt>
      <trkpt lat="44.15302" lon="6.96855">
        <ele>2720</ele>
        <time>2017-06-07T14:04:39Z</time>
      </trkpt>
      <trkpt lat="44.15301" lon="6.9685">
        <ele>2720</ele>
        <time>2017-06-07T14:04:39Z</time>
      </trkpt>
      <trkpt lat="44.15298" lon="6.96848">
        <ele>2720</ele>
        <time>2017-06-07T14:04:39Z</time>
      </trkpt>
      <trkpt lat="44.15294" lon="6.96845">
        <ele>2710</ele>
        <time>2017-06-07T14:04:40Z</time>
      </trkpt>
      <trkpt lat="44.15294" lon="6.96844">
        <ele>2710</ele>
        <time>2017-06-07T14:04:56Z</time>
      </trkpt>
      <trkpt lat="44.15291" lon="6.96836">
        <ele>2709</ele>
        <time>2017-06-07T14:04:56Z</time>
      </trkpt>
      <trkpt lat="44.15291" lon="6.96835">
        <ele>2709</ele>
        <time>2017-06-07T14:04:56Z</time>
      </trkpt>
      <trkpt lat="44.15292" lon="6.96828">
        <ele>2710</ele>
        <time>2017-06-07T14:04:56Z</time>
      </trkpt>
      <trkpt lat="44.15291" lon="6.96822">
        <ele>2709</ele>
        <time>2017-06-07T14:05:20Z</time>
      </trkpt>
      <trkpt lat="44.15291" lon="6.9682">
        <ele>2709</ele>
        <time>2017-06-07T14:05:21Z</time>
      </trkpt>
      <trkpt lat="44.15291" lon="6.96817">
        <ele>2700</ele>
        <time>2017-06-07T14:05:21Z</time>
      </trkpt>
      <trkpt lat="44.15291" lon="6.96817">
        <ele>2700</ele>
        <time>2017-06-07T14:05:21Z</time>
      </trkpt>
      <trkpt lat="44.15289" lon="6.96812">
        <ele>2700</ele>
        <time>2017-06-07T14:05:21Z</time>
      </trkpt>
      <trkpt lat="44.15287" lon="6.96809">
        <ele>2700</ele>
        <time>2017-06-07T14:05:40Z</time>
      </trkpt>
      <trkpt lat="44.15287" lon="6.96808">
        <ele>2700</ele>
        <time>2017-06-07T14:05:41Z</time>
      </trkpt>
      <trkpt lat="44.15286" lon="6.96803">
        <ele>2700</ele>
        <time>2017-06-07T14:05:41Z</time>
      </trkpt>
      <trkpt lat="44.15285" lon="6.968">
        <ele>2700</ele>
        <time>2017-06-07T14:05:41Z</time>
      </trkpt>
      <trkpt lat="44.15283" lon="6.96796">
        <ele>2700</ele>
        <time>2017-06-07T14:05:41Z</time>
      </trkpt>
      <trkpt lat="44.15284" lon="6.96783">
        <ele>2698</ele>
        <time>2017-06-07T14:06:18Z</time>
      </trkpt>
      <trkpt lat="44.15283" lon="6.96783">
        <ele>2698</ele>
        <time>2017-06-07T14:06:18Z</time>
      </trkpt>
      <trkpt lat="44.15283" lon="6.96783">
        <ele>2698</ele>
        <time>2017-06-07T14:06:18Z</time>
      </trkpt>
      <trkpt lat="44.15284" lon="6.96781">
        <ele>2698</ele>
        <time>2017-06-07T14:06:18Z</time>
      </trkpt>
      <trkpt lat="44.15284" lon="6.9678">
        <ele>2698</ele>
        <time>2017-06-07T14:06:18Z</time>
      </trkpt>
      <trkpt lat="44.15279" lon="6.96763">
        <ele>2690</ele>
        <time>2017-06-07T14:07:28Z</time>
      </trkpt>
      <trkpt lat="44.15278" lon="6.9676">
        <ele>2690</ele>
        <time>2017-06-07T14:07:28Z</time>
      </trkpt>
      <trkpt lat="44.15277" lon="6.96755">
        <ele>2690</ele>
        <time>2017-06-07T14:07:28Z</time>
      </trkpt>
      <trkpt lat="44.15275" lon="6.96754">
        <ele>2690</ele>
        <time>2017-06-07T14:07:28Z</time>
      </trkpt>
      <trkpt lat="44.15273" lon="6.9675">
        <ele>2690</ele>
        <time>2017-06-07T14:07:29Z</time>
      </trkpt>
      <trkpt lat="44.15273" lon="6.96747">
        <ele>2690</ele>
        <time>2017-06-07T14:07:52Z</time>
      </trkpt>
      <trkpt lat="44.15273" lon="6.96742">
        <ele>2690</ele>
        <time>2017-06-07T14:07:52Z</time>
      </trkpt>
      <trkpt lat="44.15269" lon="6.96739">
        <ele>2690</ele>
        <time>2017-06-07T14:07:52Z</time>
      </trkpt>
      <trkpt lat="44.15269" lon="6.96736">
        <ele>2689</ele>
        <time>2017-06-07T14:07:53Z</time>
      </trkpt>
      <trkpt lat="44.15269" lon="6.96733">
        <ele>2689</ele>
        <time>2017-06-07T14:07:53Z</time>
      </trkpt>
      <trkpt lat="44.1527" lon="6.9673">
        <ele>2689</ele>
        <time>2017-06-07T14:08:18Z</time>
      </trkpt>
      <trkpt lat="44.1527" lon="6.96727">
        <ele>2689</ele>
        <time>2017-06-07T14:08:18Z</time>
      </trkpt>
      <trkpt lat="44.1527" lon="6.96723">
        <ele>2689</ele>
        <time>2017-06-07T14:08:19Z</time>
      </trkpt>
      <trkpt lat="44.15269" lon="6.96719">
        <ele>2689</ele>
        <time>2017-06-07T14:08:19Z</time>
      </trkpt>
      <trkpt lat="44.15266" lon="6.96716">
        <ele>2689</ele>
        <time>2017-06-07T14:08:19Z</time>
      </trkpt>
      <trkpt lat="44.15266" lon="6.96714">
        <ele>2689</ele>
        <time>2017-06-07T14:08:37Z</time>
      </trkpt>
      <trkpt lat="44.15263" lon="6.96707">
        <ele>2686</ele>
        <time>2017-06-07T14:08:37Z</time>
      </trkpt>
      <trkpt lat="44.15264" lon="6.96707">
        <ele>2681</ele>
        <time>2017-06-07T14:08:37Z</time>
      </trkpt>
      <trkpt lat="44.15263" lon="6.96703">
        <ele>2686</ele>
        <time>2017-06-07T14:08:37Z</time>
      </trkpt>
      <trkpt lat="44.15263" lon="6.96702">
        <ele>2686</ele>
        <time>2017-06-07T14:08:37Z</time>
      </trkpt>
      <trkpt lat="44.15261" lon="6.96699">
        <ele>2686</ele>
        <time>2017-06-07T14:08:57Z</time>
      </trkpt>
      <trkpt lat="44.15261" lon="6.96693">
        <ele>2686</ele>
        <time>2017-06-07T14:08:57Z</time>
      </trkpt>
      <trkpt lat="44.15261" lon="6.96692">
        <ele>2686</ele>
        <time>2017-06-07T14:08:57Z</time>
      </trkpt>
      <trkpt lat="44.15259" lon="6.96688">
        <ele>2686</ele>
        <time>2017-06-07T14:08:57Z</time>
      </trkpt>
      <trkpt lat="44.15258" lon="6.96687">
        <ele>2686</ele>
        <time>2017-06-07T14:08:57Z</time>
      </trkpt>
      <trkpt lat="44.15256" lon="6.96681">
        <ele>2686</ele>
        <time>2017-06-07T14:09:21Z</time>
      </trkpt>
      <trkpt lat="44.15256" lon="6.9668">
        <ele>2682</ele>
        <time>2017-06-07T14:09:21Z</time>
      </trkpt>
      <trkpt lat="44.15256" lon="6.96679">
        <ele>2682</ele>
        <time>2017-06-07T14:09:21Z</time>
      </trkpt>
      <trkpt lat="44.15256" lon="6.96676">
        <ele>2682</ele>
        <time>2017-06-07T14:09:21Z</time>
      </trkpt>
      <trkpt lat="44.15254" lon="6.96671">
        <ele>2682</ele>
        <time>2017-06-07T14:09:21Z</time>
      </trkpt>
      <trkpt lat="44.15251" lon="6.96668">
        <ele>2682</ele>
        <time>2017-06-07T14:09:37Z</time>
      </trkpt>
      <trkpt lat="44.15248" lon="6.96663">
        <ele>2682</ele>
        <time>2017-06-07T14:09:37Z</time>
      </trkpt>
      <trkpt lat="44.15247" lon="6.96658">
        <ele>2682</ele>
        <time>2017-06-07T14:09:37Z</time>
      </trkpt>
      <trkpt lat="44.15245" lon="6.96655">
        <ele>2682</ele>
        <time>2017-06-07T14:09:37Z</time>
      </trkpt>
      <trkpt lat="44.15246" lon="6.96653">
        <ele>2682</ele>
        <time>2017-06-07T14:09:58Z</time>
      </trkpt>
      <trkpt lat="44.15243" lon="6.96649">
        <ele>2681</ele>
        <time>2017-06-07T14:09:58Z</time>
      </trkpt>
      <trkpt lat="44.15243" lon="6.96645">
        <ele>2681</ele>
        <time>2017-06-07T14:09:58Z</time>
      </trkpt>
      <trkpt lat="44.1524" lon="6.96644">
        <ele>2681</ele>
        <time>2017-06-07T14:09:58Z</time>
      </trkpt>
      <trkpt lat="44.15239" lon="6.96643">
        <ele>2681</ele>
        <time>2017-06-07T14:09:58Z</time>
      </trkpt>
      <trkpt lat="44.1524" lon="6.96638">
        <ele>2681</ele>
        <time>2017-06-07T14:10:23Z</time>
      </trkpt>
      <trkpt lat="44.15238" lon="6.96635">
        <ele>2681</ele>
        <time>2017-06-07T14:10:23Z</time>
      </trkpt>
      <trkpt lat="44.15237" lon="6.96633">
        <ele>2681</ele>
        <time>2017-06-07T14:10:23Z</time>
      </trkpt>
      <trkpt lat="44.15235" lon="6.96631">
        <ele>2685</ele>
        <time>2017-06-07T14:10:23Z</time>
      </trkpt>
      <trkpt lat="44.1523" lon="6.96629">
        <ele>2685</ele>
        <time>2017-06-07T14:10:23Z</time>
      </trkpt>
      <trkpt lat="44.15225" lon="6.96619">
        <ele>2683</ele>
        <time>2017-06-07T14:10:59Z</time>
      </trkpt>
      <trkpt lat="44.15225" lon="6.96616">
        <ele>2683</ele>
        <time>2017-06-07T14:10:59Z</time>
      </trkpt>
      <trkpt lat="44.15225" lon="6.96609">
        <ele>2683</ele>
        <time>2017-06-07T14:10:59Z</time>
      </trkpt>
      <trkpt lat="44.15224" lon="6.96606">
        <ele>2683</ele>
        <time>2017-06-07T14:10:59Z</time>
      </trkpt>
      <trkpt lat="44.15223" lon="6.966">
        <ele>2683</ele>
        <time>2017-06-07T14:10:59Z</time>
      </trkpt>
      <trkpt lat="44.15223" lon="6.966">
        <ele>2683</ele>
        <time>2017-06-07T14:11:13Z</time>
      </trkpt>
      <trkpt lat="44.1522" lon="6.96593">
        <ele>2677</ele>
        <time>2017-06-07T14:11:13Z</time>
      </trkpt>
      <trkpt lat="44.15216" lon="6.96589">
        <ele>2677</ele>
        <time>2017-06-07T14:11:14Z</time>
      </trkpt>
      <trkpt lat="44.15216" lon="6.96588">
        <ele>2677</ele>
        <time>2017-06-07T14:11:14Z</time>
      </trkpt>
      <trkpt lat="44.15216" lon="6.96584">
        <ele>2677</ele>
        <time>2017-06-07T14:11:34Z</time>
      </trkpt>
      <trkpt lat="44.15213" lon="6.96585">
        <ele>2677</ele>
        <time>2017-06-07T14:11:34Z</time>
      </trkpt>
      <trkpt lat="44.1521" lon="6.96584">
        <ele>2677</ele>
        <time>2017-06-07T14:11:34Z</time>
      </trkpt>
      <trkpt lat="44.15208" lon="6.96581">
        <ele>2668</ele>
        <time>2017-06-07T14:11:34Z</time>
      </trkpt>
      <trkpt lat="44.15204" lon="6.9658">
        <ele>2668</ele>
        <time>2017-06-07T14:11:34Z</time>
      </trkpt>
      <trkpt lat="44.15202" lon="6.9657">
        <ele>2668</ele>
        <time>2017-06-07T14:12:16Z</time>
      </trkpt>
      <trkpt lat="44.15202" lon="6.96568">
        <ele>2675</ele>
        <time>2017-06-07T14:12:16Z</time>
      </trkpt>
      <trkpt lat="44.15202" lon="6.96566">
        <ele>2675</ele>
        <time>2017-06-07T14:12:17Z</time>
      </trkpt>
      <trkpt lat="44.15202" lon="6.96565">
        <ele>2675</ele>
        <time>2017-06-07T14:12:17Z</time>
      </trkpt>
      <trkpt lat="44.15198" lon="6.96558">
        <ele>2675</ele>
        <time>2017-06-07T14:12:17Z</time>
      </trkpt>
      <trkpt lat="44.15196" lon="6.96541">
        <ele>2678</ele>
        <time>2017-06-07T14:14:03Z</time>
      </trkpt>
      <trkpt lat="44.15196" lon="6.9654">
        <ele>2678</ele>
        <time>2017-06-07T14:14:03Z</time>
      </trkpt>
      <trkpt lat="44.15195" lon="6.96541">
        <ele>2678</ele>
        <time>2017-06-07T14:14:03Z</time>
      </trkpt>
      <trkpt lat="44.15195" lon="6.96539">
        <ele>2678</ele>
        <time>2017-06-07T14:14:03Z</time>
      </trkpt>
      <trkpt lat="44.15195" lon="6.96537">
        <ele>2678</ele>
        <time>2017-06-07T14:14:03Z</time>
      </trkpt>
      <trkpt lat="44.15197" lon="6.96528">
        <ele>2678</ele>
        <time>2017-06-07T14:17:58Z</time>
      </trkpt>
      <trkpt lat="44.15197" lon="6.96527">
        <ele>2678</ele>
        <time>2017-06-07T14:17:58Z</time>
      </trkpt>
      <trkpt lat="44.15196" lon="6.96525">
        <ele>2678</ele>
        <time>2017-06-07T14:17:58Z</time>
      </trkpt>
      <trkpt lat="44.15195" lon="6.96518">
        <ele>2678</ele>
        <time>2017-06-07T14:17:58Z</time>
      </trkpt>
      <trkpt lat="44.15194" lon="6.96517">
        <ele>2678</ele>
        <time>2017-06-07T14:17:58Z</time>
      </trkpt>
      <trkpt lat="44.15194" lon="6.96512">
        <ele>2671</ele>
        <time>2017-06-07T14:18:20Z</time>
      </trkpt>
      <trkpt lat="44.15194" lon="6.96509">
        <ele>2671</ele>
        <time>2017-06-07T14:18:21Z</time>
      </trkpt>
      <trkpt lat="44.15193" lon="6.96506">
        <ele>2671</ele>
        <time>2017-06-07T14:18:21Z</time>
      </trkpt>
      <trkpt lat="44.15193" lon="6.96504">
        <ele>2671</ele>
        <time>2017-06-07T14:18:21Z</time>
      </trkpt>
      <trkpt lat="44.15189" lon="6.96497">
        <ele>2671</ele>
        <time>2017-06-07T14:18:21Z</time>
      </trkpt>
      <trkpt lat="44.15183" lon="6.9649">
        <ele>2671</ele>
        <time>2017-06-07T14:18:38Z</time>
      </trkpt>
      <trkpt lat="44.15182" lon="6.9649">
        <ele>2671</ele>
        <time>2017-06-07T14:18:38Z</time>
      </trkpt>
      <trkpt lat="44.15178" lon="6.96482">
        <ele>2678</ele>
        <time>2017-06-07T14:18:38Z</time>
      </trkpt>
      <trkpt lat="44.15176" lon="6.96477">
        <ele>2678</ele>
        <time>2017-06-07T14:18:38Z</time>
      </trkpt>
      <trkpt lat="44.15173" lon="6.96474">
        <ele>2678</ele>
        <time>2017-06-07T14:18:55Z</time>
      </trkpt>
      <trkpt lat="44.15172" lon="6.9647">
        <ele>2678</ele>
        <time>2017-06-07T14:18:55Z</time>
      </trkpt>
      <trkpt lat="44.15168" lon="6.96466">
        <ele>2678</ele>
        <time>2017-06-07T14:18:55Z</time>
      </trkpt>
      <trkpt lat="44.15166" lon="6.96461">
        <ele>2678</ele>
        <time>2017-06-07T14:18:55Z</time>
      </trkpt>
      <trkpt lat="44.15166" lon="6.96459">
        <ele>2678</ele>
        <time>2017-06-07T14:19:13Z</time>
      </trkpt>
      <trkpt lat="44.15161" lon="6.96448">
        <ele>2676</ele>
        <time>2017-06-07T14:19:14Z</time>
      </trkpt>
      <trkpt lat="44.15156" lon="6.96442">
        <ele>2676</ele>
        <time>2017-06-07T14:19:15Z</time>
      </trkpt>
      <trkpt lat="44.15157" lon="6.96441">
        <ele>2676</ele>
        <time>2017-06-07T14:19:15Z</time>
      </trkpt>
      <trkpt lat="44.15155" lon="6.96439">
        <ele>2676</ele>
        <time>2017-06-07T14:19:29Z</time>
      </trkpt>
      <trkpt lat="44.15156" lon="6.96432">
        <ele>2676</ele>
        <time>2017-06-07T14:19:29Z</time>
      </trkpt>
      <trkpt lat="44.15154" lon="6.96424">
        <ele>2666</ele>
        <time>2017-06-07T14:19:29Z</time>
      </trkpt>
      <trkpt lat="44.15153" lon="6.96423">
        <ele>2666</ele>
        <time>2017-06-07T14:19:29Z</time>
      </trkpt>
      <trkpt lat="44.15154" lon="6.96411">
        <ele>2666</ele>
        <time>2017-06-07T14:19:59Z</time>
      </trkpt>
      <trkpt lat="44.15153" lon="6.96411">
        <ele>2666</ele>
        <time>2017-06-07T14:19:59Z</time>
      </trkpt>
      <trkpt lat="44.1515" lon="6.96408">
        <ele>2687</ele>
        <time>2017-06-07T14:19:59Z</time>
      </trkpt>
      <trkpt lat="44.15149" lon="6.96405">
        <ele>2687</ele>
        <time>2017-06-07T14:19:59Z</time>
      </trkpt>
      <trkpt lat="44.15145" lon="6.964">
        <ele>2685</ele>
        <time>2017-06-07T14:19:59Z</time>
      </trkpt>
      <trkpt lat="44.15145" lon="6.96399">
        <ele>2685</ele>
        <time>2017-06-07T14:20:12Z</time>
      </trkpt>
      <trkpt lat="44.1514" lon="6.96391">
        <ele>2685</ele>
        <time>2017-06-07T14:20:12Z</time>
      </trkpt>
      <trkpt lat="44.15136" lon="6.96384">
        <ele>2685</ele>
        <time>2017-06-07T14:20:12Z</time>
      </trkpt>
      <trkpt lat="44.15135" lon="6.96384">
        <ele>2685</ele>
        <time>2017-06-07T14:20:13Z</time>
      </trkpt>
      <trkpt lat="44.15132" lon="6.96381">
        <ele>2685</ele>
        <time>2017-06-07T14:20:28Z</time>
      </trkpt>
      <trkpt lat="44.15128" lon="6.96376">
        <ele>2685</ele>
        <time>2017-06-07T14:20:28Z</time>
      </trkpt>
      <trkpt lat="44.15124" lon="6.96368">
        <ele>2696</ele>
        <time>2017-06-07T14:20:29Z</time>
      </trkpt>
      <trkpt lat="44.15122" lon="6.96364">
        <ele>2696</ele>
        <time>2017-06-07T14:20:29Z</time>
      </trkpt>
      <trkpt lat="44.15122" lon="6.96359">
        <ele>2696</ele>
        <time>2017-06-07T14:20:48Z</time>
      </trkpt>
      <trkpt lat="44.15122" lon="6.96355">
        <ele>2696</ele>
        <time>2017-06-07T14:20:48Z</time>
      </trkpt>
      <trkpt lat="44.15119" lon="6.96353">
        <ele>2696</ele>
        <time>2017-06-07T14:20:49Z</time>
      </trkpt>
      <trkpt lat="44.15116" lon="6.9635">
        <ele>2696</ele>
        <time>2017-06-07T14:20:49Z</time>
      </trkpt>
      <trkpt lat="44.15116" lon="6.96348">
        <ele>2696</ele>
        <time>2017-06-07T14:20:49Z</time>
      </trkpt>
      <trkpt lat="44.15115" lon="6.96346">
        <ele>2687</ele>
        <time>2017-06-07T14:21:07Z</time>
      </trkpt>
      <trkpt lat="44.15112" lon="6.96343">
        <ele>2687</ele>
        <time>2017-06-07T14:21:07Z</time>
      </trkpt>
      <trkpt lat="44.15107" lon="6.96339">
        <ele>2687</ele>
        <time>2017-06-07T14:21:08Z</time>
      </trkpt>
      <trkpt lat="44.15104" lon="6.96334">
        <ele>2687</ele>
        <time>2017-06-07T14:21:08Z</time>
      </trkpt>
      <trkpt lat="44.15104" lon="6.96332">
        <ele>2687</ele>
        <time>2017-06-07T14:21:25Z</time>
      </trkpt>
      <trkpt lat="44.15101" lon="6.96329">
        <ele>2687</ele>
        <time>2017-06-07T14:21:25Z</time>
      </trkpt>
      <trkpt lat="44.15101" lon="6.96329">
        <ele>2687</ele>
        <time>2017-06-07T14:21:25Z</time>
      </trkpt>
      <trkpt lat="44.15097" lon="6.96325">
        <ele>2701</ele>
        <time>2017-06-07T14:21:25Z</time>
      </trkpt>
      <trkpt lat="44.15095" lon="6.96322">
        <ele>2701</ele>
        <time>2017-06-07T14:21:25Z</time>
      </trkpt>
      <trkpt lat="44.15092" lon="6.96313">
        <ele>2703</ele>
        <time>2017-06-07T14:21:51Z</time>
      </trkpt>
      <trkpt lat="44.15093" lon="6.96311">
        <ele>2703</ele>
        <time>2017-06-07T14:21:51Z</time>
      </trkpt>
      <trkpt lat="44.1509" lon="6.96306">
        <ele>2703</ele>
        <time>2017-06-07T14:21:51Z</time>
      </trkpt>
      <trkpt lat="44.15092" lon="6.96305">
        <ele>2703</ele>
        <time>2017-06-07T14:21:52Z</time>
      </trkpt>
      <trkpt lat="44.15092" lon="6.96302">
        <ele>2703</ele>
        <time>2017-06-07T14:21:52Z</time>
      </trkpt>
      <trkpt lat="44.15092" lon="6.96302">
        <ele>2703</ele>
        <time>2017-06-07T14:22:12Z</time>
      </trkpt>
      <trkpt lat="44.1509" lon="6.96297">
        <ele>2703</ele>
        <time>2017-06-07T14:22:12Z</time>
      </trkpt>
      <trkpt lat="44.1509" lon="6.96297">
        <ele>2703</ele>
        <time>2017-06-07T14:22:12Z</time>
      </trkpt>
      <trkpt lat="44.15089" lon="6.96293">
        <ele>2703</ele>
        <time>2017-06-07T14:22:12Z</time>
      </trkpt>
      <trkpt lat="44.15086" lon="6.96287">
        <ele>2706</ele>
        <time>2017-06-07T14:22:12Z</time>
      </trkpt>
      <trkpt lat="44.1508" lon="6.96279">
        <ele>2706</ele>
        <time>2017-06-07T14:22:47Z</time>
      </trkpt>
      <trkpt lat="44.15079" lon="6.96279">
        <ele>2706</ele>
        <time>2017-06-07T14:22:47Z</time>
      </trkpt>
      <trkpt lat="44.15078" lon="6.96277">
        <ele>2706</ele>
        <time>2017-06-07T14:22:47Z</time>
      </trkpt>
      <trkpt lat="44.15077" lon="6.96276">
        <ele>2706</ele>
        <time>2017-06-07T14:22:47Z</time>
      </trkpt>
      <trkpt lat="44.15077" lon="6.96274">
        <ele>2706</ele>
        <time>2017-06-07T14:22:47Z</time>
      </trkpt>
      <trkpt lat="44.15077" lon="6.96273">
        <ele>2706</ele>
        <time>2017-06-07T14:23:00Z</time>
      </trkpt>
      <trkpt lat="44.15072" lon="6.96266">
        <ele>2706</ele>
        <time>2017-06-07T14:23:01Z</time>
      </trkpt>
      <trkpt lat="44.15072" lon="6.96265">
        <ele>2706</ele>
        <time>2017-06-07T14:23:01Z</time>
      </trkpt>
      <trkpt lat="44.15069" lon="6.96261">
        <ele>2717</ele>
        <time>2017-06-07T14:23:01Z</time>
      </trkpt>
      <trkpt lat="44.15068" lon="6.96258">
        <ele>2717</ele>
        <time>2017-06-07T14:23:18Z</time>
      </trkpt>
      <trkpt lat="44.15065" lon="6.9625">
        <ele>2717</ele>
        <time>2017-06-07T14:23:19Z</time>
      </trkpt>
      <trkpt lat="44.15063" lon="6.96247">
        <ele>2717</ele>
        <time>2017-06-07T14:23:19Z</time>
      </trkpt>
      <trkpt lat="44.15061" lon="6.96247">
        <ele>2717</ele>
        <time>2017-06-07T14:23:19Z</time>
      </trkpt>
      <trkpt lat="44.1506" lon="6.96246">
        <ele>2717</ele>
        <time>2017-06-07T14:23:36Z</time>
      </trkpt>
      <trkpt lat="44.15058" lon="6.96239">
        <ele>2717</ele>
        <time>2017-06-07T14:23:36Z</time>
      </trkpt>
      <trkpt lat="44.15057" lon="6.96238">
        <ele>2717</ele>
        <time>2017-06-07T14:23:36Z</time>
      </trkpt>
      <trkpt lat="44.15053" lon="6.96232">
        <ele>2710</ele>
        <time>2017-06-07T14:23:36Z</time>
      </trkpt>
      <trkpt lat="44.15052" lon="6.96232">
        <ele>2710</ele>
        <time>2017-06-07T14:23:55Z</time>
      </trkpt>
      <trkpt lat="44.15047" lon="6.96231">
        <ele>2710</ele>
        <time>2017-06-07T14:23:56Z</time>
      </trkpt>
      <trkpt lat="44.15046" lon="6.9623">
        <ele>2710</ele>
        <time>2017-06-07T14:23:56Z</time>
      </trkpt>
      <trkpt lat="44.15045" lon="6.96229">
        <ele>2710</ele>
        <time>2017-06-07T14:23:56Z</time>
      </trkpt>
      <trkpt lat="44.1504" lon="6.96224">
        <ele>2716</ele>
        <time>2017-06-07T14:23:56Z</time>
      </trkpt>
      <trkpt lat="44.1504" lon="6.96223">
        <ele>2716</ele>
        <time>2017-06-07T14:24:15Z</time>
      </trkpt>
      <trkpt lat="44.15039" lon="6.9622">
        <ele>2716</ele>
        <time>2017-06-07T14:24:15Z</time>
      </trkpt>
      <trkpt lat="44.15039" lon="6.96217">
        <ele>2716</ele>
        <time>2017-06-07T14:24:15Z</time>
      </trkpt>
      <trkpt lat="44.15036" lon="6.96214">
        <ele>2716</ele>
        <time>2017-06-07T14:24:15Z</time>
      </trkpt>
      <trkpt lat="44.15033" lon="6.96209">
        <ele>2716</ele>
        <time>2017-06-07T14:24:15Z</time>
      </trkpt>
      <trkpt lat="44.15028" lon="6.96198">
        <ele>2713</ele>
        <time>2017-06-07T14:27:46Z</time>
      </trkpt>
      <trkpt lat="44.15027" lon="6.96197">
        <ele>2713</ele>
        <time>2017-06-07T14:27:46Z</time>
      </trkpt>
      <trkpt lat="44.15024" lon="6.96192">
        <ele>2713</ele>
        <time>2017-06-07T14:27:46Z</time>
      </trkpt>
      <trkpt lat="44.15021" lon="6.96189">
        <ele>2713</ele>
        <time>2017-06-07T14:27:46Z</time>
      </trkpt>
      <trkpt lat="44.15017" lon="6.96185">
        <ele>2713</ele>
        <time>2017-06-07T14:27:47Z</time>
      </trkpt>
      <trkpt lat="44.15017" lon="6.96182">
        <ele>2713</ele>
        <time>2017-06-07T14:28:02Z</time>
      </trkpt>
      <trkpt lat="44.15011" lon="6.9618">
        <ele>2717</ele>
        <time>2017-06-07T14:28:02Z</time>
      </trkpt>
      <trkpt lat="44.15009" lon="6.96179">
        <ele>2717</ele>
        <time>2017-06-07T14:28:02Z</time>
      </trkpt>
      <trkpt lat="44.15006" lon="6.96178">
        <ele>2717</ele>
        <time>2017-06-07T14:28:02Z</time>
      </trkpt>
      <trkpt lat="44.15005" lon="6.96179">
        <ele>2717</ele>
        <time>2017-06-07T14:28:17Z</time>
      </trkpt>
      <trkpt lat="44.14999" lon="6.9618">
        <ele>2717</ele>
        <time>2017-06-07T14:28:17Z</time>
      </trkpt>
      <trkpt lat="44.14997" lon="6.9618">
        <ele>2717</ele>
        <time>2017-06-07T14:28:18Z</time>
      </trkpt>
      <trkpt lat="44.14992" lon="6.96181">
        <ele>2717</ele>
        <time>2017-06-07T14:28:18Z</time>
      </trkpt>
      <trkpt lat="44.14989" lon="6.96181">
        <ele>2715</ele>
        <time>2017-06-07T14:28:38Z</time>
      </trkpt>
      <trkpt lat="44.14987" lon="6.96183">
        <ele>2715</ele>
        <time>2017-06-07T14:28:38Z</time>
      </trkpt>
      <trkpt lat="44.14984" lon="6.96184">
        <ele>2719</ele>
        <time>2017-06-07T14:28:38Z</time>
      </trkpt>
      <trkpt lat="44.1498" lon="6.96184">
        <ele>2719</ele>
        <time>2017-06-07T14:28:38Z</time>
      </trkpt>
      <trkpt lat="44.14979" lon="6.96182">
        <ele>2719</ele>
        <time>2017-06-07T14:28:38Z</time>
      </trkpt>
      <trkpt lat="44.14976" lon="6.96181">
        <ele>2719</ele>
        <time>2017-06-07T14:28:58Z</time>
      </trkpt>
      <trkpt lat="44.14975" lon="6.96175">
        <ele>2717</ele>
        <time>2017-06-07T14:28:58Z</time>
      </trkpt>
      <trkpt lat="44.14975" lon="6.96173">
        <ele>2717</ele>
        <time>2017-06-07T14:28:59Z</time>
      </trkpt>
      <trkpt lat="44.14977" lon="6.9617">
        <ele>2717</ele>
        <time>2017-06-07T14:28:59Z</time>
      </trkpt>
      <trkpt lat="44.14979" lon="6.96163">
        <ele>2717</ele>
        <time>2017-06-07T14:28:59Z</time>
      </trkpt>
      <trkpt lat="44.14982" lon="6.96158">
        <ele>2717</ele>
        <time>2017-06-07T14:29:34Z</time>
      </trkpt>
      <trkpt lat="44.14982" lon="6.96155">
        <ele>2717</ele>
        <time>2017-06-07T14:29:34Z</time>
      </trkpt>
      <trkpt lat="44.14983" lon="6.96152">
        <ele>2715</ele>
        <time>2017-06-07T14:29:34Z</time>
      </trkpt>
      <trkpt lat="44.14979" lon="6.96148">
        <ele>2715</ele>
        <time>2017-06-07T14:29:34Z</time>
      </trkpt>
      <trkpt lat="44.14978" lon="6.96147">
        <ele>2715</ele>
        <time>2017-06-07T14:29:34Z</time>
      </trkpt>
      <trkpt lat="44.14974" lon="6.96135">
        <ele>2715</ele>
        <time>2017-06-07T14:32:22Z</time>
      </trkpt>
      <trkpt lat="44.14972" lon="6.96132">
        <ele>2715</ele>
        <time>2017-06-07T14:32:22Z</time>
      </trkpt>
      <trkpt lat="44.14976" lon="6.96124">
        <ele>2713</ele>
        <time>2017-06-07T14:32:22Z</time>
      </trkpt>
      <trkpt lat="44.14977" lon="6.96124">
        <ele>2713</ele>
        <time>2017-06-07T14:32:22Z</time>
      </trkpt>
      <trkpt lat="44.14979" lon="6.96117">
        <ele>2713</ele>
        <time>2017-06-07T14:32:22Z</time>
      </trkpt>
      <trkpt lat="44.1498" lon="6.96115">
        <ele>2713</ele>
        <time>2017-06-07T14:32:38Z</time>
      </trkpt>
      <trkpt lat="44.14983" lon="6.96107">
        <ele>2713</ele>
        <time>2017-06-07T14:32:38Z</time>
      </trkpt>
      <trkpt lat="44.14984" lon="6.961">
        <ele>2713</ele>
        <time>2017-06-07T14:32:38Z</time>
      </trkpt>
      <trkpt lat="44.14985" lon="6.96094">
        <ele>2709</ele>
        <time>2017-06-07T14:32:38Z</time>
      </trkpt>
      <trkpt lat="44.14985" lon="6.96092">
        <ele>2709</ele>
        <time>2017-06-07T14:32:54Z</time>
      </trkpt>
      <trkpt lat="44.14987" lon="6.9609">
        <ele>2711</ele>
        <time>2017-06-07T14:32:54Z</time>
      </trkpt>
      <trkpt lat="44.14987" lon="6.96083">
        <ele>2711</ele>
        <time>2017-06-07T14:32:54Z</time>
      </trkpt>
      <trkpt lat="44.14987" lon="6.96077">
        <ele>2711</ele>
        <time>2017-06-07T14:32:54Z</time>
      </trkpt>
      <trkpt lat="44.14988" lon="6.96073">
        <ele>2711</ele>
        <time>2017-06-07T14:33:08Z</time>
      </trkpt>
      <trkpt lat="44.14989" lon="6.96064">
        <ele>2710</ele>
        <time>2017-06-07T14:33:08Z</time>
      </trkpt>
      <trkpt lat="44.1499" lon="6.96062">
        <ele>2710</ele>
        <time>2017-06-07T14:33:08Z</time>
      </trkpt>
      <trkpt lat="44.14989" lon="6.96057">
        <ele>2710</ele>
        <time>2017-06-07T14:33:09Z</time>
      </trkpt>
      <trkpt lat="44.14988" lon="6.96051">
        <ele>2710</ele>
        <time>2017-06-07T14:33:25Z</time>
      </trkpt>
      <trkpt lat="44.14988" lon="6.96044">
        <ele>2710</ele>
        <time>2017-06-07T14:33:26Z</time>
      </trkpt>
      <trkpt lat="44.14987" lon="6.9604">
        <ele>2711</ele>
        <time>2017-06-07T14:33:26Z</time>
      </trkpt>
      <trkpt lat="44.14986" lon="6.96034">
        <ele>2704</ele>
        <time>2017-06-07T14:33:26Z</time>
      </trkpt>
      <trkpt lat="44.14985" lon="6.96031">
        <ele>2704</ele>
        <time>2017-06-07T14:33:42Z</time>
      </trkpt>
      <trkpt lat="44.14984" lon="6.96026">
        <ele>2704</ele>
        <time>2017-06-07T14:33:42Z</time>
      </trkpt>
      <trkpt lat="44.14983" lon="6.96015">
        <ele>2704</ele>
        <time>2017-06-07T14:33:42Z</time>
      </trkpt>
      <trkpt lat="44.14982" lon="6.96011">
        <ele>2702</ele>
        <time>2017-06-07T14:33:42Z</time>
      </trkpt>
      <trkpt lat="44.14981" lon="6.96009">
        <ele>2702</ele>
        <time>2017-06-07T14:33:59Z</time>
      </trkpt>
      <trkpt lat="44.14979" lon="6.96001">
        <ele>2702</ele>
        <time>2017-06-07T14:33:59Z</time>
      </trkpt>
      <trkpt lat="44.14979" lon="6.95997">
        <ele>2702</ele>
        <time>2017-06-07T14:34:00Z</time>
      </trkpt>
      <trkpt lat="44.14979" lon="6.9599">
        <ele>2702</ele>
        <time>2017-06-07T14:34:00Z</time>
      </trkpt>
      <trkpt lat="44.14976" lon="6.95992">
        <ele>2702</ele>
        <time>2017-06-07T14:34:30Z</time>
      </trkpt>
      <trkpt lat="44.14975" lon="6.95987">
        <ele>2702</ele>
        <time>2017-06-07T14:34:30Z</time>
      </trkpt>
      <trkpt lat="44.14975" lon="6.95983">
        <ele>2703</ele>
        <time>2017-06-07T14:34:30Z</time>
      </trkpt>
      <trkpt lat="44.14973" lon="6.95979">
        <ele>2703</ele>
        <time>2017-06-07T14:34:30Z</time>
      </trkpt>
      <trkpt lat="44.14973" lon="6.95974">
        <ele>2703</ele>
        <time>2017-06-07T14:34:30Z</time>
      </trkpt>
      <trkpt lat="44.14972" lon="6.9597">
        <ele>2703</ele>
        <time>2017-06-07T14:34:46Z</time>
      </trkpt>
      <trkpt lat="44.1497" lon="6.95962">
        <ele>2703</ele>
        <time>2017-06-07T14:34:46Z</time>
      </trkpt>
      <trkpt lat="44.14969" lon="6.95958">
        <ele>2704</ele>
        <time>2017-06-07T14:34:46Z</time>
      </trkpt>
      <trkpt lat="44.14968" lon="6.95954">
        <ele>2704</ele>
        <time>2017-06-07T14:34:46Z</time>
      </trkpt>
      <trkpt lat="44.14967" lon="6.95949">
        <ele>2704</ele>
        <time>2017-06-07T14:35:01Z</time>
      </trkpt>
      <trkpt lat="44.14965" lon="6.95943">
        <ele>2704</ele>
        <time>2017-06-07T14:35:01Z</time>
      </trkpt>
      <trkpt lat="44.14964" lon="6.95939">
        <ele>2704</ele>
        <time>2017-06-07T14:35:01Z</time>
      </trkpt>
      <trkpt lat="44.14964" lon="6.95935">
        <ele>2704</ele>
        <time>2017-06-07T14:35:01Z</time>
      </trkpt>
      <trkpt lat="44.14963" lon="6.95932">
        <ele>2704</ele>
        <time>2017-06-07T14:35:22Z</time>
      </trkpt>
      <trkpt lat="44.14962" lon="6.95927">
        <ele>2703</ele>
        <time>2017-06-07T14:35:23Z</time>
      </trkpt>
      <trkpt lat="44.1496" lon="6.95926">
        <ele>2703</ele>
        <time>2017-06-07T14:35:23Z</time>
      </trkpt>
      <trkpt lat="44.14958" lon="6.95925">
        <ele>2703</ele>
        <time>2017-06-07T14:35:23Z</time>
      </trkpt>
      <trkpt lat="44.14956" lon="6.9592">
        <ele>2699</ele>
        <time>2017-06-07T14:35:23Z</time>
      </trkpt>
      <trkpt lat="44.14956" lon="6.95919">
        <ele>2699</ele>
        <time>2017-06-07T14:35:36Z</time>
      </trkpt>
      <trkpt lat="44.14951" lon="6.95912">
        <ele>2699</ele>
        <time>2017-06-07T14:35:36Z</time>
      </trkpt>
      <trkpt lat="44.14947" lon="6.95911">
        <ele>2699</ele>
        <time>2017-06-07T14:35:37Z</time>
      </trkpt>
      <trkpt lat="44.14942" lon="6.95909">
        <ele>2699</ele>
        <time>2017-06-07T14:35:37Z</time>
      </trkpt>
      <trkpt lat="44.1494" lon="6.95905">
        <ele>2699</ele>
        <time>2017-06-07T14:35:52Z</time>
      </trkpt>
      <trkpt lat="44.14939" lon="6.959">
        <ele>2694</ele>
        <time>2017-06-07T14:35:52Z</time>
      </trkpt>
      <trkpt lat="44.14937" lon="6.95895">
        <ele>2694</ele>
        <time>2017-06-07T14:35:53Z</time>
      </trkpt>
      <trkpt lat="44.14936" lon="6.95891">
        <ele>2694</ele>
        <time>2017-06-07T14:35:53Z</time>
      </trkpt>
      <trkpt lat="44.14932" lon="6.95889">
        <ele>2694</ele>
        <time>2017-06-07T14:36:10Z</time>
      </trkpt>
      <trkpt lat="44.14929" lon="6.95886">
        <ele>2686</ele>
        <time>2017-06-07T14:36:10Z</time>
      </trkpt>
      <trkpt lat="44.14927" lon="6.95882">
        <ele>2686</ele>
        <time>2017-06-07T14:36:10Z</time>
      </trkpt>
      <trkpt lat="44.14924" lon="6.95879">
        <ele>2686</ele>
        <time>2017-06-07T14:36:10Z</time>
      </trkpt>
      <trkpt lat="44.14923" lon="6.95875">
        <ele>2683</ele>
        <time>2017-06-07T14:36:29Z</time>
      </trkpt>
      <trkpt lat="44.1492" lon="6.95869">
        <ele>2683</ele>
        <time>2017-06-07T14:36:29Z</time>
      </trkpt>
      <trkpt lat="44.1492" lon="6.95868">
        <ele>2683</ele>
        <time>2017-06-07T14:36:29Z</time>
      </trkpt>
      <trkpt lat="44.14917" lon="6.95867">
        <ele>2683</ele>
        <time>2017-06-07T14:36:30Z</time>
      </trkpt>
      <trkpt lat="44.14917" lon="6.95865">
        <ele>2683</ele>
        <time>2017-06-07T14:36:30Z</time>
      </trkpt>
      <trkpt lat="44.14917" lon="6.95862">
        <ele>2683</ele>
        <time>2017-06-07T14:36:46Z</time>
      </trkpt>
      <trkpt lat="44.1491" lon="6.95854">
        <ele>2683</ele>
        <time>2017-06-07T14:36:46Z</time>
      </trkpt>
      <trkpt lat="44.14908" lon="6.9585">
        <ele>2683</ele>
        <time>2017-06-07T14:36:46Z</time>
      </trkpt>
      <trkpt lat="44.14909" lon="6.95848">
        <ele>2683</ele>
        <time>2017-06-07T14:36:46Z</time>
      </trkpt>
      <trkpt lat="44.14908" lon="6.95847">
        <ele>2680</ele>
        <time>2017-06-07T14:37:03Z</time>
      </trkpt>
      <trkpt lat="44.14908" lon="6.95846">
        <ele>2680</ele>
        <time>2017-06-07T14:37:03Z</time>
      </trkpt>
      <trkpt lat="44.14905" lon="6.95842">
        <ele>2680</ele>
        <time>2017-06-07T14:37:03Z</time>
      </trkpt>
      <trkpt lat="44.14898" lon="6.95836">
        <ele>2676</ele>
        <time>2017-06-07T14:37:03Z</time>
      </trkpt>
      <trkpt lat="44.14897" lon="6.95835">
        <ele>2676</ele>
        <time>2017-06-07T14:37:18Z</time>
      </trkpt>
      <trkpt lat="44.14894" lon="6.95835">
        <ele>2676</ele>
        <time>2017-06-07T14:37:18Z</time>
      </trkpt>
      <trkpt lat="44.14892" lon="6.95831">
        <ele>2676</ele>
        <time>2017-06-07T14:37:18Z</time>
      </trkpt>
      <trkpt lat="44.14889" lon="6.95829">
        <ele>2676</ele>
        <time>2017-06-07T14:37:18Z</time>
      </trkpt>
      <trkpt lat="44.14887" lon="6.95826">
        <ele>2676</ele>
        <time>2017-06-07T14:37:32Z</time>
      </trkpt>
      <trkpt lat="44.14888" lon="6.95819">
        <ele>2674</ele>
        <time>2017-06-07T14:37:32Z</time>
      </trkpt>
      <trkpt lat="44.14893" lon="6.95815">
        <ele>2674</ele>
        <time>2017-06-07T14:37:33Z</time>
      </trkpt>
      <trkpt lat="44.14899" lon="6.95814">
        <ele>2674</ele>
        <time>2017-06-07T14:37:33Z</time>
      </trkpt>
      <trkpt lat="44.14903" lon="6.9581">
        <ele>2677</ele>
        <time>2017-06-07T14:38:06Z</time>
      </trkpt>
      <trkpt lat="44.149" lon="6.95807">
        <ele>2674</ele>
        <time>2017-06-07T14:38:06Z</time>
      </trkpt>
      <trkpt lat="44.14898" lon="6.95807">
        <ele>2674</ele>
        <time>2017-06-07T14:38:07Z</time>
      </trkpt>
      <trkpt lat="44.14893" lon="6.95802">
        <ele>2674</ele>
        <time>2017-06-07T14:38:07Z</time>
      </trkpt>
      <trkpt lat="44.1489" lon="6.95796">
        <ele>2674</ele>
        <time>2017-06-07T14:38:07Z</time>
      </trkpt>
      <trkpt lat="44.14889" lon="6.95794">
        <ele>2674</ele>
        <time>2017-06-07T14:38:26Z</time>
      </trkpt>
      <trkpt lat="44.14885" lon="6.95791">
        <ele>2670</ele>
        <time>2017-06-07T14:38:26Z</time>
      </trkpt>
      <trkpt lat="44.14884" lon="6.95789">
        <ele>2670</ele>
        <time>2017-06-07T14:38:26Z</time>
      </trkpt>
      <trkpt lat="44.14884" lon="6.95787">
        <ele>2670</ele>
        <time>2017-06-07T14:38:26Z</time>
      </trkpt>
      <trkpt lat="44.1488" lon="6.95783">
        <ele>2670</ele>
        <time>2017-06-07T14:38:26Z</time>
      </trkpt>
      <trkpt lat="44.14877" lon="6.9578">
        <ele>2670</ele>
        <time>2017-06-07T14:38:42Z</time>
      </trkpt>
      <trkpt lat="44.14871" lon="6.95776">
        <ele>2670</ele>
        <time>2017-06-07T14:38:42Z</time>
      </trkpt>
      <trkpt lat="44.14871" lon="6.95774">
        <ele>2670</ele>
        <time>2017-06-07T14:38:42Z</time>
      </trkpt>
      <trkpt lat="44.1487" lon="6.95771">
        <ele>2670</ele>
        <time>2017-06-07T14:38:42Z</time>
      </trkpt>
      <trkpt lat="44.14868" lon="6.9577">
        <ele>2670</ele>
        <time>2017-06-07T14:38:59Z</time>
      </trkpt>
      <trkpt lat="44.14868" lon="6.95769">
        <ele>2670</ele>
        <time>2017-06-07T14:38:59Z</time>
      </trkpt>
      <trkpt lat="44.14869" lon="6.95764">
        <ele>2664</ele>
        <time>2017-06-07T14:38:59Z</time>
      </trkpt>
      <trkpt lat="44.14871" lon="6.95758">
        <ele>2664</ele>
        <time>2017-06-07T14:38:59Z</time>
      </trkpt>
      <trkpt lat="44.14872" lon="6.95753">
        <ele>2664</ele>
        <time>2017-06-07T14:39:22Z</time>
      </trkpt>
      <trkpt lat="44.14872" lon="6.95751">
        <ele>2664</ele>
        <time>2017-06-07T14:39:22Z</time>
      </trkpt>
      <trkpt lat="44.1487" lon="6.95748">
        <ele>2664</ele>
        <time>2017-06-07T14:39:22Z</time>
      </trkpt>
      <trkpt lat="44.14869" lon="6.95746">
        <ele>2664</ele>
        <time>2017-06-07T14:39:22Z</time>
      </trkpt>
      <trkpt lat="44.14868" lon="6.95745">
        <ele>2664</ele>
        <time>2017-06-07T14:39:22Z</time>
      </trkpt>
      <trkpt lat="44.14869" lon="6.95741">
        <ele>2664</ele>
        <time>2017-06-07T14:39:39Z</time>
      </trkpt>
      <trkpt lat="44.14869" lon="6.95732">
        <ele>2656</ele>
        <time>2017-06-07T14:39:39Z</time>
      </trkpt>
      <trkpt lat="44.14868" lon="6.95732">
        <ele>2656</ele>
        <time>2017-06-07T14:39:40Z</time>
      </trkpt>
      <trkpt lat="44.14868" lon="6.95727">
        <ele>2656</ele>
        <time>2017-06-07T14:39:40Z</time>
      </trkpt>
      <trkpt lat="44.14867" lon="6.95724">
        <ele>2656</ele>
        <time>2017-06-07T14:39:55Z</time>
      </trkpt>
      <trkpt lat="44.14868" lon="6.95717">
        <ele>2656</ele>
        <time>2017-06-07T14:39:55Z</time>
      </trkpt>
      <trkpt lat="44.14869" lon="6.95712">
        <ele>2656</ele>
        <time>2017-06-07T14:39:55Z</time>
      </trkpt>
      <trkpt lat="44.14871" lon="6.95707">
        <ele>2650</ele>
        <time>2017-06-07T14:39:55Z</time>
      </trkpt>
      <trkpt lat="44.14871" lon="6.95702">
        <ele>2650</ele>
        <time>2017-06-07T14:40:22Z</time>
      </trkpt>
      <trkpt lat="44.14874" lon="6.95694">
        <ele>2650</ele>
        <time>2017-06-07T14:40:22Z</time>
      </trkpt>
      <trkpt lat="44.14875" lon="6.95689">
        <ele>2652</ele>
        <time>2017-06-07T14:40:22Z</time>
      </trkpt>
      <trkpt lat="44.14875" lon="6.95683">
        <ele>2650</ele>
        <time>2017-06-07T14:40:22Z</time>
      </trkpt>
      <trkpt lat="44.14875" lon="6.95679">
        <ele>2645</ele>
        <time>2017-06-07T14:40:22Z</time>
      </trkpt>
      <trkpt lat="44.14876" lon="6.95675">
        <ele>2648</ele>
        <time>2017-06-07T14:40:41Z</time>
      </trkpt>
      <trkpt lat="44.14878" lon="6.95673">
        <ele>2648</ele>
        <time>2017-06-07T14:40:41Z</time>
      </trkpt>
      <trkpt lat="44.14879" lon="6.95669">
        <ele>2648</ele>
        <time>2017-06-07T14:40:41Z</time>
      </trkpt>
      <trkpt lat="44.1488" lon="6.95666">
        <ele>2648</ele>
        <time>2017-06-07T14:40:42Z</time>
      </trkpt>
      <trkpt lat="44.1488" lon="6.95659">
        <ele>2648</ele>
        <time>2017-06-07T14:40:42Z</time>
      </trkpt>
      <trkpt lat="44.14881" lon="6.95654">
        <ele>2648</ele>
        <time>2017-06-07T14:40:58Z</time>
      </trkpt>
      <trkpt lat="44.14881" lon="6.95647">
        <ele>2644</ele>
        <time>2017-06-07T14:40:58Z</time>
      </trkpt>
      <trkpt lat="44.14881" lon="6.95643">
        <ele>2644</ele>
        <time>2017-06-07T14:40:58Z</time>
      </trkpt>
      <trkpt lat="44.14878" lon="6.95636">
        <ele>2644</ele>
        <time>2017-06-07T14:40:58Z</time>
      </trkpt>
      <trkpt lat="44.14878" lon="6.95632">
        <ele>2644</ele>
        <time>2017-06-07T14:41:14Z</time>
      </trkpt>
      <trkpt lat="44.14876" lon="6.95621">
        <ele>2643</ele>
        <time>2017-06-07T14:41:14Z</time>
      </trkpt>
      <trkpt lat="44.14876" lon="6.95617">
        <ele>2643</ele>
        <time>2017-06-07T14:41:14Z</time>
      </trkpt>
      <trkpt lat="44.14875" lon="6.95611">
        <ele>2638</ele>
        <time>2017-06-07T14:41:14Z</time>
      </trkpt>
      <trkpt lat="44.14875" lon="6.95608">
        <ele>2638</ele>
        <time>2017-06-07T14:41:30Z</time>
      </trkpt>
      <trkpt lat="44.14873" lon="6.95603">
        <ele>2638</ele>
        <time>2017-06-07T14:41:30Z</time>
      </trkpt>
      <trkpt lat="44.14871" lon="6.956">
        <ele>2638</ele>
        <time>2017-06-07T14:41:30Z</time>
      </trkpt>
      <trkpt lat="44.14867" lon="6.95593">
        <ele>2640</ele>
        <time>2017-06-07T14:41:30Z</time>
      </trkpt>
      <trkpt lat="44.14864" lon="6.95588">
        <ele>2640</ele>
        <time>2017-06-07T14:41:46Z</time>
      </trkpt>
      <trkpt lat="44.14861" lon="6.95583">
        <ele>2640</ele>
        <time>2017-06-07T14:41:46Z</time>
      </trkpt>
      <trkpt lat="44.14858" lon="6.9558">
        <ele>2640</ele>
        <time>2017-06-07T14:41:46Z</time>
      </trkpt>
      <trkpt lat="44.14854" lon="6.95575">
        <ele>2640</ele>
        <time>2017-06-07T14:41:47Z</time>
      </trkpt>
      <trkpt lat="44.14854" lon="6.95572">
        <ele>2640</ele>
        <time>2017-06-07T14:42:01Z</time>
      </trkpt>
      <trkpt lat="44.14851" lon="6.95568">
        <ele>2643</ele>
        <time>2017-06-07T14:42:01Z</time>
      </trkpt>
      <trkpt lat="44.14847" lon="6.95565">
        <ele>2639</ele>
        <time>2017-06-07T14:42:01Z</time>
      </trkpt>
      <trkpt lat="44.14843" lon="6.95561">
        <ele>2639</ele>
        <time>2017-06-07T14:42:01Z</time>
      </trkpt>
      <trkpt lat="44.14841" lon="6.95558">
        <ele>2639</ele>
        <time>2017-06-07T14:42:18Z</time>
      </trkpt>
      <trkpt lat="44.14838" lon="6.9555">
        <ele>2639</ele>
        <time>2017-06-07T14:42:18Z</time>
      </trkpt>
      <trkpt lat="44.14836" lon="6.95547">
        <ele>2639</ele>
        <time>2017-06-07T14:42:18Z</time>
      </trkpt>
      <trkpt lat="44.14833" lon="6.95542">
        <ele>2639</ele>
        <time>2017-06-07T14:42:18Z</time>
      </trkpt>
      <trkpt lat="44.14832" lon="6.9554">
        <ele>2643</ele>
        <time>2017-06-07T14:42:32Z</time>
      </trkpt>
      <trkpt lat="44.14832" lon="6.95536">
        <ele>2643</ele>
        <time>2017-06-07T14:42:32Z</time>
      </trkpt>
      <trkpt lat="44.14829" lon="6.95531">
        <ele>2643</ele>
        <time>2017-06-07T14:42:32Z</time>
      </trkpt>
      <trkpt lat="44.14827" lon="6.95524">
        <ele>2643</ele>
        <time>2017-06-07T14:42:32Z</time>
      </trkpt>
      <trkpt lat="44.14825" lon="6.95523">
        <ele>2643</ele>
        <time>2017-06-07T14:42:48Z</time>
      </trkpt>
      <trkpt lat="44.14823" lon="6.95516">
        <ele>2643</ele>
        <time>2017-06-07T14:42:48Z</time>
      </trkpt>
      <trkpt lat="44.14822" lon="6.95511">
        <ele>2646</ele>
        <time>2017-06-07T14:42:48Z</time>
      </trkpt>
      <trkpt lat="44.14822" lon="6.95506">
        <ele>2646</ele>
        <time>2017-06-07T14:42:48Z</time>
      </trkpt>
      <trkpt lat="44.14821" lon="6.95499">
        <ele>2646</ele>
        <time>2017-06-07T14:43:06Z</time>
      </trkpt>
      <trkpt lat="44.14822" lon="6.95493">
        <ele>2646</ele>
        <time>2017-06-07T14:43:06Z</time>
      </trkpt>
      <trkpt lat="44.14822" lon="6.9549">
        <ele>2646</ele>
        <time>2017-06-07T14:43:06Z</time>
      </trkpt>
      <trkpt lat="44.1482" lon="6.95483">
        <ele>2644</ele>
        <time>2017-06-07T14:43:06Z</time>
      </trkpt>
      <trkpt lat="44.14818" lon="6.95479">
        <ele>2637</ele>
        <time>2017-06-07T14:43:22Z</time>
      </trkpt>
      <trkpt lat="44.14816" lon="6.95467">
        <ele>2637</ele>
        <time>2017-06-07T14:43:22Z</time>
      </trkpt>
      <trkpt lat="44.14814" lon="6.95462">
        <ele>2637</ele>
        <time>2017-06-07T14:43:22Z</time>
      </trkpt>
      <trkpt lat="44.14812" lon="6.95455">
        <ele>2637</ele>
        <time>2017-06-07T14:43:22Z</time>
      </trkpt>
      <trkpt lat="44.14811" lon="6.9545">
        <ele>2637</ele>
        <time>2017-06-07T14:43:38Z</time>
      </trkpt>
      <trkpt lat="44.14809" lon="6.95444">
        <ele>2637</ele>
        <time>2017-06-07T14:43:38Z</time>
      </trkpt>
      <trkpt lat="44.14806" lon="6.95439">
        <ele>2637</ele>
        <time>2017-06-07T14:43:38Z</time>
      </trkpt>
      <trkpt lat="44.14803" lon="6.95432">
        <ele>2637</ele>
        <time>2017-06-07T14:43:38Z</time>
      </trkpt>
      <trkpt lat="44.14799" lon="6.95428">
        <ele>2633</ele>
        <time>2017-06-07T14:43:54Z</time>
      </trkpt>
      <trkpt lat="44.14794" lon="6.95423">
        <ele>2633</ele>
        <time>2017-06-07T14:43:54Z</time>
      </trkpt>
      <trkpt lat="44.14792" lon="6.95421">
        <ele>2633</ele>
        <time>2017-06-07T14:43:54Z</time>
      </trkpt>
      <trkpt lat="44.14788" lon="6.95415">
        <ele>2630</ele>
        <time>2017-06-07T14:43:54Z</time>
      </trkpt>
      <trkpt lat="44.14788" lon="6.95413">
        <ele>2630</ele>
        <time>2017-06-07T14:44:10Z</time>
      </trkpt>
      <trkpt lat="44.14784" lon="6.9541">
        <ele>2630</ele>
        <time>2017-06-07T14:44:10Z</time>
      </trkpt>
      <trkpt lat="44.14783" lon="6.95408">
        <ele>2630</ele>
        <time>2017-06-07T14:44:10Z</time>
      </trkpt>
      <trkpt lat="44.1478" lon="6.95406">
        <ele>2630</ele>
        <time>2017-06-07T14:44:10Z</time>
      </trkpt>
      <trkpt lat="44.14778" lon="6.95405">
        <ele>2630</ele>
        <time>2017-06-07T14:44:25Z</time>
      </trkpt>
      <trkpt lat="44.14775" lon="6.95403">
        <ele>2624</ele>
        <time>2017-06-07T14:44:26Z</time>
      </trkpt>
      <trkpt lat="44.14771" lon="6.95396">
        <ele>2624</ele>
        <time>2017-06-07T14:44:26Z</time>
      </trkpt>
      <trkpt lat="44.1477" lon="6.95393">
        <ele>2624</ele>
        <time>2017-06-07T14:44:26Z</time>
      </trkpt>
      <trkpt lat="44.14769" lon="6.95394">
        <ele>2624</ele>
        <time>2017-06-07T14:44:45Z</time>
      </trkpt>
      <trkpt lat="44.14765" lon="6.95391">
        <ele>2624</ele>
        <time>2017-06-07T14:44:46Z</time>
      </trkpt>
      <trkpt lat="44.14764" lon="6.95389">
        <ele>2624</ele>
        <time>2017-06-07T14:44:46Z</time>
      </trkpt>
      <trkpt lat="44.14762" lon="6.95389">
        <ele>2619</ele>
        <time>2017-06-07T14:44:46Z</time>
      </trkpt>
      <trkpt lat="44.14759" lon="6.95388">
        <ele>2619</ele>
        <time>2017-06-07T14:44:47Z</time>
      </trkpt>
      <trkpt lat="44.14752" lon="6.95388">
        <ele>2619</ele>
        <time>2017-06-07T14:45:20Z</time>
      </trkpt>
      <trkpt lat="44.14751" lon="6.95386">
        <ele>2619</ele>
        <time>2017-06-07T14:45:21Z</time>
      </trkpt>
      <trkpt lat="44.14751" lon="6.95388">
        <ele>2619</ele>
        <time>2017-06-07T14:45:21Z</time>
      </trkpt>
      <trkpt lat="44.1475" lon="6.95389">
        <ele>2619</ele>
        <time>2017-06-07T14:45:21Z</time>
      </trkpt>
      <trkpt lat="44.14747" lon="6.95388">
        <ele>2619</ele>
        <time>2017-06-07T14:45:21Z</time>
      </trkpt>
      <trkpt lat="44.14737" lon="6.95384">
        <ele>2619</ele>
        <time>2017-06-07T14:45:54Z</time>
      </trkpt>
      <trkpt lat="44.14734" lon="6.95384">
        <ele>2607</ele>
        <time>2017-06-07T14:45:54Z</time>
      </trkpt>
      <trkpt lat="44.14732" lon="6.95381">
        <ele>2607</ele>
        <time>2017-06-07T14:45:55Z</time>
      </trkpt>
      <trkpt lat="44.14729" lon="6.95378">
        <ele>2607</ele>
        <time>2017-06-07T14:45:55Z</time>
      </trkpt>
      <trkpt lat="44.14728" lon="6.95376">
        <ele>2607</ele>
        <time>2017-06-07T14:45:55Z</time>
      </trkpt>
      <trkpt lat="44.14726" lon="6.95376">
        <ele>2607</ele>
        <time>2017-06-07T14:46:14Z</time>
      </trkpt>
      <trkpt lat="44.14723" lon="6.95374">
        <ele>2600</ele>
        <time>2017-06-07T14:46:14Z</time>
      </trkpt>
      <trkpt lat="44.14721" lon="6.95374">
        <ele>2600</ele>
        <time>2017-06-07T14:46:14Z</time>
      </trkpt>
      <trkpt lat="44.14718" lon="6.95371">
        <ele>2600</ele>
        <time>2017-06-07T14:46:14Z</time>
      </trkpt>
      <trkpt lat="44.14714" lon="6.95371">
        <ele>2600</ele>
        <time>2017-06-07T14:46:14Z</time>
      </trkpt>
      <trkpt lat="44.14712" lon="6.9537">
        <ele>2600</ele>
        <time>2017-06-07T14:46:28Z</time>
      </trkpt>
      <trkpt lat="44.1471" lon="6.95368">
        <ele>2600</ele>
        <time>2017-06-07T14:46:28Z</time>
      </trkpt>
      <trkpt lat="44.14707" lon="6.95368">
        <ele>2595</ele>
        <time>2017-06-07T14:46:28Z</time>
      </trkpt>
      <trkpt lat="44.14702" lon="6.95366">
        <ele>2595</ele>
        <time>2017-06-07T14:46:28Z</time>
      </trkpt>
      <trkpt lat="44.14698" lon="6.9536">
        <ele>2595</ele>
        <time>2017-06-07T14:46:58Z</time>
      </trkpt>
      <trkpt lat="44.14695" lon="6.95363">
        <ele>2595</ele>
        <time>2017-06-07T14:46:58Z</time>
      </trkpt>
      <trkpt lat="44.14693" lon="6.95362">
        <ele>2595</ele>
        <time>2017-06-07T14:46:59Z</time>
      </trkpt>
      <trkpt lat="44.14692" lon="6.95359">
        <ele>2595</ele>
        <time>2017-06-07T14:46:59Z</time>
      </trkpt>
      <trkpt lat="44.14689" lon="6.95361">
        <ele>2595</ele>
        <time>2017-06-07T14:46:59Z</time>
      </trkpt>
      <trkpt lat="44.14682" lon="6.95353">
        <ele>2595</ele>
        <time>2017-06-07T14:47:34Z</time>
      </trkpt>
      <trkpt lat="44.14681" lon="6.95354">
        <ele>2595</ele>
        <time>2017-06-07T14:47:34Z</time>
      </trkpt>
      <trkpt lat="44.14677" lon="6.95353">
        <ele>2590</ele>
        <time>2017-06-07T14:47:34Z</time>
      </trkpt>
      <trkpt lat="44.14673" lon="6.95351">
        <ele>2590</ele>
        <time>2017-06-07T14:47:34Z</time>
      </trkpt>
      <trkpt lat="44.14669" lon="6.95349">
        <ele>2590</ele>
        <time>2017-06-07T14:47:34Z</time>
      </trkpt>
      <trkpt lat="44.14667" lon="6.95347">
        <ele>2590</ele>
        <time>2017-06-07T14:47:48Z</time>
      </trkpt>
      <trkpt lat="44.14659" lon="6.95342">
        <ele>2590</ele>
        <time>2017-06-07T14:47:48Z</time>
      </trkpt>
      <trkpt lat="44.14656" lon="6.9534">
        <ele>2590</ele>
        <time>2017-06-07T14:47:48Z</time>
      </trkpt>
      <trkpt lat="44.14653" lon="6.95338">
        <ele>2590</ele>
        <time>2017-06-07T14:47:48Z</time>
      </trkpt>
      <trkpt lat="44.14648" lon="6.95338">
        <ele>2586</ele>
        <time>2017-06-07T14:48:05Z</time>
      </trkpt>
      <trkpt lat="44.14646" lon="6.95338">
        <ele>2586</ele>
        <time>2017-06-07T14:48:05Z</time>
      </trkpt>
      <trkpt lat="44.14642" lon="6.95339">
        <ele>2586</ele>
        <time>2017-06-07T14:48:05Z</time>
      </trkpt>
      <trkpt lat="44.14639" lon="6.95342">
        <ele>2586</ele>
        <time>2017-06-07T14:48:05Z</time>
      </trkpt>
      <trkpt lat="44.14638" lon="6.95344">
        <ele>2586</ele>
        <time>2017-06-07T14:48:26Z</time>
      </trkpt>
      <trkpt lat="44.14636" lon="6.9534">
        <ele>2586</ele>
        <time>2017-06-07T14:48:26Z</time>
      </trkpt>
      <trkpt lat="44.14634" lon="6.95338">
        <ele>2586</ele>
        <time>2017-06-07T14:48:26Z</time>
      </trkpt>
      <trkpt lat="44.14631" lon="6.95339">
        <ele>2586</ele>
        <time>2017-06-07T14:48:26Z</time>
      </trkpt>
      <trkpt lat="44.14627" lon="6.95341">
        <ele>2586</ele>
        <time>2017-06-07T14:48:26Z</time>
      </trkpt>
      <trkpt lat="44.14626" lon="6.95339">
        <ele>2586</ele>
        <time>2017-06-07T14:48:42Z</time>
      </trkpt>
      <trkpt lat="44.14621" lon="6.95335">
        <ele>2584</ele>
        <time>2017-06-07T14:48:42Z</time>
      </trkpt>
      <trkpt lat="44.1462" lon="6.95335">
        <ele>2584</ele>
        <time>2017-06-07T14:48:43Z</time>
      </trkpt>
      <trkpt lat="44.14616" lon="6.95334">
        <ele>2584</ele>
        <time>2017-06-07T14:48:43Z</time>
      </trkpt>
      <trkpt lat="44.14615" lon="6.95334">
        <ele>2584</ele>
        <time>2017-06-07T14:48:58Z</time>
      </trkpt>
      <trkpt lat="44.14613" lon="6.95337">
        <ele>2584</ele>
        <time>2017-06-07T14:48:58Z</time>
      </trkpt>
      <trkpt lat="44.14608" lon="6.95339">
        <ele>2584</ele>
        <time>2017-06-07T14:48:58Z</time>
      </trkpt>
      <trkpt lat="44.14605" lon="6.95339">
        <ele>2584</ele>
        <time>2017-06-07T14:48:58Z</time>
      </trkpt>
      <trkpt lat="44.14602" lon="6.95338">
        <ele>2584</ele>
        <time>2017-06-07T14:49:14Z</time>
      </trkpt>
      <trkpt lat="44.14598" lon="6.95336">
        <ele>2584</ele>
        <time>2017-06-07T14:49:14Z</time>
      </trkpt>
      <trkpt lat="44.14591" lon="6.95338">
        <ele>2577</ele>
        <time>2017-06-07T14:49:14Z</time>
      </trkpt>
      <trkpt lat="44.14589" lon="6.95338">
        <ele>2577</ele>
        <time>2017-06-07T14:49:14Z</time>
      </trkpt>
      <trkpt lat="44.14586" lon="6.95341">
        <ele>2577</ele>
        <time>2017-06-07T14:49:42Z</time>
      </trkpt>
      <trkpt lat="44.14584" lon="6.95342">
        <ele>2577</ele>
        <time>2017-06-07T14:49:42Z</time>
      </trkpt>
      <trkpt lat="44.14582" lon="6.95341">
        <ele>2577</ele>
        <time>2017-06-07T14:49:42Z</time>
      </trkpt>
      <trkpt lat="44.14579" lon="6.95339">
        <ele>2577</ele>
        <time>2017-06-07T14:49:42Z</time>
      </trkpt>
      <trkpt lat="44.14577" lon="6.9534">
        <ele>2577</ele>
        <time>2017-06-07T14:49:43Z</time>
      </trkpt>
      <trkpt lat="44.14577" lon="6.9534">
        <ele>2577</ele>
        <time>2017-06-07T14:50:04Z</time>
      </trkpt>
      <trkpt lat="44.14574" lon="6.95341">
        <ele>2577</ele>
        <time>2017-06-07T14:50:04Z</time>
      </trkpt>
      <trkpt lat="44.14573" lon="6.9534">
        <ele>2577</ele>
        <time>2017-06-07T14:50:04Z</time>
      </trkpt>
      <trkpt lat="44.14569" lon="6.95334">
        <ele>2569</ele>
        <time>2017-06-07T14:50:05Z</time>
      </trkpt>
      <trkpt lat="44.14567" lon="6.95332">
        <ele>2569</ele>
        <time>2017-06-07T14:50:05Z</time>
      </trkpt>
      <trkpt lat="44.14563" lon="6.95335">
        <ele>2569</ele>
        <time>2017-06-07T14:53:01Z</time>
      </trkpt>
      <trkpt lat="44.14562" lon="6.95336">
        <ele>2569</ele>
        <time>2017-06-07T14:53:01Z</time>
      </trkpt>
      <trkpt lat="44.1456" lon="6.95338">
        <ele>2569</ele>
        <time>2017-06-07T14:53:01Z</time>
      </trkpt>
      <trkpt lat="44.14558" lon="6.95337">
        <ele>2569</ele>
        <time>2017-06-07T14:53:01Z</time>
      </trkpt>
      <trkpt lat="44.14555" lon="6.95338">
        <ele>2569</ele>
        <time>2017-06-07T14:53:01Z</time>
      </trkpt>
      <trkpt lat="44.14556" lon="6.95338">
        <ele>2569</ele>
        <time>2017-06-07T14:53:18Z</time>
      </trkpt>
      <trkpt lat="44.1455" lon="6.95339">
        <ele>2569</ele>
        <time>2017-06-07T14:53:18Z</time>
      </trkpt>
      <trkpt lat="44.14547" lon="6.95339">
        <ele>2569</ele>
        <time>2017-06-07T14:53:18Z</time>
      </trkpt>
      <trkpt lat="44.14543" lon="6.95337">
        <ele>2569</ele>
        <time>2017-06-07T14:53:18Z</time>
      </trkpt>
      <trkpt lat="44.1454" lon="6.95337">
        <ele>2568</ele>
        <time>2017-06-07T14:53:38Z</time>
      </trkpt>
      <trkpt lat="44.14534" lon="6.95341">
        <ele>2568</ele>
        <time>2017-06-07T14:53:38Z</time>
      </trkpt>
      <trkpt lat="44.14533" lon="6.95341">
        <ele>2568</ele>
        <time>2017-06-07T14:53:38Z</time>
      </trkpt>
      <trkpt lat="44.14532" lon="6.95338">
        <ele>2568</ele>
        <time>2017-06-07T14:53:38Z</time>
      </trkpt>
      <trkpt lat="44.14527" lon="6.9534">
        <ele>2568</ele>
        <time>2017-06-07T14:53:38Z</time>
      </trkpt>
      <trkpt lat="44.14525" lon="6.95341">
        <ele>2568</ele>
        <time>2017-06-07T14:53:53Z</time>
      </trkpt>
      <trkpt lat="44.14519" lon="6.95337">
        <ele>2568</ele>
        <time>2017-06-07T14:53:53Z</time>
      </trkpt>
      <trkpt lat="44.14518" lon="6.95337">
        <ele>2568</ele>
        <time>2017-06-07T14:53:53Z</time>
      </trkpt>
      <trkpt lat="44.14515" lon="6.95336">
        <ele>2568</ele>
        <time>2017-06-07T14:53:53Z</time>
      </trkpt>
      <trkpt lat="44.14507" lon="6.95338">
        <ele>2570</ele>
        <time>2017-06-07T14:54:24Z</time>
      </trkpt>
      <trkpt lat="44.14507" lon="6.95339">
        <ele>2570</ele>
        <time>2017-06-07T14:54:24Z</time>
      </trkpt>
      <trkpt lat="44.14506" lon="6.95339">
        <ele>2570</ele>
        <time>2017-06-07T14:54:24Z</time>
      </trkpt>
      <trkpt lat="44.14504" lon="6.95338">
        <ele>2570</ele>
        <time>2017-06-07T14:54:25Z</time>
      </trkpt>
      <trkpt lat="44.145" lon="6.9534">
        <ele>2570</ele>
        <time>2017-06-07T14:54:25Z</time>
      </trkpt>
      <trkpt lat="44.14499" lon="6.95338">
        <ele>2570</ele>
        <time>2017-06-07T14:54:40Z</time>
      </trkpt>
      <trkpt lat="44.14497" lon="6.95339">
        <ele>2570</ele>
        <time>2017-06-07T14:54:40Z</time>
      </trkpt>
      <trkpt lat="44.14493" lon="6.95339">
        <ele>2570</ele>
        <time>2017-06-07T14:54:40Z</time>
      </trkpt>
      <trkpt lat="44.1449" lon="6.95339">
        <ele>2570</ele>
        <time>2017-06-07T14:54:41Z</time>
      </trkpt>
      <trkpt lat="44.14486" lon="6.95341">
        <ele>2568</ele>
        <time>2017-06-07T14:54:58Z</time>
      </trkpt>
      <trkpt lat="44.14482" lon="6.95344">
        <ele>2568</ele>
        <time>2017-06-07T14:54:59Z</time>
      </trkpt>
      <trkpt lat="44.14477" lon="6.95346">
        <ele>2568</ele>
        <time>2017-06-07T14:54:59Z</time>
      </trkpt>
      <trkpt lat="44.14474" lon="6.95344">
        <ele>2568</ele>
        <time>2017-06-07T14:54:59Z</time>
      </trkpt>
      <trkpt lat="44.14474" lon="6.95343">
        <ele>2568</ele>
        <time>2017-06-07T14:55:13Z</time>
      </trkpt>
      <trkpt lat="44.14468" lon="6.95342">
        <ele>2568</ele>
        <time>2017-06-07T14:55:13Z</time>
      </trkpt>
      <trkpt lat="44.14467" lon="6.95344">
        <ele>2568</ele>
        <time>2017-06-07T14:55:14Z</time>
      </trkpt>
      <trkpt lat="44.14464" lon="6.95347">
        <ele>2568</ele>
        <time>2017-06-07T14:55:14Z</time>
      </trkpt>
      <trkpt lat="44.14458" lon="6.95351">
        <ele>2551</ele>
        <time>2017-06-07T14:55:34Z</time>
      </trkpt>
      <trkpt lat="44.14454" lon="6.95353">
        <ele>2551</ele>
        <time>2017-06-07T14:55:34Z</time>
      </trkpt>
      <trkpt lat="44.14452" lon="6.95354">
        <ele>2551</ele>
        <time>2017-06-07T14:55:35Z</time>
      </trkpt>
      <trkpt lat="44.1445" lon="6.95354">
        <ele>2551</ele>
        <time>2017-06-07T14:55:35Z</time>
      </trkpt>
      <trkpt lat="44.14448" lon="6.95355">
        <ele>2551</ele>
        <time>2017-06-07T14:55:35Z</time>
      </trkpt>
      <trkpt lat="44.14446" lon="6.95357">
        <ele>2551</ele>
        <time>2017-06-07T14:55:50Z</time>
      </trkpt>
      <trkpt lat="44.1444" lon="6.95358">
        <ele>2551</ele>
        <time>2017-06-07T14:55:50Z</time>
      </trkpt>
      <trkpt lat="44.14435" lon="6.95357">
        <ele>2551</ele>
        <time>2017-06-07T14:55:50Z</time>
      </trkpt>
      <trkpt lat="44.1443" lon="6.95357">
        <ele>2552</ele>
        <time>2017-06-07T14:55:50Z</time>
      </trkpt>
      <trkpt lat="44.14428" lon="6.95358">
        <ele>2552</ele>
        <time>2017-06-07T14:56:05Z</time>
      </trkpt>
      <trkpt lat="44.14423" lon="6.95363">
        <ele>2552</ele>
        <time>2017-06-07T14:56:05Z</time>
      </trkpt>
      <trkpt lat="44.14418" lon="6.95366">
        <ele>2552</ele>
        <time>2017-06-07T14:56:05Z</time>
      </trkpt>
      <trkpt lat="44.14416" lon="6.95367">
        <ele>2552</ele>
        <time>2017-06-07T14:56:05Z</time>
      </trkpt>
      <trkpt lat="44.14415" lon="6.95365">
        <ele>2552</ele>
        <time>2017-06-07T14:56:20Z</time>
      </trkpt>
      <trkpt lat="44.14413" lon="6.95368">
        <ele>2552</ele>
        <time>2017-06-07T14:56:20Z</time>
      </trkpt>
      <trkpt lat="44.14412" lon="6.95371">
        <ele>2552</ele>
        <time>2017-06-07T14:56:20Z</time>
      </trkpt>
      <trkpt lat="44.14407" lon="6.95373">
        <ele>2552</ele>
        <time>2017-06-07T14:56:21Z</time>
      </trkpt>
      <trkpt lat="44.14406" lon="6.95373">
        <ele>2552</ele>
        <time>2017-06-07T14:56:40Z</time>
      </trkpt>
      <trkpt lat="44.14405" lon="6.95374">
        <ele>2552</ele>
        <time>2017-06-07T14:56:41Z</time>
      </trkpt>
      <trkpt lat="44.14402" lon="6.95375">
        <ele>2545</ele>
        <time>2017-06-07T14:56:41Z</time>
      </trkpt>
      <trkpt lat="44.14402" lon="6.9538">
        <ele>2536</ele>
        <time>2017-06-07T14:56:41Z</time>
      </trkpt>
      <trkpt lat="44.14399" lon="6.95383">
        <ele>2536</ele>
        <time>2017-06-07T14:56:41Z</time>
      </trkpt>
      <trkpt lat="44.14397" lon="6.95383">
        <ele>2536</ele>
        <time>2017-06-07T14:56:58Z</time>
      </trkpt>
      <trkpt lat="44.14394" lon="6.95387">
        <ele>2536</ele>
        <time>2017-06-07T14:56:58Z</time>
      </trkpt>
      <trkpt lat="44.1439" lon="6.95389">
        <ele>2536</ele>
        <time>2017-06-07T14:56:58Z</time>
      </trkpt>
      <trkpt lat="44.14384" lon="6.95394">
        <ele>2536</ele>
        <time>2017-06-07T14:56:58Z</time>
      </trkpt>
      <trkpt lat="44.14382" lon="6.95397">
        <ele>2536</ele>
        <time>2017-06-07T14:57:14Z</time>
      </trkpt>
      <trkpt lat="44.14379" lon="6.95398">
        <ele>2536</ele>
        <time>2017-06-07T14:57:14Z</time>
      </trkpt>
      <trkpt lat="44.14376" lon="6.954">
        <ele>2536</ele>
        <time>2017-06-07T14:57:14Z</time>
      </trkpt>
      <trkpt lat="44.14372" lon="6.95403">
        <ele>2527</ele>
        <time>2017-06-07T14:57:14Z</time>
      </trkpt>
      <trkpt lat="44.14371" lon="6.95403">
        <ele>2520</ele>
        <time>2017-06-07T14:57:30Z</time>
      </trkpt>
      <trkpt lat="44.14368" lon="6.95408">
        <ele>2520</ele>
        <time>2017-06-07T14:57:30Z</time>
      </trkpt>
      <trkpt lat="44.14365" lon="6.95414">
        <ele>2520</ele>
        <time>2017-06-07T14:57:30Z</time>
      </trkpt>
      <trkpt lat="44.14363" lon="6.95416">
        <ele>2520</ele>
        <time>2017-06-07T14:57:31Z</time>
      </trkpt>
      <trkpt lat="44.14363" lon="6.95419">
        <ele>2520</ele>
        <time>2017-06-07T14:57:50Z</time>
      </trkpt>
      <trkpt lat="44.1436" lon="6.95418">
        <ele>2520</ele>
        <time>2017-06-07T14:57:50Z</time>
      </trkpt>
      <trkpt lat="44.14359" lon="6.95417">
        <ele>2520</ele>
        <time>2017-06-07T14:57:50Z</time>
      </trkpt>
      <trkpt lat="44.14354" lon="6.9542">
        <ele>2520</ele>
        <time>2017-06-07T14:57:50Z</time>
      </trkpt>
      <trkpt lat="44.14352" lon="6.95423">
        <ele>2520</ele>
        <time>2017-06-07T14:57:50Z</time>
      </trkpt>
      <trkpt lat="44.1435" lon="6.95425">
        <ele>2520</ele>
        <time>2017-06-07T14:58:04Z</time>
      </trkpt>
      <trkpt lat="44.14344" lon="6.95429">
        <ele>2515</ele>
        <time>2017-06-07T14:58:05Z</time>
      </trkpt>
      <trkpt lat="44.14343" lon="6.95429">
        <ele>2515</ele>
        <time>2017-06-07T14:58:05Z</time>
      </trkpt>
      <trkpt lat="44.1434" lon="6.95431">
        <ele>2513</ele>
        <time>2017-06-07T14:58:05Z</time>
      </trkpt>
      <trkpt lat="44.14337" lon="6.95436">
        <ele>2513</ele>
        <time>2017-06-07T14:58:21Z</time>
      </trkpt>
      <trkpt lat="44.14333" lon="6.95437">
        <ele>2513</ele>
        <time>2017-06-07T14:58:21Z</time>
      </trkpt>
      <trkpt lat="44.14328" lon="6.9544">
        <ele>2513</ele>
        <time>2017-06-07T14:58:21Z</time>
      </trkpt>
      <trkpt lat="44.14327" lon="6.95439">
        <ele>2513</ele>
        <time>2017-06-07T14:58:21Z</time>
      </trkpt>
      <trkpt lat="44.14325" lon="6.95439">
        <ele>2513</ele>
        <time>2017-06-07T14:58:38Z</time>
      </trkpt>
      <trkpt lat="44.14321" lon="6.95438">
        <ele>2513</ele>
        <time>2017-06-07T14:58:38Z</time>
      </trkpt>
      <trkpt lat="44.14318" lon="6.95439">
        <ele>2506</ele>
        <time>2017-06-07T14:58:38Z</time>
      </trkpt>
      <trkpt lat="44.14315" lon="6.95443">
        <ele>2506</ele>
        <time>2017-06-07T14:58:38Z</time>
      </trkpt>
      <trkpt lat="44.14312" lon="6.95464">
        <ele>2502</ele>
        <time>2017-06-07T14:59:34Z</time>
      </trkpt>
      <trkpt lat="44.14306" lon="6.95467">
        <ele>2502</ele>
        <time>2017-06-07T14:59:34Z</time>
      </trkpt>
      <trkpt lat="44.14304" lon="6.95469">
        <ele>2502</ele>
        <time>2017-06-07T14:59:34Z</time>
      </trkpt>
      <trkpt lat="44.14302" lon="6.95468">
        <ele>2502</ele>
        <time>2017-06-07T14:59:34Z</time>
      </trkpt>
      <trkpt lat="44.14301" lon="6.9547">
        <ele>2502</ele>
        <time>2017-06-07T14:59:35Z</time>
      </trkpt>
      <trkpt lat="44.14301" lon="6.95469">
        <ele>2502</ele>
        <time>2017-06-07T14:59:50Z</time>
      </trkpt>
      <trkpt lat="44.14293" lon="6.95479">
        <ele>2502</ele>
        <time>2017-06-07T14:59:51Z</time>
      </trkpt>
      <trkpt lat="44.1429" lon="6.95481">
        <ele>2492</ele>
        <time>2017-06-07T14:59:51Z</time>
      </trkpt>
      <trkpt lat="44.14288" lon="6.95481">
        <ele>2492</ele>
        <time>2017-06-07T14:59:51Z</time>
      </trkpt>
      <trkpt lat="44.14288" lon="6.95481">
        <ele>2492</ele>
        <time>2017-06-07T15:00:04Z</time>
      </trkpt>
      <trkpt lat="44.14287" lon="6.95482">
        <ele>2492</ele>
        <time>2017-06-07T15:00:04Z</time>
      </trkpt>
      <trkpt lat="44.14283" lon="6.95486">
        <ele>2492</ele>
        <time>2017-06-07T15:00:04Z</time>
      </trkpt>
      <trkpt lat="44.1428" lon="6.95488">
        <ele>2490</ele>
        <time>2017-06-07T15:00:05Z</time>
      </trkpt>
      <trkpt lat="44.14278" lon="6.95492">
        <ele>2490</ele>
        <time>2017-06-07T15:00:21Z</time>
      </trkpt>
      <trkpt lat="44.14277" lon="6.95494">
        <ele>2490</ele>
        <time>2017-06-07T15:00:21Z</time>
      </trkpt>
      <trkpt lat="44.14275" lon="6.95498">
        <ele>2490</ele>
        <time>2017-06-07T15:00:21Z</time>
      </trkpt>
      <trkpt lat="44.14273" lon="6.95502">
        <ele>2490</ele>
        <time>2017-06-07T15:00:21Z</time>
      </trkpt>
      <trkpt lat="44.14271" lon="6.95504">
        <ele>2490</ele>
        <time>2017-06-07T15:00:38Z</time>
      </trkpt>
      <trkpt lat="44.14266" lon="6.95509">
        <ele>2490</ele>
        <time>2017-06-07T15:00:38Z</time>
      </trkpt>
      <trkpt lat="44.14263" lon="6.95513">
        <ele>2484</ele>
        <time>2017-06-07T15:00:38Z</time>
      </trkpt>
      <trkpt lat="44.14262" lon="6.95515">
        <ele>2485</ele>
        <time>2017-06-07T15:00:38Z</time>
      </trkpt>
      <trkpt lat="44.14261" lon="6.95517">
        <ele>2485</ele>
        <time>2017-06-07T15:00:54Z</time>
      </trkpt>
      <trkpt lat="44.14256" lon="6.95524">
        <ele>2485</ele>
        <time>2017-06-07T15:00:54Z</time>
      </trkpt>
      <trkpt lat="44.14255" lon="6.95527">
        <ele>2485</ele>
        <time>2017-06-07T15:00:54Z</time>
      </trkpt>
      <trkpt lat="44.14251" lon="6.95533">
        <ele>2485</ele>
        <time>2017-06-07T15:00:55Z</time>
      </trkpt>
      <trkpt lat="44.14252" lon="6.95533">
        <ele>2485</ele>
        <time>2017-06-07T15:01:10Z</time>
      </trkpt>
      <trkpt lat="44.1425" lon="6.95537">
        <ele>2485</ele>
        <time>2017-06-07T15:01:10Z</time>
      </trkpt>
      <trkpt lat="44.14248" lon="6.95541">
        <ele>2485</ele>
        <time>2017-06-07T15:01:10Z</time>
      </trkpt>
      <trkpt lat="44.14243" lon="6.95545">
        <ele>2485</ele>
        <time>2017-06-07T15:01:10Z</time>
      </trkpt>
      <trkpt lat="44.14243" lon="6.95547">
        <ele>2485</ele>
        <time>2017-06-07T15:01:26Z</time>
      </trkpt>
      <trkpt lat="44.1424" lon="6.95553">
        <ele>2485</ele>
        <time>2017-06-07T15:01:26Z</time>
      </trkpt>
      <trkpt lat="44.14239" lon="6.95555">
        <ele>2485</ele>
        <time>2017-06-07T15:01:27Z</time>
      </trkpt>
      <trkpt lat="44.14237" lon="6.95559">
        <ele>2485</ele>
        <time>2017-06-07T15:01:27Z</time>
      </trkpt>
      <trkpt lat="44.14233" lon="6.95564">
        <ele>2477</ele>
        <time>2017-06-07T15:02:18Z</time>
      </trkpt>
      <trkpt lat="44.14231" lon="6.95566">
        <ele>2477</ele>
        <time>2017-06-07T15:02:18Z</time>
      </trkpt>
      <trkpt lat="44.14231" lon="6.95568">
        <ele>2477</ele>
        <time>2017-06-07T15:02:18Z</time>
      </trkpt>
      <trkpt lat="44.1423" lon="6.95574">
        <ele>2478</ele>
        <time>2017-06-07T15:02:18Z</time>
      </trkpt>
      <trkpt lat="44.14229" lon="6.9558">
        <ele>2478</ele>
        <time>2017-06-07T15:02:18Z</time>
      </trkpt>
      <trkpt lat="44.14229" lon="6.95582">
        <ele>2478</ele>
        <time>2017-06-07T15:02:34Z</time>
      </trkpt>
      <trkpt lat="44.14223" lon="6.95588">
        <ele>2478</ele>
        <time>2017-06-07T15:02:34Z</time>
      </trkpt>
      <trkpt lat="44.14223" lon="6.9559">
        <ele>2478</ele>
        <time>2017-06-07T15:02:35Z</time>
      </trkpt>
      <trkpt lat="44.14221" lon="6.95597">
        <ele>2478</ele>
        <time>2017-06-07T15:02:35Z</time>
      </trkpt>
      <trkpt lat="44.1422" lon="6.95599">
        <ele>2473</ele>
        <time>2017-06-07T15:02:49Z</time>
      </trkpt>
      <trkpt lat="44.14217" lon="6.95605">
        <ele>2473</ele>
        <time>2017-06-07T15:02:49Z</time>
      </trkpt>
      <trkpt lat="44.14216" lon="6.95609">
        <ele>2473</ele>
        <time>2017-06-07T15:02:49Z</time>
      </trkpt>
      <trkpt lat="44.14214" lon="6.9561">
        <ele>2473</ele>
        <time>2017-06-07T15:02:49Z</time>
      </trkpt>
      <trkpt lat="44.14211" lon="6.95614">
        <ele>2473</ele>
        <time>2017-06-07T15:03:06Z</time>
      </trkpt>
      <trkpt lat="44.14207" lon="6.95617">
        <ele>2470</ele>
        <time>2017-06-07T15:03:06Z</time>
      </trkpt>
      <trkpt lat="44.14206" lon="6.95623">
        <ele>2470</ele>
        <time>2017-06-07T15:03:06Z</time>
      </trkpt>
      <trkpt lat="44.14204" lon="6.95627">
        <ele>2466</ele>
        <time>2017-06-07T15:03:06Z</time>
      </trkpt>
      <trkpt lat="44.14203" lon="6.95632">
        <ele>2466</ele>
        <time>2017-06-07T15:03:23Z</time>
      </trkpt>
      <trkpt lat="44.14198" lon="6.95636">
        <ele>2466</ele>
        <time>2017-06-07T15:03:23Z</time>
      </trkpt>
      <trkpt lat="44.14196" lon="6.95639">
        <ele>2466</ele>
        <time>2017-06-07T15:03:23Z</time>
      </trkpt>
      <trkpt lat="44.14195" lon="6.95643">
        <ele>2466</ele>
        <time>2017-06-07T15:03:24Z</time>
      </trkpt>
      <trkpt lat="44.14194" lon="6.9565">
        <ele>2466</ele>
        <time>2017-06-07T15:03:46Z</time>
      </trkpt>
      <trkpt lat="44.14192" lon="6.9565">
        <ele>2466</ele>
        <time>2017-06-07T15:03:46Z</time>
      </trkpt>
      <trkpt lat="44.14189" lon="6.95654">
        <ele>2459</ele>
        <time>2017-06-07T15:03:46Z</time>
      </trkpt>
      <trkpt lat="44.14188" lon="6.95654">
        <ele>2459</ele>
        <time>2017-06-07T15:03:46Z</time>
      </trkpt>
      <trkpt lat="44.14186" lon="6.95657">
        <ele>2459</ele>
        <time>2017-06-07T15:03:46Z</time>
      </trkpt>
      <trkpt lat="44.14186" lon="6.95657">
        <ele>2459</ele>
        <time>2017-06-07T15:04:02Z</time>
      </trkpt>
      <trkpt lat="44.1418" lon="6.95667">
        <ele>2458</ele>
        <time>2017-06-07T15:04:02Z</time>
      </trkpt>
      <trkpt lat="44.1418" lon="6.9567">
        <ele>2458</ele>
        <time>2017-06-07T15:04:02Z</time>
      </trkpt>
      <trkpt lat="44.14177" lon="6.95671">
        <ele>2458</ele>
        <time>2017-06-07T15:04:02Z</time>
      </trkpt>
      <trkpt lat="44.14177" lon="6.95672">
        <ele>2458</ele>
        <time>2017-06-07T15:04:18Z</time>
      </trkpt>
      <trkpt lat="44.14175" lon="6.95674">
        <ele>2458</ele>
        <time>2017-06-07T15:04:18Z</time>
      </trkpt>
      <trkpt lat="44.14173" lon="6.95679">
        <ele>2458</ele>
        <time>2017-06-07T15:04:18Z</time>
      </trkpt>
      <trkpt lat="44.14169" lon="6.95685">
        <ele>2452</ele>
        <time>2017-06-07T15:04:18Z</time>
      </trkpt>
      <trkpt lat="44.14169" lon="6.95686">
        <ele>2452</ele>
        <time>2017-06-07T15:04:35Z</time>
      </trkpt>
      <trkpt lat="44.14165" lon="6.95691">
        <ele>2452</ele>
        <time>2017-06-07T15:04:35Z</time>
      </trkpt>
      <trkpt lat="44.14165" lon="6.95693">
        <ele>2452</ele>
        <time>2017-06-07T15:04:35Z</time>
      </trkpt>
      <trkpt lat="44.14162" lon="6.95697">
        <ele>2452</ele>
        <time>2017-06-07T15:04:35Z</time>
      </trkpt>
      <trkpt lat="44.14161" lon="6.95698">
        <ele>2452</ele>
        <time>2017-06-07T15:04:50Z</time>
      </trkpt>
      <trkpt lat="44.14157" lon="6.95702">
        <ele>2452</ele>
        <time>2017-06-07T15:04:50Z</time>
      </trkpt>
      <trkpt lat="44.14157" lon="6.95707">
        <ele>2452</ele>
        <time>2017-06-07T15:04:50Z</time>
      </trkpt>
      <trkpt lat="44.14155" lon="6.9571">
        <ele>2450</ele>
        <time>2017-06-07T15:04:50Z</time>
      </trkpt>
      <trkpt lat="44.14154" lon="6.95716">
        <ele>2450</ele>
        <time>2017-06-07T15:05:12Z</time>
      </trkpt>
      <trkpt lat="44.14152" lon="6.95716">
        <ele>2447</ele>
        <time>2017-06-07T15:05:13Z</time>
      </trkpt>
      <trkpt lat="44.14151" lon="6.95719">
        <ele>2447</ele>
        <time>2017-06-07T15:05:13Z</time>
      </trkpt>
      <trkpt lat="44.1415" lon="6.95722">
        <ele>2447</ele>
        <time>2017-06-07T15:05:13Z</time>
      </trkpt>
      <trkpt lat="44.14149" lon="6.9573">
        <ele>2447</ele>
        <time>2017-06-07T15:05:13Z</time>
      </trkpt>
      <trkpt lat="44.14148" lon="6.95735">
        <ele>2447</ele>
        <time>2017-06-07T15:05:31Z</time>
      </trkpt>
      <trkpt lat="44.14147" lon="6.9574">
        <ele>2447</ele>
        <time>2017-06-07T15:05:31Z</time>
      </trkpt>
      <trkpt lat="44.14143" lon="6.95747">
        <ele>2447</ele>
        <time>2017-06-07T15:05:31Z</time>
      </trkpt>
      <trkpt lat="44.14141" lon="6.9575">
        <ele>2447</ele>
        <time>2017-06-07T15:05:31Z</time>
      </trkpt>
      <trkpt lat="44.1414" lon="6.95751">
        <ele>2447</ele>
        <time>2017-06-07T15:05:46Z</time>
      </trkpt>
      <trkpt lat="44.14136" lon="6.95758">
        <ele>2447</ele>
        <time>2017-06-07T15:05:46Z</time>
      </trkpt>
      <trkpt lat="44.14134" lon="6.95763">
        <ele>2447</ele>
        <time>2017-06-07T15:05:46Z</time>
      </trkpt>
      <trkpt lat="44.14132" lon="6.95769">
        <ele>2444</ele>
        <time>2017-06-07T15:05:46Z</time>
      </trkpt>
      <trkpt lat="44.14132" lon="6.95771">
        <ele>2444</ele>
        <time>2017-06-07T15:06:00Z</time>
      </trkpt>
      <trkpt lat="44.14131" lon="6.95772">
        <ele>2444</ele>
        <time>2017-06-07T15:06:00Z</time>
      </trkpt>
      <trkpt lat="44.14129" lon="6.95776">
        <ele>2444</ele>
        <time>2017-06-07T15:06:01Z</time>
      </trkpt>
      <trkpt lat="44.14127" lon="6.95782">
        <ele>2444</ele>
        <time>2017-06-07T15:06:01Z</time>
      </trkpt>
      <trkpt lat="44.14125" lon="6.95785">
        <ele>2444</ele>
        <time>2017-06-07T15:06:30Z</time>
      </trkpt>
      <trkpt lat="44.14124" lon="6.95788">
        <ele>2440</ele>
        <time>2017-06-07T15:06:30Z</time>
      </trkpt>
      <trkpt lat="44.14121" lon="6.95789">
        <ele>2440</ele>
        <time>2017-06-07T15:06:30Z</time>
      </trkpt>
      <trkpt lat="44.1412" lon="6.95793">
        <ele>2438</ele>
        <time>2017-06-07T15:06:30Z</time>
      </trkpt>
      <trkpt lat="44.1412" lon="6.95794">
        <ele>2438</ele>
        <time>2017-06-07T15:06:30Z</time>
      </trkpt>
      <trkpt lat="44.14117" lon="6.95801">
        <ele>2438</ele>
        <time>2017-06-07T15:07:20Z</time>
      </trkpt>
      <trkpt lat="44.14117" lon="6.95801">
        <ele>2438</ele>
        <time>2017-06-07T15:07:20Z</time>
      </trkpt>
      <trkpt lat="44.14117" lon="6.95802">
        <ele>2438</ele>
        <time>2017-06-07T15:07:20Z</time>
      </trkpt>
      <trkpt lat="44.14114" lon="6.95807">
        <ele>2438</ele>
        <time>2017-06-07T15:07:20Z</time>
      </trkpt>
      <trkpt lat="44.14114" lon="6.95807">
        <ele>2438</ele>
        <time>2017-06-07T15:07:21Z</time>
      </trkpt>
      <trkpt lat="44.14109" lon="6.95817">
        <ele>2438</ele>
        <time>2017-06-07T15:08:28Z</time>
      </trkpt>
      <trkpt lat="44.1411" lon="6.95817">
        <ele>2438</ele>
        <time>2017-06-07T15:08:29Z</time>
      </trkpt>
      <trkpt lat="44.1411" lon="6.95818">
        <ele>2438</ele>
        <time>2017-06-07T15:08:29Z</time>
      </trkpt>
      <trkpt lat="44.14109" lon="6.95819">
        <ele>2438</ele>
        <time>2017-06-07T15:08:29Z</time>
      </trkpt>
      <trkpt lat="44.14108" lon="6.9582">
        <ele>2435</ele>
        <time>2017-06-07T15:08:29Z</time>
      </trkpt>
      <trkpt lat="44.14109" lon="6.9582">
        <ele>2435</ele>
        <time>2017-06-07T15:09:48Z</time>
      </trkpt>
      <trkpt lat="44.14108" lon="6.95821">
        <ele>2435</ele>
        <time>2017-06-07T15:09:49Z</time>
      </trkpt>
      <trkpt lat="44.14105" lon="6.95824">
        <ele>2435</ele>
        <time>2017-06-07T15:09:49Z</time>
      </trkpt>
      <trkpt lat="44.14104" lon="6.95827">
        <ele>2435</ele>
        <time>2017-06-07T15:09:49Z</time>
      </trkpt>
      <trkpt lat="44.14101" lon="6.95832">
        <ele>2435</ele>
        <time>2017-06-07T15:09:49Z</time>
      </trkpt>
      <trkpt lat="44.14099" lon="6.95838">
        <ele>2435</ele>
        <time>2017-06-07T15:10:05Z</time>
      </trkpt>
      <trkpt lat="44.14095" lon="6.95847">
        <ele>2431</ele>
        <time>2017-06-07T15:10:05Z</time>
      </trkpt>
      <trkpt lat="44.14094" lon="6.95849">
        <ele>2430</ele>
        <time>2017-06-07T15:10:05Z</time>
      </trkpt>
      <trkpt lat="44.14092" lon="6.95851">
        <ele>2430</ele>
        <time>2017-06-07T15:10:05Z</time>
      </trkpt>
      <trkpt lat="44.1409" lon="6.95857">
        <ele>2430</ele>
        <time>2017-06-07T15:10:22Z</time>
      </trkpt>
      <trkpt lat="44.14086" lon="6.95861">
        <ele>2430</ele>
        <time>2017-06-07T15:10:22Z</time>
      </trkpt>
      <trkpt lat="44.14083" lon="6.95867">
        <ele>2430</ele>
        <time>2017-06-07T15:10:22Z</time>
      </trkpt>
      <trkpt lat="44.1408" lon="6.95869">
        <ele>2430</ele>
        <time>2017-06-07T15:10:22Z</time>
      </trkpt>
      <trkpt lat="44.14079" lon="6.95872">
        <ele>2430</ele>
        <time>2017-06-07T15:10:38Z</time>
      </trkpt>
      <trkpt lat="44.14075" lon="6.95879">
        <ele>2428</ele>
        <time>2017-06-07T15:10:39Z</time>
      </trkpt>
      <trkpt lat="44.14073" lon="6.95882">
        <ele>2428</ele>
        <time>2017-06-07T15:10:39Z</time>
      </trkpt>
      <trkpt lat="44.14073" lon="6.95883">
        <ele>2428</ele>
        <time>2017-06-07T15:10:40Z</time>
      </trkpt>
      <trkpt lat="44.14075" lon="6.95891">
        <ele>2428</ele>
        <time>2017-06-07T15:11:28Z</time>
      </trkpt>
      <trkpt lat="44.14075" lon="6.95892">
        <ele>2428</ele>
        <time>2017-06-07T15:11:28Z</time>
      </trkpt>
      <trkpt lat="44.14075" lon="6.95894">
        <ele>2428</ele>
        <time>2017-06-07T15:11:28Z</time>
      </trkpt>
      <trkpt lat="44.14073" lon="6.95898">
        <ele>2428</ele>
        <time>2017-06-07T15:11:28Z</time>
      </trkpt>
      <trkpt lat="44.14071" lon="6.95899">
        <ele>2428</ele>
        <time>2017-06-07T15:11:29Z</time>
      </trkpt>
      <trkpt lat="44.14071" lon="6.959">
        <ele>2428</ele>
        <time>2017-06-07T15:11:45Z</time>
      </trkpt>
      <trkpt lat="44.14068" lon="6.95903">
        <ele>2430</ele>
        <time>2017-06-07T15:11:45Z</time>
      </trkpt>
      <trkpt lat="44.14067" lon="6.95906">
        <ele>2430</ele>
        <time>2017-06-07T15:11:45Z</time>
      </trkpt>
      <trkpt lat="44.14063" lon="6.9591">
        <ele>2430</ele>
        <time>2017-06-07T15:11:45Z</time>
      </trkpt>
      <trkpt lat="44.1406" lon="6.95913">
        <ele>2430</ele>
        <time>2017-06-07T15:12:00Z</time>
      </trkpt>
      <trkpt lat="44.14058" lon="6.95915">
        <ele>2430</ele>
        <time>2017-06-07T15:12:00Z</time>
      </trkpt>
      <trkpt lat="44.14056" lon="6.95922">
        <ele>2430</ele>
        <time>2017-06-07T15:12:01Z</time>
      </trkpt>
      <trkpt lat="44.14052" lon="6.95929">
        <ele>2430</ele>
        <time>2017-06-07T15:12:01Z</time>
      </trkpt>
      <trkpt lat="44.14047" lon="6.95936">
        <ele>2431</ele>
        <time>2017-06-07T15:12:18Z</time>
      </trkpt>
      <trkpt lat="44.14046" lon="6.95939">
        <ele>2431</ele>
        <time>2017-06-07T15:12:18Z</time>
      </trkpt>
      <trkpt lat="44.14042" lon="6.95943">
        <ele>2431</ele>
        <time>2017-06-07T15:12:18Z</time>
      </trkpt>
      <trkpt lat="44.14039" lon="6.95948">
        <ele>2431</ele>
        <time>2017-06-07T15:12:18Z</time>
      </trkpt>
      <trkpt lat="44.14037" lon="6.95951">
        <ele>2431</ele>
        <time>2017-06-07T15:12:34Z</time>
      </trkpt>
      <trkpt lat="44.14031" lon="6.95957">
        <ele>2431</ele>
        <time>2017-06-07T15:12:34Z</time>
      </trkpt>
      <trkpt lat="44.14029" lon="6.95959">
        <ele>2431</ele>
        <time>2017-06-07T15:12:34Z</time>
      </trkpt>
      <trkpt lat="44.14027" lon="6.95966">
        <ele>2431</ele>
        <time>2017-06-07T15:12:34Z</time>
      </trkpt>
      <trkpt lat="44.14027" lon="6.95968">
        <ele>2431</ele>
        <time>2017-06-07T15:12:49Z</time>
      </trkpt>
      <trkpt lat="44.14026" lon="6.95976">
        <ele>2431</ele>
        <time>2017-06-07T15:12:49Z</time>
      </trkpt>
      <trkpt lat="44.14024" lon="6.95981">
        <ele>2431</ele>
        <time>2017-06-07T15:12:49Z</time>
      </trkpt>
      <trkpt lat="44.14022" lon="6.95988">
        <ele>2431</ele>
        <time>2017-06-07T15:12:49Z</time>
      </trkpt>
      <trkpt lat="44.14022" lon="6.95994">
        <ele>2431</ele>
        <time>2017-06-07T15:13:06Z</time>
      </trkpt>
      <trkpt lat="44.14021" lon="6.96">
        <ele>2431</ele>
        <time>2017-06-07T15:13:07Z</time>
      </trkpt>
      <trkpt lat="44.14021" lon="6.96006">
        <ele>2431</ele>
        <time>2017-06-07T15:13:07Z</time>
      </trkpt>
      <trkpt lat="44.14018" lon="6.96015">
        <ele>2430</ele>
        <time>2017-06-07T15:13:07Z</time>
      </trkpt>
      <trkpt lat="44.14017" lon="6.96016">
        <ele>2430</ele>
        <time>2017-06-07T15:13:22Z</time>
      </trkpt>
      <trkpt lat="44.14012" lon="6.96024">
        <ele>2433</ele>
        <time>2017-06-07T15:13:22Z</time>
      </trkpt>
      <trkpt lat="44.14009" lon="6.96029">
        <ele>2433</ele>
        <time>2017-06-07T15:13:22Z</time>
      </trkpt>
      <trkpt lat="44.14008" lon="6.96033">
        <ele>2433</ele>
        <time>2017-06-07T15:13:22Z</time>
      </trkpt>
      <trkpt lat="44.14007" lon="6.96038">
        <ele>2433</ele>
        <time>2017-06-07T15:13:38Z</time>
      </trkpt>
      <trkpt lat="44.14005" lon="6.96044">
        <ele>2432</ele>
        <time>2017-06-07T15:13:39Z</time>
      </trkpt>
      <trkpt lat="44.14004" lon="6.96048">
        <ele>2432</ele>
        <time>2017-06-07T15:13:39Z</time>
      </trkpt>
      <trkpt lat="44.14001" lon="6.96055">
        <ele>2432</ele>
        <time>2017-06-07T15:13:39Z</time>
      </trkpt>
      <trkpt lat="44.14001" lon="6.96056">
        <ele>2432</ele>
        <time>2017-06-07T15:13:54Z</time>
      </trkpt>
      <trkpt lat="44.13996" lon="6.96069">
        <ele>2432</ele>
        <time>2017-06-07T15:13:54Z</time>
      </trkpt>
      <trkpt lat="44.13994" lon="6.96072">
        <ele>2430</ele>
        <time>2017-06-07T15:13:54Z</time>
      </trkpt>
      <trkpt lat="44.13991" lon="6.96078">
        <ele>2430</ele>
        <time>2017-06-07T15:13:54Z</time>
      </trkpt>
      <trkpt lat="44.13989" lon="6.96085">
        <ele>2430</ele>
        <time>2017-06-07T15:14:10Z</time>
      </trkpt>
      <trkpt lat="44.13986" lon="6.9609">
        <ele>2435</ele>
        <time>2017-06-07T15:14:10Z</time>
      </trkpt>
      <trkpt lat="44.13984" lon="6.96095">
        <ele>2435</ele>
        <time>2017-06-07T15:14:11Z</time>
      </trkpt>
      <trkpt lat="44.13982" lon="6.96101">
        <ele>2434</ele>
        <time>2017-06-07T15:14:11Z</time>
      </trkpt>
      <trkpt lat="44.13981" lon="6.96104">
        <ele>2434</ele>
        <time>2017-06-07T15:14:26Z</time>
      </trkpt>
      <trkpt lat="44.13976" lon="6.96113">
        <ele>2434</ele>
        <time>2017-06-07T15:14:26Z</time>
      </trkpt>
      <trkpt lat="44.13973" lon="6.96119">
        <ele>2434</ele>
        <time>2017-06-07T15:14:26Z</time>
      </trkpt>
      <trkpt lat="44.13971" lon="6.96123">
        <ele>2434</ele>
        <time>2017-06-07T15:14:26Z</time>
      </trkpt>
      <trkpt lat="44.1397" lon="6.96128">
        <ele>2434</ele>
        <time>2017-06-07T15:14:42Z</time>
      </trkpt>
      <trkpt lat="44.13967" lon="6.96139">
        <ele>2434</ele>
        <time>2017-06-07T15:14:43Z</time>
      </trkpt>
      <trkpt lat="44.13967" lon="6.96145">
        <ele>2434</ele>
        <time>2017-06-07T15:14:43Z</time>
      </trkpt>
      <trkpt lat="44.13963" lon="6.96152">
        <ele>2434</ele>
        <time>2017-06-07T15:14:43Z</time>
      </trkpt>
      <trkpt lat="44.13963" lon="6.96153">
        <ele>2432</ele>
        <time>2017-06-07T15:14:58Z</time>
      </trkpt>
      <trkpt lat="44.13959" lon="6.96161">
        <ele>2432</ele>
        <time>2017-06-07T15:14:58Z</time>
      </trkpt>
      <trkpt lat="44.13958" lon="6.96166">
        <ele>2444</ele>
        <time>2017-06-07T15:14:58Z</time>
      </trkpt>
      <trkpt lat="44.13956" lon="6.96171">
        <ele>2444</ele>
        <time>2017-06-07T15:14:58Z</time>
      </trkpt>
      <trkpt lat="44.13955" lon="6.96176">
        <ele>2444</ele>
        <time>2017-06-07T15:15:13Z</time>
      </trkpt>
      <trkpt lat="44.13955" lon="6.96179">
        <ele>2444</ele>
        <time>2017-06-07T15:15:13Z</time>
      </trkpt>
      <trkpt lat="44.13951" lon="6.96189">
        <ele>2437</ele>
        <time>2017-06-07T15:15:13Z</time>
      </trkpt>
      <trkpt lat="44.13949" lon="6.96194">
        <ele>2437</ele>
        <time>2017-06-07T15:15:14Z</time>
      </trkpt>
      <trkpt lat="44.13947" lon="6.96198">
        <ele>2437</ele>
        <time>2017-06-07T15:15:31Z</time>
      </trkpt>
      <trkpt lat="44.13944" lon="6.96206">
        <ele>2437</ele>
        <time>2017-06-07T15:15:31Z</time>
      </trkpt>
      <trkpt lat="44.13942" lon="6.96209">
        <ele>2430</ele>
        <time>2017-06-07T15:15:31Z</time>
      </trkpt>
      <trkpt lat="44.1394" lon="6.96219">
        <ele>2430</ele>
        <time>2017-06-07T15:15:31Z</time>
      </trkpt>
      <trkpt lat="44.13939" lon="6.96221">
        <ele>2430</ele>
        <time>2017-06-07T15:15:46Z</time>
      </trkpt>
      <trkpt lat="44.13935" lon="6.96229">
        <ele>2430</ele>
        <time>2017-06-07T15:15:46Z</time>
      </trkpt>
      <trkpt lat="44.13934" lon="6.96235">
        <ele>2430</ele>
        <time>2017-06-07T15:15:47Z</time>
      </trkpt>
      <trkpt lat="44.13933" lon="6.9624">
        <ele>2432</ele>
        <time>2017-06-07T15:15:47Z</time>
      </trkpt>
      <trkpt lat="44.13932" lon="6.96243">
        <ele>2432</ele>
        <time>2017-06-07T15:16:03Z</time>
      </trkpt>
      <trkpt lat="44.13929" lon="6.96253">
        <ele>2444</ele>
        <time>2017-06-07T15:16:03Z</time>
      </trkpt>
      <trkpt lat="44.13929" lon="6.96256">
        <ele>2444</ele>
        <time>2017-06-07T15:16:03Z</time>
      </trkpt>
      <trkpt lat="44.13928" lon="6.96265">
        <ele>2442</ele>
        <time>2017-06-07T15:16:03Z</time>
      </trkpt>
      <trkpt lat="44.13928" lon="6.96267">
        <ele>2442</ele>
        <time>2017-06-07T15:16:17Z</time>
      </trkpt>
      <trkpt lat="44.13924" lon="6.96274">
        <ele>2442</ele>
        <time>2017-06-07T15:16:17Z</time>
      </trkpt>
      <trkpt lat="44.13919" lon="6.9628">
        <ele>2442</ele>
        <time>2017-06-07T15:16:17Z</time>
      </trkpt>
      <trkpt lat="44.13916" lon="6.96283">
        <ele>2442</ele>
        <time>2017-06-07T15:16:17Z</time>
      </trkpt>
      <trkpt lat="44.13913" lon="6.96286">
        <ele>2442</ele>
        <time>2017-06-07T15:16:32Z</time>
      </trkpt>
      <trkpt lat="44.13913" lon="6.96292">
        <ele>2437</ele>
        <time>2017-06-07T15:16:32Z</time>
      </trkpt>
      <trkpt lat="44.13914" lon="6.96297">
        <ele>2437</ele>
        <time>2017-06-07T15:16:32Z</time>
      </trkpt>
      <trkpt lat="44.13913" lon="6.96302">
        <ele>2437</ele>
        <time>2017-06-07T15:16:32Z</time>
      </trkpt>
      <trkpt lat="44.13912" lon="6.96305">
        <ele>2437</ele>
        <time>2017-06-07T15:16:49Z</time>
      </trkpt>
      <trkpt lat="44.1391" lon="6.96312">
        <ele>2437</ele>
        <time>2017-06-07T15:16:49Z</time>
      </trkpt>
      <trkpt lat="44.13906" lon="6.9632">
        <ele>2433</ele>
        <time>2017-06-07T15:16:50Z</time>
      </trkpt>
      <trkpt lat="44.13903" lon="6.96323">
        <ele>2438</ele>
        <time>2017-06-07T15:16:50Z</time>
      </trkpt>
      <trkpt lat="44.13901" lon="6.96324">
        <ele>2438</ele>
        <time>2017-06-07T15:17:06Z</time>
      </trkpt>
      <trkpt lat="44.13897" lon="6.96332">
        <ele>2438</ele>
        <time>2017-06-07T15:17:06Z</time>
      </trkpt>
      <trkpt lat="44.13896" lon="6.96335">
        <ele>2438</ele>
        <time>2017-06-07T15:17:06Z</time>
      </trkpt>
      <trkpt lat="44.13894" lon="6.96344">
        <ele>2438</ele>
        <time>2017-06-07T15:17:07Z</time>
      </trkpt>
      <trkpt lat="44.13893" lon="6.96348">
        <ele>2437</ele>
        <time>2017-06-07T15:17:20Z</time>
      </trkpt>
      <trkpt lat="44.13891" lon="6.96351">
        <ele>2437</ele>
        <time>2017-06-07T15:17:20Z</time>
      </trkpt>
      <trkpt lat="44.13886" lon="6.96357">
        <ele>2437</ele>
        <time>2017-06-07T15:17:21Z</time>
      </trkpt>
      <trkpt lat="44.13883" lon="6.96362">
        <ele>2437</ele>
        <time>2017-06-07T15:17:21Z</time>
      </trkpt>
      <trkpt lat="44.13881" lon="6.96365">
        <ele>2437</ele>
        <time>2017-06-07T15:17:36Z</time>
      </trkpt>
      <trkpt lat="44.13879" lon="6.96372">
        <ele>2437</ele>
        <time>2017-06-07T15:17:37Z</time>
      </trkpt>
      <trkpt lat="44.13876" lon="6.96378">
        <ele>2437</ele>
        <time>2017-06-07T15:17:37Z</time>
      </trkpt>
      <trkpt lat="44.13874" lon="6.96383">
        <ele>2445</ele>
        <time>2017-06-07T15:17:37Z</time>
      </trkpt>
      <trkpt lat="44.13873" lon="6.96389">
        <ele>2445</ele>
        <time>2017-06-07T15:17:52Z</time>
      </trkpt>
      <trkpt lat="44.13871" lon="6.96397">
        <ele>2445</ele>
        <time>2017-06-07T15:17:52Z</time>
      </trkpt>
      <trkpt lat="44.13871" lon="6.96398">
        <ele>2445</ele>
        <time>2017-06-07T15:17:52Z</time>
      </trkpt>
      <trkpt lat="44.1387" lon="6.96404">
        <ele>2440</ele>
        <time>2017-06-07T15:17:53Z</time>
      </trkpt>
      <trkpt lat="44.13868" lon="6.9641">
        <ele>2440</ele>
        <time>2017-06-07T15:18:10Z</time>
      </trkpt>
      <trkpt lat="44.13866" lon="6.96415">
        <ele>2440</ele>
        <time>2017-06-07T15:18:10Z</time>
      </trkpt>
      <trkpt lat="44.13865" lon="6.96423">
        <ele>2440</ele>
        <time>2017-06-07T15:18:10Z</time>
      </trkpt>
      <trkpt lat="44.13864" lon="6.96427">
        <ele>2440</ele>
        <time>2017-06-07T15:18:10Z</time>
      </trkpt>
      <trkpt lat="44.13862" lon="6.96432">
        <ele>2438</ele>
        <time>2017-06-07T15:18:26Z</time>
      </trkpt>
      <trkpt lat="44.13859" lon="6.96437">
        <ele>2438</ele>
        <time>2017-06-07T15:18:26Z</time>
      </trkpt>
      <trkpt lat="44.13856" lon="6.96441">
        <ele>2438</ele>
        <time>2017-06-07T15:18:26Z</time>
      </trkpt>
      <trkpt lat="44.13855" lon="6.96445">
        <ele>2438</ele>
        <time>2017-06-07T15:18:26Z</time>
      </trkpt>
      <trkpt lat="44.13853" lon="6.96447">
        <ele>2438</ele>
        <time>2017-06-07T15:23:14Z</time>
      </trkpt>
      <trkpt lat="44.13852" lon="6.96452">
        <ele>2438</ele>
        <time>2017-06-07T15:23:14Z</time>
      </trkpt>
      <trkpt lat="44.13849" lon="6.96458">
        <ele>2438</ele>
        <time>2017-06-07T15:23:14Z</time>
      </trkpt>
      <trkpt lat="44.13847" lon="6.96461">
        <ele>2438</ele>
        <time>2017-06-07T15:23:14Z</time>
      </trkpt>
      <trkpt lat="44.13845" lon="6.96468">
        <ele>2438</ele>
        <time>2017-06-07T15:23:14Z</time>
      </trkpt>
      <trkpt lat="44.13844" lon="6.96469">
        <ele>2438</ele>
        <time>2017-06-07T15:23:30Z</time>
      </trkpt>
      <trkpt lat="44.13842" lon="6.96481">
        <ele>2438</ele>
        <time>2017-06-07T15:23:30Z</time>
      </trkpt>
      <trkpt lat="44.1384" lon="6.96485">
        <ele>2438</ele>
        <time>2017-06-07T15:23:30Z</time>
      </trkpt>
      <trkpt lat="44.13838" lon="6.96488">
        <ele>2436</ele>
        <time>2017-06-07T15:23:30Z</time>
      </trkpt>
      <trkpt lat="44.13837" lon="6.96494">
        <ele>2436</ele>
        <time>2017-06-07T15:23:46Z</time>
      </trkpt>
      <trkpt lat="44.13835" lon="6.96502">
        <ele>2436</ele>
        <time>2017-06-07T15:23:46Z</time>
      </trkpt>
      <trkpt lat="44.13834" lon="6.96506">
        <ele>2436</ele>
        <time>2017-06-07T15:23:46Z</time>
      </trkpt>
      <trkpt lat="44.13833" lon="6.96513">
        <ele>2436</ele>
        <time>2017-06-07T15:23:46Z</time>
      </trkpt>
      <trkpt lat="44.13831" lon="6.96519">
        <ele>2435</ele>
        <time>2017-06-07T15:24:01Z</time>
      </trkpt>
      <trkpt lat="44.13828" lon="6.96524">
        <ele>2435</ele>
        <time>2017-06-07T15:24:01Z</time>
      </trkpt>
      <trkpt lat="44.13826" lon="6.96529">
        <ele>2435</ele>
        <time>2017-06-07T15:24:02Z</time>
      </trkpt>
      <trkpt lat="44.13822" lon="6.96536">
        <ele>2435</ele>
        <time>2017-06-07T15:24:02Z</time>
      </trkpt>
      <trkpt lat="44.13822" lon="6.96541">
        <ele>2435</ele>
        <time>2017-06-07T15:24:18Z</time>
      </trkpt>
      <trkpt lat="44.13821" lon="6.96551">
        <ele>2435</ele>
        <time>2017-06-07T15:24:18Z</time>
      </trkpt>
      <trkpt lat="44.13821" lon="6.96555">
        <ele>2435</ele>
        <time>2017-06-07T15:24:18Z</time>
      </trkpt>
      <trkpt lat="44.13822" lon="6.9656">
        <ele>2435</ele>
        <time>2017-06-07T15:24:18Z</time>
      </trkpt>
      <trkpt lat="44.13822" lon="6.96564">
        <ele>2435</ele>
        <time>2017-06-07T15:24:34Z</time>
      </trkpt>
      <trkpt lat="44.13819" lon="6.96574">
        <ele>2439</ele>
        <time>2017-06-07T15:24:34Z</time>
      </trkpt>
      <trkpt lat="44.13818" lon="6.96578">
        <ele>2439</ele>
        <time>2017-06-07T15:24:34Z</time>
      </trkpt>
      <trkpt lat="44.13816" lon="6.96587">
        <ele>2439</ele>
        <time>2017-06-07T15:24:35Z</time>
      </trkpt>
      <trkpt lat="44.13815" lon="6.96591">
        <ele>2439</ele>
        <time>2017-06-07T15:24:50Z</time>
      </trkpt>
      <trkpt lat="44.13812" lon="6.96599">
        <ele>2437</ele>
        <time>2017-06-07T15:24:50Z</time>
      </trkpt>
      <trkpt lat="44.1381" lon="6.96603">
        <ele>2437</ele>
        <time>2017-06-07T15:24:50Z</time>
      </trkpt>
      <trkpt lat="44.13808" lon="6.96609">
        <ele>2437</ele>
        <time>2017-06-07T15:24:50Z</time>
      </trkpt>
      <trkpt lat="44.13808" lon="6.96613">
        <ele>2437</ele>
        <time>2017-06-07T15:25:05Z</time>
      </trkpt>
      <trkpt lat="44.13805" lon="6.9662">
        <ele>2437</ele>
        <time>2017-06-07T15:25:05Z</time>
      </trkpt>
      <trkpt lat="44.13804" lon="6.96631">
        <ele>2433</ele>
        <time>2017-06-07T15:25:05Z</time>
      </trkpt>
      <trkpt lat="44.13802" lon="6.96636">
        <ele>2433</ele>
        <time>2017-06-07T15:25:06Z</time>
      </trkpt>
      <trkpt lat="44.13801" lon="6.96642">
        <ele>2433</ele>
        <time>2017-06-07T15:25:22Z</time>
      </trkpt>
      <trkpt lat="44.13798" lon="6.96647">
        <ele>2433</ele>
        <time>2017-06-07T15:25:22Z</time>
      </trkpt>
      <trkpt lat="44.13798" lon="6.96652">
        <ele>2433</ele>
        <time>2017-06-07T15:25:22Z</time>
      </trkpt>
      <trkpt lat="44.13797" lon="6.96658">
        <ele>2429</ele>
        <time>2017-06-07T15:25:22Z</time>
      </trkpt>
      <trkpt lat="44.13795" lon="6.96662">
        <ele>2429</ele>
        <time>2017-06-07T15:25:39Z</time>
      </trkpt>
      <trkpt lat="44.13793" lon="6.96669">
        <ele>2429</ele>
        <time>2017-06-07T15:25:39Z</time>
      </trkpt>
      <trkpt lat="44.13793" lon="6.96675">
        <ele>2429</ele>
        <time>2017-06-07T15:25:39Z</time>
      </trkpt>
      <trkpt lat="44.13789" lon="6.9668">
        <ele>2431</ele>
        <time>2017-06-07T15:25:39Z</time>
      </trkpt>
      <trkpt lat="44.13789" lon="6.96682">
        <ele>2429</ele>
        <time>2017-06-07T15:25:52Z</time>
      </trkpt>
      <trkpt lat="44.13783" lon="6.96686">
        <ele>2429</ele>
        <time>2017-06-07T15:25:53Z</time>
      </trkpt>
      <trkpt lat="44.13781" lon="6.96687">
        <ele>2429</ele>
        <time>2017-06-07T15:25:53Z</time>
      </trkpt>
      <trkpt lat="44.13778" lon="6.96688">
        <ele>2429</ele>
        <time>2017-06-07T15:25:53Z</time>
      </trkpt>
      <trkpt lat="44.13773" lon="6.9669">
        <ele>2429</ele>
        <time>2017-06-07T15:26:10Z</time>
      </trkpt>
      <trkpt lat="44.13771" lon="6.96687">
        <ele>2429</ele>
        <time>2017-06-07T15:26:10Z</time>
      </trkpt>
      <trkpt lat="44.13769" lon="6.96685">
        <ele>2429</ele>
        <time>2017-06-07T15:26:10Z</time>
      </trkpt>
      <trkpt lat="44.13764" lon="6.96687">
        <ele>2429</ele>
        <time>2017-06-07T15:26:10Z</time>
      </trkpt>
      <trkpt lat="44.13763" lon="6.96692">
        <ele>2429</ele>
        <time>2017-06-07T15:26:26Z</time>
      </trkpt>
      <trkpt lat="44.1376" lon="6.96698">
        <ele>2429</ele>
        <time>2017-06-07T15:26:26Z</time>
      </trkpt>
      <trkpt lat="44.1376" lon="6.96701">
        <ele>2429</ele>
        <time>2017-06-07T15:26:26Z</time>
      </trkpt>
      <trkpt lat="44.1376" lon="6.96705">
        <ele>2429</ele>
        <time>2017-06-07T15:26:26Z</time>
      </trkpt>
      <trkpt lat="44.1376" lon="6.96707">
        <ele>2429</ele>
        <time>2017-06-07T15:26:40Z</time>
      </trkpt>
      <trkpt lat="44.13759" lon="6.96711">
        <ele>2425</ele>
        <time>2017-06-07T15:26:40Z</time>
      </trkpt>
      <trkpt lat="44.13757" lon="6.96715">
        <ele>2425</ele>
        <time>2017-06-07T15:26:40Z</time>
      </trkpt>
      <trkpt lat="44.13756" lon="6.96721">
        <ele>2425</ele>
        <time>2017-06-07T15:26:41Z</time>
      </trkpt>
      <trkpt lat="44.13756" lon="6.96725">
        <ele>2425</ele>
        <time>2017-06-07T15:26:57Z</time>
      </trkpt>
      <trkpt lat="44.13758" lon="6.9673">
        <ele>2425</ele>
        <time>2017-06-07T15:26:58Z</time>
      </trkpt>
      <trkpt lat="44.13755" lon="6.96733">
        <ele>2425</ele>
        <time>2017-06-07T15:26:58Z</time>
      </trkpt>
      <trkpt lat="44.13757" lon="6.96739">
        <ele>2422</ele>
        <time>2017-06-07T15:26:58Z</time>
      </trkpt>
      <trkpt lat="44.13757" lon="6.96742">
        <ele>2422</ele>
        <time>2017-06-07T15:27:12Z</time>
      </trkpt>
      <trkpt lat="44.13757" lon="6.9675">
        <ele>2422</ele>
        <time>2017-06-07T15:27:12Z</time>
      </trkpt>
      <trkpt lat="44.13757" lon="6.96753">
        <ele>2422</ele>
        <time>2017-06-07T15:27:12Z</time>
      </trkpt>
      <trkpt lat="44.13757" lon="6.96759">
        <ele>2422</ele>
        <time>2017-06-07T15:27:13Z</time>
      </trkpt>
      <trkpt lat="44.13758" lon="6.96765">
        <ele>2420</ele>
        <time>2017-06-07T15:27:28Z</time>
      </trkpt>
      <trkpt lat="44.13758" lon="6.96771">
        <ele>2420</ele>
        <time>2017-06-07T15:27:28Z</time>
      </trkpt>
      <trkpt lat="44.13758" lon="6.96774">
        <ele>2420</ele>
        <time>2017-06-07T15:27:29Z</time>
      </trkpt>
      <trkpt lat="44.1376" lon="6.9678">
        <ele>2420</ele>
        <time>2017-06-07T15:27:29Z</time>
      </trkpt>
      <trkpt lat="44.13758" lon="6.96784">
        <ele>2420</ele>
        <time>2017-06-07T15:27:44Z</time>
      </trkpt>
      <trkpt lat="44.13758" lon="6.96792">
        <ele>2418</ele>
        <time>2017-06-07T15:27:44Z</time>
      </trkpt>
      <trkpt lat="44.13757" lon="6.96799">
        <ele>2418</ele>
        <time>2017-06-07T15:27:44Z</time>
      </trkpt>
      <trkpt lat="44.13756" lon="6.96806">
        <ele>2418</ele>
        <time>2017-06-07T15:27:45Z</time>
      </trkpt>
      <trkpt lat="44.13754" lon="6.96812">
        <ele>2418</ele>
        <time>2017-06-07T15:28:01Z</time>
      </trkpt>
      <trkpt lat="44.13752" lon="6.96818">
        <ele>2418</ele>
        <time>2017-06-07T15:28:01Z</time>
      </trkpt>
      <trkpt lat="44.1375" lon="6.96823">
        <ele>2414</ele>
        <time>2017-06-07T15:28:01Z</time>
      </trkpt>
      <trkpt lat="44.13748" lon="6.96827">
        <ele>2414</ele>
        <time>2017-06-07T15:28:01Z</time>
      </trkpt>
      <trkpt lat="44.13746" lon="6.96833">
        <ele>2414</ele>
        <time>2017-06-07T15:28:18Z</time>
      </trkpt>
      <trkpt lat="44.13745" lon="6.96838">
        <ele>2414</ele>
        <time>2017-06-07T15:28:18Z</time>
      </trkpt>
      <trkpt lat="44.13743" lon="6.96839">
        <ele>2414</ele>
        <time>2017-06-07T15:28:18Z</time>
      </trkpt>
      <trkpt lat="44.13741" lon="6.96847">
        <ele>2408</ele>
        <time>2017-06-07T15:28:18Z</time>
      </trkpt>
      <trkpt lat="44.13741" lon="6.96853">
        <ele>2408</ele>
        <time>2017-06-07T15:28:34Z</time>
      </trkpt>
      <trkpt lat="44.1374" lon="6.96862">
        <ele>2408</ele>
        <time>2017-06-07T15:28:34Z</time>
      </trkpt>
      <trkpt lat="44.13739" lon="6.96866">
        <ele>2408</ele>
        <time>2017-06-07T15:28:34Z</time>
      </trkpt>
      <trkpt lat="44.13737" lon="6.96874">
        <ele>2408</ele>
        <time>2017-06-07T15:28:34Z</time>
      </trkpt>
      <trkpt lat="44.13737" lon="6.96877">
        <ele>2404</ele>
        <time>2017-06-07T15:28:50Z</time>
      </trkpt>
      <trkpt lat="44.13735" lon="6.96882">
        <ele>2406</ele>
        <time>2017-06-07T15:28:50Z</time>
      </trkpt>
      <trkpt lat="44.13733" lon="6.96888">
        <ele>2406</ele>
        <time>2017-06-07T15:28:51Z</time>
      </trkpt>
      <trkpt lat="44.1373" lon="6.96893">
        <ele>2406</ele>
        <time>2017-06-07T15:28:51Z</time>
      </trkpt>
      <trkpt lat="44.13729" lon="6.96894">
        <ele>2406</ele>
        <time>2017-06-07T15:29:06Z</time>
      </trkpt>
      <trkpt lat="44.13725" lon="6.969">
        <ele>2406</ele>
        <time>2017-06-07T15:29:06Z</time>
      </trkpt>
      <trkpt lat="44.13724" lon="6.96903">
        <ele>2406</ele>
        <time>2017-06-07T15:29:06Z</time>
      </trkpt>
      <trkpt lat="44.13723" lon="6.96908">
        <ele>2405</ele>
        <time>2017-06-07T15:29:07Z</time>
      </trkpt>
      <trkpt lat="44.13724" lon="6.96912">
        <ele>2405</ele>
        <time>2017-06-07T15:29:22Z</time>
      </trkpt>
      <trkpt lat="44.13725" lon="6.96916">
        <ele>2405</ele>
        <time>2017-06-07T15:29:22Z</time>
      </trkpt>
      <trkpt lat="44.13727" lon="6.96922">
        <ele>2405</ele>
        <time>2017-06-07T15:29:22Z</time>
      </trkpt>
      <trkpt lat="44.13728" lon="6.96925">
        <ele>2405</ele>
        <time>2017-06-07T15:29:22Z</time>
      </trkpt>
      <trkpt lat="44.13728" lon="6.96926">
        <ele>2405</ele>
        <time>2017-06-07T15:29:38Z</time>
      </trkpt>
      <trkpt lat="44.13728" lon="6.96933">
        <ele>2403</ele>
        <time>2017-06-07T15:29:38Z</time>
      </trkpt>
      <trkpt lat="44.13727" lon="6.96939">
        <ele>2403</ele>
        <time>2017-06-07T15:29:38Z</time>
      </trkpt>
      <trkpt lat="44.13725" lon="6.96943">
        <ele>2403</ele>
        <time>2017-06-07T15:29:38Z</time>
      </trkpt>
      <trkpt lat="44.13725" lon="6.96946">
        <ele>2403</ele>
        <time>2017-06-07T15:29:53Z</time>
      </trkpt>
      <trkpt lat="44.13728" lon="6.96955">
        <ele>2403</ele>
        <time>2017-06-07T15:29:53Z</time>
      </trkpt>
      <trkpt lat="44.1373" lon="6.96959">
        <ele>2399</ele>
        <time>2017-06-07T15:29:53Z</time>
      </trkpt>
      <trkpt lat="44.13731" lon="6.96961">
        <ele>2399</ele>
        <time>2017-06-07T15:29:53Z</time>
      </trkpt>
      <trkpt lat="44.13732" lon="6.96967">
        <ele>2399</ele>
        <time>2017-06-07T15:30:10Z</time>
      </trkpt>
      <trkpt lat="44.13735" lon="6.96973">
        <ele>2399</ele>
        <time>2017-06-07T15:30:10Z</time>
      </trkpt>
      <trkpt lat="44.13736" lon="6.96982">
        <ele>2399</ele>
        <time>2017-06-07T15:30:10Z</time>
      </trkpt>
      <trkpt lat="44.13737" lon="6.96988">
        <ele>2388</ele>
        <time>2017-06-07T15:30:10Z</time>
      </trkpt>
      <trkpt lat="44.13736" lon="6.9699">
        <ele>2395</ele>
        <time>2017-06-07T15:30:26Z</time>
      </trkpt>
      <trkpt lat="44.1373" lon="6.96992">
        <ele>2395</ele>
        <time>2017-06-07T15:30:26Z</time>
      </trkpt>
      <trkpt lat="44.13726" lon="6.96994">
        <ele>2395</ele>
        <time>2017-06-07T15:30:26Z</time>
      </trkpt>
      <trkpt lat="44.13724" lon="6.96998">
        <ele>2395</ele>
        <time>2017-06-07T15:30:26Z</time>
      </trkpt>
      <trkpt lat="44.13721" lon="6.97">
        <ele>2395</ele>
        <time>2017-06-07T15:30:42Z</time>
      </trkpt>
      <trkpt lat="44.13716" lon="6.97005">
        <ele>2395</ele>
        <time>2017-06-07T15:30:43Z</time>
      </trkpt>
      <trkpt lat="44.13713" lon="6.97006">
        <ele>2395</ele>
        <time>2017-06-07T15:30:43Z</time>
      </trkpt>
      <trkpt lat="44.13709" lon="6.97009">
        <ele>2395</ele>
        <time>2017-06-07T15:30:43Z</time>
      </trkpt>
      <trkpt lat="44.13708" lon="6.97009">
        <ele>2395</ele>
        <time>2017-06-07T15:30:57Z</time>
      </trkpt>
      <trkpt lat="44.13702" lon="6.97011">
        <ele>2395</ele>
        <time>2017-06-07T15:30:57Z</time>
      </trkpt>
      <trkpt lat="44.13699" lon="6.97013">
        <ele>2395</ele>
        <time>2017-06-07T15:30:57Z</time>
      </trkpt>
      <trkpt lat="44.13697" lon="6.97016">
        <ele>2389</ele>
        <time>2017-06-07T15:30:57Z</time>
      </trkpt>
      <trkpt lat="44.13695" lon="6.9702">
        <ele>2389</ele>
        <time>2017-06-07T15:31:14Z</time>
      </trkpt>
      <trkpt lat="44.13693" lon="6.97023">
        <ele>2389</ele>
        <time>2017-06-07T15:31:14Z</time>
      </trkpt>
      <trkpt lat="44.1369" lon="6.9703">
        <ele>2389</ele>
        <time>2017-06-07T15:31:14Z</time>
      </trkpt>
      <trkpt lat="44.13687" lon="6.97031">
        <ele>2389</ele>
        <time>2017-06-07T15:31:14Z</time>
      </trkpt>
      <trkpt lat="44.13684" lon="6.97034">
        <ele>2389</ele>
        <time>2017-06-07T15:31:30Z</time>
      </trkpt>
      <trkpt lat="44.13681" lon="6.97039">
        <ele>2389</ele>
        <time>2017-06-07T15:31:30Z</time>
      </trkpt>
      <trkpt lat="44.13679" lon="6.97042">
        <ele>2382</ele>
        <time>2017-06-07T15:31:30Z</time>
      </trkpt>
      <trkpt lat="44.13677" lon="6.97044">
        <ele>2382</ele>
        <time>2017-06-07T15:31:30Z</time>
      </trkpt>
      <trkpt lat="44.13664" lon="6.9705">
        <ele>2382</ele>
        <time>2017-06-07T15:32:00Z</time>
      </trkpt>
      <trkpt lat="44.1366" lon="6.97055">
        <ele>2382</ele>
        <time>2017-06-07T15:32:01Z</time>
      </trkpt>
      <trkpt lat="44.13657" lon="6.97059">
        <ele>2382</ele>
        <time>2017-06-07T15:32:01Z</time>
      </trkpt>
      <trkpt lat="44.13655" lon="6.97063">
        <ele>2382</ele>
        <time>2017-06-07T15:32:01Z</time>
      </trkpt>
      <trkpt lat="44.13652" lon="6.97066">
        <ele>2380</ele>
        <time>2017-06-07T15:32:01Z</time>
      </trkpt>
      <trkpt lat="44.13647" lon="6.97065">
        <ele>2380</ele>
        <time>2017-06-07T15:32:17Z</time>
      </trkpt>
      <trkpt lat="44.13643" lon="6.97065">
        <ele>2380</ele>
        <time>2017-06-07T15:32:17Z</time>
      </trkpt>
      <trkpt lat="44.13641" lon="6.97066">
        <ele>2380</ele>
        <time>2017-06-07T15:32:17Z</time>
      </trkpt>
      <trkpt lat="44.13638" lon="6.9707">
        <ele>2372</ele>
        <time>2017-06-07T15:32:17Z</time>
      </trkpt>
      <trkpt lat="44.13635" lon="6.97072">
        <ele>2372</ele>
        <time>2017-06-07T15:32:38Z</time>
      </trkpt>
      <trkpt lat="44.13633" lon="6.97073">
        <ele>2372</ele>
        <time>2017-06-07T15:32:38Z</time>
      </trkpt>
      <trkpt lat="44.1363" lon="6.97074">
        <ele>2372</ele>
        <time>2017-06-07T15:32:38Z</time>
      </trkpt>
      <trkpt lat="44.13627" lon="6.97075">
        <ele>2372</ele>
        <time>2017-06-07T15:32:38Z</time>
      </trkpt>
      <trkpt lat="44.13625" lon="6.97078">
        <ele>2372</ele>
        <time>2017-06-07T15:32:38Z</time>
      </trkpt>
      <trkpt lat="44.13623" lon="6.97079">
        <ele>2372</ele>
        <time>2017-06-07T15:32:54Z</time>
      </trkpt>
      <trkpt lat="44.13615" lon="6.97083">
        <ele>2372</ele>
        <time>2017-06-07T15:32:54Z</time>
      </trkpt>
      <trkpt lat="44.13612" lon="6.97084">
        <ele>2372</ele>
        <time>2017-06-07T15:32:55Z</time>
      </trkpt>
      <trkpt lat="44.13609" lon="6.97087">
        <ele>2372</ele>
        <time>2017-06-07T15:32:55Z</time>
      </trkpt>
      <trkpt lat="44.13606" lon="6.97088">
        <ele>2372</ele>
        <time>2017-06-07T15:33:08Z</time>
      </trkpt>
      <trkpt lat="44.13602" lon="6.97091">
        <ele>2372</ele>
        <time>2017-06-07T15:33:08Z</time>
      </trkpt>
      <trkpt lat="44.13599" lon="6.97091">
        <ele>2372</ele>
        <time>2017-06-07T15:33:08Z</time>
      </trkpt>
      <trkpt lat="44.13595" lon="6.97093">
        <ele>2369</ele>
        <time>2017-06-07T15:33:09Z</time>
      </trkpt>
      <trkpt lat="44.13593" lon="6.97095">
        <ele>2369</ele>
        <time>2017-06-07T15:33:24Z</time>
      </trkpt>
      <trkpt lat="44.13591" lon="6.97094">
        <ele>2369</ele>
        <time>2017-06-07T15:33:25Z</time>
      </trkpt>
      <trkpt lat="44.13586" lon="6.97095">
        <ele>2369</ele>
        <time>2017-06-07T15:33:25Z</time>
      </trkpt>
      <trkpt lat="44.13581" lon="6.97097">
        <ele>2369</ele>
        <time>2017-06-07T15:33:25Z</time>
      </trkpt>
      <trkpt lat="44.13582" lon="6.97099">
        <ele>2362</ele>
        <time>2017-06-07T15:33:40Z</time>
      </trkpt>
      <trkpt lat="44.13578" lon="6.97102">
        <ele>2362</ele>
        <time>2017-06-07T15:33:40Z</time>
      </trkpt>
      <trkpt lat="44.13575" lon="6.97105">
        <ele>2362</ele>
        <time>2017-06-07T15:33:40Z</time>
      </trkpt>
      <trkpt lat="44.13574" lon="6.97107">
        <ele>2362</ele>
        <time>2017-06-07T15:33:41Z</time>
      </trkpt>
      <trkpt lat="44.13569" lon="6.97108">
        <ele>2357</ele>
        <time>2017-06-07T15:34:22Z</time>
      </trkpt>
      <trkpt lat="44.13565" lon="6.97109">
        <ele>2357</ele>
        <time>2017-06-07T15:34:22Z</time>
      </trkpt>
      <trkpt lat="44.13565" lon="6.97109">
        <ele>2357</ele>
        <time>2017-06-07T15:34:22Z</time>
      </trkpt>
      <trkpt lat="44.13564" lon="6.97112">
        <ele>2357</ele>
        <time>2017-06-07T15:34:22Z</time>
      </trkpt>
      <trkpt lat="44.13562" lon="6.97115">
        <ele>2357</ele>
        <time>2017-06-07T15:34:23Z</time>
      </trkpt>
      <trkpt lat="44.13558" lon="6.97121">
        <ele>2357</ele>
        <time>2017-06-07T15:34:58Z</time>
      </trkpt>
      <trkpt lat="44.13556" lon="6.97125">
        <ele>2348</ele>
        <time>2017-06-07T15:34:58Z</time>
      </trkpt>
      <trkpt lat="44.13555" lon="6.97125">
        <ele>2357</ele>
        <time>2017-06-07T15:34:59Z</time>
      </trkpt>
      <trkpt lat="44.13554" lon="6.97127">
        <ele>2348</ele>
        <time>2017-06-07T15:34:59Z</time>
      </trkpt>
      <trkpt lat="44.1355" lon="6.97125">
        <ele>2357</ele>
        <time>2017-06-07T15:34:59Z</time>
      </trkpt>
      <trkpt lat="44.13548" lon="6.97128">
        <ele>2348</ele>
        <time>2017-06-07T15:35:25Z</time>
      </trkpt>
      <trkpt lat="44.13546" lon="6.97129">
        <ele>2348</ele>
        <time>2017-06-07T15:35:25Z</time>
      </trkpt>
      <trkpt lat="44.13544" lon="6.97128">
        <ele>2348</ele>
        <time>2017-06-07T15:35:26Z</time>
      </trkpt>
      <trkpt lat="44.13542" lon="6.97123">
        <ele>2357</ele>
        <time>2017-06-07T15:35:26Z</time>
      </trkpt>
      <trkpt lat="44.13538" lon="6.97122">
        <ele>2353</ele>
        <time>2017-06-07T15:35:26Z</time>
      </trkpt>
      <trkpt lat="44.13535" lon="6.97126">
        <ele>2345</ele>
        <time>2017-06-07T15:35:53Z</time>
      </trkpt>
      <trkpt lat="44.13534" lon="6.97126">
        <ele>2345</ele>
        <time>2017-06-07T15:35:53Z</time>
      </trkpt>
      <trkpt lat="44.13534" lon="6.97129">
        <ele>2345</ele>
        <time>2017-06-07T15:35:53Z</time>
      </trkpt>
      <trkpt lat="44.13535" lon="6.97134">
        <ele>2345</ele>
        <time>2017-06-07T15:35:54Z</time>
      </trkpt>
      <trkpt lat="44.13534" lon="6.97136">
        <ele>2345</ele>
        <time>2017-06-07T15:35:54Z</time>
      </trkpt>
      <trkpt lat="44.13535" lon="6.97139">
        <ele>2345</ele>
        <time>2017-06-07T15:36:15Z</time>
      </trkpt>
      <trkpt lat="44.13539" lon="6.97144">
        <ele>2345</ele>
        <time>2017-06-07T15:36:15Z</time>
      </trkpt>
      <trkpt lat="44.13539" lon="6.97145">
        <ele>2345</ele>
        <time>2017-06-07T15:36:15Z</time>
      </trkpt>
      <trkpt lat="44.1354" lon="6.97146">
        <ele>2345</ele>
        <time>2017-06-07T15:36:15Z</time>
      </trkpt>
      <trkpt lat="44.13542" lon="6.9715">
        <ele>2348</ele>
        <time>2017-06-07T15:36:15Z</time>
      </trkpt>
      <trkpt lat="44.13542" lon="6.9715">
        <ele>2348</ele>
        <time>2017-06-07T15:36:34Z</time>
      </trkpt>
      <trkpt lat="44.13543" lon="6.97155">
        <ele>2339</ele>
        <time>2017-06-07T15:36:34Z</time>
      </trkpt>
      <trkpt lat="44.13544" lon="6.97157">
        <ele>2339</ele>
        <time>2017-06-07T15:36:35Z</time>
      </trkpt>
      <trkpt lat="44.13547" lon="6.9716">
        <ele>2339</ele>
        <time>2017-06-07T15:36:35Z</time>
      </trkpt>
      <trkpt lat="44.13552" lon="6.97161">
        <ele>2339</ele>
        <time>2017-06-07T15:36:35Z</time>
      </trkpt>
      <trkpt lat="44.13556" lon="6.97164">
        <ele>2339</ele>
        <time>2017-06-07T15:37:01Z</time>
      </trkpt>
      <trkpt lat="44.13558" lon="6.97164">
        <ele>2339</ele>
        <time>2017-06-07T15:37:01Z</time>
      </trkpt>
      <trkpt lat="44.13558" lon="6.97168">
        <ele>2339</ele>
        <time>2017-06-07T15:37:01Z</time>
      </trkpt>
      <trkpt lat="44.1356" lon="6.97169">
        <ele>2339</ele>
        <time>2017-06-07T15:37:01Z</time>
      </trkpt>
      <trkpt lat="44.13561" lon="6.97169">
        <ele>2339</ele>
        <time>2017-06-07T15:37:01Z</time>
      </trkpt>
      <trkpt lat="44.13565" lon="6.97169">
        <ele>2339</ele>
        <time>2017-06-07T15:37:23Z</time>
      </trkpt>
      <trkpt lat="44.13568" lon="6.97169">
        <ele>2339</ele>
        <time>2017-06-07T15:37:23Z</time>
      </trkpt>
      <trkpt lat="44.13569" lon="6.97172">
        <ele>2339</ele>
        <time>2017-06-07T15:37:23Z</time>
      </trkpt>
      <trkpt lat="44.1357" lon="6.97172">
        <ele>2341</ele>
        <time>2017-06-07T15:37:23Z</time>
      </trkpt>
      <trkpt lat="44.13576" lon="6.97176">
        <ele>2341</ele>
        <time>2017-06-07T15:37:23Z</time>
      </trkpt>
      <trkpt lat="44.13577" lon="6.97176">
        <ele>2341</ele>
        <time>2017-06-07T15:37:39Z</time>
      </trkpt>
      <trkpt lat="44.13583" lon="6.9718">
        <ele>2341</ele>
        <time>2017-06-07T15:37:39Z</time>
      </trkpt>
      <trkpt lat="44.13585" lon="6.9718">
        <ele>2341</ele>
        <time>2017-06-07T15:37:39Z</time>
      </trkpt>
      <trkpt lat="44.1359" lon="6.97179">
        <ele>2341</ele>
        <time>2017-06-07T15:37:39Z</time>
      </trkpt>
      <trkpt lat="44.13591" lon="6.97181">
        <ele>2341</ele>
        <time>2017-06-07T15:38:02Z</time>
      </trkpt>
      <trkpt lat="44.1359" lon="6.97183">
        <ele>2330</ele>
        <time>2017-06-07T15:38:02Z</time>
      </trkpt>
      <trkpt lat="44.13589" lon="6.97185">
        <ele>2330</ele>
        <time>2017-06-07T15:38:02Z</time>
      </trkpt>
      <trkpt lat="44.13587" lon="6.97187">
        <ele>2330</ele>
        <time>2017-06-07T15:38:02Z</time>
      </trkpt>
      <trkpt lat="44.13584" lon="6.97189">
        <ele>2330</ele>
        <time>2017-06-07T15:38:02Z</time>
      </trkpt>
      <trkpt lat="44.13583" lon="6.9719">
        <ele>2330</ele>
        <time>2017-06-07T15:38:22Z</time>
      </trkpt>
      <trkpt lat="44.13583" lon="6.9719">
        <ele>2330</ele>
        <time>2017-06-07T15:38:22Z</time>
      </trkpt>
      <trkpt lat="44.1358" lon="6.97192">
        <ele>2330</ele>
        <time>2017-06-07T15:38:23Z</time>
      </trkpt>
      <trkpt lat="44.13576" lon="6.97195">
        <ele>2330</ele>
        <time>2017-06-07T15:38:23Z</time>
      </trkpt>
      <trkpt lat="44.13571" lon="6.97194">
        <ele>2330</ele>
        <time>2017-06-07T15:38:23Z</time>
      </trkpt>
      <trkpt lat="44.13569" lon="6.97195">
        <ele>2330</ele>
        <time>2017-06-07T15:38:38Z</time>
      </trkpt>
      <trkpt lat="44.13565" lon="6.97195">
        <ele>2330</ele>
        <time>2017-06-07T15:38:38Z</time>
      </trkpt>
      <trkpt lat="44.1356" lon="6.97194">
        <ele>2330</ele>
        <time>2017-06-07T15:38:38Z</time>
      </trkpt>
      <trkpt lat="44.13555" lon="6.97196">
        <ele>2330</ele>
        <time>2017-06-07T15:38:38Z</time>
      </trkpt>
      <trkpt lat="44.13553" lon="6.97197">
        <ele>2330</ele>
        <time>2017-06-07T15:38:55Z</time>
      </trkpt>
      <trkpt lat="44.1355" lon="6.97201">
        <ele>2330</ele>
        <time>2017-06-07T15:38:55Z</time>
      </trkpt>
      <trkpt lat="44.13549" lon="6.97202">
        <ele>2330</ele>
        <time>2017-06-07T15:38:55Z</time>
      </trkpt>
      <trkpt lat="44.13542" lon="6.97205">
        <ele>2330</ele>
        <time>2017-06-07T15:38:55Z</time>
      </trkpt>
      <trkpt lat="44.13541" lon="6.97205">
        <ele>2328</ele>
        <time>2017-06-07T15:39:12Z</time>
      </trkpt>
      <trkpt lat="44.13541" lon="6.97211">
        <ele>2318</ele>
        <time>2017-06-07T15:39:12Z</time>
      </trkpt>
      <trkpt lat="44.13545" lon="6.97213">
        <ele>2321</ele>
        <time>2017-06-07T15:39:12Z</time>
      </trkpt>
      <trkpt lat="44.13546" lon="6.97216">
        <ele>2321</ele>
        <time>2017-06-07T15:39:13Z</time>
      </trkpt>
      <trkpt lat="44.13546" lon="6.97219">
        <ele>2321</ele>
        <time>2017-06-07T15:39:13Z</time>
      </trkpt>
      <trkpt lat="44.13545" lon="6.97243">
        <ele>2312</ele>
        <time>2017-06-07T15:40:09Z</time>
      </trkpt>
      <trkpt lat="44.13546" lon="6.97245">
        <ele>2312</ele>
        <time>2017-06-07T15:40:09Z</time>
      </trkpt>
      <trkpt lat="44.13545" lon="6.97251">
        <ele>2312</ele>
        <time>2017-06-07T15:40:10Z</time>
      </trkpt>
      <trkpt lat="44.13552" lon="6.97257">
        <ele>2312</ele>
        <time>2017-06-07T15:40:10Z</time>
      </trkpt>
      <trkpt lat="44.13553" lon="6.97258">
        <ele>2312</ele>
        <time>2017-06-07T15:40:10Z</time>
      </trkpt>
      <trkpt lat="44.13555" lon="6.97261">
        <ele>2312</ele>
        <time>2017-06-07T15:40:27Z</time>
      </trkpt>
      <trkpt lat="44.13554" lon="6.97265">
        <ele>2304</ele>
        <time>2017-06-07T15:40:27Z</time>
      </trkpt>
      <trkpt lat="44.13553" lon="6.97269">
        <ele>2304</ele>
        <time>2017-06-07T15:40:27Z</time>
      </trkpt>
      <trkpt lat="44.13551" lon="6.97274">
        <ele>2304</ele>
        <time>2017-06-07T15:40:27Z</time>
      </trkpt>
      <trkpt lat="44.13551" lon="6.97275">
        <ele>2304</ele>
        <time>2017-06-07T15:40:46Z</time>
      </trkpt>
      <trkpt lat="44.13553" lon="6.97281">
        <ele>2304</ele>
        <time>2017-06-07T15:40:46Z</time>
      </trkpt>
      <trkpt lat="44.13553" lon="6.97285">
        <ele>2304</ele>
        <time>2017-06-07T15:40:46Z</time>
      </trkpt>
      <trkpt lat="44.13551" lon="6.97287">
        <ele>2304</ele>
        <time>2017-06-07T15:40:46Z</time>
      </trkpt>
      <trkpt lat="44.13552" lon="6.97291">
        <ele>2304</ele>
        <time>2017-06-07T15:40:47Z</time>
      </trkpt>
      <trkpt lat="44.13553" lon="6.97294">
        <ele>2297</ele>
        <time>2017-06-07T15:41:02Z</time>
      </trkpt>
      <trkpt lat="44.13554" lon="6.97306">
        <ele>2297</ele>
        <time>2017-06-07T15:41:02Z</time>
      </trkpt>
      <trkpt lat="44.13552" lon="6.97307">
        <ele>2297</ele>
        <time>2017-06-07T15:41:02Z</time>
      </trkpt>
      <trkpt lat="44.13548" lon="6.97309">
        <ele>2297</ele>
        <time>2017-06-07T15:41:02Z</time>
      </trkpt>
      <trkpt lat="44.13549" lon="6.97315">
        <ele>2297</ele>
        <time>2017-06-07T15:41:18Z</time>
      </trkpt>
      <trkpt lat="44.1355" lon="6.97321">
        <ele>2294</ele>
        <time>2017-06-07T15:41:18Z</time>
      </trkpt>
      <trkpt lat="44.13549" lon="6.97329">
        <ele>2294</ele>
        <time>2017-06-07T15:41:18Z</time>
      </trkpt>
      <trkpt lat="44.13549" lon="6.97336">
        <ele>2294</ele>
        <time>2017-06-07T15:41:18Z</time>
      </trkpt>
      <trkpt lat="44.13548" lon="6.97342">
        <ele>2294</ele>
        <time>2017-06-07T15:41:35Z</time>
      </trkpt>
      <trkpt lat="44.13545" lon="6.97347">
        <ele>2294</ele>
        <time>2017-06-07T15:41:35Z</time>
      </trkpt>
      <trkpt lat="44.13542" lon="6.97349">
        <ele>2293</ele>
        <time>2017-06-07T15:41:35Z</time>
      </trkpt>
      <trkpt lat="44.1354" lon="6.97354">
        <ele>2288</ele>
        <time>2017-06-07T15:41:35Z</time>
      </trkpt>
      <trkpt lat="44.13539" lon="6.97356">
        <ele>2288</ele>
        <time>2017-06-07T15:41:51Z</time>
      </trkpt>
      <trkpt lat="44.13537" lon="6.97361">
        <ele>2288</ele>
        <time>2017-06-07T15:41:51Z</time>
      </trkpt>
      <trkpt lat="44.13535" lon="6.97366">
        <ele>2288</ele>
        <time>2017-06-07T15:41:51Z</time>
      </trkpt>
      <trkpt lat="44.13531" lon="6.97375">
        <ele>2282</ele>
        <time>2017-06-07T15:41:51Z</time>
      </trkpt>
      <trkpt lat="44.1353" lon="6.97376">
        <ele>2282</ele>
        <time>2017-06-07T15:42:06Z</time>
      </trkpt>
      <trkpt lat="44.13525" lon="6.97385">
        <ele>2282</ele>
        <time>2017-06-07T15:42:06Z</time>
      </trkpt>
      <trkpt lat="44.13521" lon="6.97389">
        <ele>2282</ele>
        <time>2017-06-07T15:42:06Z</time>
      </trkpt>
      <trkpt lat="44.13521" lon="6.97392">
        <ele>2282</ele>
        <time>2017-06-07T15:42:06Z</time>
      </trkpt>
      <trkpt lat="44.13522" lon="6.97398">
        <ele>2282</ele>
        <time>2017-06-07T15:42:31Z</time>
      </trkpt>
      <trkpt lat="44.13522" lon="6.97399">
        <ele>2282</ele>
        <time>2017-06-07T15:42:31Z</time>
      </trkpt>
      <trkpt lat="44.13523" lon="6.97405">
        <ele>2277</ele>
        <time>2017-06-07T15:42:31Z</time>
      </trkpt>
      <trkpt lat="44.13522" lon="6.97406">
        <ele>2277</ele>
        <time>2017-06-07T15:42:31Z</time>
      </trkpt>
      <trkpt lat="44.13523" lon="6.97414">
        <ele>2277</ele>
        <time>2017-06-07T15:42:31Z</time>
      </trkpt>
      <trkpt lat="44.13523" lon="6.97415">
        <ele>2277</ele>
        <time>2017-06-07T15:42:46Z</time>
      </trkpt>
      <trkpt lat="44.13521" lon="6.97424">
        <ele>2277</ele>
        <time>2017-06-07T15:42:46Z</time>
      </trkpt>
      <trkpt lat="44.1352" lon="6.97425">
        <ele>2277</ele>
        <time>2017-06-07T15:42:46Z</time>
      </trkpt>
      <trkpt lat="44.13518" lon="6.9743">
        <ele>2277</ele>
        <time>2017-06-07T15:42:46Z</time>
      </trkpt>
      <trkpt lat="44.13519" lon="6.97432">
        <ele>2273</ele>
        <time>2017-06-07T15:43:02Z</time>
      </trkpt>
      <trkpt lat="44.13518" lon="6.97439">
        <ele>2273</ele>
        <time>2017-06-07T15:43:02Z</time>
      </trkpt>
      <trkpt lat="44.13517" lon="6.97443">
        <ele>2273</ele>
        <time>2017-06-07T15:43:02Z</time>
      </trkpt>
      <trkpt lat="44.13517" lon="6.97448">
        <ele>2273</ele>
        <time>2017-06-07T15:43:03Z</time>
      </trkpt>
      <trkpt lat="44.13515" lon="6.97449">
        <ele>2273</ele>
        <time>2017-06-07T15:43:19Z</time>
      </trkpt>
      <trkpt lat="44.1351" lon="6.97458">
        <ele>2271</ele>
        <time>2017-06-07T15:43:19Z</time>
      </trkpt>
      <trkpt lat="44.13507" lon="6.97461">
        <ele>2267</ele>
        <time>2017-06-07T15:43:19Z</time>
      </trkpt>
      <trkpt lat="44.13504" lon="6.97464">
        <ele>2267</ele>
        <time>2017-06-07T15:43:19Z</time>
      </trkpt>
      <trkpt lat="44.13503" lon="6.97463">
        <ele>2267</ele>
        <time>2017-06-07T15:43:34Z</time>
      </trkpt>
      <trkpt lat="44.13498" lon="6.97467">
        <ele>2267</ele>
        <time>2017-06-07T15:43:34Z</time>
      </trkpt>
      <trkpt lat="44.13495" lon="6.97468">
        <ele>2267</ele>
        <time>2017-06-07T15:43:34Z</time>
      </trkpt>
      <trkpt lat="44.13493" lon="6.97471">
        <ele>2267</ele>
        <time>2017-06-07T15:43:34Z</time>
      </trkpt>
      <trkpt lat="44.13493" lon="6.97474">
        <ele>2267</ele>
        <time>2017-06-07T15:43:51Z</time>
      </trkpt>
      <trkpt lat="44.13486" lon="6.9748">
        <ele>2264</ele>
        <time>2017-06-07T15:43:51Z</time>
      </trkpt>
      <trkpt lat="44.13484" lon="6.97483">
        <ele>2264</ele>
        <time>2017-06-07T15:43:51Z</time>
      </trkpt>
      <trkpt lat="44.13481" lon="6.97487">
        <ele>2260</ele>
        <time>2017-06-07T15:43:51Z</time>
      </trkpt>
      <trkpt lat="44.1348" lon="6.97486">
        <ele>2260</ele>
        <time>2017-06-07T15:44:11Z</time>
      </trkpt>
      <trkpt lat="44.13479" lon="6.97493">
        <ele>2260</ele>
        <time>2017-06-07T15:44:11Z</time>
      </trkpt>
      <trkpt lat="44.13479" lon="6.97495">
        <ele>2260</ele>
        <time>2017-06-07T15:44:11Z</time>
      </trkpt>
      <trkpt lat="44.13479" lon="6.97498">
        <ele>2260</ele>
        <time>2017-06-07T15:44:11Z</time>
      </trkpt>
      <trkpt lat="44.13477" lon="6.97503">
        <ele>2260</ele>
        <time>2017-06-07T15:44:11Z</time>
      </trkpt>
      <trkpt lat="44.13476" lon="6.97505">
        <ele>2260</ele>
        <time>2017-06-07T15:44:25Z</time>
      </trkpt>
      <trkpt lat="44.13477" lon="6.97511">
        <ele>2260</ele>
        <time>2017-06-07T15:44:25Z</time>
      </trkpt>
      <trkpt lat="44.13475" lon="6.97515">
        <ele>2252</ele>
        <time>2017-06-07T15:44:25Z</time>
      </trkpt>
      <trkpt lat="44.13476" lon="6.97519">
        <ele>2252</ele>
        <time>2017-06-07T15:44:26Z</time>
      </trkpt>
      <trkpt lat="44.13475" lon="6.97523">
        <ele>2252</ele>
        <time>2017-06-07T15:44:46Z</time>
      </trkpt>
      <trkpt lat="44.13476" lon="6.97531">
        <ele>2252</ele>
        <time>2017-06-07T15:44:46Z</time>
      </trkpt>
      <trkpt lat="44.13477" lon="6.97531">
        <ele>2252</ele>
        <time>2017-06-07T15:44:46Z</time>
      </trkpt>
      <trkpt lat="44.13479" lon="6.97533">
        <ele>2252</ele>
        <time>2017-06-07T15:44:46Z</time>
      </trkpt>
      <trkpt lat="44.13477" lon="6.97538">
        <ele>2252</ele>
        <time>2017-06-07T15:44:46Z</time>
      </trkpt>
      <trkpt lat="44.13477" lon="6.97539">
        <ele>2252</ele>
        <time>2017-06-07T15:45:05Z</time>
      </trkpt>
      <trkpt lat="44.13475" lon="6.97543">
        <ele>2247</ele>
        <time>2017-06-07T15:45:05Z</time>
      </trkpt>
      <trkpt lat="44.13476" lon="6.97546">
        <ele>2247</ele>
        <time>2017-06-07T15:45:05Z</time>
      </trkpt>
      <trkpt lat="44.13474" lon="6.97548">
        <ele>2247</ele>
        <time>2017-06-07T15:45:06Z</time>
      </trkpt>
      <trkpt lat="44.13474" lon="6.97552">
        <ele>2247</ele>
        <time>2017-06-07T15:45:06Z</time>
      </trkpt>
      <trkpt lat="44.13474" lon="6.97554">
        <ele>2247</ele>
        <time>2017-06-07T15:45:26Z</time>
      </trkpt>
      <trkpt lat="44.13474" lon="6.9756">
        <ele>2247</ele>
        <time>2017-06-07T15:45:26Z</time>
      </trkpt>
      <trkpt lat="44.13473" lon="6.97563">
        <ele>2247</ele>
        <time>2017-06-07T15:45:26Z</time>
      </trkpt>
      <trkpt lat="44.13474" lon="6.97564">
        <ele>2247</ele>
        <time>2017-06-07T15:45:26Z</time>
      </trkpt>
      <trkpt lat="44.13473" lon="6.97569">
        <ele>2247</ele>
        <time>2017-06-07T15:45:26Z</time>
      </trkpt>
      <trkpt lat="44.13477" lon="6.97576">
        <ele>2242</ele>
        <time>2017-06-07T15:46:02Z</time>
      </trkpt>
      <trkpt lat="44.13477" lon="6.97577">
        <ele>2242</ele>
        <time>2017-06-07T15:46:02Z</time>
      </trkpt>
      <trkpt lat="44.13476" lon="6.97584">
        <ele>2242</ele>
        <time>2017-06-07T15:46:02Z</time>
      </trkpt>
      <trkpt lat="44.13473" lon="6.97588">
        <ele>2242</ele>
        <time>2017-06-07T15:46:02Z</time>
      </trkpt>
      <trkpt lat="44.1347" lon="6.97591">
        <ele>2242</ele>
        <time>2017-06-07T15:46:02Z</time>
      </trkpt>
      <trkpt lat="44.13469" lon="6.97593">
        <ele>2242</ele>
        <time>2017-06-07T15:46:18Z</time>
      </trkpt>
      <trkpt lat="44.13465" lon="6.97604">
        <ele>2235</ele>
        <time>2017-06-07T15:46:18Z</time>
      </trkpt>
      <trkpt lat="44.13462" lon="6.97609">
        <ele>2235</ele>
        <time>2017-06-07T15:46:18Z</time>
      </trkpt>
      <trkpt lat="44.13461" lon="6.97612">
        <ele>2235</ele>
        <time>2017-06-07T15:46:18Z</time>
      </trkpt>
      <trkpt lat="44.1346" lon="6.97616">
        <ele>2235</ele>
        <time>2017-06-07T15:46:35Z</time>
      </trkpt>
      <trkpt lat="44.13457" lon="6.97622">
        <ele>2233</ele>
        <time>2017-06-07T15:46:35Z</time>
      </trkpt>
      <trkpt lat="44.13456" lon="6.97624">
        <ele>2233</ele>
        <time>2017-06-07T15:46:35Z</time>
      </trkpt>
      <trkpt lat="44.13453" lon="6.97629">
        <ele>2225</ele>
        <time>2017-06-07T15:46:35Z</time>
      </trkpt>
      <trkpt lat="44.13453" lon="6.9763">
        <ele>2225</ele>
        <time>2017-06-07T15:46:52Z</time>
      </trkpt>
      <trkpt lat="44.13449" lon="6.97632">
        <ele>2225</ele>
        <time>2017-06-07T15:46:52Z</time>
      </trkpt>
      <trkpt lat="44.13447" lon="6.97638">
        <ele>2225</ele>
        <time>2017-06-07T15:46:52Z</time>
      </trkpt>
      <trkpt lat="44.13448" lon="6.97641">
        <ele>2225</ele>
        <time>2017-06-07T15:46:52Z</time>
      </trkpt>
      <trkpt lat="44.13447" lon="6.97642">
        <ele>2225</ele>
        <time>2017-06-07T15:46:53Z</time>
      </trkpt>
      <trkpt lat="44.13449" lon="6.97643">
        <ele>2225</ele>
        <time>2017-06-07T15:47:09Z</time>
      </trkpt>
      <trkpt lat="44.13448" lon="6.97646">
        <ele>2225</ele>
        <time>2017-06-07T15:47:09Z</time>
      </trkpt>
      <trkpt lat="44.13445" lon="6.97653">
        <ele>2219</ele>
        <time>2017-06-07T15:47:10Z</time>
      </trkpt>
      <trkpt lat="44.13446" lon="6.97657">
        <ele>2219</ele>
        <time>2017-06-07T15:47:10Z</time>
      </trkpt>
      <trkpt lat="44.13446" lon="6.97661">
        <ele>2219</ele>
        <time>2017-06-07T15:47:26Z</time>
      </trkpt>
      <trkpt lat="44.13447" lon="6.97668">
        <ele>2219</ele>
        <time>2017-06-07T15:47:27Z</time>
      </trkpt>
      <trkpt lat="44.13446" lon="6.97669">
        <ele>2219</ele>
        <time>2017-06-07T15:47:27Z</time>
      </trkpt>
      <trkpt lat="44.13448" lon="6.97677">
        <ele>2219</ele>
        <time>2017-06-07T15:47:27Z</time>
      </trkpt>
      <trkpt lat="44.13447" lon="6.97678">
        <ele>2219</ele>
        <time>2017-06-07T15:47:41Z</time>
      </trkpt>
      <trkpt lat="44.13445" lon="6.97685">
        <ele>2215</ele>
        <time>2017-06-07T15:47:41Z</time>
      </trkpt>
      <trkpt lat="44.13442" lon="6.9769">
        <ele>2215</ele>
        <time>2017-06-07T15:47:41Z</time>
      </trkpt>
      <trkpt lat="44.13442" lon="6.97692">
        <ele>2215</ele>
        <time>2017-06-07T15:47:41Z</time>
      </trkpt>
      <trkpt lat="44.1344" lon="6.97695">
        <ele>2215</ele>
        <time>2017-06-07T15:47:57Z</time>
      </trkpt>
      <trkpt lat="44.1344" lon="6.97699">
        <ele>2215</ele>
        <time>2017-06-07T15:47:57Z</time>
      </trkpt>
      <trkpt lat="44.13441" lon="6.97703">
        <ele>2215</ele>
        <time>2017-06-07T15:47:58Z</time>
      </trkpt>
      <trkpt lat="44.1344" lon="6.97708">
        <ele>2215</ele>
        <time>2017-06-07T15:47:58Z</time>
      </trkpt>
      <trkpt lat="44.1344" lon="6.97714">
        <ele>2211</ele>
        <time>2017-06-07T15:48:15Z</time>
      </trkpt>
      <trkpt lat="44.13439" lon="6.97721">
        <ele>2211</ele>
        <time>2017-06-07T15:48:15Z</time>
      </trkpt>
      <trkpt lat="44.13437" lon="6.97724">
        <ele>2211</ele>
        <time>2017-06-07T15:48:15Z</time>
      </trkpt>
      <trkpt lat="44.13434" lon="6.97727">
        <ele>2211</ele>
        <time>2017-06-07T15:48:15Z</time>
      </trkpt>
      <trkpt lat="44.13434" lon="6.97728">
        <ele>2211</ele>
        <time>2017-06-07T15:48:30Z</time>
      </trkpt>
      <trkpt lat="44.13432" lon="6.97732">
        <ele>2211</ele>
        <time>2017-06-07T15:48:30Z</time>
      </trkpt>
      <trkpt lat="44.13431" lon="6.97736">
        <ele>2211</ele>
        <time>2017-06-07T15:48:30Z</time>
      </trkpt>
      <trkpt lat="44.13427" lon="6.97742">
        <ele>2207</ele>
        <time>2017-06-07T15:48:31Z</time>
      </trkpt>
      <trkpt lat="44.13427" lon="6.97742">
        <ele>2207</ele>
        <time>2017-06-07T15:48:44Z</time>
      </trkpt>
      <trkpt lat="44.13423" lon="6.9775">
        <ele>2207</ele>
        <time>2017-06-07T15:48:44Z</time>
      </trkpt>
      <trkpt lat="44.13422" lon="6.97752">
        <ele>2207</ele>
        <time>2017-06-07T15:48:45Z</time>
      </trkpt>
      <trkpt lat="44.1342" lon="6.97758">
        <ele>2207</ele>
        <time>2017-06-07T15:48:45Z</time>
      </trkpt>
      <trkpt lat="44.13419" lon="6.97762">
        <ele>2207</ele>
        <time>2017-06-07T15:49:07Z</time>
      </trkpt>
      <trkpt lat="44.13418" lon="6.97768">
        <ele>2200</ele>
        <time>2017-06-07T15:49:07Z</time>
      </trkpt>
      <trkpt lat="44.13418" lon="6.97772">
        <ele>2200</ele>
        <time>2017-06-07T15:49:07Z</time>
      </trkpt>
      <trkpt lat="44.13416" lon="6.97774">
        <ele>2200</ele>
        <time>2017-06-07T15:49:07Z</time>
      </trkpt>
      <trkpt lat="44.13414" lon="6.97779">
        <ele>2200</ele>
        <time>2017-06-07T15:49:07Z</time>
      </trkpt>
      <trkpt lat="44.13413" lon="6.97781">
        <ele>2200</ele>
        <time>2017-06-07T15:49:22Z</time>
      </trkpt>
      <trkpt lat="44.1341" lon="6.97786">
        <ele>2200</ele>
        <time>2017-06-07T15:49:22Z</time>
      </trkpt>
      <trkpt lat="44.13409" lon="6.97791">
        <ele>2200</ele>
        <time>2017-06-07T15:49:23Z</time>
      </trkpt>
      <trkpt lat="44.13408" lon="6.97794">
        <ele>2193</ele>
        <time>2017-06-07T15:49:23Z</time>
      </trkpt>
      <trkpt lat="44.13407" lon="6.97797">
        <ele>2193</ele>
        <time>2017-06-07T15:49:38Z</time>
      </trkpt>
      <trkpt lat="44.13403" lon="6.97803">
        <ele>2193</ele>
        <time>2017-06-07T15:49:38Z</time>
      </trkpt>
      <trkpt lat="44.13402" lon="6.97804">
        <ele>2190</ele>
        <time>2017-06-07T15:49:38Z</time>
      </trkpt>
      <trkpt lat="44.13401" lon="6.9781">
        <ele>2190</ele>
        <time>2017-06-07T15:49:38Z</time>
      </trkpt>
      <trkpt lat="44.13398" lon="6.97813">
        <ele>2190</ele>
        <time>2017-06-07T15:49:54Z</time>
      </trkpt>
      <trkpt lat="44.13394" lon="6.9782">
        <ele>2184</ele>
        <time>2017-06-07T15:49:54Z</time>
      </trkpt>
      <trkpt lat="44.13393" lon="6.97823">
        <ele>2184</ele>
        <time>2017-06-07T15:49:54Z</time>
      </trkpt>
      <trkpt lat="44.1339" lon="6.97826">
        <ele>2184</ele>
        <time>2017-06-07T15:49:54Z</time>
      </trkpt>
      <trkpt lat="44.13391" lon="6.9783">
        <ele>2184</ele>
        <time>2017-06-07T15:50:11Z</time>
      </trkpt>
      <trkpt lat="44.13389" lon="6.97834">
        <ele>2184</ele>
        <time>2017-06-07T15:50:11Z</time>
      </trkpt>
      <trkpt lat="44.13388" lon="6.97838">
        <ele>2184</ele>
        <time>2017-06-07T15:50:11Z</time>
      </trkpt>
      <trkpt lat="44.13384" lon="6.97843">
        <ele>2184</ele>
        <time>2017-06-07T15:50:11Z</time>
      </trkpt>
      <trkpt lat="44.13383" lon="6.97844">
        <ele>2184</ele>
        <time>2017-06-07T15:50:26Z</time>
      </trkpt>
      <trkpt lat="44.13381" lon="6.9785">
        <ele>2177</ele>
        <time>2017-06-07T15:50:26Z</time>
      </trkpt>
      <trkpt lat="44.1338" lon="6.97851">
        <ele>2177</ele>
        <time>2017-06-07T15:50:27Z</time>
      </trkpt>
      <trkpt lat="44.13378" lon="6.97855">
        <ele>2177</ele>
        <time>2017-06-07T15:50:27Z</time>
      </trkpt>
      <trkpt lat="44.13377" lon="6.97857">
        <ele>2177</ele>
        <time>2017-06-07T15:50:46Z</time>
      </trkpt>
      <trkpt lat="44.13372" lon="6.97861">
        <ele>2177</ele>
        <time>2017-06-07T15:50:46Z</time>
      </trkpt>
      <trkpt lat="44.1337" lon="6.97863">
        <ele>2177</ele>
        <time>2017-06-07T15:50:46Z</time>
      </trkpt>
      <trkpt lat="44.13372" lon="6.97867">
        <ele>2177</ele>
        <time>2017-06-07T15:50:46Z</time>
      </trkpt>
      <trkpt lat="44.13375" lon="6.97871">
        <ele>2177</ele>
        <time>2017-06-07T15:50:46Z</time>
      </trkpt>
      <trkpt lat="44.13375" lon="6.97872">
        <ele>2177</ele>
        <time>2017-06-07T15:51:01Z</time>
      </trkpt>
      <trkpt lat="44.13381" lon="6.9788">
        <ele>2172</ele>
        <time>2017-06-07T15:51:01Z</time>
      </trkpt>
      <trkpt lat="44.13383" lon="6.97884">
        <ele>2172</ele>
        <time>2017-06-07T15:51:01Z</time>
      </trkpt>
      <trkpt lat="44.13381" lon="6.97888">
        <ele>2172</ele>
        <time>2017-06-07T15:51:01Z</time>
      </trkpt>
      <trkpt lat="44.13381" lon="6.9789">
        <ele>2172</ele>
        <time>2017-06-07T15:51:18Z</time>
      </trkpt>
      <trkpt lat="44.13383" lon="6.97897">
        <ele>2172</ele>
        <time>2017-06-07T15:51:18Z</time>
      </trkpt>
      <trkpt lat="44.13382" lon="6.97901">
        <ele>2172</ele>
        <time>2017-06-07T15:51:18Z</time>
      </trkpt>
      <trkpt lat="44.13383" lon="6.97907">
        <ele>2168</ele>
        <time>2017-06-07T15:51:18Z</time>
      </trkpt>
      <trkpt lat="44.13383" lon="6.97911">
        <ele>2168</ele>
        <time>2017-06-07T15:51:37Z</time>
      </trkpt>
      <trkpt lat="44.13386" lon="6.97914">
        <ele>2168</ele>
        <time>2017-06-07T15:51:38Z</time>
      </trkpt>
      <trkpt lat="44.13387" lon="6.97916">
        <ele>2168</ele>
        <time>2017-06-07T15:51:38Z</time>
      </trkpt>
      <trkpt lat="44.13387" lon="6.97918">
        <ele>2168</ele>
        <time>2017-06-07T15:51:38Z</time>
      </trkpt>
      <trkpt lat="44.13389" lon="6.97921">
        <ele>2168</ele>
        <time>2017-06-07T15:51:38Z</time>
      </trkpt>
      <trkpt lat="44.13389" lon="6.97923">
        <ele>2168</ele>
        <time>2017-06-07T15:51:55Z</time>
      </trkpt>
      <trkpt lat="44.13391" lon="6.97929">
        <ele>2168</ele>
        <time>2017-06-07T15:51:55Z</time>
      </trkpt>
      <trkpt lat="44.13394" lon="6.97931">
        <ele>2165</ele>
        <time>2017-06-07T15:51:55Z</time>
      </trkpt>
      <trkpt lat="44.13394" lon="6.97938">
        <ele>2165</ele>
        <time>2017-06-07T15:51:55Z</time>
      </trkpt>
      <trkpt lat="44.13394" lon="6.9794">
        <ele>2165</ele>
        <time>2017-06-07T15:52:10Z</time>
      </trkpt>
      <trkpt lat="44.13396" lon="6.97942">
        <ele>2165</ele>
        <time>2017-06-07T15:52:10Z</time>
      </trkpt>
      <trkpt lat="44.13398" lon="6.97947">
        <ele>2165</ele>
        <time>2017-06-07T15:52:11Z</time>
      </trkpt>
      <trkpt lat="44.13399" lon="6.97953">
        <ele>2165</ele>
        <time>2017-06-07T15:52:11Z</time>
      </trkpt>
      <trkpt lat="44.134" lon="6.97954">
        <ele>2165</ele>
        <time>2017-06-07T15:52:30Z</time>
      </trkpt>
      <trkpt lat="44.13403" lon="6.97955">
        <ele>2159</ele>
        <time>2017-06-07T15:52:30Z</time>
      </trkpt>
      <trkpt lat="44.13403" lon="6.97958">
        <ele>2159</ele>
        <time>2017-06-07T15:52:30Z</time>
      </trkpt>
      <trkpt lat="44.13406" lon="6.9796">
        <ele>2154</ele>
        <time>2017-06-07T15:52:30Z</time>
      </trkpt>
      <trkpt lat="44.13407" lon="6.97963">
        <ele>2154</ele>
        <time>2017-06-07T15:52:30Z</time>
      </trkpt>
      <trkpt lat="44.13404" lon="6.97974">
        <ele>2154</ele>
        <time>2017-06-07T15:57:08Z</time>
      </trkpt>
      <trkpt lat="44.13404" lon="6.97975">
        <ele>2154</ele>
        <time>2017-06-07T15:57:08Z</time>
      </trkpt>
      <trkpt lat="44.13404" lon="6.97975">
        <ele>2154</ele>
        <time>2017-06-07T15:57:08Z</time>
      </trkpt>
      <trkpt lat="44.13402" lon="6.97975">
        <ele>2159</ele>
        <time>2017-06-07T15:57:09Z</time>
      </trkpt>
      <trkpt lat="44.13402" lon="6.97975">
        <ele>2159</ele>
        <time>2017-06-07T15:57:09Z</time>
      </trkpt>
      <trkpt lat="44.13403" lon="6.97978">
        <ele>2154</ele>
        <time>2017-06-07T16:02:18Z</time>
      </trkpt>
      <trkpt lat="44.13404" lon="6.9798">
        <ele>2154</ele>
        <time>2017-06-07T16:02:18Z</time>
      </trkpt>
      <trkpt lat="44.13404" lon="6.97984">
        <ele>2154</ele>
        <time>2017-06-07T16:02:18Z</time>
      </trkpt>
      <trkpt lat="44.13403" lon="6.9799">
        <ele>2149</ele>
        <time>2017-06-07T16:02:18Z</time>
      </trkpt>
      <trkpt lat="44.13403" lon="6.97994">
        <ele>2149</ele>
        <time>2017-06-07T16:02:18Z</time>
      </trkpt>
      <trkpt lat="44.13403" lon="6.97998">
        <ele>2148</ele>
        <time>2017-06-07T16:02:36Z</time>
      </trkpt>
      <trkpt lat="44.13408" lon="6.98008">
        <ele>2148</ele>
        <time>2017-06-07T16:02:36Z</time>
      </trkpt>
      <trkpt lat="44.13407" lon="6.9801">
        <ele>2148</ele>
        <time>2017-06-07T16:02:36Z</time>
      </trkpt>
      <trkpt lat="44.13408" lon="6.98017">
        <ele>2144</ele>
        <time>2017-06-07T16:02:36Z</time>
      </trkpt>
      <trkpt lat="44.13408" lon="6.98019">
        <ele>2144</ele>
        <time>2017-06-07T16:02:50Z</time>
      </trkpt>
      <trkpt lat="44.13408" lon="6.98024">
        <ele>2144</ele>
        <time>2017-06-07T16:02:50Z</time>
      </trkpt>
      <trkpt lat="44.13407" lon="6.98029">
        <ele>2144</ele>
        <time>2017-06-07T16:02:50Z</time>
      </trkpt>
      <trkpt lat="44.13406" lon="6.98033">
        <ele>2144</ele>
        <time>2017-06-07T16:02:50Z</time>
      </trkpt>
      <trkpt lat="44.13404" lon="6.98037">
        <ele>2144</ele>
        <time>2017-06-07T16:03:07Z</time>
      </trkpt>
      <trkpt lat="44.13402" lon="6.98046">
        <ele>2141</ele>
        <time>2017-06-07T16:03:07Z</time>
      </trkpt>
      <trkpt lat="44.13402" lon="6.98048">
        <ele>2141</ele>
        <time>2017-06-07T16:03:07Z</time>
      </trkpt>
      <trkpt lat="44.13399" lon="6.98055">
        <ele>2141</ele>
        <time>2017-06-07T16:03:08Z</time>
      </trkpt>
      <trkpt lat="44.13398" lon="6.98057">
        <ele>2141</ele>
        <time>2017-06-07T16:03:22Z</time>
      </trkpt>
      <trkpt lat="44.13395" lon="6.98066">
        <ele>2141</ele>
        <time>2017-06-07T16:03:22Z</time>
      </trkpt>
      <trkpt lat="44.13393" lon="6.98069">
        <ele>2141</ele>
        <time>2017-06-07T16:03:22Z</time>
      </trkpt>
      <trkpt lat="44.1339" lon="6.98072">
        <ele>2139</ele>
        <time>2017-06-07T16:03:22Z</time>
      </trkpt>
      <trkpt lat="44.13386" lon="6.98073">
        <ele>2139</ele>
        <time>2017-06-07T16:03:39Z</time>
      </trkpt>
      <trkpt lat="44.1338" lon="6.98079">
        <ele>2139</ele>
        <time>2017-06-07T16:03:40Z</time>
      </trkpt>
      <trkpt lat="44.13378" lon="6.9808">
        <ele>2139</ele>
        <time>2017-06-07T16:03:40Z</time>
      </trkpt>
      <trkpt lat="44.1337" lon="6.98085">
        <ele>2137</ele>
        <time>2017-06-07T16:03:40Z</time>
      </trkpt>
      <trkpt lat="44.13364" lon="6.98091">
        <ele>2137</ele>
        <time>2017-06-07T16:03:57Z</time>
      </trkpt>
      <trkpt lat="44.13362" lon="6.98092">
        <ele>2137</ele>
        <time>2017-06-07T16:03:57Z</time>
      </trkpt>
      <trkpt lat="44.13358" lon="6.98096">
        <ele>2137</ele>
        <time>2017-06-07T16:03:57Z</time>
      </trkpt>
      <trkpt lat="44.13353" lon="6.981">
        <ele>2135</ele>
        <time>2017-06-07T16:03:57Z</time>
      </trkpt>
      <trkpt lat="44.13351" lon="6.98101">
        <ele>2135</ele>
        <time>2017-06-07T16:04:12Z</time>
      </trkpt>
      <trkpt lat="44.13347" lon="6.98104">
        <ele>2130</ele>
        <time>2017-06-07T16:04:12Z</time>
      </trkpt>
      <trkpt lat="44.13345" lon="6.98105">
        <ele>2130</ele>
        <time>2017-06-07T16:04:12Z</time>
      </trkpt>
      <trkpt lat="44.1334" lon="6.9811">
        <ele>2130</ele>
        <time>2017-06-07T16:04:13Z</time>
      </trkpt>
      <trkpt lat="44.13337" lon="6.98113">
        <ele>2130</ele>
        <time>2017-06-07T16:04:29Z</time>
      </trkpt>
      <trkpt lat="44.13331" lon="6.98117">
        <ele>2130</ele>
        <time>2017-06-07T16:04:29Z</time>
      </trkpt>
      <trkpt lat="44.13325" lon="6.98124">
        <ele>2130</ele>
        <time>2017-06-07T16:04:29Z</time>
      </trkpt>
      <trkpt lat="44.13324" lon="6.98126">
        <ele>2133</ele>
        <time>2017-06-07T16:04:30Z</time>
      </trkpt>
      <trkpt lat="44.13321" lon="6.98132">
        <ele>2133</ele>
        <time>2017-06-07T16:04:47Z</time>
      </trkpt>
      <trkpt lat="44.13317" lon="6.98136">
        <ele>2124</ele>
        <time>2017-06-07T16:04:47Z</time>
      </trkpt>
      <trkpt lat="44.13312" lon="6.98139">
        <ele>2124</ele>
        <time>2017-06-07T16:04:47Z</time>
      </trkpt>
      <trkpt lat="44.13308" lon="6.98141">
        <ele>2124</ele>
        <time>2017-06-07T16:04:47Z</time>
      </trkpt>
      <trkpt lat="44.13307" lon="6.98141">
        <ele>2124</ele>
        <time>2017-06-07T16:05:03Z</time>
      </trkpt>
      <trkpt lat="44.13304" lon="6.98141">
        <ele>2124</ele>
        <time>2017-06-07T16:05:03Z</time>
      </trkpt>
      <trkpt lat="44.13302" lon="6.98144">
        <ele>2124</ele>
        <time>2017-06-07T16:05:03Z</time>
      </trkpt>
      <trkpt lat="44.13296" lon="6.98147">
        <ele>2124</ele>
        <time>2017-06-07T16:05:03Z</time>
      </trkpt>
      <trkpt lat="44.13295" lon="6.98148">
        <ele>2124</ele>
        <time>2017-06-07T16:05:19Z</time>
      </trkpt>
      <trkpt lat="44.13289" lon="6.98154">
        <ele>2124</ele>
        <time>2017-06-07T16:05:19Z</time>
      </trkpt>
      <trkpt lat="44.13288" lon="6.98155">
        <ele>2124</ele>
        <time>2017-06-07T16:05:20Z</time>
      </trkpt>
      <trkpt lat="44.13283" lon="6.98161">
        <ele>2124</ele>
        <time>2017-06-07T16:05:20Z</time>
      </trkpt>
      <trkpt lat="44.13282" lon="6.98162">
        <ele>2124</ele>
        <time>2017-06-07T16:05:33Z</time>
      </trkpt>
      <trkpt lat="44.13279" lon="6.98165">
        <ele>2124</ele>
        <time>2017-06-07T16:05:33Z</time>
      </trkpt>
      <trkpt lat="44.13273" lon="6.98172">
        <ele>2124</ele>
        <time>2017-06-07T16:05:33Z</time>
      </trkpt>
      <trkpt lat="44.13272" lon="6.98173">
        <ele>2124</ele>
        <time>2017-06-07T16:05:33Z</time>
      </trkpt>
      <trkpt lat="44.1327" lon="6.98178">
        <ele>2124</ele>
        <time>2017-06-07T16:05:51Z</time>
      </trkpt>
      <trkpt lat="44.13266" lon="6.98182">
        <ele>2127</ele>
        <time>2017-06-07T16:05:51Z</time>
      </trkpt>
      <trkpt lat="44.13266" lon="6.98185">
        <ele>2127</ele>
        <time>2017-06-07T16:05:52Z</time>
      </trkpt>
      <trkpt lat="44.13263" lon="6.98192">
        <ele>2119</ele>
        <time>2017-06-07T16:05:52Z</time>
      </trkpt>
      <trkpt lat="44.13255" lon="6.98202">
        <ele>2119</ele>
        <time>2017-06-07T16:06:10Z</time>
      </trkpt>
      <trkpt lat="44.13254" lon="6.98204">
        <ele>2119</ele>
        <time>2017-06-07T16:06:10Z</time>
      </trkpt>
      <trkpt lat="44.13252" lon="6.98209">
        <ele>2122</ele>
        <time>2017-06-07T16:06:10Z</time>
      </trkpt>
      <trkpt lat="44.1325" lon="6.98214">
        <ele>2122</ele>
        <time>2017-06-07T16:06:11Z</time>
      </trkpt>
      <trkpt lat="44.13249" lon="6.98217">
        <ele>2122</ele>
        <time>2017-06-07T16:06:25Z</time>
      </trkpt>
      <trkpt lat="44.13247" lon="6.98224">
        <ele>2122</ele>
        <time>2017-06-07T16:06:25Z</time>
      </trkpt>
      <trkpt lat="44.13245" lon="6.98226">
        <ele>2122</ele>
        <time>2017-06-07T16:06:25Z</time>
      </trkpt>
      <trkpt lat="44.13242" lon="6.98229">
        <ele>2122</ele>
        <time>2017-06-07T16:06:25Z</time>
      </trkpt>
      <trkpt lat="44.13243" lon="6.98237">
        <ele>2122</ele>
        <time>2017-06-07T16:06:42Z</time>
      </trkpt>
      <trkpt lat="44.13245" lon="6.98246">
        <ele>2122</ele>
        <time>2017-06-07T16:06:42Z</time>
      </trkpt>
      <trkpt lat="44.13246" lon="6.98252">
        <ele>2122</ele>
        <time>2017-06-07T16:06:42Z</time>
      </trkpt>
      <trkpt lat="44.1325" lon="6.98257">
        <ele>2122</ele>
        <time>2017-06-07T16:06:43Z</time>
      </trkpt>
      <trkpt lat="44.13251" lon="6.98259">
        <ele>2122</ele>
        <time>2017-06-07T16:07:00Z</time>
      </trkpt>
      <trkpt lat="44.13255" lon="6.9827">
        <ele>2121</ele>
        <time>2017-06-07T16:07:00Z</time>
      </trkpt>
      <trkpt lat="44.13256" lon="6.98272">
        <ele>2121</ele>
        <time>2017-06-07T16:07:00Z</time>
      </trkpt>
      <trkpt lat="44.13262" lon="6.98282">
        <ele>2121</ele>
        <time>2017-06-07T16:07:00Z</time>
      </trkpt>
      <trkpt lat="44.13263" lon="6.98283">
        <ele>2121</ele>
        <time>2017-06-07T16:07:12Z</time>
      </trkpt>
      <trkpt lat="44.13263" lon="6.9829">
        <ele>2121</ele>
        <time>2017-06-07T16:07:12Z</time>
      </trkpt>
      <trkpt lat="44.13265" lon="6.98296">
        <ele>2119</ele>
        <time>2017-06-07T16:07:12Z</time>
      </trkpt>
      <trkpt lat="44.13267" lon="6.983">
        <ele>2119</ele>
        <time>2017-06-07T16:07:12Z</time>
      </trkpt>
      <trkpt lat="44.13269" lon="6.98299">
        <ele>2119</ele>
        <time>2017-06-07T16:07:31Z</time>
      </trkpt>
      <trkpt lat="44.1327" lon="6.98304">
        <ele>2119</ele>
        <time>2017-06-07T16:07:31Z</time>
      </trkpt>
      <trkpt lat="44.13274" lon="6.98311">
        <ele>2119</ele>
        <time>2017-06-07T16:07:31Z</time>
      </trkpt>
      <trkpt lat="44.13275" lon="6.98318">
        <ele>2119</ele>
        <time>2017-06-07T16:07:31Z</time>
      </trkpt>
      <trkpt lat="44.13275" lon="6.98319">
        <ele>2119</ele>
        <time>2017-06-07T16:07:45Z</time>
      </trkpt>
      <trkpt lat="44.13274" lon="6.98326">
        <ele>2115</ele>
        <time>2017-06-07T16:07:45Z</time>
      </trkpt>
      <trkpt lat="44.13272" lon="6.98331">
        <ele>2115</ele>
        <time>2017-06-07T16:07:45Z</time>
      </trkpt>
      <trkpt lat="44.13272" lon="6.98335">
        <ele>2115</ele>
        <time>2017-06-07T16:07:46Z</time>
      </trkpt>
      <trkpt lat="44.13271" lon="6.9834">
        <ele>2115</ele>
        <time>2017-06-07T16:08:02Z</time>
      </trkpt>
      <trkpt lat="44.13269" lon="6.98353">
        <ele>2113</ele>
        <time>2017-06-07T16:08:02Z</time>
      </trkpt>
      <trkpt lat="44.13269" lon="6.98355">
        <ele>2113</ele>
        <time>2017-06-07T16:08:02Z</time>
      </trkpt>
      <trkpt lat="44.13269" lon="6.98361">
        <ele>2113</ele>
        <time>2017-06-07T16:08:02Z</time>
      </trkpt>
      <trkpt lat="44.13269" lon="6.98366">
        <ele>2113</ele>
        <time>2017-06-07T16:08:18Z</time>
      </trkpt>
      <trkpt lat="44.13267" lon="6.98375">
        <ele>2113</ele>
        <time>2017-06-07T16:08:18Z</time>
      </trkpt>
      <trkpt lat="44.13266" lon="6.98376">
        <ele>2112</ele>
        <time>2017-06-07T16:08:18Z</time>
      </trkpt>
      <trkpt lat="44.13263" lon="6.98385">
        <ele>2112</ele>
        <time>2017-06-07T16:08:18Z</time>
      </trkpt>
      <trkpt lat="44.13263" lon="6.98387">
        <ele>2112</ele>
        <time>2017-06-07T16:08:34Z</time>
      </trkpt>
      <trkpt lat="44.13262" lon="6.98395">
        <ele>2112</ele>
        <time>2017-06-07T16:08:34Z</time>
      </trkpt>
      <trkpt lat="44.13263" lon="6.98397">
        <ele>2112</ele>
        <time>2017-06-07T16:08:35Z</time>
      </trkpt>
      <trkpt lat="44.13262" lon="6.98403">
        <ele>2112</ele>
        <time>2017-06-07T16:08:35Z</time>
      </trkpt>
      <trkpt lat="44.13261" lon="6.98404">
        <ele>2111</ele>
        <time>2017-06-07T16:08:51Z</time>
      </trkpt>
      <trkpt lat="44.13258" lon="6.98412">
        <ele>2111</ele>
        <time>2017-06-07T16:08:51Z</time>
      </trkpt>
      <trkpt lat="44.13257" lon="6.98415">
        <ele>2111</ele>
        <time>2017-06-07T16:08:51Z</time>
      </trkpt>
      <trkpt lat="44.13258" lon="6.98421">
        <ele>2111</ele>
        <time>2017-06-07T16:08:51Z</time>
      </trkpt>
      <trkpt lat="44.13256" lon="6.98429">
        <ele>2111</ele>
        <time>2017-06-07T16:09:34Z</time>
      </trkpt>
      <trkpt lat="44.13256" lon="6.98431">
        <ele>2107</ele>
        <time>2017-06-07T16:09:34Z</time>
      </trkpt>
      <trkpt lat="44.13255" lon="6.98436">
        <ele>2107</ele>
        <time>2017-06-07T16:09:34Z</time>
      </trkpt>
      <trkpt lat="44.13252" lon="6.98442">
        <ele>2107</ele>
        <time>2017-06-07T16:09:34Z</time>
      </trkpt>
      <trkpt lat="44.13251" lon="6.98448">
        <ele>2107</ele>
        <time>2017-06-07T16:09:34Z</time>
      </trkpt>
      <trkpt lat="44.1325" lon="6.98449">
        <ele>2107</ele>
        <time>2017-06-07T16:09:52Z</time>
      </trkpt>
      <trkpt lat="44.13242" lon="6.98459">
        <ele>2100</ele>
        <time>2017-06-07T16:09:52Z</time>
      </trkpt>
      <trkpt lat="44.13241" lon="6.98461">
        <ele>2100</ele>
        <time>2017-06-07T16:09:52Z</time>
      </trkpt>
      <trkpt lat="44.13234" lon="6.98468">
        <ele>2103</ele>
        <time>2017-06-07T16:09:52Z</time>
      </trkpt>
      <trkpt lat="44.13234" lon="6.98468">
        <ele>2103</ele>
        <time>2017-06-07T16:10:05Z</time>
      </trkpt>
      <trkpt lat="44.13231" lon="6.98473">
        <ele>2103</ele>
        <time>2017-06-07T16:10:06Z</time>
      </trkpt>
      <trkpt lat="44.13227" lon="6.98476">
        <ele>2103</ele>
        <time>2017-06-07T16:10:07Z</time>
      </trkpt>
      <trkpt lat="44.13224" lon="6.9848">
        <ele>2103</ele>
        <time>2017-06-07T16:10:07Z</time>
      </trkpt>
      <trkpt lat="44.13222" lon="6.98482">
        <ele>2103</ele>
        <time>2017-06-07T16:10:23Z</time>
      </trkpt>
      <trkpt lat="44.13219" lon="6.98486">
        <ele>2095</ele>
        <time>2017-06-07T16:10:23Z</time>
      </trkpt>
      <trkpt lat="44.13216" lon="6.9849">
        <ele>2095</ele>
        <time>2017-06-07T16:10:23Z</time>
      </trkpt>
      <trkpt lat="44.13211" lon="6.98496">
        <ele>2095</ele>
        <time>2017-06-07T16:10:23Z</time>
      </trkpt>
      <trkpt lat="44.1321" lon="6.98497">
        <ele>2095</ele>
        <time>2017-06-07T16:10:39Z</time>
      </trkpt>
      <trkpt lat="44.13206" lon="6.98503">
        <ele>2095</ele>
        <time>2017-06-07T16:10:39Z</time>
      </trkpt>
      <trkpt lat="44.13204" lon="6.98505">
        <ele>2095</ele>
        <time>2017-06-07T16:10:40Z</time>
      </trkpt>
      <trkpt lat="44.132" lon="6.98509">
        <ele>2095</ele>
        <time>2017-06-07T16:10:40Z</time>
      </trkpt>
      <trkpt lat="44.13199" lon="6.9851">
        <ele>2095</ele>
        <time>2017-06-07T16:10:55Z</time>
      </trkpt>
      <trkpt lat="44.13194" lon="6.98516">
        <ele>2090</ele>
        <time>2017-06-07T16:10:55Z</time>
      </trkpt>
      <trkpt lat="44.13193" lon="6.98519">
        <ele>2090</ele>
        <time>2017-06-07T16:10:55Z</time>
      </trkpt>
      <trkpt lat="44.13188" lon="6.98525">
        <ele>2090</ele>
        <time>2017-06-07T16:10:55Z</time>
      </trkpt>
      <trkpt lat="44.13188" lon="6.98525">
        <ele>2090</ele>
        <time>2017-06-07T16:11:11Z</time>
      </trkpt>
      <trkpt lat="44.13183" lon="6.98533">
        <ele>2090</ele>
        <time>2017-06-07T16:11:11Z</time>
      </trkpt>
      <trkpt lat="44.13182" lon="6.98536">
        <ele>2090</ele>
        <time>2017-06-07T16:11:12Z</time>
      </trkpt>
      <trkpt lat="44.1318" lon="6.98541">
        <ele>2089</ele>
        <time>2017-06-07T16:11:12Z</time>
      </trkpt>
      <trkpt lat="44.13179" lon="6.98543">
        <ele>2084</ele>
        <time>2017-06-07T16:11:27Z</time>
      </trkpt>
      <trkpt lat="44.13176" lon="6.98553">
        <ele>2084</ele>
        <time>2017-06-07T16:11:27Z</time>
      </trkpt>
      <trkpt lat="44.13175" lon="6.98558">
        <ele>2084</ele>
        <time>2017-06-07T16:11:27Z</time>
      </trkpt>
      <trkpt lat="44.13173" lon="6.98563">
        <ele>2084</ele>
        <time>2017-06-07T16:11:27Z</time>
      </trkpt>
      <trkpt lat="44.13172" lon="6.98564">
        <ele>2084</ele>
        <time>2017-06-07T16:11:43Z</time>
      </trkpt>
      <trkpt lat="44.13168" lon="6.98571">
        <ele>2078</ele>
        <time>2017-06-07T16:11:43Z</time>
      </trkpt>
      <trkpt lat="44.13167" lon="6.98573">
        <ele>2078</ele>
        <time>2017-06-07T16:11:44Z</time>
      </trkpt>
      <trkpt lat="44.13166" lon="6.98578">
        <ele>2078</ele>
        <time>2017-06-07T16:11:44Z</time>
      </trkpt>
      <trkpt lat="44.13166" lon="6.9858">
        <ele>2078</ele>
        <time>2017-06-07T16:11:58Z</time>
      </trkpt>
      <trkpt lat="44.1316" lon="6.98585">
        <ele>2078</ele>
        <time>2017-06-07T16:11:58Z</time>
      </trkpt>
      <trkpt lat="44.13156" lon="6.98588">
        <ele>2078</ele>
        <time>2017-06-07T16:11:58Z</time>
      </trkpt>
      <trkpt lat="44.13155" lon="6.98589">
        <ele>2078</ele>
        <time>2017-06-07T16:11:58Z</time>
      </trkpt>
      <trkpt lat="44.13153" lon="6.98593">
        <ele>2076</ele>
        <time>2017-06-07T16:12:19Z</time>
      </trkpt>
      <trkpt lat="44.13151" lon="6.98597">
        <ele>2076</ele>
        <time>2017-06-07T16:12:19Z</time>
      </trkpt>
      <trkpt lat="44.13152" lon="6.986">
        <ele>2072</ele>
        <time>2017-06-07T16:12:19Z</time>
      </trkpt>
      <trkpt lat="44.13151" lon="6.98604">
        <ele>2072</ele>
        <time>2017-06-07T16:12:19Z</time>
      </trkpt>
      <trkpt lat="44.13152" lon="6.98611">
        <ele>2072</ele>
        <time>2017-06-07T16:12:20Z</time>
      </trkpt>
      <trkpt lat="44.13152" lon="6.98613">
        <ele>2072</ele>
        <time>2017-06-07T16:12:35Z</time>
      </trkpt>
      <trkpt lat="44.13151" lon="6.98622">
        <ele>2072</ele>
        <time>2017-06-07T16:12:35Z</time>
      </trkpt>
      <trkpt lat="44.1315" lon="6.98627">
        <ele>2066</ele>
        <time>2017-06-07T16:12:35Z</time>
      </trkpt>
      <trkpt lat="44.13148" lon="6.98633">
        <ele>2066</ele>
        <time>2017-06-07T16:12:35Z</time>
      </trkpt>
      <trkpt lat="44.13148" lon="6.98635">
        <ele>2066</ele>
        <time>2017-06-07T16:12:51Z</time>
      </trkpt>
      <trkpt lat="44.13148" lon="6.98646">
        <ele>2066</ele>
        <time>2017-06-07T16:12:51Z</time>
      </trkpt>
      <trkpt lat="44.13147" lon="6.98649">
        <ele>2066</ele>
        <time>2017-06-07T16:12:51Z</time>
      </trkpt>
      <trkpt lat="44.13147" lon="6.98649">
        <ele>2066</ele>
        <time>2017-06-07T16:12:51Z</time>
      </trkpt>
      <trkpt lat="44.13139" lon="6.98654">
        <ele>2062</ele>
        <time>2017-06-07T16:13:52Z</time>
      </trkpt>
      <trkpt lat="44.13139" lon="6.98655">
        <ele>2062</ele>
        <time>2017-06-07T16:13:52Z</time>
      </trkpt>
      <trkpt lat="44.13138" lon="6.98655">
        <ele>2062</ele>
        <time>2017-06-07T16:13:53Z</time>
      </trkpt>
      <trkpt lat="44.13138" lon="6.98655">
        <ele>2062</ele>
        <time>2017-06-07T16:13:53Z</time>
      </trkpt>
      <trkpt lat="44.13136" lon="6.98659">
        <ele>2062</ele>
        <time>2017-06-07T16:13:53Z</time>
      </trkpt>
      <trkpt lat="44.13145" lon="6.98668">
        <ele>2062</ele>
        <time>2017-06-07T16:15:48Z</time>
      </trkpt>
      <trkpt lat="44.13145" lon="6.98667">
        <ele>2062</ele>
        <time>2017-06-07T16:15:48Z</time>
      </trkpt>
      <trkpt lat="44.13148" lon="6.98668">
        <ele>2062</ele>
        <time>2017-06-07T16:15:48Z</time>
      </trkpt>
      <trkpt lat="44.13151" lon="6.98671">
        <ele>2062</ele>
        <time>2017-06-07T16:15:49Z</time>
      </trkpt>
      <trkpt lat="44.1315" lon="6.98673">
        <ele>2062</ele>
        <time>2017-06-07T16:15:49Z</time>
      </trkpt>
      <trkpt lat="44.13148" lon="6.98679">
        <ele>2062</ele>
        <time>2017-06-07T16:16:12Z</time>
      </trkpt>
      <trkpt lat="44.13149" lon="6.98683">
        <ele>2060</ele>
        <time>2017-06-07T16:16:12Z</time>
      </trkpt>
      <trkpt lat="44.13151" lon="6.98683">
        <ele>2060</ele>
        <time>2017-06-07T16:16:13Z</time>
      </trkpt>
      <trkpt lat="44.13151" lon="6.98687">
        <ele>2060</ele>
        <time>2017-06-07T16:16:13Z</time>
      </trkpt>
      <trkpt lat="44.13152" lon="6.98694">
        <ele>2060</ele>
        <time>2017-06-07T16:16:13Z</time>
      </trkpt>
      <trkpt lat="44.13153" lon="6.987">
        <ele>2051</ele>
        <time>2017-06-07T16:16:28Z</time>
      </trkpt>
      <trkpt lat="44.13154" lon="6.98705">
        <ele>2051</ele>
        <time>2017-06-07T16:16:29Z</time>
      </trkpt>
      <trkpt lat="44.13154" lon="6.98715">
        <ele>2045</ele>
        <time>2017-06-07T16:16:29Z</time>
      </trkpt>
      <trkpt lat="44.13155" lon="6.98721">
        <ele>2045</ele>
        <time>2017-06-07T16:16:29Z</time>
      </trkpt>
      <trkpt lat="44.13155" lon="6.98729">
        <ele>2045</ele>
        <time>2017-06-07T16:16:44Z</time>
      </trkpt>
      <trkpt lat="44.13155" lon="6.98733">
        <ele>2045</ele>
        <time>2017-06-07T16:16:44Z</time>
      </trkpt>
      <trkpt lat="44.13155" lon="6.98741">
        <ele>2039</ele>
        <time>2017-06-07T16:16:44Z</time>
      </trkpt>
      <trkpt lat="44.13156" lon="6.98746">
        <ele>2039</ele>
        <time>2017-06-07T16:16:45Z</time>
      </trkpt>
      <trkpt lat="44.13156" lon="6.9875">
        <ele>2039</ele>
        <time>2017-06-07T16:17:00Z</time>
      </trkpt>
      <trkpt lat="44.13155" lon="6.98764">
        <ele>2035</ele>
        <time>2017-06-07T16:17:00Z</time>
      </trkpt>
      <trkpt lat="44.13152" lon="6.98764">
        <ele>2053</ele>
        <time>2017-06-07T16:17:00Z</time>
      </trkpt>
      <trkpt lat="44.13151" lon="6.98768">
        <ele>2053</ele>
        <time>2017-06-07T16:17:01Z</time>
      </trkpt>
      <trkpt lat="44.13153" lon="6.98773">
        <ele>2053</ele>
        <time>2017-06-07T16:17:16Z</time>
      </trkpt>
      <trkpt lat="44.13155" lon="6.98777">
        <ele>2035</ele>
        <time>2017-06-07T16:17:16Z</time>
      </trkpt>
      <trkpt lat="44.13157" lon="6.98789">
        <ele>2035</ele>
        <time>2017-06-07T16:17:16Z</time>
      </trkpt>
      <trkpt lat="44.13156" lon="6.98792">
        <ele>2036</ele>
        <time>2017-06-07T16:17:17Z</time>
      </trkpt>
      <trkpt lat="44.13164" lon="6.9882">
        <ele>2039</ele>
        <time>2017-06-07T16:18:20Z</time>
      </trkpt>
      <trkpt lat="44.13164" lon="6.9882">
        <ele>2039</ele>
        <time>2017-06-07T16:18:20Z</time>
      </trkpt>
      <trkpt lat="44.13163" lon="6.9882">
        <ele>2039</ele>
        <time>2017-06-07T16:18:20Z</time>
      </trkpt>
      <trkpt lat="44.13163" lon="6.9882">
        <ele>2039</ele>
        <time>2017-06-07T16:18:21Z</time>
      </trkpt>
      <trkpt lat="44.13164" lon="6.98821">
        <ele>2039</ele>
        <time>2017-06-07T16:18:21Z</time>
      </trkpt>
      <trkpt lat="44.13163" lon="6.98821">
        <ele>2039</ele>
        <time>2017-06-07T16:18:44Z</time>
      </trkpt>
      <trkpt lat="44.13163" lon="6.98821">
        <ele>2039</ele>
        <time>2017-06-07T16:18:44Z</time>
      </trkpt>
      <trkpt lat="44.13163" lon="6.98823">
        <ele>2039</ele>
        <time>2017-06-07T16:18:45Z</time>
      </trkpt>
      <trkpt lat="44.13164" lon="6.9883">
        <ele>2039</ele>
        <time>2017-06-07T16:18:45Z</time>
      </trkpt>
      <trkpt lat="44.13164" lon="6.98834">
        <ele>2039</ele>
        <time>2017-06-07T16:18:45Z</time>
      </trkpt>
      <trkpt lat="44.13166" lon="6.98842">
        <ele>2039</ele>
        <time>2017-06-07T16:19:12Z</time>
      </trkpt>
      <trkpt lat="44.13167" lon="6.98842">
        <ele>2039</ele>
        <time>2017-06-07T16:19:12Z</time>
      </trkpt>
      <trkpt lat="44.13168" lon="6.98845">
        <ele>2039</ele>
        <time>2017-06-07T16:19:13Z</time>
      </trkpt>
      <trkpt lat="44.13168" lon="6.98849">
        <ele>2040</ele>
        <time>2017-06-07T16:19:13Z</time>
      </trkpt>
      <trkpt lat="44.13169" lon="6.98856">
        <ele>2040</ele>
        <time>2017-06-07T16:19:13Z</time>
      </trkpt>
      <trkpt lat="44.13168" lon="6.98861">
        <ele>2040</ele>
        <time>2017-06-07T16:19:28Z</time>
      </trkpt>
      <trkpt lat="44.13169" lon="6.98869">
        <ele>2040</ele>
        <time>2017-06-07T16:19:29Z</time>
      </trkpt>
      <trkpt lat="44.13169" lon="6.98875">
        <ele>2039</ele>
        <time>2017-06-07T16:19:29Z</time>
      </trkpt>
      <trkpt lat="44.13169" lon="6.98883">
        <ele>2039</ele>
        <time>2017-06-07T16:19:29Z</time>
      </trkpt>
      <trkpt lat="44.1317" lon="6.98892">
        <ele>2039</ele>
        <time>2017-06-07T16:19:44Z</time>
      </trkpt>
      <trkpt lat="44.1317" lon="6.98899">
        <ele>2039</ele>
        <time>2017-06-07T16:19:44Z</time>
      </trkpt>
      <trkpt lat="44.13169" lon="6.98909">
        <ele>2036</ele>
        <time>2017-06-07T16:19:44Z</time>
      </trkpt>
      <trkpt lat="44.13169" lon="6.98915">
        <ele>2036</ele>
        <time>2017-06-07T16:19:45Z</time>
      </trkpt>
      <trkpt lat="44.13172" lon="6.98919">
        <ele>2036</ele>
        <time>2017-06-07T16:20:04Z</time>
      </trkpt>
      <trkpt lat="44.13171" lon="6.98924">
        <ele>2036</ele>
        <time>2017-06-07T16:20:04Z</time>
      </trkpt>
      <trkpt lat="44.13172" lon="6.98926">
        <ele>2036</ele>
        <time>2017-06-07T16:20:04Z</time>
      </trkpt>
      <trkpt lat="44.13172" lon="6.98931">
        <ele>2031</ele>
        <time>2017-06-07T16:20:04Z</time>
      </trkpt>
      <trkpt lat="44.13175" lon="6.98937">
        <ele>2031</ele>
        <time>2017-06-07T16:20:05Z</time>
      </trkpt>
      <trkpt lat="44.13176" lon="6.98944">
        <ele>2031</ele>
        <time>2017-06-07T16:20:20Z</time>
      </trkpt>
      <trkpt lat="44.13176" lon="6.98951">
        <ele>2031</ele>
        <time>2017-06-07T16:20:20Z</time>
      </trkpt>
      <trkpt lat="44.13177" lon="6.98955">
        <ele>2031</ele>
        <time>2017-06-07T16:20:20Z</time>
      </trkpt>
      <trkpt lat="44.1318" lon="6.98961">
        <ele>2028</ele>
        <time>2017-06-07T16:20:21Z</time>
      </trkpt>
      <trkpt lat="44.13181" lon="6.98969">
        <ele>2020</ele>
        <time>2017-06-07T16:20:44Z</time>
      </trkpt>
      <trkpt lat="44.13178" lon="6.9898">
        <ele>2028</ele>
        <time>2017-06-07T16:20:44Z</time>
      </trkpt>
      <trkpt lat="44.13177" lon="6.98983">
        <ele>2028</ele>
        <time>2017-06-07T16:20:44Z</time>
      </trkpt>
      <trkpt lat="44.13172" lon="6.98995">
        <ele>2023</ele>
        <time>2017-06-07T16:20:44Z</time>
      </trkpt>
      <trkpt lat="44.13173" lon="6.98996">
        <ele>2023</ele>
        <time>2017-06-07T16:21:03Z</time>
      </trkpt>
      <trkpt lat="44.13178" lon="6.99002">
        <ele>2023</ele>
        <time>2017-06-07T16:21:03Z</time>
      </trkpt>
      <trkpt lat="44.13179" lon="6.99002">
        <ele>2023</ele>
        <time>2017-06-07T16:21:03Z</time>
      </trkpt>
      <trkpt lat="44.1318" lon="6.99004">
        <ele>2023</ele>
        <time>2017-06-07T16:21:03Z</time>
      </trkpt>
      <trkpt lat="44.13181" lon="6.99007">
        <ele>2023</ele>
        <time>2017-06-07T16:21:03Z</time>
      </trkpt>
      <trkpt lat="44.13181" lon="6.99008">
        <ele>2020</ele>
        <time>2017-06-07T16:21:16Z</time>
      </trkpt>
      <trkpt lat="44.13181" lon="6.9902">
        <ele>2020</ele>
        <time>2017-06-07T16:21:16Z</time>
      </trkpt>
      <trkpt lat="44.13181" lon="6.99024">
        <ele>2021</ele>
        <time>2017-06-07T16:21:16Z</time>
      </trkpt>
      <trkpt lat="44.13181" lon="6.99028">
        <ele>2020</ele>
        <time>2017-06-07T16:21:17Z</time>
      </trkpt>
      <trkpt lat="44.13182" lon="6.99035">
        <ele>2020</ele>
        <time>2017-06-07T16:21:33Z</time>
      </trkpt>
      <trkpt lat="44.13182" lon="6.99042">
        <ele>2023</ele>
        <time>2017-06-07T16:21:33Z</time>
      </trkpt>
      <trkpt lat="44.13183" lon="6.99049">
        <ele>2023</ele>
        <time>2017-06-07T16:21:33Z</time>
      </trkpt>
      <trkpt lat="44.13181" lon="6.99056">
        <ele>2023</ele>
        <time>2017-06-07T16:21:33Z</time>
      </trkpt>
      <trkpt lat="44.13176" lon="6.99065">
        <ele>2019</ele>
        <time>2017-06-07T16:21:51Z</time>
      </trkpt>
      <trkpt lat="44.13172" lon="6.99075">
        <ele>2019</ele>
        <time>2017-06-07T16:21:51Z</time>
      </trkpt>
      <trkpt lat="44.13171" lon="6.99078">
        <ele>2019</ele>
        <time>2017-06-07T16:21:52Z</time>
      </trkpt>
      <trkpt lat="44.13169" lon="6.99086">
        <ele>2019</ele>
        <time>2017-06-07T16:21:52Z</time>
      </trkpt>
      <trkpt lat="44.13167" lon="6.9909">
        <ele>2019</ele>
        <time>2017-06-07T16:22:07Z</time>
      </trkpt>
      <trkpt lat="44.13159" lon="6.991">
        <ele>2017</ele>
        <time>2017-06-07T16:22:07Z</time>
      </trkpt>
      <trkpt lat="44.13158" lon="6.99103">
        <ele>2017</ele>
        <time>2017-06-07T16:22:07Z</time>
      </trkpt>
      <trkpt lat="44.13155" lon="6.99108">
        <ele>2017</ele>
        <time>2017-06-07T16:22:07Z</time>
      </trkpt>
      <trkpt lat="44.13153" lon="6.9911">
        <ele>2017</ele>
        <time>2017-06-07T16:22:23Z</time>
      </trkpt>
      <trkpt lat="44.1315" lon="6.99119">
        <ele>2004</ele>
        <time>2017-06-07T16:22:23Z</time>
      </trkpt>
      <trkpt lat="44.13147" lon="6.99123">
        <ele>2004</ele>
        <time>2017-06-07T16:22:23Z</time>
      </trkpt>
      <trkpt lat="44.13143" lon="6.9913">
        <ele>2000</ele>
        <time>2017-06-07T16:22:23Z</time>
      </trkpt>
      <trkpt lat="44.13142" lon="6.99131">
        <ele>2000</ele>
        <time>2017-06-07T16:22:38Z</time>
      </trkpt>
      <trkpt lat="44.13136" lon="6.99143">
        <ele>2000</ele>
        <time>2017-06-07T16:22:38Z</time>
      </trkpt>
      <trkpt lat="44.13135" lon="6.99144">
        <ele>2000</ele>
        <time>2017-06-07T16:22:38Z</time>
      </trkpt>
      <trkpt lat="44.13134" lon="6.99151">
        <ele>2000</ele>
        <time>2017-06-07T16:22:38Z</time>
      </trkpt>
      <trkpt lat="44.13134" lon="6.99155">
        <ele>2000</ele>
        <time>2017-06-07T16:22:55Z</time>
      </trkpt>
      <trkpt lat="44.13131" lon="6.99164">
        <ele>2000</ele>
        <time>2017-06-07T16:22:55Z</time>
      </trkpt>
      <trkpt lat="44.13131" lon="6.99164">
        <ele>2000</ele>
        <time>2017-06-07T16:22:55Z</time>
      </trkpt>
      <trkpt lat="44.13128" lon="6.99171">
        <ele>2000</ele>
        <time>2017-06-07T16:22:55Z</time>
      </trkpt>
      <trkpt lat="44.13125" lon="6.99181">
        <ele>1988</ele>
        <time>2017-06-07T16:23:20Z</time>
      </trkpt>
      <trkpt lat="44.13124" lon="6.99191">
        <ele>1988</ele>
        <time>2017-06-07T16:23:20Z</time>
      </trkpt>
      <trkpt lat="44.13124" lon="6.99192">
        <ele>1988</ele>
        <time>2017-06-07T16:23:20Z</time>
      </trkpt>
      <trkpt lat="44.13127" lon="6.99202">
        <ele>2001</ele>
        <time>2017-06-07T16:23:20Z</time>
      </trkpt>
      <trkpt lat="44.13128" lon="6.99204">
        <ele>2001</ele>
        <time>2017-06-07T16:23:32Z</time>
      </trkpt>
      <trkpt lat="44.13131" lon="6.99212">
        <ele>2000</ele>
        <time>2017-06-07T16:23:33Z</time>
      </trkpt>
      <trkpt lat="44.13133" lon="6.99214">
        <ele>2000</ele>
        <time>2017-06-07T16:23:33Z</time>
      </trkpt>
      <trkpt lat="44.13134" lon="6.99217">
        <ele>2000</ele>
        <time>2017-06-07T16:23:33Z</time>
      </trkpt>
      <trkpt lat="44.13136" lon="6.99221">
        <ele>2000</ele>
        <time>2017-06-07T16:23:48Z</time>
      </trkpt>
      <trkpt lat="44.13137" lon="6.99226">
        <ele>2000</ele>
        <time>2017-06-07T16:23:48Z</time>
      </trkpt>
      <trkpt lat="44.1314" lon="6.99229">
        <ele>2000</ele>
        <time>2017-06-07T16:23:48Z</time>
      </trkpt>
      <trkpt lat="44.13142" lon="6.99234">
        <ele>2000</ele>
        <time>2017-06-07T16:23:49Z</time>
      </trkpt>
      <trkpt lat="44.13144" lon="6.9924">
        <ele>1994</ele>
        <time>2017-06-07T16:24:08Z</time>
      </trkpt>
      <trkpt lat="44.13147" lon="6.99246">
        <ele>1994</ele>
        <time>2017-06-07T16:24:08Z</time>
      </trkpt>
      <trkpt lat="44.1315" lon="6.9925">
        <ele>1994</ele>
        <time>2017-06-07T16:24:08Z</time>
      </trkpt>
      <trkpt lat="44.13153" lon="6.99257">
        <ele>1994</ele>
        <time>2017-06-07T16:24:08Z</time>
      </trkpt>
      <trkpt lat="44.13153" lon="6.99258">
        <ele>2003</ele>
        <time>2017-06-07T16:24:23Z</time>
      </trkpt>
      <trkpt lat="44.13158" lon="6.99268">
        <ele>1996</ele>
        <time>2017-06-07T16:24:23Z</time>
      </trkpt>
      <trkpt lat="44.1316" lon="6.99271">
        <ele>1996</ele>
        <time>2017-06-07T16:24:23Z</time>
      </trkpt>
      <trkpt lat="44.13163" lon="6.99275">
        <ele>1996</ele>
        <time>2017-06-07T16:24:23Z</time>
      </trkpt>
      <trkpt lat="44.13164" lon="6.99276">
        <ele>1996</ele>
        <time>2017-06-07T16:24:39Z</time>
      </trkpt>
      <trkpt lat="44.13172" lon="6.99284">
        <ele>1996</ele>
        <time>2017-06-07T16:24:39Z</time>
      </trkpt>
      <trkpt lat="44.13174" lon="6.99286">
        <ele>1996</ele>
        <time>2017-06-07T16:24:39Z</time>
      </trkpt>
      <trkpt lat="44.13178" lon="6.99288">
        <ele>1996</ele>
        <time>2017-06-07T16:24:39Z</time>
      </trkpt>
      <trkpt lat="44.1318" lon="6.99288">
        <ele>1996</ele>
        <time>2017-06-07T16:24:55Z</time>
      </trkpt>
      <trkpt lat="44.13191" lon="6.99296">
        <ele>1991</ele>
        <time>2017-06-07T16:24:55Z</time>
      </trkpt>
      <trkpt lat="44.13194" lon="6.99298">
        <ele>1991</ele>
        <time>2017-06-07T16:24:56Z</time>
      </trkpt>
      <trkpt lat="44.13196" lon="6.99306">
        <ele>1991</ele>
        <time>2017-06-07T16:24:56Z</time>
      </trkpt>
      <trkpt lat="44.13197" lon="6.99309">
        <ele>1991</ele>
        <time>2017-06-07T16:25:12Z</time>
      </trkpt>
      <trkpt lat="44.132" lon="6.99318">
        <ele>1991</ele>
        <time>2017-06-07T16:25:12Z</time>
      </trkpt>
      <trkpt lat="44.13203" lon="6.99324">
        <ele>1984</ele>
        <time>2017-06-07T16:25:12Z</time>
      </trkpt>
      <trkpt lat="44.13207" lon="6.99336">
        <ele>1984</ele>
        <time>2017-06-07T16:25:12Z</time>
      </trkpt>
      <trkpt lat="44.13208" lon="6.99338">
        <ele>1984</ele>
        <time>2017-06-07T16:25:26Z</time>
      </trkpt>
      <trkpt lat="44.13211" lon="6.99345">
        <ele>1992</ele>
        <time>2017-06-07T16:25:26Z</time>
      </trkpt>
      <trkpt lat="44.13215" lon="6.99353">
        <ele>1983</ele>
        <time>2017-06-07T16:25:26Z</time>
      </trkpt>
      <trkpt lat="44.13217" lon="6.99357">
        <ele>1983</ele>
        <time>2017-06-07T16:25:26Z</time>
      </trkpt>
      <trkpt lat="44.13219" lon="6.99363">
        <ele>1983</ele>
        <time>2017-06-07T16:25:44Z</time>
      </trkpt>
      <trkpt lat="44.13224" lon="6.99372">
        <ele>1983</ele>
        <time>2017-06-07T16:25:44Z</time>
      </trkpt>
      <trkpt lat="44.13225" lon="6.99375">
        <ele>1977</ele>
        <time>2017-06-07T16:25:44Z</time>
      </trkpt>
      <trkpt lat="44.13225" lon="6.99383">
        <ele>1977</ele>
        <time>2017-06-07T16:25:44Z</time>
      </trkpt>
      <trkpt lat="44.13224" lon="6.99385">
        <ele>1977</ele>
        <time>2017-06-07T16:25:59Z</time>
      </trkpt>
      <trkpt lat="44.13226" lon="6.99393">
        <ele>1977</ele>
        <time>2017-06-07T16:25:59Z</time>
      </trkpt>
      <trkpt lat="44.13226" lon="6.994">
        <ele>1977</ele>
        <time>2017-06-07T16:25:59Z</time>
      </trkpt>
      <trkpt lat="44.13226" lon="6.99408">
        <ele>1973</ele>
        <time>2017-06-07T16:25:59Z</time>
      </trkpt>
      <trkpt lat="44.1322" lon="6.99412">
        <ele>1973</ele>
        <time>2017-06-07T16:26:58Z</time>
      </trkpt>
      <trkpt lat="44.1322" lon="6.99411">
        <ele>1973</ele>
        <time>2017-06-07T16:26:58Z</time>
      </trkpt>
      <trkpt lat="44.1322" lon="6.99411">
        <ele>1973</ele>
        <time>2017-06-07T16:26:58Z</time>
      </trkpt>
      <trkpt lat="44.13218" lon="6.9941">
        <ele>1973</ele>
        <time>2017-06-07T16:26:58Z</time>
      </trkpt>
      <trkpt lat="44.13216" lon="6.99409">
        <ele>1973</ele>
        <time>2017-06-07T16:26:59Z</time>
      </trkpt>
      <trkpt lat="44.13216" lon="6.99408">
        <ele>1973</ele>
        <time>2017-06-07T16:27:20Z</time>
      </trkpt>
      <trkpt lat="44.13215" lon="6.99407">
        <ele>1973</ele>
        <time>2017-06-07T16:27:20Z</time>
      </trkpt>
      <trkpt lat="44.13213" lon="6.99403">
        <ele>1973</ele>
        <time>2017-06-07T16:27:20Z</time>
      </trkpt>
      <trkpt lat="44.13212" lon="6.994">
        <ele>1977</ele>
        <time>2017-06-07T16:27:20Z</time>
      </trkpt>
      <trkpt lat="44.13207" lon="6.99399">
        <ele>1970</ele>
        <time>2017-06-07T16:27:20Z</time>
      </trkpt>
      <trkpt lat="44.132" lon="6.99396">
        <ele>1970</ele>
        <time>2017-06-07T16:27:54Z</time>
      </trkpt>
      <trkpt lat="44.13198" lon="6.99394">
        <ele>1970</ele>
        <time>2017-06-07T16:27:54Z</time>
      </trkpt>
      <trkpt lat="44.13193" lon="6.99391">
        <ele>1970</ele>
        <time>2017-06-07T16:27:54Z</time>
      </trkpt>
      <trkpt lat="44.13187" lon="6.99392">
        <ele>1970</ele>
        <time>2017-06-07T16:27:54Z</time>
      </trkpt>
      <trkpt lat="44.13185" lon="6.99391">
        <ele>1970</ele>
        <time>2017-06-07T16:27:54Z</time>
      </trkpt>
      <trkpt lat="44.13183" lon="6.9939">
        <ele>1970</ele>
        <time>2017-06-07T16:28:11Z</time>
      </trkpt>
      <trkpt lat="44.13177" lon="6.99382">
        <ele>1960</ele>
        <time>2017-06-07T16:28:11Z</time>
      </trkpt>
      <trkpt lat="44.13175" lon="6.99382">
        <ele>1960</ele>
        <time>2017-06-07T16:28:12Z</time>
      </trkpt>
      <trkpt lat="44.13173" lon="6.99375">
        <ele>1960</ele>
        <time>2017-06-07T16:28:12Z</time>
      </trkpt>
      <trkpt lat="44.13166" lon="6.9937">
        <ele>1967</ele>
        <time>2017-06-07T16:28:34Z</time>
      </trkpt>
      <trkpt lat="44.13165" lon="6.9937">
        <ele>1967</ele>
        <time>2017-06-07T16:28:34Z</time>
      </trkpt>
      <trkpt lat="44.1316" lon="6.9937">
        <ele>1967</ele>
        <time>2017-06-07T16:28:34Z</time>
      </trkpt>
      <trkpt lat="44.13158" lon="6.99367">
        <ele>1967</ele>
        <time>2017-06-07T16:28:35Z</time>
      </trkpt>
      <trkpt lat="44.13156" lon="6.99365">
        <ele>1967</ele>
        <time>2017-06-07T16:28:35Z</time>
      </trkpt>
      <trkpt lat="44.13151" lon="6.99357">
        <ele>1958</ele>
        <time>2017-06-07T16:29:00Z</time>
      </trkpt>
      <trkpt lat="44.13151" lon="6.99357">
        <ele>1958</ele>
        <time>2017-06-07T16:29:00Z</time>
      </trkpt>
      <trkpt lat="44.13154" lon="6.99353">
        <ele>1967</ele>
        <time>2017-06-07T16:29:00Z</time>
      </trkpt>
      <trkpt lat="44.13153" lon="6.99353">
        <ele>1967</ele>
        <time>2017-06-07T16:29:00Z</time>
      </trkpt>
      <trkpt lat="44.13148" lon="6.99351">
        <ele>1958</ele>
        <time>2017-06-07T16:29:00Z</time>
      </trkpt>
      <trkpt lat="44.13148" lon="6.99351">
        <ele>1958</ele>
        <time>2017-06-07T16:29:13Z</time>
      </trkpt>
      <trkpt lat="44.13145" lon="6.99351">
        <ele>1958</ele>
        <time>2017-06-07T16:29:13Z</time>
      </trkpt>
      <trkpt lat="44.1314" lon="6.99351">
        <ele>1958</ele>
        <time>2017-06-07T16:29:13Z</time>
      </trkpt>
      <trkpt lat="44.13135" lon="6.9935">
        <ele>1958</ele>
        <time>2017-06-07T16:29:13Z</time>
      </trkpt>
      <trkpt lat="44.13131" lon="6.99348">
        <ele>1958</ele>
        <time>2017-06-07T16:29:30Z</time>
      </trkpt>
      <trkpt lat="44.13124" lon="6.99347">
        <ele>1955</ele>
        <time>2017-06-07T16:29:30Z</time>
      </trkpt>
      <trkpt lat="44.1312" lon="6.99347">
        <ele>1955</ele>
        <time>2017-06-07T16:29:31Z</time>
      </trkpt>
      <trkpt lat="44.13115" lon="6.99346">
        <ele>1955</ele>
        <time>2017-06-07T16:29:31Z</time>
      </trkpt>
      <trkpt lat="44.13114" lon="6.99345">
        <ele>1955</ele>
        <time>2017-06-07T16:29:49Z</time>
      </trkpt>
      <trkpt lat="44.13107" lon="6.99343">
        <ele>1955</ele>
        <time>2017-06-07T16:29:49Z</time>
      </trkpt>
      <trkpt lat="44.13099" lon="6.99338">
        <ele>1955</ele>
        <time>2017-06-07T16:29:49Z</time>
      </trkpt>
      <trkpt lat="44.13098" lon="6.99338">
        <ele>1955</ele>
        <time>2017-06-07T16:29:49Z</time>
      </trkpt>
      <trkpt lat="44.13096" lon="6.99333">
        <ele>1946</ele>
        <time>2017-06-07T16:30:08Z</time>
      </trkpt>
      <trkpt lat="44.13091" lon="6.99331">
        <ele>1946</ele>
        <time>2017-06-07T16:30:08Z</time>
      </trkpt>
      <trkpt lat="44.1309" lon="6.99331">
        <ele>1946</ele>
        <time>2017-06-07T16:30:08Z</time>
      </trkpt>
      <trkpt lat="44.13083" lon="6.99325">
        <ele>1946</ele>
        <time>2017-06-07T16:30:08Z</time>
      </trkpt>
      <trkpt lat="44.13082" lon="6.99325">
        <ele>1946</ele>
        <time>2017-06-07T16:30:23Z</time>
      </trkpt>
      <trkpt lat="44.13078" lon="6.99321">
        <ele>1946</ele>
        <time>2017-06-07T16:30:23Z</time>
      </trkpt>
      <trkpt lat="44.13074" lon="6.99318">
        <ele>1950</ele>
        <time>2017-06-07T16:30:23Z</time>
      </trkpt>
      <trkpt lat="44.13069" lon="6.99316">
        <ele>1938</ele>
        <time>2017-06-07T16:30:23Z</time>
      </trkpt>
      <trkpt lat="44.13068" lon="6.99315">
        <ele>1938</ele>
        <time>2017-06-07T16:30:37Z</time>
      </trkpt>
      <trkpt lat="44.13063" lon="6.9931">
        <ele>1938</ele>
        <time>2017-06-07T16:30:37Z</time>
      </trkpt>
      <trkpt lat="44.1306" lon="6.99308">
        <ele>1938</ele>
        <time>2017-06-07T16:30:37Z</time>
      </trkpt>
      <trkpt lat="44.13059" lon="6.99305">
        <ele>1938</ele>
        <time>2017-06-07T16:30:37Z</time>
      </trkpt>
      <trkpt lat="44.13056" lon="6.99301">
        <ele>1938</ele>
        <time>2017-06-07T16:30:54Z</time>
      </trkpt>
      <trkpt lat="44.13052" lon="6.99297">
        <ele>1938</ele>
        <time>2017-06-07T16:30:54Z</time>
      </trkpt>
      <trkpt lat="44.13048" lon="6.99292">
        <ele>1938</ele>
        <time>2017-06-07T16:30:54Z</time>
      </trkpt>
      <trkpt lat="44.13045" lon="6.9929">
        <ele>1945</ele>
        <time>2017-06-07T16:30:54Z</time>
      </trkpt>
      <trkpt lat="44.13042" lon="6.9929">
        <ele>1945</ele>
        <time>2017-06-07T16:31:12Z</time>
      </trkpt>
      <trkpt lat="44.13038" lon="6.99285">
        <ele>1931</ele>
        <time>2017-06-07T16:31:12Z</time>
      </trkpt>
      <trkpt lat="44.13037" lon="6.99284">
        <ele>1931</ele>
        <time>2017-06-07T16:31:12Z</time>
      </trkpt>
      <trkpt lat="44.13033" lon="6.99279">
        <ele>1931</ele>
        <time>2017-06-07T16:31:12Z</time>
      </trkpt>
      <trkpt lat="44.13034" lon="6.99277">
        <ele>1931</ele>
        <time>2017-06-07T16:31:28Z</time>
      </trkpt>
      <trkpt lat="44.13033" lon="6.99271">
        <ele>1931</ele>
        <time>2017-06-07T16:31:28Z</time>
      </trkpt>
      <trkpt lat="44.13031" lon="6.9927">
        <ele>1931</ele>
        <time>2017-06-07T16:31:28Z</time>
      </trkpt>
      <trkpt lat="44.13026" lon="6.99266">
        <ele>1931</ele>
        <time>2017-06-07T16:31:28Z</time>
      </trkpt>
      <trkpt lat="44.13025" lon="6.99267">
        <ele>1931</ele>
        <time>2017-06-07T16:31:40Z</time>
      </trkpt>
      <trkpt lat="44.13021" lon="6.99266">
        <ele>1931</ele>
        <time>2017-06-07T16:31:40Z</time>
      </trkpt>
      <trkpt lat="44.13017" lon="6.99268">
        <ele>1931</ele>
        <time>2017-06-07T16:31:40Z</time>
      </trkpt>
      <trkpt lat="44.13016" lon="6.99269">
        <ele>1931</ele>
        <time>2017-06-07T16:31:41Z</time>
      </trkpt>
      <trkpt lat="44.13015" lon="6.99271">
        <ele>1931</ele>
        <time>2017-06-07T16:31:59Z</time>
      </trkpt>
      <trkpt lat="44.13011" lon="6.99273">
        <ele>1928</ele>
        <time>2017-06-07T16:31:59Z</time>
      </trkpt>
      <trkpt lat="44.13009" lon="6.99275">
        <ele>1928</ele>
        <time>2017-06-07T16:31:59Z</time>
      </trkpt>
      <trkpt lat="44.13006" lon="6.9928">
        <ele>1928</ele>
        <time>2017-06-07T16:31:59Z</time>
      </trkpt>
      <trkpt lat="44.13005" lon="6.99281">
        <ele>1928</ele>
        <time>2017-06-07T16:32:14Z</time>
      </trkpt>
      <trkpt lat="44.13001" lon="6.99285">
        <ele>1928</ele>
        <time>2017-06-07T16:32:14Z</time>
      </trkpt>
      <trkpt lat="44.12998" lon="6.99288">
        <ele>1928</ele>
        <time>2017-06-07T16:32:14Z</time>
      </trkpt>
      <trkpt lat="44.12995" lon="6.9929">
        <ele>1928</ele>
        <time>2017-06-07T16:32:14Z</time>
      </trkpt>
      <trkpt lat="44.12991" lon="6.99292">
        <ele>1916</ele>
        <time>2017-06-07T16:32:31Z</time>
      </trkpt>
      <trkpt lat="44.12983" lon="6.99296">
        <ele>1916</ele>
        <time>2017-06-07T16:32:31Z</time>
      </trkpt>
      <trkpt lat="44.1298" lon="6.99298">
        <ele>1916</ele>
        <time>2017-06-07T16:32:31Z</time>
      </trkpt>
      <trkpt lat="44.12974" lon="6.993">
        <ele>1916</ele>
        <time>2017-06-07T16:32:31Z</time>
      </trkpt>
      <trkpt lat="44.12972" lon="6.993">
        <ele>1916</ele>
        <time>2017-06-07T16:32:47Z</time>
      </trkpt>
      <trkpt lat="44.12964" lon="6.99299">
        <ele>1916</ele>
        <time>2017-06-07T16:32:47Z</time>
      </trkpt>
      <trkpt lat="44.12962" lon="6.993">
        <ele>1916</ele>
        <time>2017-06-07T16:32:47Z</time>
      </trkpt>
      <trkpt lat="44.12956" lon="6.99302">
        <ele>1914</ele>
        <time>2017-06-07T16:32:47Z</time>
      </trkpt>
      <trkpt lat="44.12955" lon="6.99302">
        <ele>1914</ele>
        <time>2017-06-07T16:33:02Z</time>
      </trkpt>
      <trkpt lat="44.12948" lon="6.99306">
        <ele>1914</ele>
        <time>2017-06-07T16:33:02Z</time>
      </trkpt>
      <trkpt lat="44.12945" lon="6.99305">
        <ele>1914</ele>
        <time>2017-06-07T16:33:02Z</time>
      </trkpt>
      <trkpt lat="44.1294" lon="6.99306">
        <ele>1914</ele>
        <time>2017-06-07T16:33:02Z</time>
      </trkpt>
      <trkpt lat="44.12938" lon="6.99306">
        <ele>1914</ele>
        <time>2017-06-07T16:33:19Z</time>
      </trkpt>
      <trkpt lat="44.12934" lon="6.99307">
        <ele>1914</ele>
        <time>2017-06-07T16:33:19Z</time>
      </trkpt>
      <trkpt lat="44.12933" lon="6.99307">
        <ele>1914</ele>
        <time>2017-06-07T16:33:20Z</time>
      </trkpt>
      <trkpt lat="44.12923" lon="6.9931">
        <ele>1910</ele>
        <time>2017-06-07T16:33:20Z</time>
      </trkpt>
      <trkpt lat="44.12915" lon="6.99307">
        <ele>1910</ele>
        <time>2017-06-07T16:33:59Z</time>
      </trkpt>
      <trkpt lat="44.12912" lon="6.99307">
        <ele>1910</ele>
        <time>2017-06-07T16:33:59Z</time>
      </trkpt>
      <trkpt lat="44.12906" lon="6.99307">
        <ele>1910</ele>
        <time>2017-06-07T16:33:59Z</time>
      </trkpt>
      <trkpt lat="44.12898" lon="6.99311">
        <ele>1906</ele>
        <time>2017-06-07T16:33:59Z</time>
      </trkpt>
      <trkpt lat="44.12896" lon="6.99311">
        <ele>1906</ele>
        <time>2017-06-07T16:33:59Z</time>
      </trkpt>
      <trkpt lat="44.12895" lon="6.9931">
        <ele>1906</ele>
        <time>2017-06-07T16:34:19Z</time>
      </trkpt>
      <trkpt lat="44.1289" lon="6.99307">
        <ele>1906</ele>
        <time>2017-06-07T16:34:19Z</time>
      </trkpt>
      <trkpt lat="44.12899" lon="6.99315">
        <ele>1906</ele>
        <time>2017-06-07T16:34:19Z</time>
      </trkpt>
      <trkpt lat="44.12899" lon="6.99316">
        <ele>1906</ele>
        <time>2017-06-07T16:34:19Z</time>
      </trkpt>
      <trkpt lat="44.12902" lon="6.99317">
        <ele>1906</ele>
        <time>2017-06-07T16:34:20Z</time>
      </trkpt>
      <trkpt lat="44.12901" lon="6.99325">
        <ele>1897</ele>
        <time>2017-06-07T16:35:00Z</time>
      </trkpt>
      <trkpt lat="44.12897" lon="6.99324">
        <ele>1897</ele>
        <time>2017-06-07T16:35:01Z</time>
      </trkpt>
      <trkpt lat="44.12894" lon="6.99322">
        <ele>1897</ele>
        <time>2017-06-07T16:35:01Z</time>
      </trkpt>
      <trkpt lat="44.1289" lon="6.9932">
        <ele>1897</ele>
        <time>2017-06-07T16:35:01Z</time>
      </trkpt>
      <trkpt lat="44.12888" lon="6.99319">
        <ele>1906</ele>
        <time>2017-06-07T16:35:01Z</time>
      </trkpt>
      <trkpt lat="44.1288" lon="6.9932">
        <ele>1897</ele>
        <time>2017-06-07T16:35:54Z</time>
      </trkpt>
      <trkpt lat="44.12878" lon="6.9932">
        <ele>1897</ele>
        <time>2017-06-07T16:35:54Z</time>
      </trkpt>
      <trkpt lat="44.12872" lon="6.99318">
        <ele>1898</ele>
        <time>2017-06-07T16:35:55Z</time>
      </trkpt>
      <trkpt lat="44.12868" lon="6.99317">
        <ele>1898</ele>
        <time>2017-06-07T16:35:55Z</time>
      </trkpt>
      <trkpt lat="44.1286" lon="6.99316">
        <ele>1898</ele>
        <time>2017-06-07T16:35:55Z</time>
      </trkpt>
      <trkpt lat="44.12857" lon="6.99314">
        <ele>1898</ele>
        <time>2017-06-07T16:36:08Z</time>
      </trkpt>
      <trkpt lat="44.1285" lon="6.99311">
        <ele>1898</ele>
        <time>2017-06-07T16:36:08Z</time>
      </trkpt>
      <trkpt lat="44.12846" lon="6.9931">
        <ele>1891</ele>
        <time>2017-06-07T16:36:08Z</time>
      </trkpt>
      <trkpt lat="44.1284" lon="6.99306">
        <ele>1891</ele>
        <time>2017-06-07T16:36:09Z</time>
      </trkpt>
      <trkpt lat="44.12836" lon="6.99305">
        <ele>1891</ele>
        <time>2017-06-07T16:36:24Z</time>
      </trkpt>
      <trkpt lat="44.12827" lon="6.99304">
        <ele>1891</ele>
        <time>2017-06-07T16:36:24Z</time>
      </trkpt>
      <trkpt lat="44.1282" lon="6.99305">
        <ele>1891</ele>
        <time>2017-06-07T16:36:24Z</time>
      </trkpt>
      <trkpt lat="44.12818" lon="6.99301">
        <ele>1884</ele>
        <time>2017-06-07T16:36:25Z</time>
      </trkpt>
      <trkpt lat="44.12814" lon="6.99301">
        <ele>1884</ele>
        <time>2017-06-07T16:36:41Z</time>
      </trkpt>
      <trkpt lat="44.1281" lon="6.99298">
        <ele>1884</ele>
        <time>2017-06-07T16:36:41Z</time>
      </trkpt>
      <trkpt lat="44.12803" lon="6.99295">
        <ele>1884</ele>
        <time>2017-06-07T16:36:41Z</time>
      </trkpt>
      <trkpt lat="44.12797" lon="6.99292">
        <ele>1884</ele>
        <time>2017-06-07T16:36:41Z</time>
      </trkpt>
      <trkpt lat="44.12789" lon="6.99288">
        <ele>1885</ele>
        <time>2017-06-07T16:36:58Z</time>
      </trkpt>
      <trkpt lat="44.12782" lon="6.99285">
        <ele>1885</ele>
        <time>2017-06-07T16:36:58Z</time>
      </trkpt>
      <trkpt lat="44.12775" lon="6.99282">
        <ele>1885</ele>
        <time>2017-06-07T16:36:58Z</time>
      </trkpt>
      <trkpt lat="44.12772" lon="6.99278">
        <ele>1885</ele>
        <time>2017-06-07T16:36:58Z</time>
      </trkpt>
      <trkpt lat="44.12771" lon="6.99276">
        <ele>1885</ele>
        <time>2017-06-07T16:37:14Z</time>
      </trkpt>
      <trkpt lat="44.12762" lon="6.99266">
        <ele>1878</ele>
        <time>2017-06-07T16:37:14Z</time>
      </trkpt>
      <trkpt lat="44.12759" lon="6.99265">
        <ele>1878</ele>
        <time>2017-06-07T16:37:14Z</time>
      </trkpt>
      <trkpt lat="44.1275" lon="6.99264">
        <ele>1887</ele>
        <time>2017-06-07T16:37:14Z</time>
      </trkpt>
      <trkpt lat="44.12747" lon="6.99263">
        <ele>1887</ele>
        <time>2017-06-07T16:37:28Z</time>
      </trkpt>
      <trkpt lat="44.1274" lon="6.99258">
        <ele>1887</ele>
        <time>2017-06-07T16:37:29Z</time>
      </trkpt>
      <trkpt lat="44.12735" lon="6.99258">
        <ele>1873</ele>
        <time>2017-06-07T16:37:29Z</time>
      </trkpt>
      <trkpt lat="44.12731" lon="6.99258">
        <ele>1873</ele>
        <time>2017-06-07T16:37:29Z</time>
      </trkpt>
      <trkpt lat="44.12725" lon="6.99255">
        <ele>1873</ele>
        <time>2017-06-07T16:37:45Z</time>
      </trkpt>
      <trkpt lat="44.1272" lon="6.99253">
        <ele>1873</ele>
        <time>2017-06-07T16:37:45Z</time>
      </trkpt>
      <trkpt lat="44.12712" lon="6.99252">
        <ele>1873</ele>
        <time>2017-06-07T16:37:46Z</time>
      </trkpt>
      <trkpt lat="44.12708" lon="6.99252">
        <ele>1869</ele>
        <time>2017-06-07T16:37:46Z</time>
      </trkpt>
      <trkpt lat="44.12706" lon="6.9925">
        <ele>1869</ele>
        <time>2017-06-07T16:38:01Z</time>
      </trkpt>
      <trkpt lat="44.12696" lon="6.9924">
        <ele>1869</ele>
        <time>2017-06-07T16:38:01Z</time>
      </trkpt>
      <trkpt lat="44.12693" lon="6.99238">
        <ele>1869</ele>
        <time>2017-06-07T16:38:01Z</time>
      </trkpt>
      <trkpt lat="44.12687" lon="6.99233">
        <ele>1874</ele>
        <time>2017-06-07T16:38:01Z</time>
      </trkpt>
      <trkpt lat="44.12682" lon="6.99231">
        <ele>1874</ele>
        <time>2017-06-07T16:38:16Z</time>
      </trkpt>
      <trkpt lat="44.12676" lon="6.99226">
        <ele>1875</ele>
        <time>2017-06-07T16:38:17Z</time>
      </trkpt>
      <trkpt lat="44.12673" lon="6.99223">
        <ele>1875</ele>
        <time>2017-06-07T16:38:17Z</time>
      </trkpt>
      <trkpt lat="44.12671" lon="6.99222">
        <ele>1875</ele>
        <time>2017-06-07T16:38:17Z</time>
      </trkpt>
      <trkpt lat="44.12661" lon="6.99213">
        <ele>1875</ele>
        <time>2017-06-07T16:38:45Z</time>
      </trkpt>
      <trkpt lat="44.12662" lon="6.99212">
        <ele>1875</ele>
        <time>2017-06-07T16:38:45Z</time>
      </trkpt>
      <trkpt lat="44.12661" lon="6.99212">
        <ele>1875</ele>
        <time>2017-06-07T16:38:46Z</time>
      </trkpt>
      <trkpt lat="44.1266" lon="6.99211">
        <ele>1875</ele>
        <time>2017-06-07T16:38:46Z</time>
      </trkpt>
      <trkpt lat="44.12653" lon="6.99211">
        <ele>1875</ele>
        <time>2017-06-07T16:38:46Z</time>
      </trkpt>
      <trkpt lat="44.12652" lon="6.99209">
        <ele>1869</ele>
        <time>2017-06-07T16:39:02Z</time>
      </trkpt>
      <trkpt lat="44.12645" lon="6.99205">
        <ele>1878</ele>
        <time>2017-06-07T16:39:02Z</time>
      </trkpt>
      <trkpt lat="44.12639" lon="6.99202">
        <ele>1878</ele>
        <time>2017-06-07T16:39:02Z</time>
      </trkpt>
      <trkpt lat="44.12636" lon="6.99197">
        <ele>1878</ele>
        <time>2017-06-07T16:39:02Z</time>
      </trkpt>
      <trkpt lat="44.12635" lon="6.99196">
        <ele>1878</ele>
        <time>2017-06-07T16:39:17Z</time>
      </trkpt>
      <trkpt lat="44.12625" lon="6.9919">
        <ele>1869</ele>
        <time>2017-06-07T16:39:18Z</time>
      </trkpt>
      <trkpt lat="44.12621" lon="6.99187">
        <ele>1869</ele>
        <time>2017-06-07T16:39:18Z</time>
      </trkpt>
      <trkpt lat="44.12617" lon="6.99185">
        <ele>1869</ele>
        <time>2017-06-07T16:39:18Z</time>
      </trkpt>
      <trkpt lat="44.12617" lon="6.99183">
        <ele>1869</ele>
        <time>2017-06-07T16:39:33Z</time>
      </trkpt>
      <trkpt lat="44.12606" lon="6.99177">
        <ele>1880</ele>
        <time>2017-06-07T16:39:34Z</time>
      </trkpt>
      <trkpt lat="44.12601" lon="6.99173">
        <ele>1880</ele>
        <time>2017-06-07T16:39:35Z</time>
      </trkpt>
      <trkpt lat="44.12596" lon="6.9917">
        <ele>1870</ele>
        <time>2017-06-07T16:39:35Z</time>
      </trkpt>
      <trkpt lat="44.12594" lon="6.99168">
        <ele>1870</ele>
        <time>2017-06-07T16:39:50Z</time>
      </trkpt>
      <trkpt lat="44.12586" lon="6.99165">
        <ele>1870</ele>
        <time>2017-06-07T16:39:50Z</time>
      </trkpt>
      <trkpt lat="44.1258" lon="6.99163">
        <ele>1870</ele>
        <time>2017-06-07T16:39:50Z</time>
      </trkpt>
      <trkpt lat="44.12573" lon="6.99162">
        <ele>1870</ele>
        <time>2017-06-07T16:39:50Z</time>
      </trkpt>
      <trkpt lat="44.12572" lon="6.99161">
        <ele>1870</ele>
        <time>2017-06-07T16:40:05Z</time>
      </trkpt>
      <trkpt lat="44.12565" lon="6.99152">
        <ele>1871</ele>
        <time>2017-06-07T16:40:05Z</time>
      </trkpt>
      <trkpt lat="44.12561" lon="6.99148">
        <ele>1871</ele>
        <time>2017-06-07T16:40:06Z</time>
      </trkpt>
      <trkpt lat="44.12557" lon="6.99142">
        <ele>1871</ele>
        <time>2017-06-07T16:40:06Z</time>
      </trkpt>
      <trkpt lat="44.12556" lon="6.99142">
        <ele>1871</ele>
        <time>2017-06-07T16:40:22Z</time>
      </trkpt>
      <trkpt lat="44.12548" lon="6.99133">
        <ele>1871</ele>
        <time>2017-06-07T16:40:22Z</time>
      </trkpt>
      <trkpt lat="44.12544" lon="6.9913">
        <ele>1871</ele>
        <time>2017-06-07T16:40:22Z</time>
      </trkpt>
      <trkpt lat="44.12537" lon="6.99124">
        <ele>1876</ele>
        <time>2017-06-07T16:40:22Z</time>
      </trkpt>
      <trkpt lat="44.12536" lon="6.99123">
        <ele>1876</ele>
        <time>2017-06-07T16:40:38Z</time>
      </trkpt>
      <trkpt lat="44.12527" lon="6.99117">
        <ele>1876</ele>
        <time>2017-06-07T16:40:38Z</time>
      </trkpt>
      <trkpt lat="44.12521" lon="6.99112">
        <ele>1876</ele>
        <time>2017-06-07T16:40:38Z</time>
      </trkpt>
      <trkpt lat="44.12518" lon="6.99108">
        <ele>1876</ele>
        <time>2017-06-07T16:40:38Z</time>
      </trkpt>
      <trkpt lat="44.12517" lon="6.99108">
        <ele>1876</ele>
        <time>2017-06-07T16:40:54Z</time>
      </trkpt>
      <trkpt lat="44.12509" lon="6.991">
        <ele>1866</ele>
        <time>2017-06-07T16:40:54Z</time>
      </trkpt>
      <trkpt lat="44.12506" lon="6.99097">
        <ele>1873</ele>
        <time>2017-06-07T16:40:55Z</time>
      </trkpt>
      <trkpt lat="44.12502" lon="6.99093">
        <ele>1873</ele>
        <time>2017-06-07T16:40:55Z</time>
      </trkpt>
      <trkpt lat="44.12498" lon="6.99091">
        <ele>1873</ele>
        <time>2017-06-07T16:41:08Z</time>
      </trkpt>
      <trkpt lat="44.12491" lon="6.99083">
        <ele>1873</ele>
        <time>2017-06-07T16:41:08Z</time>
      </trkpt>
      <trkpt lat="44.1249" lon="6.99078">
        <ele>1873</ele>
        <time>2017-06-07T16:41:08Z</time>
      </trkpt>
      <trkpt lat="44.12487" lon="6.99076">
        <ele>1873</ele>
        <time>2017-06-07T16:41:09Z</time>
      </trkpt>
      <trkpt lat="44.1248" lon="6.9907">
        <ele>1863</ele>
        <time>2017-06-07T16:41:26Z</time>
      </trkpt>
      <trkpt lat="44.12473" lon="6.99064">
        <ele>1867</ele>
        <time>2017-06-07T16:41:26Z</time>
      </trkpt>
      <trkpt lat="44.12473" lon="6.99061">
        <ele>1867</ele>
        <time>2017-06-07T16:41:26Z</time>
      </trkpt>
      <trkpt lat="44.1247" lon="6.99055">
        <ele>1867</ele>
        <time>2017-06-07T16:41:26Z</time>
      </trkpt>
      <trkpt lat="44.12467" lon="6.99037">
        <ele>1871</ele>
        <time>2017-06-07T16:41:56Z</time>
      </trkpt>
      <trkpt lat="44.12464" lon="6.99029">
        <ele>1871</ele>
        <time>2017-06-07T16:41:56Z</time>
      </trkpt>
      <trkpt lat="44.12462" lon="6.99027">
        <ele>1871</ele>
        <time>2017-06-07T16:41:57Z</time>
      </trkpt>
      <trkpt lat="44.1246" lon="6.99023">
        <ele>1871</ele>
        <time>2017-06-07T16:41:57Z</time>
      </trkpt>
      <trkpt lat="44.12458" lon="6.99015">
        <ele>1858</ele>
        <time>2017-06-07T16:41:57Z</time>
      </trkpt>
      <trkpt lat="44.12452" lon="6.99003">
        <ele>1866</ele>
        <time>2017-06-07T16:42:14Z</time>
      </trkpt>
      <trkpt lat="44.12447" lon="6.98994">
        <ele>1866</ele>
        <time>2017-06-07T16:42:14Z</time>
      </trkpt>
      <trkpt lat="44.12444" lon="6.98989">
        <ele>1866</ele>
        <time>2017-06-07T16:42:14Z</time>
      </trkpt>
      <trkpt lat="44.12439" lon="6.98982">
        <ele>1875</ele>
        <time>2017-06-07T16:42:14Z</time>
      </trkpt>
      <trkpt lat="44.12438" lon="6.98981">
        <ele>1875</ele>
        <time>2017-06-07T16:42:30Z</time>
      </trkpt>
      <trkpt lat="44.12431" lon="6.98979">
        <ele>1875</ele>
        <time>2017-06-07T16:42:30Z</time>
      </trkpt>
      <trkpt lat="44.12426" lon="6.98977">
        <ele>1860</ele>
        <time>2017-06-07T16:42:30Z</time>
      </trkpt>
      <trkpt lat="44.1242" lon="6.98969">
        <ele>1860</ele>
        <time>2017-06-07T16:42:30Z</time>
      </trkpt>
      <trkpt lat="44.12417" lon="6.98967">
        <ele>1860</ele>
        <time>2017-06-07T16:42:45Z</time>
      </trkpt>
      <trkpt lat="44.12412" lon="6.98962">
        <ele>1860</ele>
        <time>2017-06-07T16:42:45Z</time>
      </trkpt>
      <trkpt lat="44.12409" lon="6.9896">
        <ele>1860</ele>
        <time>2017-06-07T16:42:45Z</time>
      </trkpt>
      <trkpt lat="44.12405" lon="6.98955">
        <ele>1868</ele>
        <time>2017-06-07T16:42:46Z</time>
      </trkpt>
      <trkpt lat="44.12402" lon="6.98949">
        <ele>1856</ele>
        <time>2017-06-07T16:43:01Z</time>
      </trkpt>
      <trkpt lat="44.12397" lon="6.98944">
        <ele>1856</ele>
        <time>2017-06-07T16:43:02Z</time>
      </trkpt>
      <trkpt lat="44.12393" lon="6.98938">
        <ele>1856</ele>
        <time>2017-06-07T16:43:02Z</time>
      </trkpt>
      <trkpt lat="44.12389" lon="6.98932">
        <ele>1856</ele>
        <time>2017-06-07T16:43:02Z</time>
      </trkpt>
      <trkpt lat="44.12387" lon="6.98931">
        <ele>1856</ele>
        <time>2017-06-07T16:43:18Z</time>
      </trkpt>
      <trkpt lat="44.12384" lon="6.98923">
        <ele>1868</ele>
        <time>2017-06-07T16:43:19Z</time>
      </trkpt>
      <trkpt lat="44.12382" lon="6.98922">
        <ele>1868</ele>
        <time>2017-06-07T16:43:19Z</time>
      </trkpt>
      <trkpt lat="44.12375" lon="6.98919">
        <ele>1868</ele>
        <time>2017-06-07T16:43:19Z</time>
      </trkpt>
      <trkpt lat="44.12373" lon="6.98916">
        <ele>1853</ele>
        <time>2017-06-07T16:43:33Z</time>
      </trkpt>
      <trkpt lat="44.12371" lon="6.98909">
        <ele>1853</ele>
        <time>2017-06-07T16:43:34Z</time>
      </trkpt>
      <trkpt lat="44.12364" lon="6.98907">
        <ele>1853</ele>
        <time>2017-06-07T16:43:34Z</time>
      </trkpt>
      <trkpt lat="44.12358" lon="6.98902">
        <ele>1864</ele>
        <time>2017-06-07T16:43:34Z</time>
      </trkpt>
      <trkpt lat="44.12357" lon="6.98901">
        <ele>1864</ele>
        <time>2017-06-07T16:43:50Z</time>
      </trkpt>
      <trkpt lat="44.12353" lon="6.98896">
        <ele>1864</ele>
        <time>2017-06-07T16:43:50Z</time>
      </trkpt>
      <trkpt lat="44.12348" lon="6.98892">
        <ele>1864</ele>
        <time>2017-06-07T16:43:50Z</time>
      </trkpt>
      <trkpt lat="44.12345" lon="6.98886">
        <ele>1847</ele>
        <time>2017-06-07T16:43:50Z</time>
      </trkpt>
      <trkpt lat="44.12343" lon="6.98884">
        <ele>1847</ele>
        <time>2017-06-07T16:44:06Z</time>
      </trkpt>
      <trkpt lat="44.12335" lon="6.98875">
        <ele>1856</ele>
        <time>2017-06-07T16:44:06Z</time>
      </trkpt>
      <trkpt lat="44.12333" lon="6.98872">
        <ele>1856</ele>
        <time>2017-06-07T16:44:06Z</time>
      </trkpt>
      <trkpt lat="44.12328" lon="6.98868">
        <ele>1856</ele>
        <time>2017-06-07T16:44:06Z</time>
      </trkpt>
      <trkpt lat="44.12326" lon="6.98866">
        <ele>1856</ele>
        <time>2017-06-07T16:44:20Z</time>
      </trkpt>
      <trkpt lat="44.12318" lon="6.98857">
        <ele>1840</ele>
        <time>2017-06-07T16:44:20Z</time>
      </trkpt>
      <trkpt lat="44.12318" lon="6.98855">
        <ele>1840</ele>
        <time>2017-06-07T16:44:20Z</time>
      </trkpt>
      <trkpt lat="44.12317" lon="6.98849">
        <ele>1840</ele>
        <time>2017-06-07T16:44:21Z</time>
      </trkpt>
      <trkpt lat="44.12314" lon="6.98843">
        <ele>1849</ele>
        <time>2017-06-07T16:44:40Z</time>
      </trkpt>
      <trkpt lat="44.12313" lon="6.98837">
        <ele>1849</ele>
        <time>2017-06-07T16:44:40Z</time>
      </trkpt>
      <trkpt lat="44.12313" lon="6.98835">
        <ele>1849</ele>
        <time>2017-06-07T16:44:40Z</time>
      </trkpt>
      <trkpt lat="44.12311" lon="6.98835">
        <ele>1849</ele>
        <time>2017-06-07T16:44:40Z</time>
      </trkpt>
      <trkpt lat="44.12308" lon="6.98828">
        <ele>1849</ele>
        <time>2017-06-07T16:44:41Z</time>
      </trkpt>
      <trkpt lat="44.12305" lon="6.98823">
        <ele>1849</ele>
        <time>2017-06-07T16:44:56Z</time>
      </trkpt>
      <trkpt lat="44.12301" lon="6.98819">
        <ele>1856</ele>
        <time>2017-06-07T16:44:56Z</time>
      </trkpt>
      <trkpt lat="44.12297" lon="6.98814">
        <ele>1856</ele>
        <time>2017-06-07T16:44:56Z</time>
      </trkpt>
      <trkpt lat="44.12292" lon="6.98812">
        <ele>1856</ele>
        <time>2017-06-07T16:44:57Z</time>
      </trkpt>
      <trkpt lat="44.12288" lon="6.98809">
        <ele>1843</ele>
        <time>2017-06-07T16:45:13Z</time>
      </trkpt>
      <trkpt lat="44.12281" lon="6.98805">
        <ele>1843</ele>
        <time>2017-06-07T16:45:14Z</time>
      </trkpt>
      <trkpt lat="44.12279" lon="6.98801">
        <ele>1843</ele>
        <time>2017-06-07T16:45:14Z</time>
      </trkpt>
      <trkpt lat="44.12273" lon="6.98801">
        <ele>1843</ele>
        <time>2017-06-07T16:45:15Z</time>
      </trkpt>
      <trkpt lat="44.12272" lon="6.98801">
        <ele>1843</ele>
        <time>2017-06-07T16:45:29Z</time>
      </trkpt>
      <trkpt lat="44.12267" lon="6.98795">
        <ele>1843</ele>
        <time>2017-06-07T16:45:29Z</time>
      </trkpt>
      <trkpt lat="44.12263" lon="6.98791">
        <ele>1830</ele>
        <time>2017-06-07T16:45:29Z</time>
      </trkpt>
      <trkpt lat="44.1226" lon="6.98786">
        <ele>1830</ele>
        <time>2017-06-07T16:45:29Z</time>
      </trkpt>
      <trkpt lat="44.12259" lon="6.98782">
        <ele>1830</ele>
        <time>2017-06-07T16:45:46Z</time>
      </trkpt>
      <trkpt lat="44.12256" lon="6.98773">
        <ele>1830</ele>
        <time>2017-06-07T16:45:46Z</time>
      </trkpt>
      <trkpt lat="44.12256" lon="6.98771">
        <ele>1830</ele>
        <time>2017-06-07T16:45:46Z</time>
      </trkpt>
      <trkpt lat="44.12256" lon="6.98768">
        <ele>1830</ele>
        <time>2017-06-07T16:45:46Z</time>
      </trkpt>
      <trkpt lat="44.12256" lon="6.98767">
        <ele>1830</ele>
        <time>2017-06-07T16:46:01Z</time>
      </trkpt>
      <trkpt lat="44.12254" lon="6.98759">
        <ele>1840</ele>
        <time>2017-06-07T16:46:01Z</time>
      </trkpt>
      <trkpt lat="44.12253" lon="6.98759">
        <ele>1840</ele>
        <time>2017-06-07T16:46:01Z</time>
      </trkpt>
      <trkpt lat="44.12251" lon="6.98753">
        <ele>1840</ele>
        <time>2017-06-07T16:46:01Z</time>
      </trkpt>
      <trkpt lat="44.1225" lon="6.9875">
        <ele>1840</ele>
        <time>2017-06-07T16:46:17Z</time>
      </trkpt>
      <trkpt lat="44.12249" lon="6.98747">
        <ele>1840</ele>
        <time>2017-06-07T16:46:18Z</time>
      </trkpt>
      <trkpt lat="44.12247" lon="6.98743">
        <ele>1840</ele>
        <time>2017-06-07T16:46:18Z</time>
      </trkpt>
      <trkpt lat="44.12245" lon="6.98739">
        <ele>1840</ele>
        <time>2017-06-07T16:46:19Z</time>
      </trkpt>
      <trkpt lat="44.12244" lon="6.98737">
        <ele>1840</ele>
        <time>2017-06-07T16:46:32Z</time>
      </trkpt>
      <trkpt lat="44.1224" lon="6.98732">
        <ele>1850</ele>
        <time>2017-06-07T16:46:32Z</time>
      </trkpt>
      <trkpt lat="44.12238" lon="6.98729">
        <ele>1850</ele>
        <time>2017-06-07T16:46:32Z</time>
      </trkpt>
      <trkpt lat="44.12236" lon="6.98724">
        <ele>1850</ele>
        <time>2017-06-07T16:46:33Z</time>
      </trkpt>
      <trkpt lat="44.12234" lon="6.9872">
        <ele>1838</ele>
        <time>2017-06-07T16:46:50Z</time>
      </trkpt>
      <trkpt lat="44.12231" lon="6.98718">
        <ele>1838</ele>
        <time>2017-06-07T16:46:50Z</time>
      </trkpt>
      <trkpt lat="44.12228" lon="6.98717">
        <ele>1838</ele>
        <time>2017-06-07T16:46:51Z</time>
      </trkpt>
      <trkpt lat="44.12226" lon="6.98715">
        <ele>1838</ele>
        <time>2017-06-07T16:46:51Z</time>
      </trkpt>
      <trkpt lat="44.12223" lon="6.98715">
        <ele>1838</ele>
        <time>2017-06-07T16:47:18Z</time>
      </trkpt>
      <trkpt lat="44.1222" lon="6.98715">
        <ele>1838</ele>
        <time>2017-06-07T16:47:18Z</time>
      </trkpt>
      <trkpt lat="44.1222" lon="6.98715">
        <ele>1838</ele>
        <time>2017-06-07T16:47:18Z</time>
      </trkpt>
      <trkpt lat="44.12218" lon="6.98716">
        <ele>1838</ele>
        <time>2017-06-07T16:47:18Z</time>
      </trkpt>
      <trkpt lat="44.12213" lon="6.98718">
        <ele>1838</ele>
        <time>2017-06-07T16:47:18Z</time>
      </trkpt>
      <trkpt lat="44.12212" lon="6.98721">
        <ele>1838</ele>
        <time>2017-06-07T16:47:40Z</time>
      </trkpt>
      <trkpt lat="44.1221" lon="6.98719">
        <ele>1838</ele>
        <time>2017-06-07T16:47:40Z</time>
      </trkpt>
      <trkpt lat="44.12206" lon="6.98718">
        <ele>1828</ele>
        <time>2017-06-07T16:47:40Z</time>
      </trkpt>
      <trkpt lat="44.12206" lon="6.98719">
        <ele>1828</ele>
        <time>2017-06-07T16:47:41Z</time>
      </trkpt>
      <trkpt lat="44.122" lon="6.98722">
        <ele>1828</ele>
        <time>2017-06-07T16:47:41Z</time>
      </trkpt>
      <trkpt lat="44.12197" lon="6.98723">
        <ele>1828</ele>
        <time>2017-06-07T16:47:58Z</time>
      </trkpt>
      <trkpt lat="44.12193" lon="6.98725">
        <ele>1828</ele>
        <time>2017-06-07T16:47:58Z</time>
      </trkpt>
      <trkpt lat="44.12189" lon="6.98725">
        <ele>1828</ele>
        <time>2017-06-07T16:47:59Z</time>
      </trkpt>
      <trkpt lat="44.12184" lon="6.98723">
        <ele>1828</ele>
        <time>2017-06-07T16:47:59Z</time>
      </trkpt>
      <trkpt lat="44.12182" lon="6.98722">
        <ele>1828</ele>
        <time>2017-06-07T16:48:14Z</time>
      </trkpt>
      <trkpt lat="44.12175" lon="6.98716">
        <ele>1819</ele>
        <time>2017-06-07T16:48:14Z</time>
      </trkpt>
      <trkpt lat="44.12167" lon="6.98717">
        <ele>1819</ele>
        <time>2017-06-07T16:48:14Z</time>
      </trkpt>
      <trkpt lat="44.1216" lon="6.98714">
        <ele>1819</ele>
        <time>2017-06-07T16:48:14Z</time>
      </trkpt>
      <trkpt lat="44.12159" lon="6.98714">
        <ele>1819</ele>
        <time>2017-06-07T16:48:30Z</time>
      </trkpt>
      <trkpt lat="44.12153" lon="6.98706">
        <ele>1826</ele>
        <time>2017-06-07T16:48:30Z</time>
      </trkpt>
      <trkpt lat="44.12152" lon="6.98703">
        <ele>1818</ele>
        <time>2017-06-07T16:48:31Z</time>
      </trkpt>
      <trkpt lat="44.12148" lon="6.98699">
        <ele>1818</ele>
        <time>2017-06-07T16:48:31Z</time>
      </trkpt>
      <trkpt lat="44.12148" lon="6.98697">
        <ele>1818</ele>
        <time>2017-06-07T16:48:46Z</time>
      </trkpt>
      <trkpt lat="44.12143" lon="6.98694">
        <ele>1818</ele>
        <time>2017-06-07T16:48:46Z</time>
      </trkpt>
      <trkpt lat="44.12141" lon="6.98692">
        <ele>1818</ele>
        <time>2017-06-07T16:48:47Z</time>
      </trkpt>
      <trkpt lat="44.12137" lon="6.98687">
        <ele>1818</ele>
        <time>2017-06-07T16:48:47Z</time>
      </trkpt>
      <trkpt lat="44.12135" lon="6.98685">
        <ele>1818</ele>
        <time>2017-06-07T16:49:01Z</time>
      </trkpt>
      <trkpt lat="44.12129" lon="6.98678">
        <ele>1824</ele>
        <time>2017-06-07T16:49:01Z</time>
      </trkpt>
      <trkpt lat="44.12127" lon="6.98672">
        <ele>1824</ele>
        <time>2017-06-07T16:49:01Z</time>
      </trkpt>
      <trkpt lat="44.12125" lon="6.98669">
        <ele>1813</ele>
        <time>2017-06-07T16:49:01Z</time>
      </trkpt>
      <trkpt lat="44.12121" lon="6.98665">
        <ele>1813</ele>
        <time>2017-06-07T16:49:17Z</time>
      </trkpt>
      <trkpt lat="44.12116" lon="6.98662">
        <ele>1813</ele>
        <time>2017-06-07T16:49:18Z</time>
      </trkpt>
      <trkpt lat="44.12113" lon="6.98658">
        <ele>1813</ele>
        <time>2017-06-07T16:49:18Z</time>
      </trkpt>
      <trkpt lat="44.12109" lon="6.98657">
        <ele>1813</ele>
        <time>2017-06-07T16:49:18Z</time>
      </trkpt>
      <trkpt lat="44.12108" lon="6.98657">
        <ele>1813</ele>
        <time>2017-06-07T16:49:34Z</time>
      </trkpt>
      <trkpt lat="44.121" lon="6.98647">
        <ele>1811</ele>
        <time>2017-06-07T16:49:34Z</time>
      </trkpt>
      <trkpt lat="44.12098" lon="6.98644">
        <ele>1811</ele>
        <time>2017-06-07T16:49:34Z</time>
      </trkpt>
      <trkpt lat="44.12094" lon="6.98638">
        <ele>1802</ele>
        <time>2017-06-07T16:49:34Z</time>
      </trkpt>
      <trkpt lat="44.12093" lon="6.98636">
        <ele>1802</ele>
        <time>2017-06-07T16:49:50Z</time>
      </trkpt>
      <trkpt lat="44.12088" lon="6.98627">
        <ele>1802</ele>
        <time>2017-06-07T16:49:50Z</time>
      </trkpt>
      <trkpt lat="44.12087" lon="6.98623">
        <ele>1803</ele>
        <time>2017-06-07T16:49:50Z</time>
      </trkpt>
      <trkpt lat="44.12085" lon="6.98616">
        <ele>1803</ele>
        <time>2017-06-07T16:49:50Z</time>
      </trkpt>
      <trkpt lat="44.12084" lon="6.98613">
        <ele>1803</ele>
        <time>2017-06-07T16:50:05Z</time>
      </trkpt>
      <trkpt lat="44.12084" lon="6.98607">
        <ele>1803</ele>
        <time>2017-06-07T16:50:05Z</time>
      </trkpt>
      <trkpt lat="44.12084" lon="6.986">
        <ele>1803</ele>
        <time>2017-06-07T16:50:05Z</time>
      </trkpt>
      <trkpt lat="44.12084" lon="6.98591">
        <ele>1805</ele>
        <time>2017-06-07T16:50:06Z</time>
      </trkpt>
      <trkpt lat="44.12085" lon="6.98585">
        <ele>1805</ele>
        <time>2017-06-07T16:50:21Z</time>
      </trkpt>
      <trkpt lat="44.1209" lon="6.98584">
        <ele>1805</ele>
        <time>2017-06-07T16:50:21Z</time>
      </trkpt>
      <trkpt lat="44.12092" lon="6.9858">
        <ele>1805</ele>
        <time>2017-06-07T16:50:21Z</time>
      </trkpt>
      <trkpt lat="44.12096" lon="6.98576">
        <ele>1805</ele>
        <time>2017-06-07T16:50:21Z</time>
      </trkpt>
      <trkpt lat="44.12097" lon="6.98569">
        <ele>1808</ele>
        <time>2017-06-07T16:50:37Z</time>
      </trkpt>
      <trkpt lat="44.12101" lon="6.98565">
        <ele>1815</ele>
        <time>2017-06-07T16:50:38Z</time>
      </trkpt>
      <trkpt lat="44.12103" lon="6.98559">
        <ele>1815</ele>
        <time>2017-06-07T16:50:38Z</time>
      </trkpt>
      <trkpt lat="44.12103" lon="6.98553">
        <ele>1815</ele>
        <time>2017-06-07T16:50:38Z</time>
      </trkpt>
      <trkpt lat="44.12104" lon="6.98551">
        <ele>1815</ele>
        <time>2017-06-07T16:50:54Z</time>
      </trkpt>
      <trkpt lat="44.12109" lon="6.98541">
        <ele>1815</ele>
        <time>2017-06-07T16:50:54Z</time>
      </trkpt>
      <trkpt lat="44.12114" lon="6.98538">
        <ele>1815</ele>
        <time>2017-06-07T16:50:54Z</time>
      </trkpt>
      <trkpt lat="44.12115" lon="6.98537">
        <ele>1815</ele>
        <time>2017-06-07T16:50:54Z</time>
      </trkpt>
      <trkpt lat="44.12116" lon="6.98537">
        <ele>1815</ele>
        <time>2017-06-07T16:51:08Z</time>
      </trkpt>
      <trkpt lat="44.12126" lon="6.98534">
        <ele>1821</ele>
        <time>2017-06-07T16:51:08Z</time>
      </trkpt>
      <trkpt lat="44.12129" lon="6.98532">
        <ele>1821</ele>
        <time>2017-06-07T16:51:08Z</time>
      </trkpt>
      <trkpt lat="44.12131" lon="6.98531">
        <ele>1821</ele>
        <time>2017-06-07T16:51:09Z</time>
      </trkpt>
      <trkpt lat="44.12135" lon="6.9853">
        <ele>1821</ele>
        <time>2017-06-07T16:51:25Z</time>
      </trkpt>
      <trkpt lat="44.12136" lon="6.98524">
        <ele>1821</ele>
        <time>2017-06-07T16:51:25Z</time>
      </trkpt>
      <trkpt lat="44.12138" lon="6.98518">
        <ele>1821</ele>
        <time>2017-06-07T16:51:25Z</time>
      </trkpt>
      <trkpt lat="44.12138" lon="6.98514">
        <ele>1821</ele>
        <time>2017-06-07T16:51:25Z</time>
      </trkpt>
      <trkpt lat="44.12134" lon="6.98505">
        <ele>1817</ele>
        <time>2017-06-07T16:51:42Z</time>
      </trkpt>
      <trkpt lat="44.12133" lon="6.98502">
        <ele>1817</ele>
        <time>2017-06-07T16:51:42Z</time>
      </trkpt>
      <trkpt lat="44.1213" lon="6.985">
        <ele>1817</ele>
        <time>2017-06-07T16:51:42Z</time>
      </trkpt>
      <trkpt lat="44.12128" lon="6.98493">
        <ele>1817</ele>
        <time>2017-06-07T16:51:42Z</time>
      </trkpt>
      <trkpt lat="44.12128" lon="6.98487">
        <ele>1817</ele>
        <time>2017-06-07T16:52:13Z</time>
      </trkpt>
      <trkpt lat="44.12127" lon="6.98479">
        <ele>1800</ele>
        <time>2017-06-07T16:52:13Z</time>
      </trkpt>
      <trkpt lat="44.12126" lon="6.98471">
        <ele>1800</ele>
        <time>2017-06-07T16:52:14Z</time>
      </trkpt>
      <trkpt lat="44.12125" lon="6.98465">
        <ele>1800</ele>
        <time>2017-06-07T16:52:14Z</time>
      </trkpt>
      <trkpt lat="44.12131" lon="6.98465">
        <ele>1800</ele>
        <time>2017-06-07T16:52:14Z</time>
      </trkpt>
      <trkpt lat="44.12136" lon="6.9846">
        <ele>1800</ele>
        <time>2017-06-07T16:52:34Z</time>
      </trkpt>
      <trkpt lat="44.12141" lon="6.98457">
        <ele>1783</ele>
        <time>2017-06-07T16:52:34Z</time>
      </trkpt>
      <trkpt lat="44.12144" lon="6.98455">
        <ele>1783</ele>
        <time>2017-06-07T16:52:35Z</time>
      </trkpt>
      <trkpt lat="44.12146" lon="6.9846">
        <ele>1800</ele>
        <time>2017-06-07T16:52:35Z</time>
      </trkpt>
      <trkpt lat="44.12149" lon="6.98458">
        <ele>1783</ele>
        <time>2017-06-07T16:52:50Z</time>
      </trkpt>
      <trkpt lat="44.12156" lon="6.98454">
        <ele>1781</ele>
        <time>2017-06-07T16:52:50Z</time>
      </trkpt>
      <trkpt lat="44.12164" lon="6.98451">
        <ele>1781</ele>
        <time>2017-06-07T16:52:50Z</time>
      </trkpt>
      <trkpt lat="44.12168" lon="6.98447">
        <ele>1781</ele>
        <time>2017-06-07T16:52:50Z</time>
      </trkpt>
      <trkpt lat="44.12172" lon="6.98444">
        <ele>1781</ele>
        <time>2017-06-07T16:53:06Z</time>
      </trkpt>
      <trkpt lat="44.12177" lon="6.9844">
        <ele>1781</ele>
        <time>2017-06-07T16:53:06Z</time>
      </trkpt>
      <trkpt lat="44.12179" lon="6.98439">
        <ele>1781</ele>
        <time>2017-06-07T16:53:06Z</time>
      </trkpt>
      <trkpt lat="44.12183" lon="6.98434">
        <ele>1780</ele>
        <time>2017-06-07T16:53:06Z</time>
      </trkpt>
      <trkpt lat="44.12185" lon="6.98431">
        <ele>1780</ele>
        <time>2017-06-07T16:53:20Z</time>
      </trkpt>
      <trkpt lat="44.12188" lon="6.98431">
        <ele>1780</ele>
        <time>2017-06-07T16:53:20Z</time>
      </trkpt>
      <trkpt lat="44.1219" lon="6.98427">
        <ele>1762</ele>
        <time>2017-06-07T16:53:21Z</time>
      </trkpt>
      <trkpt lat="44.12194" lon="6.98426">
        <ele>1762</ele>
        <time>2017-06-07T16:53:21Z</time>
      </trkpt>
      <trkpt lat="44.12193" lon="6.98426">
        <ele>1762</ele>
        <time>2017-06-07T16:53:36Z</time>
      </trkpt>
      <trkpt lat="44.12195" lon="6.98425">
        <ele>1762</ele>
        <time>2017-06-07T16:53:36Z</time>
      </trkpt>
      <trkpt lat="44.12197" lon="6.98421">
        <ele>1762</ele>
        <time>2017-06-07T16:53:36Z</time>
      </trkpt>
      <trkpt lat="44.12201" lon="6.98416">
        <ele>1762</ele>
        <time>2017-06-07T16:53:36Z</time>
      </trkpt>
      <trkpt lat="44.12207" lon="6.98412">
        <ele>1762</ele>
        <time>2017-06-07T16:53:52Z</time>
      </trkpt>
      <trkpt lat="44.12211" lon="6.98408">
        <ele>1773</ele>
        <time>2017-06-07T16:53:52Z</time>
      </trkpt>
      <trkpt lat="44.12215" lon="6.98405">
        <ele>1773</ele>
        <time>2017-06-07T16:53:53Z</time>
      </trkpt>
      <trkpt lat="44.12219" lon="6.98401">
        <ele>1761</ele>
        <time>2017-06-07T16:53:53Z</time>
      </trkpt>
      <trkpt lat="44.12224" lon="6.98397">
        <ele>1761</ele>
        <time>2017-06-07T16:54:10Z</time>
      </trkpt>
      <trkpt lat="44.1223" lon="6.98392">
        <ele>1761</ele>
        <time>2017-06-07T16:54:10Z</time>
      </trkpt>
      <trkpt lat="44.12234" lon="6.98388">
        <ele>1761</ele>
        <time>2017-06-07T16:54:10Z</time>
      </trkpt>
      <trkpt lat="44.12238" lon="6.98384">
        <ele>1769</ele>
        <time>2017-06-07T16:54:10Z</time>
      </trkpt>
      <trkpt lat="44.12252" lon="6.98379">
        <ele>1769</ele>
        <time>2017-06-07T16:56:08Z</time>
      </trkpt>
      <trkpt lat="44.12254" lon="6.98379">
        <ele>1769</ele>
        <time>2017-06-07T16:56:09Z</time>
      </trkpt>
      <trkpt lat="44.12255" lon="6.98377">
        <ele>1769</ele>
        <time>2017-06-07T16:56:09Z</time>
      </trkpt>
      <trkpt lat="44.12256" lon="6.98377">
        <ele>1769</ele>
        <time>2017-06-07T16:56:09Z</time>
      </trkpt>
      <trkpt lat="44.12256" lon="6.98379">
        <ele>1769</ele>
        <time>2017-06-07T16:56:09Z</time>
      </trkpt>
      <trkpt lat="44.12255" lon="6.98375">
        <ele>1762</ele>
        <time>2017-06-07T16:56:26Z</time>
      </trkpt>
      <trkpt lat="44.12251" lon="6.98373">
        <ele>1762</ele>
        <time>2017-06-07T16:56:26Z</time>
      </trkpt>
      <trkpt lat="44.12251" lon="6.98369">
        <ele>1762</ele>
        <time>2017-06-07T16:56:26Z</time>
      </trkpt>
      <trkpt lat="44.12255" lon="6.98361">
        <ele>1762</ele>
        <time>2017-06-07T16:56:26Z</time>
      </trkpt>
      <trkpt lat="44.12256" lon="6.98361">
        <ele>1762</ele>
        <time>2017-06-07T16:56:41Z</time>
      </trkpt>
      <trkpt lat="44.12266" lon="6.9836">
        <ele>1767</ele>
        <time>2017-06-07T16:56:42Z</time>
      </trkpt>
      <trkpt lat="44.1227" lon="6.98357">
        <ele>1767</ele>
        <time>2017-06-07T16:56:42Z</time>
      </trkpt>
      <trkpt lat="44.12274" lon="6.98359">
        <ele>1767</ele>
        <time>2017-06-07T16:56:43Z</time>
      </trkpt>
      <trkpt lat="44.12275" lon="6.98359">
        <ele>1767</ele>
        <time>2017-06-07T16:56:57Z</time>
      </trkpt>
      <trkpt lat="44.12281" lon="6.98353">
        <ele>1767</ele>
        <time>2017-06-07T16:56:57Z</time>
      </trkpt>
      <trkpt lat="44.12285" lon="6.98354">
        <ele>1767</ele>
        <time>2017-06-07T16:56:57Z</time>
      </trkpt>
      <trkpt lat="44.12289" lon="6.9835">
        <ele>1767</ele>
        <time>2017-06-07T16:56:58Z</time>
      </trkpt>
      <trkpt lat="44.12293" lon="6.98348">
        <ele>1772</ele>
        <time>2017-06-07T16:57:12Z</time>
      </trkpt>
      <trkpt lat="44.12298" lon="6.98342">
        <ele>1761</ele>
        <time>2017-06-07T16:57:12Z</time>
      </trkpt>
      <trkpt lat="44.12301" lon="6.98332">
        <ele>1761</ele>
        <time>2017-06-07T16:57:12Z</time>
      </trkpt>
      <trkpt lat="44.12305" lon="6.98328">
        <ele>1761</ele>
        <time>2017-06-07T16:57:13Z</time>
      </trkpt>
      <trkpt lat="44.1231" lon="6.98325">
        <ele>1761</ele>
        <time>2017-06-07T16:57:28Z</time>
      </trkpt>
      <trkpt lat="44.12314" lon="6.98318">
        <ele>1750</ele>
        <time>2017-06-07T16:57:29Z</time>
      </trkpt>
      <trkpt lat="44.12317" lon="6.98313">
        <ele>1750</ele>
        <time>2017-06-07T16:57:29Z</time>
      </trkpt>
      <trkpt lat="44.12322" lon="6.98307">
        <ele>1753</ele>
        <time>2017-06-07T16:57:29Z</time>
      </trkpt>
      <trkpt lat="44.12325" lon="6.98302">
        <ele>1753</ele>
        <time>2017-06-07T16:57:44Z</time>
      </trkpt>
      <trkpt lat="44.12329" lon="6.98296">
        <ele>1753</ele>
        <time>2017-06-07T16:57:45Z</time>
      </trkpt>
      <trkpt lat="44.12332" lon="6.9829">
        <ele>1745</ele>
        <time>2017-06-07T16:57:45Z</time>
      </trkpt>
      <trkpt lat="44.12336" lon="6.98284">
        <ele>1745</ele>
        <time>2017-06-07T16:57:45Z</time>
      </trkpt>
      <trkpt lat="44.1234" lon="6.9828">
        <ele>1745</ele>
        <time>2017-06-07T16:58:00Z</time>
      </trkpt>
      <trkpt lat="44.12344" lon="6.98275">
        <ele>1745</ele>
        <time>2017-06-07T16:58:00Z</time>
      </trkpt>
      <trkpt lat="44.12347" lon="6.98271">
        <ele>1745</ele>
        <time>2017-06-07T16:58:00Z</time>
      </trkpt>
      <trkpt lat="44.1235" lon="6.98265">
        <ele>1750</ele>
        <time>2017-06-07T16:58:01Z</time>
      </trkpt>
      <trkpt lat="44.12357" lon="6.98278">
        <ele>1750</ele>
        <time>2017-06-07T16:58:18Z</time>
      </trkpt>
      <trkpt lat="44.12361" lon="6.98276">
        <ele>1750</ele>
        <time>2017-06-07T16:58:18Z</time>
      </trkpt>
      <trkpt lat="44.12364" lon="6.98273">
        <ele>1750</ele>
        <time>2017-06-07T16:58:18Z</time>
      </trkpt>
      <trkpt lat="44.12366" lon="6.98271">
        <ele>1750</ele>
        <time>2017-06-07T16:58:18Z</time>
      </trkpt>
      <trkpt lat="44.12367" lon="6.9827">
        <ele>1750</ele>
        <time>2017-06-07T16:58:42Z</time>
      </trkpt>
      <trkpt lat="44.12368" lon="6.98269">
        <ele>1750</ele>
        <time>2017-06-07T16:58:42Z</time>
      </trkpt>
      <trkpt lat="44.12365" lon="6.98268">
        <ele>1750</ele>
        <time>2017-06-07T16:58:42Z</time>
      </trkpt>
      <trkpt lat="44.12371" lon="6.98263">
        <ele>1739</ele>
        <time>2017-06-07T16:58:42Z</time>
      </trkpt>
      <trkpt lat="44.12375" lon="6.98259">
        <ele>1739</ele>
        <time>2017-06-07T16:58:42Z</time>
      </trkpt>
      <trkpt lat="44.12377" lon="6.98258">
        <ele>1745</ele>
        <time>2017-06-07T16:58:58Z</time>
      </trkpt>
      <trkpt lat="44.12383" lon="6.98252">
        <ele>1745</ele>
        <time>2017-06-07T16:58:58Z</time>
      </trkpt>
      <trkpt lat="44.1239" lon="6.9825">
        <ele>1745</ele>
        <time>2017-06-07T16:58:58Z</time>
      </trkpt>
      <trkpt lat="44.12398" lon="6.98248">
        <ele>1745</ele>
        <time>2017-06-07T16:58:58Z</time>
      </trkpt>
      <trkpt lat="44.124" lon="6.98248">
        <ele>1745</ele>
        <time>2017-06-07T16:59:12Z</time>
      </trkpt>
      <trkpt lat="44.1241" lon="6.98244">
        <ele>1747</ele>
        <time>2017-06-07T16:59:12Z</time>
      </trkpt>
      <trkpt lat="44.12412" lon="6.9824">
        <ele>1747</ele>
        <time>2017-06-07T16:59:12Z</time>
      </trkpt>
      <trkpt lat="44.12418" lon="6.98239">
        <ele>1747</ele>
        <time>2017-06-07T16:59:13Z</time>
      </trkpt>
      <trkpt lat="44.12422" lon="6.98236">
        <ele>1739</ele>
        <time>2017-06-07T16:59:30Z</time>
      </trkpt>
      <trkpt lat="44.12432" lon="6.98233">
        <ele>1745</ele>
        <time>2017-06-07T16:59:30Z</time>
      </trkpt>
      <trkpt lat="44.12436" lon="6.9823">
        <ele>1745</ele>
        <time>2017-06-07T16:59:30Z</time>
      </trkpt>
      <trkpt lat="44.1244" lon="6.98228">
        <ele>1745</ele>
        <time>2017-06-07T16:59:30Z</time>
      </trkpt>
      <trkpt lat="44.12442" lon="6.98229">
        <ele>1745</ele>
        <time>2017-06-07T16:59:46Z</time>
      </trkpt>
      <trkpt lat="44.12451" lon="6.98226">
        <ele>1745</ele>
        <time>2017-06-07T16:59:46Z</time>
      </trkpt>
      <trkpt lat="44.12457" lon="6.98224">
        <ele>1745</ele>
        <time>2017-06-07T16:59:46Z</time>
      </trkpt>
      <trkpt lat="44.12461" lon="6.98229">
        <ele>1751</ele>
        <time>2017-06-07T16:59:46Z</time>
      </trkpt>
      <trkpt lat="44.12461" lon="6.9823">
        <ele>1751</ele>
        <time>2017-06-07T17:00:01Z</time>
      </trkpt>
      <trkpt lat="44.12468" lon="6.98225">
        <ele>1751</ele>
        <time>2017-06-07T17:00:01Z</time>
      </trkpt>
      <trkpt lat="44.12471" lon="6.98226">
        <ele>1751</ele>
        <time>2017-06-07T17:00:01Z</time>
      </trkpt>
      <trkpt lat="44.12473" lon="6.98228">
        <ele>1751</ele>
        <time>2017-06-07T17:00:01Z</time>
      </trkpt>
      <trkpt lat="44.12475" lon="6.98225">
        <ele>1751</ele>
        <time>2017-06-07T17:00:22Z</time>
      </trkpt>
      <trkpt lat="44.12472" lon="6.98221">
        <ele>1751</ele>
        <time>2017-06-07T17:00:22Z</time>
      </trkpt>
      <trkpt lat="44.1247" lon="6.98221">
        <ele>1751</ele>
        <time>2017-06-07T17:00:22Z</time>
      </trkpt>
      <trkpt lat="44.12468" lon="6.98219">
        <ele>1751</ele>
        <time>2017-06-07T17:00:22Z</time>
      </trkpt>
      <trkpt lat="44.12467" lon="6.98215">
        <ele>1751</ele>
        <time>2017-06-07T17:00:22Z</time>
      </trkpt>
      <trkpt lat="44.12467" lon="6.98213">
        <ele>1751</ele>
        <time>2017-06-07T17:00:38Z</time>
      </trkpt>
      <trkpt lat="44.12466" lon="6.9821">
        <ele>1751</ele>
        <time>2017-06-07T17:00:38Z</time>
      </trkpt>
      <trkpt lat="44.12463" lon="6.98202">
        <ele>1752</ele>
        <time>2017-06-07T17:00:38Z</time>
      </trkpt>
      <trkpt lat="44.1246" lon="6.982">
        <ele>1752</ele>
        <time>2017-06-07T17:00:39Z</time>
      </trkpt>
      <trkpt lat="44.1246" lon="6.98196">
        <ele>1752</ele>
        <time>2017-06-07T17:00:54Z</time>
      </trkpt>
      <trkpt lat="44.12454" lon="6.9819">
        <ele>1744</ele>
        <time>2017-06-07T17:00:54Z</time>
      </trkpt>
      <trkpt lat="44.1245" lon="6.98188">
        <ele>1744</ele>
        <time>2017-06-07T17:00:54Z</time>
      </trkpt>
      <trkpt lat="44.12446" lon="6.98182">
        <ele>1744</ele>
        <time>2017-06-07T17:00:54Z</time>
      </trkpt>
      <trkpt lat="44.12445" lon="6.98181">
        <ele>1744</ele>
        <time>2017-06-07T17:01:10Z</time>
      </trkpt>
      <trkpt lat="44.12441" lon="6.98175">
        <ele>1747</ele>
        <time>2017-06-07T17:01:10Z</time>
      </trkpt>
      <trkpt lat="44.12439" lon="6.98172">
        <ele>1747</ele>
        <time>2017-06-07T17:01:10Z</time>
      </trkpt>
      <trkpt lat="44.12436" lon="6.98165">
        <ele>1747</ele>
        <time>2017-06-07T17:01:10Z</time>
      </trkpt>
      <trkpt lat="44.12434" lon="6.98164">
        <ele>1747</ele>
        <time>2017-06-07T17:01:26Z</time>
      </trkpt>
      <trkpt lat="44.12431" lon="6.98154">
        <ele>1747</ele>
        <time>2017-06-07T17:01:26Z</time>
      </trkpt>
      <trkpt lat="44.12429" lon="6.98151">
        <ele>1738</ele>
        <time>2017-06-07T17:01:26Z</time>
      </trkpt>
      <trkpt lat="44.12425" lon="6.98143">
        <ele>1738</ele>
        <time>2017-06-07T17:01:26Z</time>
      </trkpt>
      <trkpt lat="44.12425" lon="6.98142">
        <ele>1738</ele>
        <time>2017-06-07T17:01:42Z</time>
      </trkpt>
      <trkpt lat="44.12424" lon="6.98133">
        <ele>1738</ele>
        <time>2017-06-07T17:01:42Z</time>
      </trkpt>
      <trkpt lat="44.12424" lon="6.98129">
        <ele>1738</ele>
        <time>2017-06-07T17:01:42Z</time>
      </trkpt>
      <trkpt lat="44.12424" lon="6.98122">
        <ele>1744</ele>
        <time>2017-06-07T17:01:42Z</time>
      </trkpt>
      <trkpt lat="44.12424" lon="6.98112">
        <ele>1744</ele>
        <time>2017-06-07T17:02:11Z</time>
      </trkpt>
      <trkpt lat="44.12424" lon="6.98106">
        <ele>1744</ele>
        <time>2017-06-07T17:02:11Z</time>
      </trkpt>
      <trkpt lat="44.12424" lon="6.98098">
        <ele>1744</ele>
        <time>2017-06-07T17:02:11Z</time>
      </trkpt>
      <trkpt lat="44.12423" lon="6.9809">
        <ele>1748</ele>
        <time>2017-06-07T17:02:11Z</time>
      </trkpt>
      <trkpt lat="44.12423" lon="6.98078">
        <ele>1748</ele>
        <time>2017-06-07T17:02:11Z</time>
      </trkpt>
      <trkpt lat="44.12424" lon="6.98076">
        <ele>1748</ele>
        <time>2017-06-07T17:02:26Z</time>
      </trkpt>
      <trkpt lat="44.12425" lon="6.98067">
        <ele>1747</ele>
        <time>2017-06-07T17:02:26Z</time>
      </trkpt>
      <trkpt lat="44.12426" lon="6.98062">
        <ele>1747</ele>
        <time>2017-06-07T17:02:27Z</time>
      </trkpt>
      <trkpt lat="44.12427" lon="6.98061">
        <ele>1747</ele>
        <time>2017-06-07T17:02:27Z</time>
      </trkpt>
      <trkpt lat="44.12429" lon="6.98057">
        <ele>1747</ele>
        <time>2017-06-07T17:02:42Z</time>
      </trkpt>
      <trkpt lat="44.12433" lon="6.98054">
        <ele>1756</ele>
        <time>2017-06-07T17:02:42Z</time>
      </trkpt>
      <trkpt lat="44.12435" lon="6.98049">
        <ele>1756</ele>
        <time>2017-06-07T17:02:42Z</time>
      </trkpt>
      <trkpt lat="44.12435" lon="6.98044">
        <ele>1756</ele>
        <time>2017-06-07T17:02:42Z</time>
      </trkpt>
      <trkpt lat="44.12436" lon="6.98042">
        <ele>1756</ele>
        <time>2017-06-07T17:02:58Z</time>
      </trkpt>
      <trkpt lat="44.12435" lon="6.9803">
        <ele>1759</ele>
        <time>2017-06-07T17:02:58Z</time>
      </trkpt>
      <trkpt lat="44.12434" lon="6.98028">
        <ele>1759</ele>
        <time>2017-06-07T17:02:58Z</time>
      </trkpt>
      <trkpt lat="44.12434" lon="6.98025">
        <ele>1759</ele>
        <time>2017-06-07T17:02:58Z</time>
      </trkpt>
      <trkpt lat="44.12434" lon="6.98023">
        <ele>1759</ele>
        <time>2017-06-07T17:03:13Z</time>
      </trkpt>
      <trkpt lat="44.12435" lon="6.98013">
        <ele>1761</ele>
        <time>2017-06-07T17:03:13Z</time>
      </trkpt>
      <trkpt lat="44.12434" lon="6.98005">
        <ele>1761</ele>
        <time>2017-06-07T17:03:13Z</time>
      </trkpt>
      <trkpt lat="44.12433" lon="6.97997">
        <ele>1761</ele>
        <time>2017-06-07T17:03:14Z</time>
      </trkpt>
      <trkpt lat="44.12432" lon="6.97993">
        <ele>1761</ele>
        <time>2017-06-07T17:03:29Z</time>
      </trkpt>
      <trkpt lat="44.12431" lon="6.97982">
        <ele>1750</ele>
        <time>2017-06-07T17:03:29Z</time>
      </trkpt>
      <trkpt lat="44.12431" lon="6.97974">
        <ele>1750</ele>
        <time>2017-06-07T17:03:29Z</time>
      </trkpt>
      <trkpt lat="44.1243" lon="6.97968">
        <ele>1750</ele>
        <time>2017-06-07T17:03:30Z</time>
      </trkpt>
      <trkpt lat="44.12429" lon="6.97962">
        <ele>1750</ele>
        <time>2017-06-07T17:03:45Z</time>
      </trkpt>
      <trkpt lat="44.12428" lon="6.97957">
        <ele>1749</ele>
        <time>2017-06-07T17:03:46Z</time>
      </trkpt>
      <trkpt lat="44.12426" lon="6.97952">
        <ele>1749</ele>
        <time>2017-06-07T17:03:46Z</time>
      </trkpt>
      <trkpt lat="44.12424" lon="6.97948">
        <ele>1749</ele>
        <time>2017-06-07T17:03:46Z</time>
      </trkpt>
      <trkpt lat="44.12424" lon="6.97947">
        <ele>1749</ele>
        <time>2017-06-07T17:04:02Z</time>
      </trkpt>
      <trkpt lat="44.12423" lon="6.97935">
        <ele>1749</ele>
        <time>2017-06-07T17:04:02Z</time>
      </trkpt>
      <trkpt lat="44.12423" lon="6.97931">
        <ele>1749</ele>
        <time>2017-06-07T17:04:02Z</time>
      </trkpt>
      <trkpt lat="44.12424" lon="6.97926">
        <ele>1752</ele>
        <time>2017-06-07T17:04:02Z</time>
      </trkpt>
      <trkpt lat="44.12425" lon="6.97925">
        <ele>1752</ele>
        <time>2017-06-07T17:04:18Z</time>
      </trkpt>
      <trkpt lat="44.12426" lon="6.97916">
        <ele>1752</ele>
        <time>2017-06-07T17:04:18Z</time>
      </trkpt>
      <trkpt lat="44.12428" lon="6.97913">
        <ele>1752</ele>
        <time>2017-06-07T17:04:19Z</time>
      </trkpt>
      <trkpt lat="44.12436" lon="6.97911">
        <ele>1762</ele>
        <time>2017-06-07T17:04:19Z</time>
      </trkpt>
      <trkpt lat="44.12438" lon="6.9791">
        <ele>1762</ele>
        <time>2017-06-07T17:04:32Z</time>
      </trkpt>
      <trkpt lat="44.12441" lon="6.97903">
        <ele>1762</ele>
        <time>2017-06-07T17:04:32Z</time>
      </trkpt>
      <trkpt lat="44.12443" lon="6.97897">
        <ele>1766</ele>
        <time>2017-06-07T17:04:32Z</time>
      </trkpt>
      <trkpt lat="44.12442" lon="6.9789">
        <ele>1766</ele>
        <time>2017-06-07T17:04:33Z</time>
      </trkpt>
      <trkpt lat="44.12443" lon="6.97885">
        <ele>1766</ele>
        <time>2017-06-07T17:04:48Z</time>
      </trkpt>
      <trkpt lat="44.12444" lon="6.97876">
        <ele>1766</ele>
        <time>2017-06-07T17:04:48Z</time>
      </trkpt>
      <trkpt lat="44.12446" lon="6.97872">
        <ele>1770</ele>
        <time>2017-06-07T17:04:48Z</time>
      </trkpt>
      <trkpt lat="44.12446" lon="6.9787">
        <ele>1770</ele>
        <time>2017-06-07T17:04:49Z</time>
      </trkpt>
      <trkpt lat="44.12446" lon="6.97869">
        <ele>1770</ele>
        <time>2017-06-07T17:05:10Z</time>
      </trkpt>
      <trkpt lat="44.12444" lon="6.97865">
        <ele>1770</ele>
        <time>2017-06-07T17:05:10Z</time>
      </trkpt>
      <trkpt lat="44.12445" lon="6.97863">
        <ele>1770</ele>
        <time>2017-06-07T17:05:10Z</time>
      </trkpt>
      <trkpt lat="44.12442" lon="6.9786">
        <ele>1770</ele>
        <time>2017-06-07T17:05:10Z</time>
      </trkpt>
      <trkpt lat="44.12438" lon="6.97858">
        <ele>1770</ele>
        <time>2017-06-07T17:05:10Z</time>
      </trkpt>
      <trkpt lat="44.12438" lon="6.97858">
        <ele>1770</ele>
        <time>2017-06-07T17:05:26Z</time>
      </trkpt>
      <trkpt lat="44.12431" lon="6.97858">
        <ele>1766</ele>
        <time>2017-06-07T17:05:26Z</time>
      </trkpt>
      <trkpt lat="44.12424" lon="6.97858">
        <ele>1766</ele>
        <time>2017-06-07T17:05:26Z</time>
      </trkpt>
      <trkpt lat="44.12418" lon="6.97856">
        <ele>1766</ele>
        <time>2017-06-07T17:05:26Z</time>
      </trkpt>
      <trkpt lat="44.12418" lon="6.97855">
        <ele>1766</ele>
        <time>2017-06-07T17:05:42Z</time>
      </trkpt>
      <trkpt lat="44.12411" lon="6.97853">
        <ele>1766</ele>
        <time>2017-06-07T17:05:42Z</time>
      </trkpt>
      <trkpt lat="44.12408" lon="6.97853">
        <ele>1766</ele>
        <time>2017-06-07T17:05:42Z</time>
      </trkpt>
      <trkpt lat="44.12403" lon="6.97853">
        <ele>1766</ele>
        <time>2017-06-07T17:05:42Z</time>
      </trkpt>
      <trkpt lat="44.12403" lon="6.97852">
        <ele>1766</ele>
        <time>2017-06-07T17:05:58Z</time>
      </trkpt>
      <trkpt lat="44.12395" lon="6.97854">
        <ele>1762</ele>
        <time>2017-06-07T17:05:58Z</time>
      </trkpt>
      <trkpt lat="44.12392" lon="6.97852">
        <ele>1762</ele>
        <time>2017-06-07T17:05:59Z</time>
      </trkpt>
      <trkpt lat="44.12388" lon="6.97847">
        <ele>1762</ele>
        <time>2017-06-07T17:05:59Z</time>
      </trkpt>
      <trkpt lat="44.12386" lon="6.97845">
        <ele>1770</ele>
        <time>2017-06-07T17:06:14Z</time>
      </trkpt>
      <trkpt lat="44.12381" lon="6.97841">
        <ele>1770</ele>
        <time>2017-06-07T17:06:14Z</time>
      </trkpt>
      <trkpt lat="44.12377" lon="6.97834">
        <ele>1770</ele>
        <time>2017-06-07T17:06:15Z</time>
      </trkpt>
      <trkpt lat="44.12376" lon="6.9783">
        <ele>1770</ele>
        <time>2017-06-07T17:06:15Z</time>
      </trkpt>
      <trkpt lat="44.12374" lon="6.97829">
        <ele>1767</ele>
        <time>2017-06-07T17:06:30Z</time>
      </trkpt>
      <trkpt lat="44.12369" lon="6.97826">
        <ele>1767</ele>
        <time>2017-06-07T17:06:30Z</time>
      </trkpt>
      <trkpt lat="44.12365" lon="6.97825">
        <ele>1767</ele>
        <time>2017-06-07T17:06:30Z</time>
      </trkpt>
      <trkpt lat="44.1236" lon="6.97824">
        <ele>1767</ele>
        <time>2017-06-07T17:06:30Z</time>
      </trkpt>
      <trkpt lat="44.12358" lon="6.97824">
        <ele>1767</ele>
        <time>2017-06-07T17:06:46Z</time>
      </trkpt>
      <trkpt lat="44.1235" lon="6.97818">
        <ele>1778</ele>
        <time>2017-06-07T17:06:46Z</time>
      </trkpt>
      <trkpt lat="44.12347" lon="6.97817">
        <ele>1778</ele>
        <time>2017-06-07T17:06:46Z</time>
      </trkpt>
      <trkpt lat="44.12342" lon="6.97816">
        <ele>1776</ele>
        <time>2017-06-07T17:06:46Z</time>
      </trkpt>
      <trkpt lat="44.12342" lon="6.97816">
        <ele>1776</ele>
        <time>2017-06-07T17:07:01Z</time>
      </trkpt>
      <trkpt lat="44.12339" lon="6.97816">
        <ele>1776</ele>
        <time>2017-06-07T17:07:01Z</time>
      </trkpt>
      <trkpt lat="44.12333" lon="6.97818">
        <ele>1776</ele>
        <time>2017-06-07T17:07:01Z</time>
      </trkpt>
      <trkpt lat="44.1233" lon="6.97819">
        <ele>1776</ele>
        <time>2017-06-07T17:07:01Z</time>
      </trkpt>
      <trkpt lat="44.12327" lon="6.9782">
        <ele>1763</ele>
        <time>2017-06-07T17:07:17Z</time>
      </trkpt>
      <trkpt lat="44.12321" lon="6.97821">
        <ele>1763</ele>
        <time>2017-06-07T17:07:17Z</time>
      </trkpt>
      <trkpt lat="44.12319" lon="6.9782">
        <ele>1766</ele>
        <time>2017-06-07T17:07:18Z</time>
      </trkpt>
      <trkpt lat="44.12315" lon="6.9782">
        <ele>1766</ele>
        <time>2017-06-07T17:07:18Z</time>
      </trkpt>
      <trkpt lat="44.12312" lon="6.9782">
        <ele>1766</ele>
        <time>2017-06-07T17:07:34Z</time>
      </trkpt>
      <trkpt lat="44.12305" lon="6.97819">
        <ele>1777</ele>
        <time>2017-06-07T17:07:34Z</time>
      </trkpt>
      <trkpt lat="44.12302" lon="6.97816">
        <ele>1777</ele>
        <time>2017-06-07T17:07:34Z</time>
      </trkpt>
      <trkpt lat="44.12298" lon="6.97815">
        <ele>1777</ele>
        <time>2017-06-07T17:07:34Z</time>
      </trkpt>
      <trkpt lat="44.12296" lon="6.97815">
        <ele>1777</ele>
        <time>2017-06-07T17:07:50Z</time>
      </trkpt>
      <trkpt lat="44.12289" lon="6.97811">
        <ele>1778</ele>
        <time>2017-06-07T17:07:50Z</time>
      </trkpt>
      <trkpt lat="44.12288" lon="6.97809">
        <ele>1778</ele>
        <time>2017-06-07T17:07:50Z</time>
      </trkpt>
      <trkpt lat="44.12285" lon="6.97804">
        <ele>1778</ele>
        <time>2017-06-07T17:07:50Z</time>
      </trkpt>
      <trkpt lat="44.12283" lon="6.97803">
        <ele>1778</ele>
        <time>2017-06-07T17:08:05Z</time>
      </trkpt>
      <trkpt lat="44.12277" lon="6.97799">
        <ele>1778</ele>
        <time>2017-06-07T17:08:06Z</time>
      </trkpt>
      <trkpt lat="44.12274" lon="6.97798">
        <ele>1778</ele>
        <time>2017-06-07T17:08:06Z</time>
      </trkpt>
      <trkpt lat="44.12272" lon="6.97795">
        <ele>1778</ele>
        <time>2017-06-07T17:08:06Z</time>
      </trkpt>
      <trkpt lat="44.1227" lon="6.97795">
        <ele>1778</ele>
        <time>2017-06-07T17:08:21Z</time>
      </trkpt>
      <trkpt lat="44.12265" lon="6.97793">
        <ele>1778</ele>
        <time>2017-06-07T17:08:21Z</time>
      </trkpt>
      <trkpt lat="44.12259" lon="6.97789">
        <ele>1784</ele>
        <time>2017-06-07T17:08:21Z</time>
      </trkpt>
      <trkpt lat="44.12258" lon="6.97789">
        <ele>1784</ele>
        <time>2017-06-07T17:08:21Z</time>
      </trkpt>
      <trkpt lat="44.12254" lon="6.97788">
        <ele>1784</ele>
        <time>2017-06-07T17:08:38Z</time>
      </trkpt>
      <trkpt lat="44.12251" lon="6.97786">
        <ele>1784</ele>
        <time>2017-06-07T17:08:38Z</time>
      </trkpt>
      <trkpt lat="44.12246" lon="6.97783">
        <ele>1784</ele>
        <time>2017-06-07T17:08:38Z</time>
      </trkpt>
      <trkpt lat="44.12244" lon="6.97781">
        <ele>1784</ele>
        <time>2017-06-07T17:08:38Z</time>
      </trkpt>
      <trkpt lat="44.12243" lon="6.97781">
        <ele>1784</ele>
        <time>2017-06-07T17:08:53Z</time>
      </trkpt>
      <trkpt lat="44.12237" lon="6.97773">
        <ele>1784</ele>
        <time>2017-06-07T17:08:53Z</time>
      </trkpt>
      <trkpt lat="44.12233" lon="6.9777">
        <ele>1775</ele>
        <time>2017-06-07T17:08:53Z</time>
      </trkpt>
      <trkpt lat="44.12232" lon="6.97768">
        <ele>1775</ele>
        <time>2017-06-07T17:08:53Z</time>
      </trkpt>
      <trkpt lat="44.12231" lon="6.97763">
        <ele>1785</ele>
        <time>2017-06-07T17:09:08Z</time>
      </trkpt>
      <trkpt lat="44.1223" lon="6.97758">
        <ele>1785</ele>
        <time>2017-06-07T17:09:08Z</time>
      </trkpt>
      <trkpt lat="44.12228" lon="6.97755">
        <ele>1785</ele>
        <time>2017-06-07T17:09:08Z</time>
      </trkpt>
      <trkpt lat="44.12226" lon="6.97751">
        <ele>1785</ele>
        <time>2017-06-07T17:09:09Z</time>
      </trkpt>
      <trkpt lat="44.12225" lon="6.97749">
        <ele>1785</ele>
        <time>2017-06-07T17:09:26Z</time>
      </trkpt>
      <trkpt lat="44.12221" lon="6.97746">
        <ele>1785</ele>
        <time>2017-06-07T17:09:26Z</time>
      </trkpt>
      <trkpt lat="44.12218" lon="6.97741">
        <ele>1785</ele>
        <time>2017-06-07T17:09:26Z</time>
      </trkpt>
      <trkpt lat="44.12214" lon="6.97737">
        <ele>1785</ele>
        <time>2017-06-07T17:09:26Z</time>
      </trkpt>
      <trkpt lat="44.12213" lon="6.97736">
        <ele>1794</ele>
        <time>2017-06-07T17:09:41Z</time>
      </trkpt>
      <trkpt lat="44.1221" lon="6.97729">
        <ele>1794</ele>
        <time>2017-06-07T17:09:41Z</time>
      </trkpt>
      <trkpt lat="44.12208" lon="6.97724">
        <ele>1784</ele>
        <time>2017-06-07T17:09:42Z</time>
      </trkpt>
      <trkpt lat="44.12205" lon="6.9772">
        <ele>1784</ele>
        <time>2017-06-07T17:09:42Z</time>
      </trkpt>
      <trkpt lat="44.12203" lon="6.97716">
        <ele>1784</ele>
        <time>2017-06-07T17:09:58Z</time>
      </trkpt>
      <trkpt lat="44.12201" lon="6.97711">
        <ele>1784</ele>
        <time>2017-06-07T17:09:58Z</time>
      </trkpt>
      <trkpt lat="44.12199" lon="6.97706">
        <ele>1793</ele>
        <time>2017-06-07T17:09:58Z</time>
      </trkpt>
      <trkpt lat="44.12195" lon="6.977">
        <ele>1793</ele>
        <time>2017-06-07T17:09:58Z</time>
      </trkpt>
      <trkpt lat="44.12194" lon="6.97699">
        <ele>1793</ele>
        <time>2017-06-07T17:10:13Z</time>
      </trkpt>
      <trkpt lat="44.12192" lon="6.97694">
        <ele>1793</ele>
        <time>2017-06-07T17:10:13Z</time>
      </trkpt>
      <trkpt lat="44.1219" lon="6.9769">
        <ele>1793</ele>
        <time>2017-06-07T17:10:13Z</time>
      </trkpt>
      <trkpt lat="44.12189" lon="6.97689">
        <ele>1793</ele>
        <time>2017-06-07T17:10:13Z</time>
      </trkpt>
      <trkpt lat="44.12185" lon="6.97685">
        <ele>1793</ele>
        <time>2017-06-07T17:10:30Z</time>
      </trkpt>
      <trkpt lat="44.12181" lon="6.9768">
        <ele>1802</ele>
        <time>2017-06-07T17:10:30Z</time>
      </trkpt>
      <trkpt lat="44.12178" lon="6.97677">
        <ele>1790</ele>
        <time>2017-06-07T17:10:30Z</time>
      </trkpt>
      <trkpt lat="44.12175" lon="6.97673">
        <ele>1790</ele>
        <time>2017-06-07T17:10:30Z</time>
      </trkpt>
      <trkpt lat="44.12174" lon="6.97671">
        <ele>1790</ele>
        <time>2017-06-07T17:10:44Z</time>
      </trkpt>
      <trkpt lat="44.12169" lon="6.97665">
        <ele>1790</ele>
        <time>2017-06-07T17:10:45Z</time>
      </trkpt>
      <trkpt lat="44.12164" lon="6.97663">
        <ele>1790</ele>
        <time>2017-06-07T17:10:45Z</time>
      </trkpt>
      <trkpt lat="44.1216" lon="6.97659">
        <ele>1790</ele>
        <time>2017-06-07T17:10:45Z</time>
      </trkpt>
      <trkpt lat="44.12159" lon="6.97656">
        <ele>1790</ele>
        <time>2017-06-07T17:11:01Z</time>
      </trkpt>
      <trkpt lat="44.12157" lon="6.97653">
        <ele>1790</ele>
        <time>2017-06-07T17:11:01Z</time>
      </trkpt>
      <trkpt lat="44.12155" lon="6.97647">
        <ele>1799</ele>
        <time>2017-06-07T17:11:01Z</time>
      </trkpt>
      <trkpt lat="44.12154" lon="6.97643">
        <ele>1799</ele>
        <time>2017-06-07T17:11:01Z</time>
      </trkpt>
      <trkpt lat="44.12151" lon="6.97637">
        <ele>1789</ele>
        <time>2017-06-07T17:11:16Z</time>
      </trkpt>
      <trkpt lat="44.12148" lon="6.9763">
        <ele>1789</ele>
        <time>2017-06-07T17:11:16Z</time>
      </trkpt>
      <trkpt lat="44.12147" lon="6.97627">
        <ele>1789</ele>
        <time>2017-06-07T17:11:16Z</time>
      </trkpt>
      <trkpt lat="44.12145" lon="6.97623">
        <ele>1799</ele>
        <time>2017-06-07T17:11:17Z</time>
      </trkpt>
      <trkpt lat="44.12143" lon="6.97618">
        <ele>1799</ele>
        <time>2017-06-07T17:11:33Z</time>
      </trkpt>
      <trkpt lat="44.1214" lon="6.97614">
        <ele>1799</ele>
        <time>2017-06-07T17:11:33Z</time>
      </trkpt>
      <trkpt lat="44.1214" lon="6.97611">
        <ele>1799</ele>
        <time>2017-06-07T17:11:34Z</time>
      </trkpt>
      <trkpt lat="44.12137" lon="6.97606">
        <ele>1799</ele>
        <time>2017-06-07T17:11:34Z</time>
      </trkpt>
      <trkpt lat="44.12136" lon="6.97604">
        <ele>1799</ele>
        <time>2017-06-07T17:11:50Z</time>
      </trkpt>
      <trkpt lat="44.12133" lon="6.97596">
        <ele>1809</ele>
        <time>2017-06-07T17:11:50Z</time>
      </trkpt>
      <trkpt lat="44.12132" lon="6.97593">
        <ele>1809</ele>
        <time>2017-06-07T17:11:50Z</time>
      </trkpt>
      <trkpt lat="44.12129" lon="6.97585">
        <ele>1809</ele>
        <time>2017-06-07T17:11:51Z</time>
      </trkpt>
      <trkpt lat="44.12128" lon="6.97582">
        <ele>1809</ele>
        <time>2017-06-07T17:12:06Z</time>
      </trkpt>
      <trkpt lat="44.12124" lon="6.97574">
        <ele>1799</ele>
        <time>2017-06-07T17:12:06Z</time>
      </trkpt>
      <trkpt lat="44.12121" lon="6.97571">
        <ele>1799</ele>
        <time>2017-06-07T17:12:06Z</time>
      </trkpt>
      <trkpt lat="44.12119" lon="6.97569">
        <ele>1806</ele>
        <time>2017-06-07T17:12:06Z</time>
      </trkpt>
      <trkpt lat="44.12119" lon="6.97568">
        <ele>1806</ele>
        <time>2017-06-07T17:12:22Z</time>
      </trkpt>
      <trkpt lat="44.12115" lon="6.97557">
        <ele>1806</ele>
        <time>2017-06-07T17:12:22Z</time>
      </trkpt>
      <trkpt lat="44.12112" lon="6.97555">
        <ele>1806</ele>
        <time>2017-06-07T17:12:22Z</time>
      </trkpt>
      <trkpt lat="44.12109" lon="6.97548">
        <ele>1806</ele>
        <time>2017-06-07T17:12:22Z</time>
      </trkpt>
      <trkpt lat="44.1211" lon="6.97547">
        <ele>1806</ele>
        <time>2017-06-07T17:12:38Z</time>
      </trkpt>
      <trkpt lat="44.12108" lon="6.97539">
        <ele>1812</ele>
        <time>2017-06-07T17:12:38Z</time>
      </trkpt>
      <trkpt lat="44.12108" lon="6.97537">
        <ele>1812</ele>
        <time>2017-06-07T17:12:38Z</time>
      </trkpt>
      <trkpt lat="44.12105" lon="6.97532">
        <ele>1812</ele>
        <time>2017-06-07T17:12:38Z</time>
      </trkpt>
      <trkpt lat="44.12103" lon="6.9753">
        <ele>1812</ele>
        <time>2017-06-07T17:12:54Z</time>
      </trkpt>
      <trkpt lat="44.12102" lon="6.9752">
        <ele>1812</ele>
        <time>2017-06-07T17:12:54Z</time>
      </trkpt>
      <trkpt lat="44.12101" lon="6.97516">
        <ele>1812</ele>
        <time>2017-06-07T17:12:54Z</time>
      </trkpt>
      <trkpt lat="44.121" lon="6.9751">
        <ele>1816</ele>
        <time>2017-06-07T17:12:54Z</time>
      </trkpt>
      <trkpt lat="44.12099" lon="6.9751">
        <ele>1816</ele>
        <time>2017-06-07T17:13:08Z</time>
      </trkpt>
      <trkpt lat="44.12097" lon="6.97499">
        <ele>1805</ele>
        <time>2017-06-07T17:13:08Z</time>
      </trkpt>
      <trkpt lat="44.12097" lon="6.97497">
        <ele>1805</ele>
        <time>2017-06-07T17:13:08Z</time>
      </trkpt>
      <trkpt lat="44.12097" lon="6.97493">
        <ele>1805</ele>
        <time>2017-06-07T17:13:09Z</time>
      </trkpt>
      <trkpt lat="44.12095" lon="6.97485">
        <ele>1812</ele>
        <time>2017-06-07T17:13:24Z</time>
      </trkpt>
      <trkpt lat="44.12095" lon="6.97481">
        <ele>1812</ele>
        <time>2017-06-07T17:13:25Z</time>
      </trkpt>
      <trkpt lat="44.12094" lon="6.97476">
        <ele>1812</ele>
        <time>2017-06-07T17:13:25Z</time>
      </trkpt>
      <trkpt lat="44.12094" lon="6.97471">
        <ele>1812</ele>
        <time>2017-06-07T17:13:25Z</time>
      </trkpt>
      <trkpt lat="44.12094" lon="6.97466">
        <ele>1812</ele>
        <time>2017-06-07T17:13:41Z</time>
      </trkpt>
      <trkpt lat="44.12094" lon="6.9746">
        <ele>1812</ele>
        <time>2017-06-07T17:13:41Z</time>
      </trkpt>
      <trkpt lat="44.12091" lon="6.97451">
        <ele>1820</ele>
        <time>2017-06-07T17:13:41Z</time>
      </trkpt>
      <trkpt lat="44.12087" lon="6.97447">
        <ele>1820</ele>
        <time>2017-06-07T17:13:42Z</time>
      </trkpt>
      <trkpt lat="44.12084" lon="6.97442">
        <ele>1820</ele>
        <time>2017-06-07T17:13:58Z</time>
      </trkpt>
      <trkpt lat="44.1208" lon="6.97438">
        <ele>1820</ele>
        <time>2017-06-07T17:13:58Z</time>
      </trkpt>
      <trkpt lat="44.12077" lon="6.97437">
        <ele>1820</ele>
        <time>2017-06-07T17:13:58Z</time>
      </trkpt>
      <trkpt lat="44.12073" lon="6.97436">
        <ele>1820</ele>
        <time>2017-06-07T17:13:58Z</time>
      </trkpt>
      <trkpt lat="44.12072" lon="6.97435">
        <ele>1820</ele>
        <time>2017-06-07T17:14:14Z</time>
      </trkpt>
      <trkpt lat="44.12063" lon="6.97433">
        <ele>1813</ele>
        <time>2017-06-07T17:14:14Z</time>
      </trkpt>
      <trkpt lat="44.12059" lon="6.97431">
        <ele>1813</ele>
        <time>2017-06-07T17:14:14Z</time>
      </trkpt>
      <trkpt lat="44.12055" lon="6.97429">
        <ele>1823</ele>
        <time>2017-06-07T17:14:14Z</time>
      </trkpt>
      <trkpt lat="44.12054" lon="6.97429">
        <ele>1823</ele>
        <time>2017-06-07T17:14:30Z</time>
      </trkpt>
      <trkpt lat="44.12048" lon="6.97428">
        <ele>1823</ele>
        <time>2017-06-07T17:14:30Z</time>
      </trkpt>
      <trkpt lat="44.12044" lon="6.97425">
        <ele>1823</ele>
        <time>2017-06-07T17:14:30Z</time>
      </trkpt>
      <trkpt lat="44.12041" lon="6.97424">
        <ele>1820</ele>
        <time>2017-06-07T17:14:30Z</time>
      </trkpt>
      <trkpt lat="44.1204" lon="6.97424">
        <ele>1820</ele>
        <time>2017-06-07T17:14:46Z</time>
      </trkpt>
      <trkpt lat="44.12034" lon="6.97422">
        <ele>1820</ele>
        <time>2017-06-07T17:14:46Z</time>
      </trkpt>
      <trkpt lat="44.12031" lon="6.97422">
        <ele>1820</ele>
        <time>2017-06-07T17:14:46Z</time>
      </trkpt>
      <trkpt lat="44.12028" lon="6.97421">
        <ele>1820</ele>
        <time>2017-06-07T17:14:46Z</time>
      </trkpt>
      <trkpt lat="44.12027" lon="6.9742">
        <ele>1820</ele>
        <time>2017-06-07T17:15:01Z</time>
      </trkpt>
      <trkpt lat="44.1202" lon="6.97417">
        <ele>1820</ele>
        <time>2017-06-07T17:15:01Z</time>
      </trkpt>
      <trkpt lat="44.12016" lon="6.97415">
        <ele>1820</ele>
        <time>2017-06-07T17:15:01Z</time>
      </trkpt>
      <trkpt lat="44.12014" lon="6.97412">
        <ele>1820</ele>
        <time>2017-06-07T17:15:01Z</time>
      </trkpt>
      <trkpt lat="44.12011" lon="6.97407">
        <ele>1817</ele>
        <time>2017-06-07T17:15:16Z</time>
      </trkpt>
      <trkpt lat="44.12008" lon="6.97407">
        <ele>1817</ele>
        <time>2017-06-07T17:15:17Z</time>
      </trkpt>
      <trkpt lat="44.12004" lon="6.97402">
        <ele>1825</ele>
        <time>2017-06-07T17:15:17Z</time>
      </trkpt>
      <trkpt lat="44.12" lon="6.97397">
        <ele>1825</ele>
        <time>2017-06-07T17:15:17Z</time>
      </trkpt>
      <trkpt lat="44.11997" lon="6.97393">
        <ele>1825</ele>
        <time>2017-06-07T17:15:33Z</time>
      </trkpt>
      <trkpt lat="44.11995" lon="6.9739">
        <ele>1825</ele>
        <time>2017-06-07T17:15:33Z</time>
      </trkpt>
      <trkpt lat="44.11994" lon="6.97387">
        <ele>1825</ele>
        <time>2017-06-07T17:15:34Z</time>
      </trkpt>
      <trkpt lat="44.11989" lon="6.97382">
        <ele>1825</ele>
        <time>2017-06-07T17:15:34Z</time>
      </trkpt>
      <trkpt lat="44.11988" lon="6.9738">
        <ele>1825</ele>
        <time>2017-06-07T17:15:50Z</time>
      </trkpt>
      <trkpt lat="44.11981" lon="6.97371">
        <ele>1826</ele>
        <time>2017-06-07T17:15:50Z</time>
      </trkpt>
      <trkpt lat="44.1198" lon="6.97369">
        <ele>1826</ele>
        <time>2017-06-07T17:15:50Z</time>
      </trkpt>
      <trkpt lat="44.11978" lon="6.97365">
        <ele>1826</ele>
        <time>2017-06-07T17:15:50Z</time>
      </trkpt>
      <trkpt lat="44.11977" lon="6.97364">
        <ele>1826</ele>
        <time>2017-06-07T17:16:05Z</time>
      </trkpt>
      <trkpt lat="44.11972" lon="6.97355">
        <ele>1826</ele>
        <time>2017-06-07T17:16:05Z</time>
      </trkpt>
      <trkpt lat="44.11972" lon="6.97353">
        <ele>1826</ele>
        <time>2017-06-07T17:16:05Z</time>
      </trkpt>
      <trkpt lat="44.11971" lon="6.97349">
        <ele>1826</ele>
        <time>2017-06-07T17:16:05Z</time>
      </trkpt>
      <trkpt lat="44.11968" lon="6.97342">
        <ele>1829</ele>
        <time>2017-06-07T17:16:22Z</time>
      </trkpt>
      <trkpt lat="44.11967" lon="6.97335">
        <ele>1829</ele>
        <time>2017-06-07T17:16:22Z</time>
      </trkpt>
      <trkpt lat="44.11965" lon="6.9733">
        <ele>1829</ele>
        <time>2017-06-07T17:16:22Z</time>
      </trkpt>
      <trkpt lat="44.11966" lon="6.97326">
        <ele>1829</ele>
        <time>2017-06-07T17:16:22Z</time>
      </trkpt>
      <trkpt lat="44.11966" lon="6.97324">
        <ele>1829</ele>
        <time>2017-06-07T17:16:38Z</time>
      </trkpt>
      <trkpt lat="44.11965" lon="6.97313">
        <ele>1831</ele>
        <time>2017-06-07T17:16:38Z</time>
      </trkpt>
      <trkpt lat="44.11964" lon="6.97306">
        <ele>1831</ele>
        <time>2017-06-07T17:16:39Z</time>
      </trkpt>
      <trkpt lat="44.11961" lon="6.97301">
        <ele>1831</ele>
        <time>2017-06-07T17:16:39Z</time>
      </trkpt>
      <trkpt lat="44.11964" lon="6.97289">
        <ele>1833</ele>
        <time>2017-06-07T17:23:05Z</time>
      </trkpt>
      <trkpt lat="44.11963" lon="6.97288">
        <ele>1833</ele>
        <time>2017-06-07T17:23:05Z</time>
      </trkpt>
      <trkpt lat="44.11965" lon="6.97289">
        <ele>1833</ele>
        <time>2017-06-07T17:23:05Z</time>
      </trkpt>
      <trkpt lat="44.11966" lon="6.97285">
        <ele>1833</ele>
        <time>2017-06-07T17:23:05Z</time>
      </trkpt>
      <trkpt lat="44.11968" lon="6.97279">
        <ele>1833</ele>
        <time>2017-06-07T17:23:05Z</time>
      </trkpt>
      <trkpt lat="44.11969" lon="6.97273">
        <ele>1833</ele>
        <time>2017-06-07T17:23:24Z</time>
      </trkpt>
      <trkpt lat="44.11971" lon="6.97271">
        <ele>1833</ele>
        <time>2017-06-07T17:23:25Z</time>
      </trkpt>
      <trkpt lat="44.11972" lon="6.97269">
        <ele>1833</ele>
        <time>2017-06-07T17:23:25Z</time>
      </trkpt>
      <trkpt lat="44.11969" lon="6.97261">
        <ele>1835</ele>
        <time>2017-06-07T17:23:25Z</time>
      </trkpt>
      <trkpt lat="44.11972" lon="6.97258">
        <ele>1835</ele>
        <time>2017-06-07T17:23:25Z</time>
      </trkpt>
      <trkpt lat="44.11973" lon="6.97254">
        <ele>1835</ele>
        <time>2017-06-07T17:23:41Z</time>
      </trkpt>
      <trkpt lat="44.11973" lon="6.97246">
        <ele>1835</ele>
        <time>2017-06-07T17:23:41Z</time>
      </trkpt>
      <trkpt lat="44.11974" lon="6.97242">
        <ele>1835</ele>
        <time>2017-06-07T17:23:42Z</time>
      </trkpt>
      <trkpt lat="44.11977" lon="6.9724">
        <ele>1835</ele>
        <time>2017-06-07T17:23:42Z</time>
      </trkpt>
      <trkpt lat="44.11977" lon="6.97238">
        <ele>1835</ele>
        <time>2017-06-07T17:23:58Z</time>
      </trkpt>
      <trkpt lat="44.11981" lon="6.9723">
        <ele>1837</ele>
        <time>2017-06-07T17:23:58Z</time>
      </trkpt>
      <trkpt lat="44.11982" lon="6.97223">
        <ele>1837</ele>
        <time>2017-06-07T17:23:58Z</time>
      </trkpt>
      <trkpt lat="44.11982" lon="6.97219">
        <ele>1837</ele>
        <time>2017-06-07T17:23:58Z</time>
      </trkpt>
      <trkpt lat="44.11982" lon="6.97218">
        <ele>1837</ele>
        <time>2017-06-07T17:24:14Z</time>
      </trkpt>
      <trkpt lat="44.11987" lon="6.97211">
        <ele>1844</ele>
        <time>2017-06-07T17:24:14Z</time>
      </trkpt>
      <trkpt lat="44.11989" lon="6.97208">
        <ele>1844</ele>
        <time>2017-06-07T17:24:14Z</time>
      </trkpt>
      <trkpt lat="44.11991" lon="6.97201">
        <ele>1844</ele>
        <time>2017-06-07T17:24:14Z</time>
      </trkpt>
      <trkpt lat="44.11992" lon="6.972">
        <ele>1844</ele>
        <time>2017-06-07T17:24:30Z</time>
      </trkpt>
      <trkpt lat="44.11995" lon="6.97195">
        <ele>1844</ele>
        <time>2017-06-07T17:24:30Z</time>
      </trkpt>
      <trkpt lat="44.11999" lon="6.97191">
        <ele>1844</ele>
        <time>2017-06-07T17:24:30Z</time>
      </trkpt>
      <trkpt lat="44.12002" lon="6.9719">
        <ele>1844</ele>
        <time>2017-06-07T17:24:30Z</time>
      </trkpt>
      <trkpt lat="44.12003" lon="6.97189">
        <ele>1844</ele>
        <time>2017-06-07T17:24:45Z</time>
      </trkpt>
      <trkpt lat="44.12007" lon="6.97184">
        <ele>1844</ele>
        <time>2017-06-07T17:24:45Z</time>
      </trkpt>
      <trkpt lat="44.12009" lon="6.97178">
        <ele>1844</ele>
        <time>2017-06-07T17:24:46Z</time>
      </trkpt>
      <trkpt lat="44.12009" lon="6.97173">
        <ele>1844</ele>
        <time>2017-06-07T17:24:46Z</time>
      </trkpt>
      <trkpt lat="44.12011" lon="6.9717">
        <ele>1844</ele>
        <time>2017-06-07T17:25:02Z</time>
      </trkpt>
      <trkpt lat="44.12009" lon="6.97159">
        <ele>1844</ele>
        <time>2017-06-07T17:25:02Z</time>
      </trkpt>
      <trkpt lat="44.1201" lon="6.97154">
        <ele>1844</ele>
        <time>2017-06-07T17:25:02Z</time>
      </trkpt>
      <trkpt lat="44.12009" lon="6.9715">
        <ele>1842</ele>
        <time>2017-06-07T17:25:02Z</time>
      </trkpt>
      <trkpt lat="44.1201" lon="6.97148">
        <ele>1842</ele>
        <time>2017-06-07T17:25:18Z</time>
      </trkpt>
      <trkpt lat="44.12009" lon="6.97137">
        <ele>1842</ele>
        <time>2017-06-07T17:25:18Z</time>
      </trkpt>
      <trkpt lat="44.12009" lon="6.97134">
        <ele>1842</ele>
        <time>2017-06-07T17:25:18Z</time>
      </trkpt>
      <trkpt lat="44.12008" lon="6.97127">
        <ele>1842</ele>
        <time>2017-06-07T17:25:18Z</time>
      </trkpt>
      <trkpt lat="44.12008" lon="6.97125">
        <ele>1842</ele>
        <time>2017-06-07T17:25:34Z</time>
      </trkpt>
      <trkpt lat="44.12008" lon="6.97118">
        <ele>1842</ele>
        <time>2017-06-07T17:25:34Z</time>
      </trkpt>
      <trkpt lat="44.12009" lon="6.97113">
        <ele>1842</ele>
        <time>2017-06-07T17:25:34Z</time>
      </trkpt>
      <trkpt lat="44.12007" lon="6.97107">
        <ele>1842</ele>
        <time>2017-06-07T17:25:34Z</time>
      </trkpt>
      <trkpt lat="44.12007" lon="6.97106">
        <ele>1842</ele>
        <time>2017-06-07T17:25:48Z</time>
      </trkpt>
      <trkpt lat="44.12005" lon="6.97094">
        <ele>1843</ele>
        <time>2017-06-07T17:25:48Z</time>
      </trkpt>
      <trkpt lat="44.12003" lon="6.9709">
        <ele>1843</ele>
        <time>2017-06-07T17:25:48Z</time>
      </trkpt>
      <trkpt lat="44.12004" lon="6.97084">
        <ele>1843</ele>
        <time>2017-06-07T17:25:49Z</time>
      </trkpt>
      <trkpt lat="44.12004" lon="6.97078">
        <ele>1843</ele>
        <time>2017-06-07T17:26:06Z</time>
      </trkpt>
      <trkpt lat="44.12002" lon="6.97069">
        <ele>1845</ele>
        <time>2017-06-07T17:26:06Z</time>
      </trkpt>
      <trkpt lat="44.12001" lon="6.97063">
        <ele>1845</ele>
        <time>2017-06-07T17:26:06Z</time>
      </trkpt>
      <trkpt lat="44.12" lon="6.97056">
        <ele>1845</ele>
        <time>2017-06-07T17:26:06Z</time>
      </trkpt>
      <trkpt lat="44.12" lon="6.97054">
        <ele>1845</ele>
        <time>2017-06-07T17:26:22Z</time>
      </trkpt>
      <trkpt lat="44.11998" lon="6.97041">
        <ele>1843</ele>
        <time>2017-06-07T17:26:22Z</time>
      </trkpt>
      <trkpt lat="44.11998" lon="6.9704">
        <ele>1843</ele>
        <time>2017-06-07T17:26:22Z</time>
      </trkpt>
      <trkpt lat="44.11997" lon="6.97034">
        <ele>1843</ele>
        <time>2017-06-07T17:26:22Z</time>
      </trkpt>
      <trkpt lat="44.11997" lon="6.97032">
        <ele>1843</ele>
        <time>2017-06-07T17:26:37Z</time>
      </trkpt>
      <trkpt lat="44.11998" lon="6.97017">
        <ele>1843</ele>
        <time>2017-06-07T17:26:38Z</time>
      </trkpt>
      <trkpt lat="44.11998" lon="6.97014">
        <ele>1843</ele>
        <time>2017-06-07T17:26:39Z</time>
      </trkpt>
      <trkpt lat="44.11998" lon="6.97009">
        <ele>1840</ele>
        <time>2017-06-07T17:26:39Z</time>
      </trkpt>
      <trkpt lat="44.12003" lon="6.97">
        <ele>1840</ele>
        <time>2017-06-07T17:27:14Z</time>
      </trkpt>
      <trkpt lat="44.12006" lon="6.97">
        <ele>1840</ele>
        <time>2017-06-07T17:27:14Z</time>
      </trkpt>
      <trkpt lat="44.1201" lon="6.96996">
        <ele>1840</ele>
        <time>2017-06-07T17:27:14Z</time>
      </trkpt>
      <trkpt lat="44.12014" lon="6.9699">
        <ele>1840</ele>
        <time>2017-06-07T17:27:14Z</time>
      </trkpt>
      <trkpt lat="44.12016" lon="6.96987">
        <ele>1845</ele>
        <time>2017-06-07T17:27:14Z</time>
      </trkpt>
      <trkpt lat="44.12016" lon="6.96986">
        <ele>1841</ele>
        <time>2017-06-07T17:27:30Z</time>
      </trkpt>
      <trkpt lat="44.12023" lon="6.96977">
        <ele>1841</ele>
        <time>2017-06-07T17:27:30Z</time>
      </trkpt>
      <trkpt lat="44.12024" lon="6.96974">
        <ele>1841</ele>
        <time>2017-06-07T17:27:30Z</time>
      </trkpt>
      <trkpt lat="44.12028" lon="6.96966">
        <ele>1841</ele>
        <time>2017-06-07T17:27:30Z</time>
      </trkpt>
      <trkpt lat="44.12028" lon="6.96965">
        <ele>1841</ele>
        <time>2017-06-07T17:27:45Z</time>
      </trkpt>
      <trkpt lat="44.12031" lon="6.96957">
        <ele>1841</ele>
        <time>2017-06-07T17:27:46Z</time>
      </trkpt>
      <trkpt lat="44.12032" lon="6.96952">
        <ele>1841</ele>
        <time>2017-06-07T17:27:46Z</time>
      </trkpt>
      <trkpt lat="44.12032" lon="6.96946">
        <ele>1841</ele>
        <time>2017-06-07T17:27:47Z</time>
      </trkpt>
      <trkpt lat="44.12032" lon="6.96942">
        <ele>1841</ele>
        <time>2017-06-07T17:28:01Z</time>
      </trkpt>
      <trkpt lat="44.12036" lon="6.96934">
        <ele>1841</ele>
        <time>2017-06-07T17:28:01Z</time>
      </trkpt>
      <trkpt lat="44.12039" lon="6.96929">
        <ele>1839</ele>
        <time>2017-06-07T17:28:01Z</time>
      </trkpt>
      <trkpt lat="44.12039" lon="6.96926">
        <ele>1839</ele>
        <time>2017-06-07T17:28:01Z</time>
      </trkpt>
      <trkpt lat="44.12042" lon="6.96922">
        <ele>1839</ele>
        <time>2017-06-07T17:28:18Z</time>
      </trkpt>
      <trkpt lat="44.12044" lon="6.96918">
        <ele>1837</ele>
        <time>2017-06-07T17:28:18Z</time>
      </trkpt>
      <trkpt lat="44.12045" lon="6.96916">
        <ele>1837</ele>
        <time>2017-06-07T17:28:18Z</time>
      </trkpt>
      <trkpt lat="44.12049" lon="6.9691">
        <ele>1837</ele>
        <time>2017-06-07T17:28:18Z</time>
      </trkpt>
      <trkpt lat="44.12048" lon="6.96909">
        <ele>1837</ele>
        <time>2017-06-07T17:28:34Z</time>
      </trkpt>
      <trkpt lat="44.12057" lon="6.96906">
        <ele>1837</ele>
        <time>2017-06-07T17:28:34Z</time>
      </trkpt>
      <trkpt lat="44.12062" lon="6.96906">
        <ele>1837</ele>
        <time>2017-06-07T17:28:34Z</time>
      </trkpt>
      <trkpt lat="44.12066" lon="6.96903">
        <ele>1837</ele>
        <time>2017-06-07T17:28:34Z</time>
      </trkpt>
      <trkpt lat="44.12066" lon="6.96903">
        <ele>1837</ele>
        <time>2017-06-07T17:28:50Z</time>
      </trkpt>
      <trkpt lat="44.12073" lon="6.96893">
        <ele>1836</ele>
        <time>2017-06-07T17:28:50Z</time>
      </trkpt>
      <trkpt lat="44.12075" lon="6.96887">
        <ele>1836</ele>
        <time>2017-06-07T17:28:51Z</time>
      </trkpt>
      <trkpt lat="44.12077" lon="6.96881">
        <ele>1836</ele>
        <time>2017-06-07T17:28:51Z</time>
      </trkpt>
      <trkpt lat="44.12079" lon="6.9688">
        <ele>1836</ele>
        <time>2017-06-07T17:29:05Z</time>
      </trkpt>
      <trkpt lat="44.12083" lon="6.96871">
        <ele>1831</ele>
        <time>2017-06-07T17:29:05Z</time>
      </trkpt>
      <trkpt lat="44.12087" lon="6.96863">
        <ele>1831</ele>
        <time>2017-06-07T17:29:05Z</time>
      </trkpt>
      <trkpt lat="44.1209" lon="6.96856">
        <ele>1831</ele>
        <time>2017-06-07T17:29:05Z</time>
      </trkpt>
      <trkpt lat="44.12091" lon="6.96849">
        <ele>1831</ele>
        <time>2017-06-07T17:29:21Z</time>
      </trkpt>
      <trkpt lat="44.12093" lon="6.96839">
        <ele>1827</ele>
        <time>2017-06-07T17:29:22Z</time>
      </trkpt>
      <trkpt lat="44.12096" lon="6.96835">
        <ele>1827</ele>
        <time>2017-06-07T17:29:22Z</time>
      </trkpt>
      <trkpt lat="44.12098" lon="6.96834">
        <ele>1828</ele>
        <time>2017-06-07T17:29:22Z</time>
      </trkpt>
      <trkpt lat="44.12099" lon="6.9683">
        <ele>1828</ele>
        <time>2017-06-07T17:29:38Z</time>
      </trkpt>
      <trkpt lat="44.12102" lon="6.96824">
        <ele>1828</ele>
        <time>2017-06-07T17:29:38Z</time>
      </trkpt>
      <trkpt lat="44.12104" lon="6.96821">
        <ele>1828</ele>
        <time>2017-06-07T17:29:38Z</time>
      </trkpt>
      <trkpt lat="44.12106" lon="6.96815">
        <ele>1827</ele>
        <time>2017-06-07T17:29:38Z</time>
      </trkpt>
      <trkpt lat="44.12107" lon="6.96813">
        <ele>1827</ele>
        <time>2017-06-07T17:29:54Z</time>
      </trkpt>
      <trkpt lat="44.12111" lon="6.96803">
        <ele>1827</ele>
        <time>2017-06-07T17:29:54Z</time>
      </trkpt>
      <trkpt lat="44.12114" lon="6.968">
        <ele>1827</ele>
        <time>2017-06-07T17:29:54Z</time>
      </trkpt>
      <trkpt lat="44.12118" lon="6.96794">
        <ele>1827</ele>
        <time>2017-06-07T17:29:54Z</time>
      </trkpt>
      <trkpt lat="44.12118" lon="6.96791">
        <ele>1826</ele>
        <time>2017-06-07T17:30:10Z</time>
      </trkpt>
      <trkpt lat="44.12123" lon="6.96783">
        <ele>1826</ele>
        <time>2017-06-07T17:30:10Z</time>
      </trkpt>
      <trkpt lat="44.12126" lon="6.96777">
        <ele>1829</ele>
        <time>2017-06-07T17:30:10Z</time>
      </trkpt>
      <trkpt lat="44.12127" lon="6.96769">
        <ele>1829</ele>
        <time>2017-06-07T17:30:10Z</time>
      </trkpt>
      <trkpt lat="44.12128" lon="6.96766">
        <ele>1829</ele>
        <time>2017-06-07T17:30:26Z</time>
      </trkpt>
      <trkpt lat="44.12132" lon="6.96756">
        <ele>1827</ele>
        <time>2017-06-07T17:30:26Z</time>
      </trkpt>
      <trkpt lat="44.12131" lon="6.96746">
        <ele>1827</ele>
        <time>2017-06-07T17:30:27Z</time>
      </trkpt>
      <trkpt lat="44.12129" lon="6.96735">
        <ele>1825</ele>
        <time>2017-06-07T17:30:27Z</time>
      </trkpt>
      <trkpt lat="44.1213" lon="6.96731">
        <ele>1825</ele>
        <time>2017-06-07T17:30:42Z</time>
      </trkpt>
      <trkpt lat="44.12134" lon="6.96729">
        <ele>1825</ele>
        <time>2017-06-07T17:30:42Z</time>
      </trkpt>
      <trkpt lat="44.12132" lon="6.96719">
        <ele>1825</ele>
        <time>2017-06-07T17:30:42Z</time>
      </trkpt>
      <trkpt lat="44.12132" lon="6.9671">
        <ele>1825</ele>
        <time>2017-06-07T17:30:42Z</time>
      </trkpt>
      <trkpt lat="44.12132" lon="6.96708">
        <ele>1822</ele>
        <time>2017-06-07T17:30:58Z</time>
      </trkpt>
      <trkpt lat="44.12132" lon="6.96696">
        <ele>1822</ele>
        <time>2017-06-07T17:30:58Z</time>
      </trkpt>
      <trkpt lat="44.12133" lon="6.96692">
        <ele>1822</ele>
        <time>2017-06-07T17:30:59Z</time>
      </trkpt>
      <trkpt lat="44.12133" lon="6.96688">
        <ele>1822</ele>
        <time>2017-06-07T17:30:59Z</time>
      </trkpt>
      <trkpt lat="44.12134" lon="6.96684">
        <ele>1822</ele>
        <time>2017-06-07T17:31:14Z</time>
      </trkpt>
      <trkpt lat="44.12137" lon="6.96677">
        <ele>1821</ele>
        <time>2017-06-07T17:31:14Z</time>
      </trkpt>
      <trkpt lat="44.12138" lon="6.96666">
        <ele>1821</ele>
        <time>2017-06-07T17:31:14Z</time>
      </trkpt>
      <trkpt lat="44.12138" lon="6.96662">
        <ele>1821</ele>
        <time>2017-06-07T17:31:14Z</time>
      </trkpt>
      <trkpt lat="44.12138" lon="6.96662">
        <ele>1821</ele>
        <time>2017-06-07T17:31:30Z</time>
      </trkpt>
      <trkpt lat="44.12137" lon="6.96646">
        <ele>1819</ele>
        <time>2017-06-07T17:31:30Z</time>
      </trkpt>
      <trkpt lat="44.12137" lon="6.96638">
        <ele>1819</ele>
        <time>2017-06-07T17:31:30Z</time>
      </trkpt>
      <trkpt lat="44.12139" lon="6.9663">
        <ele>1819</ele>
        <time>2017-06-07T17:31:31Z</time>
      </trkpt>
      <trkpt lat="44.12139" lon="6.96629">
        <ele>1819</ele>
        <time>2017-06-07T17:31:46Z</time>
      </trkpt>
      <trkpt lat="44.12141" lon="6.96616">
        <ele>1816</ele>
        <time>2017-06-07T17:31:46Z</time>
      </trkpt>
      <trkpt lat="44.1214" lon="6.96608">
        <ele>1816</ele>
        <time>2017-06-07T17:31:46Z</time>
      </trkpt>
      <trkpt lat="44.1214" lon="6.96602">
        <ele>1816</ele>
        <time>2017-06-07T17:31:46Z</time>
      </trkpt>
      <trkpt lat="44.12139" lon="6.966">
        <ele>1816</ele>
        <time>2017-06-07T17:32:01Z</time>
      </trkpt>
      <trkpt lat="44.12141" lon="6.96587">
        <ele>1814</ele>
        <time>2017-06-07T17:32:01Z</time>
      </trkpt>
      <trkpt lat="44.12144" lon="6.96582">
        <ele>1814</ele>
        <time>2017-06-07T17:32:01Z</time>
      </trkpt>
      <trkpt lat="44.12145" lon="6.96575">
        <ele>1814</ele>
        <time>2017-06-07T17:32:01Z</time>
      </trkpt>
      <trkpt lat="44.12147" lon="6.96568">
        <ele>1815</ele>
        <time>2017-06-07T17:32:17Z</time>
      </trkpt>
      <trkpt lat="44.12146" lon="6.96562">
        <ele>1815</ele>
        <time>2017-06-07T17:32:17Z</time>
      </trkpt>
      <trkpt lat="44.12144" lon="6.96553">
        <ele>1815</ele>
        <time>2017-06-07T17:32:17Z</time>
      </trkpt>
      <trkpt lat="44.12142" lon="6.96548">
        <ele>1815</ele>
        <time>2017-06-07T17:32:17Z</time>
      </trkpt>
      <trkpt lat="44.12138" lon="6.96541">
        <ele>1819</ele>
        <time>2017-06-07T17:32:33Z</time>
      </trkpt>
      <trkpt lat="44.12134" lon="6.96539">
        <ele>1819</ele>
        <time>2017-06-07T17:32:33Z</time>
      </trkpt>
      <trkpt lat="44.12132" lon="6.96535">
        <ele>1819</ele>
        <time>2017-06-07T17:32:33Z</time>
      </trkpt>
      <trkpt lat="44.12127" lon="6.96531">
        <ele>1819</ele>
        <time>2017-06-07T17:32:33Z</time>
      </trkpt>
      <trkpt lat="44.12124" lon="6.96528">
        <ele>1813</ele>
        <time>2017-06-07T17:32:50Z</time>
      </trkpt>
      <trkpt lat="44.1212" lon="6.96524">
        <ele>1813</ele>
        <time>2017-06-07T17:32:50Z</time>
      </trkpt>
      <trkpt lat="44.12117" lon="6.96522">
        <ele>1813</ele>
        <time>2017-06-07T17:32:50Z</time>
      </trkpt>
      <trkpt lat="44.12112" lon="6.96516">
        <ele>1813</ele>
        <time>2017-06-07T17:32:50Z</time>
      </trkpt>
      <trkpt lat="44.12111" lon="6.96516">
        <ele>1813</ele>
        <time>2017-06-07T17:33:06Z</time>
      </trkpt>
      <trkpt lat="44.12103" lon="6.96507">
        <ele>1818</ele>
        <time>2017-06-07T17:33:06Z</time>
      </trkpt>
      <trkpt lat="44.12099" lon="6.96502">
        <ele>1818</ele>
        <time>2017-06-07T17:33:06Z</time>
      </trkpt>
      <trkpt lat="44.12096" lon="6.96496">
        <ele>1812</ele>
        <time>2017-06-07T17:33:06Z</time>
      </trkpt>
      <trkpt lat="44.12095" lon="6.96494">
        <ele>1812</ele>
        <time>2017-06-07T17:33:21Z</time>
      </trkpt>
      <trkpt lat="44.12091" lon="6.96485">
        <ele>1813</ele>
        <time>2017-06-07T17:33:21Z</time>
      </trkpt>
      <trkpt lat="44.12088" lon="6.96482">
        <ele>1813</ele>
        <time>2017-06-07T17:33:22Z</time>
      </trkpt>
      <trkpt lat="44.12086" lon="6.96476">
        <ele>1813</ele>
        <time>2017-06-07T17:33:22Z</time>
      </trkpt>
      <trkpt lat="44.12083" lon="6.96473">
        <ele>1813</ele>
        <time>2017-06-07T17:33:38Z</time>
      </trkpt>
      <trkpt lat="44.12079" lon="6.96465">
        <ele>1813</ele>
        <time>2017-06-07T17:33:38Z</time>
      </trkpt>
      <trkpt lat="44.12077" lon="6.9646">
        <ele>1813</ele>
        <time>2017-06-07T17:33:38Z</time>
      </trkpt>
      <trkpt lat="44.12074" lon="6.96454">
        <ele>1811</ele>
        <time>2017-06-07T17:33:38Z</time>
      </trkpt>
      <trkpt lat="44.12074" lon="6.96453">
        <ele>1811</ele>
        <time>2017-06-07T17:33:53Z</time>
      </trkpt>
      <trkpt lat="44.12072" lon="6.96442">
        <ele>1811</ele>
        <time>2017-06-07T17:33:53Z</time>
      </trkpt>
      <trkpt lat="44.12071" lon="6.96436">
        <ele>1811</ele>
        <time>2017-06-07T17:33:53Z</time>
      </trkpt>
      <trkpt lat="44.12068" lon="6.9643">
        <ele>1804</ele>
        <time>2017-06-07T17:33:53Z</time>
      </trkpt>
      <trkpt lat="44.12067" lon="6.96424">
        <ele>1804</ele>
        <time>2017-06-07T17:34:10Z</time>
      </trkpt>
      <trkpt lat="44.12063" lon="6.96417">
        <ele>1804</ele>
        <time>2017-06-07T17:34:10Z</time>
      </trkpt>
      <trkpt lat="44.12061" lon="6.96411">
        <ele>1804</ele>
        <time>2017-06-07T17:34:10Z</time>
      </trkpt>
      <trkpt lat="44.12059" lon="6.96406">
        <ele>1804</ele>
        <time>2017-06-07T17:34:11Z</time>
      </trkpt>
      <trkpt lat="44.12057" lon="6.96401">
        <ele>1805</ele>
        <time>2017-06-07T17:34:26Z</time>
      </trkpt>
      <trkpt lat="44.12052" lon="6.96393">
        <ele>1805</ele>
        <time>2017-06-07T17:34:26Z</time>
      </trkpt>
      <trkpt lat="44.12051" lon="6.96388">
        <ele>1805</ele>
        <time>2017-06-07T17:34:26Z</time>
      </trkpt>
      <trkpt lat="44.12047" lon="6.96381">
        <ele>1805</ele>
        <time>2017-06-07T17:34:26Z</time>
      </trkpt>
      <trkpt lat="44.12046" lon="6.96378">
        <ele>1805</ele>
        <time>2017-06-07T17:34:42Z</time>
      </trkpt>
      <trkpt lat="44.12041" lon="6.96366">
        <ele>1797</ele>
        <time>2017-06-07T17:34:42Z</time>
      </trkpt>
      <trkpt lat="44.12041" lon="6.96362">
        <ele>1797</ele>
        <time>2017-06-07T17:34:42Z</time>
      </trkpt>
      <trkpt lat="44.12038" lon="6.96354">
        <ele>1797</ele>
        <time>2017-06-07T17:34:42Z</time>
      </trkpt>
      <trkpt lat="44.12038" lon="6.96352">
        <ele>1797</ele>
        <time>2017-06-07T17:34:58Z</time>
      </trkpt>
      <trkpt lat="44.12035" lon="6.9634">
        <ele>1798</ele>
        <time>2017-06-07T17:34:58Z</time>
      </trkpt>
      <trkpt lat="44.12035" lon="6.96336">
        <ele>1798</ele>
        <time>2017-06-07T17:34:59Z</time>
      </trkpt>
      <trkpt lat="44.12035" lon="6.9633">
        <ele>1798</ele>
        <time>2017-06-07T17:34:59Z</time>
      </trkpt>
      <trkpt lat="44.12034" lon="6.96326">
        <ele>1798</ele>
        <time>2017-06-07T17:35:13Z</time>
      </trkpt>
      <trkpt lat="44.12035" lon="6.96319">
        <ele>1798</ele>
        <time>2017-06-07T17:35:13Z</time>
      </trkpt>
      <trkpt lat="44.12035" lon="6.96308">
        <ele>1798</ele>
        <time>2017-06-07T17:35:13Z</time>
      </trkpt>
      <trkpt lat="44.12034" lon="6.963">
        <ele>1798</ele>
        <time>2017-06-07T17:35:13Z</time>
      </trkpt>
      <trkpt lat="44.12035" lon="6.96293">
        <ele>1798</ele>
        <time>2017-06-07T17:35:29Z</time>
      </trkpt>
      <trkpt lat="44.12036" lon="6.96287">
        <ele>1799</ele>
        <time>2017-06-07T17:35:30Z</time>
      </trkpt>
      <trkpt lat="44.12037" lon="6.96283">
        <ele>1799</ele>
        <time>2017-06-07T17:35:30Z</time>
      </trkpt>
      <trkpt lat="44.12033" lon="6.96269">
        <ele>1799</ele>
        <time>2017-06-07T17:35:30Z</time>
      </trkpt>
      <trkpt lat="44.12033" lon="6.96268">
        <ele>1799</ele>
        <time>2017-06-07T17:35:46Z</time>
      </trkpt>
      <trkpt lat="44.12032" lon="6.96256">
        <ele>1800</ele>
        <time>2017-06-07T17:35:46Z</time>
      </trkpt>
      <trkpt lat="44.12032" lon="6.96254">
        <ele>1800</ele>
        <time>2017-06-07T17:35:46Z</time>
      </trkpt>
      <trkpt lat="44.12031" lon="6.96245">
        <ele>1800</ele>
        <time>2017-06-07T17:35:46Z</time>
      </trkpt>
      <trkpt lat="44.12031" lon="6.96244">
        <ele>1800</ele>
        <time>2017-06-07T17:36:02Z</time>
      </trkpt>
      <trkpt lat="44.12028" lon="6.96233">
        <ele>1801</ele>
        <time>2017-06-07T17:36:02Z</time>
      </trkpt>
      <trkpt lat="44.12027" lon="6.96227">
        <ele>1801</ele>
        <time>2017-06-07T17:36:02Z</time>
      </trkpt>
      <trkpt lat="44.12027" lon="6.9622">
        <ele>1801</ele>
        <time>2017-06-07T17:36:02Z</time>
      </trkpt>
      <trkpt lat="44.12027" lon="6.96218">
        <ele>1801</ele>
        <time>2017-06-07T17:36:18Z</time>
      </trkpt>
      <trkpt lat="44.12026" lon="6.96207">
        <ele>1803</ele>
        <time>2017-06-07T17:36:18Z</time>
      </trkpt>
      <trkpt lat="44.12027" lon="6.96201">
        <ele>1803</ele>
        <time>2017-06-07T17:36:18Z</time>
      </trkpt>
      <trkpt lat="44.12028" lon="6.96194">
        <ele>1803</ele>
        <time>2017-06-07T17:36:18Z</time>
      </trkpt>
      <trkpt lat="44.12027" lon="6.96192">
        <ele>1803</ele>
        <time>2017-06-07T17:36:34Z</time>
      </trkpt>
      <trkpt lat="44.12026" lon="6.96179">
        <ele>1802</ele>
        <time>2017-06-07T17:36:34Z</time>
      </trkpt>
      <trkpt lat="44.12021" lon="6.96167">
        <ele>1802</ele>
        <time>2017-06-07T17:36:34Z</time>
      </trkpt>
      <trkpt lat="44.12022" lon="6.96158">
        <ele>1802</ele>
        <time>2017-06-07T17:36:34Z</time>
      </trkpt>
      <trkpt lat="44.12021" lon="6.96158">
        <ele>1802</ele>
        <time>2017-06-07T17:36:50Z</time>
      </trkpt>
      <trkpt lat="44.12021" lon="6.96147">
        <ele>1800</ele>
        <time>2017-06-07T17:36:50Z</time>
      </trkpt>
      <trkpt lat="44.12022" lon="6.96141">
        <ele>1800</ele>
        <time>2017-06-07T17:36:50Z</time>
      </trkpt>
      <trkpt lat="44.12022" lon="6.96135">
        <ele>1800</ele>
        <time>2017-06-07T17:36:50Z</time>
      </trkpt>
      <trkpt lat="44.12022" lon="6.96134">
        <ele>1800</ele>
        <time>2017-06-07T17:37:05Z</time>
      </trkpt>
      <trkpt lat="44.12021" lon="6.96123">
        <ele>1801</ele>
        <time>2017-06-07T17:37:05Z</time>
      </trkpt>
      <trkpt lat="44.12019" lon="6.96116">
        <ele>1801</ele>
        <time>2017-06-07T17:37:05Z</time>
      </trkpt>
      <trkpt lat="44.12016" lon="6.96111">
        <ele>1801</ele>
        <time>2017-06-07T17:37:05Z</time>
      </trkpt>
      <trkpt lat="44.12013" lon="6.96106">
        <ele>1795</ele>
        <time>2017-06-07T17:37:22Z</time>
      </trkpt>
      <trkpt lat="44.1201" lon="6.96101">
        <ele>1795</ele>
        <time>2017-06-07T17:37:22Z</time>
      </trkpt>
      <trkpt lat="44.12006" lon="6.96095">
        <ele>1797</ele>
        <time>2017-06-07T17:37:22Z</time>
      </trkpt>
      <trkpt lat="44.12003" lon="6.96089">
        <ele>1797</ele>
        <time>2017-06-07T17:37:22Z</time>
      </trkpt>
      <trkpt lat="44.12002" lon="6.96088">
        <ele>1797</ele>
        <time>2017-06-07T17:37:37Z</time>
      </trkpt>
      <trkpt lat="44.11994" lon="6.96083">
        <ele>1797</ele>
        <time>2017-06-07T17:37:37Z</time>
      </trkpt>
      <trkpt lat="44.11991" lon="6.96079">
        <ele>1797</ele>
        <time>2017-06-07T17:37:38Z</time>
      </trkpt>
      <trkpt lat="44.11988" lon="6.96077">
        <ele>1797</ele>
        <time>2017-06-07T17:37:38Z</time>
      </trkpt>
      <trkpt lat="44.11985" lon="6.96076">
        <ele>1793</ele>
        <time>2017-06-07T17:37:54Z</time>
      </trkpt>
      <trkpt lat="44.11982" lon="6.96073">
        <ele>1793</ele>
        <time>2017-06-07T17:37:54Z</time>
      </trkpt>
      <trkpt lat="44.11976" lon="6.96069">
        <ele>1794</ele>
        <time>2017-06-07T17:37:54Z</time>
      </trkpt>
      <trkpt lat="44.11972" lon="6.96064">
        <ele>1794</ele>
        <time>2017-06-07T17:37:54Z</time>
      </trkpt>
      <trkpt lat="44.11971" lon="6.96063">
        <ele>1794</ele>
        <time>2017-06-07T17:38:08Z</time>
      </trkpt>
      <trkpt lat="44.11965" lon="6.96056">
        <ele>1794</ele>
        <time>2017-06-07T17:38:08Z</time>
      </trkpt>
      <trkpt lat="44.11961" lon="6.96051">
        <ele>1794</ele>
        <time>2017-06-07T17:38:08Z</time>
      </trkpt>
      <trkpt lat="44.11958" lon="6.96047">
        <ele>1791</ele>
        <time>2017-06-07T17:38:09Z</time>
      </trkpt>
      <trkpt lat="44.11957" lon="6.9604">
        <ele>1793</ele>
        <time>2017-06-07T17:38:24Z</time>
      </trkpt>
      <trkpt lat="44.11956" lon="6.96036">
        <ele>1793</ele>
        <time>2017-06-07T17:38:25Z</time>
      </trkpt>
      <trkpt lat="44.11953" lon="6.96031">
        <ele>1793</ele>
        <time>2017-06-07T17:38:25Z</time>
      </trkpt>
      <trkpt lat="44.1195" lon="6.96024">
        <ele>1793</ele>
        <time>2017-06-07T17:38:25Z</time>
      </trkpt>
      <trkpt lat="44.11946" lon="6.96019">
        <ele>1793</ele>
        <time>2017-06-07T17:38:41Z</time>
      </trkpt>
      <trkpt lat="44.11942" lon="6.96012">
        <ele>1795</ele>
        <time>2017-06-07T17:38:42Z</time>
      </trkpt>
      <trkpt lat="44.11936" lon="6.96006">
        <ele>1795</ele>
        <time>2017-06-07T17:38:42Z</time>
      </trkpt>
      <trkpt lat="44.11933" lon="6.96003">
        <ele>1795</ele>
        <time>2017-06-07T17:38:42Z</time>
      </trkpt>
      <trkpt lat="44.11926" lon="6.95997">
        <ele>1793</ele>
        <time>2017-06-07T17:40:04Z</time>
      </trkpt>
      <trkpt lat="44.11925" lon="6.95997">
        <ele>1793</ele>
        <time>2017-06-07T17:40:04Z</time>
      </trkpt>
      <trkpt lat="44.11925" lon="6.95997">
        <ele>1793</ele>
        <time>2017-06-07T17:40:04Z</time>
      </trkpt>
      <trkpt lat="44.11924" lon="6.95997">
        <ele>1793</ele>
        <time>2017-06-07T17:40:05Z</time>
      </trkpt>
      <trkpt lat="44.11923" lon="6.95997">
        <ele>1793</ele>
        <time>2017-06-07T17:40:05Z</time>
      </trkpt>
      <trkpt lat="44.11921" lon="6.95995">
        <ele>1793</ele>
        <time>2017-06-07T17:40:26Z</time>
      </trkpt>
      <trkpt lat="44.11916" lon="6.95992">
        <ele>1793</ele>
        <time>2017-06-07T17:40:26Z</time>
      </trkpt>
      <trkpt lat="44.11914" lon="6.95992">
        <ele>1793</ele>
        <time>2017-06-07T17:40:26Z</time>
      </trkpt>
      <trkpt lat="44.11914" lon="6.9599">
        <ele>1793</ele>
        <time>2017-06-07T17:40:26Z</time>
      </trkpt>
      <trkpt lat="44.11911" lon="6.9599">
        <ele>1793</ele>
        <time>2017-06-07T17:40:26Z</time>
      </trkpt>
      <trkpt lat="44.1191" lon="6.95989">
        <ele>1793</ele>
        <time>2017-06-07T17:40:40Z</time>
      </trkpt>
      <trkpt lat="44.11899" lon="6.95983">
        <ele>1794</ele>
        <time>2017-06-07T17:40:41Z</time>
      </trkpt>
      <trkpt lat="44.11898" lon="6.95984">
        <ele>1794</ele>
        <time>2017-06-07T17:40:41Z</time>
      </trkpt>
      <trkpt lat="44.11893" lon="6.95983">
        <ele>1794</ele>
        <time>2017-06-07T17:40:41Z</time>
      </trkpt>
      <trkpt lat="44.11888" lon="6.9598">
        <ele>1794</ele>
        <time>2017-06-07T17:40:58Z</time>
      </trkpt>
      <trkpt lat="44.11884" lon="6.95979">
        <ele>1794</ele>
        <time>2017-06-07T17:40:58Z</time>
      </trkpt>
      <trkpt lat="44.11878" lon="6.95979">
        <ele>1794</ele>
        <time>2017-06-07T17:40:58Z</time>
      </trkpt>
      <trkpt lat="44.11873" lon="6.95977">
        <ele>1790</ele>
        <time>2017-06-07T17:40:58Z</time>
      </trkpt>
      <trkpt lat="44.11873" lon="6.95977">
        <ele>1790</ele>
        <time>2017-06-07T17:41:14Z</time>
      </trkpt>
      <trkpt lat="44.11864" lon="6.9598">
        <ele>1790</ele>
        <time>2017-06-07T17:41:14Z</time>
      </trkpt>
      <trkpt lat="44.11858" lon="6.95979">
        <ele>1790</ele>
        <time>2017-06-07T17:41:14Z</time>
      </trkpt>
      <trkpt lat="44.11853" lon="6.95979">
        <ele>1790</ele>
        <time>2017-06-07T17:41:14Z</time>
      </trkpt>
      <trkpt lat="44.11851" lon="6.9598">
        <ele>1790</ele>
        <time>2017-06-07T17:41:29Z</time>
      </trkpt>
      <trkpt lat="44.11841" lon="6.95978">
        <ele>1785</ele>
        <time>2017-06-07T17:41:30Z</time>
      </trkpt>
      <trkpt lat="44.11836" lon="6.95978">
        <ele>1785</ele>
        <time>2017-06-07T17:41:30Z</time>
      </trkpt>
      <trkpt lat="44.11831" lon="6.95976">
        <ele>1785</ele>
        <time>2017-06-07T17:41:30Z</time>
      </trkpt>
      <trkpt lat="44.1183" lon="6.95977">
        <ele>1785</ele>
        <time>2017-06-07T17:41:45Z</time>
      </trkpt>
      <trkpt lat="44.11824" lon="6.95977">
        <ele>1785</ele>
        <time>2017-06-07T17:41:45Z</time>
      </trkpt>
      <trkpt lat="44.11817" lon="6.95974">
        <ele>1783</ele>
        <time>2017-06-07T17:41:46Z</time>
      </trkpt>
      <trkpt lat="44.11811" lon="6.95973">
        <ele>1783</ele>
        <time>2017-06-07T17:41:46Z</time>
      </trkpt>
      <trkpt lat="44.1181" lon="6.95974">
        <ele>1783</ele>
        <time>2017-06-07T17:42:01Z</time>
      </trkpt>
      <trkpt lat="44.11799" lon="6.95974">
        <ele>1783</ele>
        <time>2017-06-07T17:42:01Z</time>
      </trkpt>
      <trkpt lat="44.11795" lon="6.95973">
        <ele>1783</ele>
        <time>2017-06-07T17:42:01Z</time>
      </trkpt>
      <trkpt lat="44.11791" lon="6.95977">
        <ele>1787</ele>
        <time>2017-06-07T17:42:01Z</time>
      </trkpt>
      <trkpt lat="44.1179" lon="6.95978">
        <ele>1787</ele>
        <time>2017-06-07T17:42:16Z</time>
      </trkpt>
      <trkpt lat="44.11786" lon="6.95983">
        <ele>1787</ele>
        <time>2017-06-07T17:42:16Z</time>
      </trkpt>
      <trkpt lat="44.11783" lon="6.95982">
        <ele>1787</ele>
        <time>2017-06-07T17:42:16Z</time>
      </trkpt>
      <trkpt lat="44.11779" lon="6.95983">
        <ele>1787</ele>
        <time>2017-06-07T17:42:17Z</time>
      </trkpt>
      <trkpt lat="44.11777" lon="6.95979">
        <ele>1787</ele>
        <time>2017-06-07T17:42:32Z</time>
      </trkpt>
      <trkpt lat="44.11771" lon="6.95984">
        <ele>1787</ele>
        <time>2017-06-07T17:42:32Z</time>
      </trkpt>
      <trkpt lat="44.11765" lon="6.95987">
        <ele>1779</ele>
        <time>2017-06-07T17:42:32Z</time>
      </trkpt>
      <trkpt lat="44.11761" lon="6.95987">
        <ele>1785</ele>
        <time>2017-06-07T17:42:33Z</time>
      </trkpt>
      <trkpt lat="44.11757" lon="6.9599">
        <ele>1785</ele>
        <time>2017-06-07T17:42:50Z</time>
      </trkpt>
      <trkpt lat="44.11752" lon="6.95992">
        <ele>1785</ele>
        <time>2017-06-07T17:42:50Z</time>
      </trkpt>
      <trkpt lat="44.11747" lon="6.95993">
        <ele>1785</ele>
        <time>2017-06-07T17:42:50Z</time>
      </trkpt>
      <trkpt lat="44.1174" lon="6.95997">
        <ele>1785</ele>
        <time>2017-06-07T17:42:50Z</time>
      </trkpt>
      <trkpt lat="44.11738" lon="6.95997">
        <ele>1785</ele>
        <time>2017-06-07T17:43:06Z</time>
      </trkpt>
      <trkpt lat="44.11728" lon="6.96003">
        <ele>1787</ele>
        <time>2017-06-07T17:43:06Z</time>
      </trkpt>
      <trkpt lat="44.11721" lon="6.96006">
        <ele>1787</ele>
        <time>2017-06-07T17:43:06Z</time>
      </trkpt>
      <trkpt lat="44.11717" lon="6.96007">
        <ele>1787</ele>
        <time>2017-06-07T17:43:07Z</time>
      </trkpt>
      <trkpt lat="44.11716" lon="6.96007">
        <ele>1787</ele>
        <time>2017-06-07T17:43:22Z</time>
      </trkpt>
      <trkpt lat="44.11709" lon="6.96007">
        <ele>1787</ele>
        <time>2017-06-07T17:43:22Z</time>
      </trkpt>
      <trkpt lat="44.11704" lon="6.96006">
        <ele>1791</ele>
        <time>2017-06-07T17:43:22Z</time>
      </trkpt>
      <trkpt lat="44.11698" lon="6.96007">
        <ele>1791</ele>
        <time>2017-06-07T17:43:22Z</time>
      </trkpt>
      <trkpt lat="44.11696" lon="6.96008">
        <ele>1791</ele>
        <time>2017-06-07T17:43:38Z</time>
      </trkpt>
      <trkpt lat="44.11686" lon="6.96013">
        <ele>1791</ele>
        <time>2017-06-07T17:43:38Z</time>
      </trkpt>
      <trkpt lat="44.11682" lon="6.96012">
        <ele>1791</ele>
        <time>2017-06-07T17:43:38Z</time>
      </trkpt>
      <trkpt lat="44.11676" lon="6.96015">
        <ele>1789</ele>
        <time>2017-06-07T17:43:38Z</time>
      </trkpt>
      <trkpt lat="44.11675" lon="6.96017">
        <ele>1789</ele>
        <time>2017-06-07T17:43:53Z</time>
      </trkpt>
      <trkpt lat="44.11666" lon="6.96022">
        <ele>1789</ele>
        <time>2017-06-07T17:43:53Z</time>
      </trkpt>
      <trkpt lat="44.11661" lon="6.96025">
        <ele>1789</ele>
        <time>2017-06-07T17:43:54Z</time>
      </trkpt>
      <trkpt lat="44.11656" lon="6.96026">
        <ele>1789</ele>
        <time>2017-06-07T17:43:54Z</time>
      </trkpt>
      <trkpt lat="44.11655" lon="6.96026">
        <ele>1789</ele>
        <time>2017-06-07T17:44:10Z</time>
      </trkpt>
      <trkpt lat="44.11647" lon="6.96033">
        <ele>1792</ele>
        <time>2017-06-07T17:44:10Z</time>
      </trkpt>
      <trkpt lat="44.11643" lon="6.96037">
        <ele>1792</ele>
        <time>2017-06-07T17:44:10Z</time>
      </trkpt>
      <trkpt lat="44.11641" lon="6.96037">
        <ele>1792</ele>
        <time>2017-06-07T17:44:10Z</time>
      </trkpt>
      <trkpt lat="44.11638" lon="6.96039">
        <ele>1792</ele>
        <time>2017-06-07T17:44:24Z</time>
      </trkpt>
      <trkpt lat="44.11631" lon="6.96042">
        <ele>1778</ele>
        <time>2017-06-07T17:44:24Z</time>
      </trkpt>
      <trkpt lat="44.11628" lon="6.96046">
        <ele>1778</ele>
        <time>2017-06-07T17:44:24Z</time>
      </trkpt>
      <trkpt lat="44.1162" lon="6.96051">
        <ele>1778</ele>
        <time>2017-06-07T17:44:25Z</time>
      </trkpt>
      <trkpt lat="44.11617" lon="6.96052">
        <ele>1778</ele>
        <time>2017-06-07T17:44:40Z</time>
      </trkpt>
      <trkpt lat="44.11609" lon="6.96053">
        <ele>1778</ele>
        <time>2017-06-07T17:44:40Z</time>
      </trkpt>
      <trkpt lat="44.11604" lon="6.96056">
        <ele>1778</ele>
        <time>2017-06-07T17:44:40Z</time>
      </trkpt>
      <trkpt lat="44.11599" lon="6.96054">
        <ele>1778</ele>
        <time>2017-06-07T17:44:41Z</time>
      </trkpt>
      <trkpt lat="44.11594" lon="6.96056">
        <ele>1780</ele>
        <time>2017-06-07T17:44:56Z</time>
      </trkpt>
      <trkpt lat="44.11589" lon="6.96057">
        <ele>1780</ele>
        <time>2017-06-07T17:44:56Z</time>
      </trkpt>
      <trkpt lat="44.11586" lon="6.96056">
        <ele>1780</ele>
        <time>2017-06-07T17:44:57Z</time>
      </trkpt>
      <trkpt lat="44.1158" lon="6.96055">
        <ele>1780</ele>
        <time>2017-06-07T17:44:57Z</time>
      </trkpt>
      <trkpt lat="44.11575" lon="6.96053">
        <ele>1780</ele>
        <time>2017-06-07T17:45:14Z</time>
      </trkpt>
      <trkpt lat="44.11568" lon="6.96052">
        <ele>1778</ele>
        <time>2017-06-07T17:45:14Z</time>
      </trkpt>
      <trkpt lat="44.11563" lon="6.96052">
        <ele>1778</ele>
        <time>2017-06-07T17:45:15Z</time>
      </trkpt>
      <trkpt lat="44.11558" lon="6.96053">
        <ele>1778</ele>
        <time>2017-06-07T17:45:15Z</time>
      </trkpt>
      <trkpt lat="44.11556" lon="6.96052">
        <ele>1778</ele>
        <time>2017-06-07T17:45:30Z</time>
      </trkpt>
      <trkpt lat="44.11549" lon="6.96049">
        <ele>1778</ele>
        <time>2017-06-07T17:45:30Z</time>
      </trkpt>
      <trkpt lat="44.11543" lon="6.96044">
        <ele>1778</ele>
        <time>2017-06-07T17:45:30Z</time>
      </trkpt>
      <trkpt lat="44.11538" lon="6.96041">
        <ele>1783</ele>
        <time>2017-06-07T17:45:30Z</time>
      </trkpt>
      <trkpt lat="44.11537" lon="6.96041">
        <ele>1783</ele>
        <time>2017-06-07T17:45:46Z</time>
      </trkpt>
      <trkpt lat="44.11527" lon="6.96041">
        <ele>1783</ele>
        <time>2017-06-07T17:45:46Z</time>
      </trkpt>
      <trkpt lat="44.11522" lon="6.96039">
        <ele>1783</ele>
        <time>2017-06-07T17:45:46Z</time>
      </trkpt>
      <trkpt lat="44.11514" lon="6.96038">
        <ele>1783</ele>
        <time>2017-06-07T17:45:46Z</time>
      </trkpt>
      <trkpt lat="44.11513" lon="6.96037">
        <ele>1778</ele>
        <time>2017-06-07T17:46:01Z</time>
      </trkpt>
      <trkpt lat="44.11505" lon="6.96033">
        <ele>1778</ele>
        <time>2017-06-07T17:46:01Z</time>
      </trkpt>
      <trkpt lat="44.11501" lon="6.96028">
        <ele>1778</ele>
        <time>2017-06-07T17:46:01Z</time>
      </trkpt>
      <trkpt lat="44.11497" lon="6.96026">
        <ele>1778</ele>
        <time>2017-06-07T17:46:02Z</time>
      </trkpt>
      <trkpt lat="44.11496" lon="6.96026">
        <ele>1778</ele>
        <time>2017-06-07T17:46:18Z</time>
      </trkpt>
      <trkpt lat="44.11486" lon="6.96023">
        <ele>1778</ele>
        <time>2017-06-07T17:46:18Z</time>
      </trkpt>
      <trkpt lat="44.11484" lon="6.96022">
        <ele>1776</ele>
        <time>2017-06-07T17:46:18Z</time>
      </trkpt>
      <trkpt lat="44.1148" lon="6.9602">
        <ele>1776</ele>
        <time>2017-06-07T17:46:18Z</time>
      </trkpt>
      <trkpt lat="44.11479" lon="6.9602">
        <ele>1776</ele>
        <time>2017-06-07T17:46:32Z</time>
      </trkpt>
      <trkpt lat="44.1147" lon="6.96017">
        <ele>1776</ele>
        <time>2017-06-07T17:46:33Z</time>
      </trkpt>
      <trkpt lat="44.11466" lon="6.96017">
        <ele>1776</ele>
        <time>2017-06-07T17:46:33Z</time>
      </trkpt>
      <trkpt lat="44.11462" lon="6.96018">
        <ele>1776</ele>
        <time>2017-06-07T17:46:33Z</time>
      </trkpt>
      <trkpt lat="44.11456" lon="6.96015">
        <ele>1777</ele>
        <time>2017-06-07T17:46:50Z</time>
      </trkpt>
      <trkpt lat="44.11447" lon="6.96011">
        <ele>1787</ele>
        <time>2017-06-07T17:46:50Z</time>
      </trkpt>
      <trkpt lat="44.11443" lon="6.96012">
        <ele>1787</ele>
        <time>2017-06-07T17:46:50Z</time>
      </trkpt>
      <trkpt lat="44.11437" lon="6.9601">
        <ele>1787</ele>
        <time>2017-06-07T17:46:50Z</time>
      </trkpt>
      <trkpt lat="44.11436" lon="6.9601">
        <ele>1787</ele>
        <time>2017-06-07T17:47:06Z</time>
      </trkpt>
      <trkpt lat="44.11429" lon="6.9601">
        <ele>1783</ele>
        <time>2017-06-07T17:47:06Z</time>
      </trkpt>
      <trkpt lat="44.11423" lon="6.96011">
        <ele>1783</ele>
        <time>2017-06-07T17:47:06Z</time>
      </trkpt>
      <trkpt lat="44.11419" lon="6.96012">
        <ele>1783</ele>
        <time>2017-06-07T17:47:06Z</time>
      </trkpt>
      <trkpt lat="44.11418" lon="6.96012">
        <ele>1783</ele>
        <time>2017-06-07T17:47:22Z</time>
      </trkpt>
      <trkpt lat="44.11415" lon="6.9601">
        <ele>1783</ele>
        <time>2017-06-07T17:47:22Z</time>
      </trkpt>
      <trkpt lat="44.1141" lon="6.9601">
        <ele>1783</ele>
        <time>2017-06-07T17:47:22Z</time>
      </trkpt>
      <trkpt lat="44.11404" lon="6.96009">
        <ele>1783</ele>
        <time>2017-06-07T17:47:22Z</time>
      </trkpt>
      <trkpt lat="44.11402" lon="6.96008">
        <ele>1780</ele>
        <time>2017-06-07T17:47:38Z</time>
      </trkpt>
      <trkpt lat="44.11388" lon="6.96011">
        <ele>1780</ele>
        <time>2017-06-07T17:47:38Z</time>
      </trkpt>
      <trkpt lat="44.11386" lon="6.96012">
        <ele>1780</ele>
        <time>2017-06-07T17:47:39Z</time>
      </trkpt>
      <trkpt lat="44.11379" lon="6.96013">
        <ele>1780</ele>
        <time>2017-06-07T17:47:39Z</time>
      </trkpt>
      <trkpt lat="44.11378" lon="6.96015">
        <ele>1769</ele>
        <time>2017-06-07T17:47:53Z</time>
      </trkpt>
      <trkpt lat="44.11372" lon="6.96016">
        <ele>1770</ele>
        <time>2017-06-07T17:47:54Z</time>
      </trkpt>
      <trkpt lat="44.11366" lon="6.96019">
        <ele>1770</ele>
        <time>2017-06-07T17:47:55Z</time>
      </trkpt>
      <trkpt lat="44.11358" lon="6.96024">
        <ele>1770</ele>
        <time>2017-06-07T17:47:55Z</time>
      </trkpt>
      <trkpt lat="44.11355" lon="6.96024">
        <ele>1770</ele>
        <time>2017-06-07T17:48:08Z</time>
      </trkpt>
      <trkpt lat="44.11348" lon="6.96024">
        <ele>1770</ele>
        <time>2017-06-07T17:48:08Z</time>
      </trkpt>
      <trkpt lat="44.11343" lon="6.96024">
        <ele>1766</ele>
        <time>2017-06-07T17:48:08Z</time>
      </trkpt>
      <trkpt lat="44.11336" lon="6.96025">
        <ele>1766</ele>
        <time>2017-06-07T17:48:08Z</time>
      </trkpt>
      <trkpt lat="44.11331" lon="6.96025">
        <ele>1766</ele>
        <time>2017-06-07T17:48:24Z</time>
      </trkpt>
      <trkpt lat="44.11325" lon="6.96024">
        <ele>1766</ele>
        <time>2017-06-07T17:48:24Z</time>
      </trkpt>
      <trkpt lat="44.11322" lon="6.96026">
        <ele>1766</ele>
        <time>2017-06-07T17:48:24Z</time>
      </trkpt>
      <trkpt lat="44.11314" lon="6.96023">
        <ele>1763</ele>
        <time>2017-06-07T17:48:24Z</time>
      </trkpt>
      <trkpt lat="44.1131" lon="6.96017">
        <ele>1763</ele>
        <time>2017-06-07T17:48:40Z</time>
      </trkpt>
      <trkpt lat="44.11306" lon="6.96012">
        <ele>1770</ele>
        <time>2017-06-07T17:48:40Z</time>
      </trkpt>
      <trkpt lat="44.11301" lon="6.96012">
        <ele>1770</ele>
        <time>2017-06-07T17:48:41Z</time>
      </trkpt>
      <trkpt lat="44.11296" lon="6.9601">
        <ele>1770</ele>
        <time>2017-06-07T17:48:41Z</time>
      </trkpt>
      <trkpt lat="44.11293" lon="6.96005">
        <ele>1770</ele>
        <time>2017-06-07T17:48:56Z</time>
      </trkpt>
      <trkpt lat="44.11286" lon="6.95998">
        <ele>1761</ele>
        <time>2017-06-07T17:48:56Z</time>
      </trkpt>
      <trkpt lat="44.1128" lon="6.95992">
        <ele>1761</ele>
        <time>2017-06-07T17:48:56Z</time>
      </trkpt>
      <trkpt lat="44.11275" lon="6.95988">
        <ele>1761</ele>
        <time>2017-06-07T17:48:57Z</time>
      </trkpt>
      <trkpt lat="44.11274" lon="6.95986">
        <ele>1771</ele>
        <time>2017-06-07T17:49:14Z</time>
      </trkpt>
      <trkpt lat="44.1127" lon="6.95978">
        <ele>1771</ele>
        <time>2017-06-07T17:49:14Z</time>
      </trkpt>
      <trkpt lat="44.11266" lon="6.95972">
        <ele>1771</ele>
        <time>2017-06-07T17:49:14Z</time>
      </trkpt>
      <trkpt lat="44.11262" lon="6.95966">
        <ele>1756</ele>
        <time>2017-06-07T17:49:14Z</time>
      </trkpt>
      <trkpt lat="44.11262" lon="6.95967">
        <ele>1756</ele>
        <time>2017-06-07T17:49:28Z</time>
      </trkpt>
      <trkpt lat="44.11257" lon="6.95959">
        <ele>1756</ele>
        <time>2017-06-07T17:49:28Z</time>
      </trkpt>
      <trkpt lat="44.11254" lon="6.95955">
        <ele>1763</ele>
        <time>2017-06-07T17:49:29Z</time>
      </trkpt>
      <trkpt lat="44.1125" lon="6.95948">
        <ele>1763</ele>
        <time>2017-06-07T17:49:29Z</time>
      </trkpt>
      <trkpt lat="44.11246" lon="6.95948">
        <ele>1763</ele>
        <time>2017-06-07T17:49:44Z</time>
      </trkpt>
      <trkpt lat="44.11245" lon="6.95943">
        <ele>1763</ele>
        <time>2017-06-07T17:49:44Z</time>
      </trkpt>
      <trkpt lat="44.11241" lon="6.95937">
        <ele>1763</ele>
        <time>2017-06-07T17:49:45Z</time>
      </trkpt>
      <trkpt lat="44.11238" lon="6.9593">
        <ele>1767</ele>
        <time>2017-06-07T17:49:45Z</time>
      </trkpt>
      <trkpt lat="44.11237" lon="6.95923">
        <ele>1767</ele>
        <time>2017-06-07T17:50:00Z</time>
      </trkpt>
      <trkpt lat="44.11237" lon="6.95917">
        <ele>1767</ele>
        <time>2017-06-07T17:50:00Z</time>
      </trkpt>
      <trkpt lat="44.11235" lon="6.95911">
        <ele>1756</ele>
        <time>2017-06-07T17:50:00Z</time>
      </trkpt>
      <trkpt lat="44.11235" lon="6.95905">
        <ele>1756</ele>
        <time>2017-06-07T17:50:01Z</time>
      </trkpt>
      <trkpt lat="44.11234" lon="6.95896">
        <ele>1757</ele>
        <time>2017-06-07T17:50:18Z</time>
      </trkpt>
      <trkpt lat="44.11231" lon="6.95884">
        <ele>1757</ele>
        <time>2017-06-07T17:50:18Z</time>
      </trkpt>
      <trkpt lat="44.11231" lon="6.95876">
        <ele>1757</ele>
        <time>2017-06-07T17:50:19Z</time>
      </trkpt>
      <trkpt lat="44.11229" lon="6.95869">
        <ele>1761</ele>
        <time>2017-06-07T17:50:19Z</time>
      </trkpt>
      <trkpt lat="44.11226" lon="6.95861">
        <ele>1761</ele>
        <time>2017-06-07T17:50:32Z</time>
      </trkpt>
      <trkpt lat="44.11221" lon="6.95852">
        <ele>1761</ele>
        <time>2017-06-07T17:50:33Z</time>
      </trkpt>
      <trkpt lat="44.11217" lon="6.95849">
        <ele>1761</ele>
        <time>2017-06-07T17:50:33Z</time>
      </trkpt>
      <trkpt lat="44.11214" lon="6.95848">
        <ele>1761</ele>
        <time>2017-06-07T17:50:33Z</time>
      </trkpt>
      <trkpt lat="44.11208" lon="6.95847">
        <ele>1752</ele>
        <time>2017-06-07T17:50:49Z</time>
      </trkpt>
      <trkpt lat="44.11202" lon="6.95849">
        <ele>1752</ele>
        <time>2017-06-07T17:50:49Z</time>
      </trkpt>
      <trkpt lat="44.11197" lon="6.95847">
        <ele>1752</ele>
        <time>2017-06-07T17:50:50Z</time>
      </trkpt>
      <trkpt lat="44.11192" lon="6.95844">
        <ele>1763</ele>
        <time>2017-06-07T17:50:50Z</time>
      </trkpt>
      <trkpt lat="44.11191" lon="6.95845">
        <ele>1763</ele>
        <time>2017-06-07T17:51:06Z</time>
      </trkpt>
      <trkpt lat="44.11184" lon="6.95844">
        <ele>1763</ele>
        <time>2017-06-07T17:51:06Z</time>
      </trkpt>
      <trkpt lat="44.11179" lon="6.95844">
        <ele>1758</ele>
        <time>2017-06-07T17:51:06Z</time>
      </trkpt>
      <trkpt lat="44.11173" lon="6.95841">
        <ele>1758</ele>
        <time>2017-06-07T17:51:06Z</time>
      </trkpt>
      <trkpt lat="44.11172" lon="6.9584">
        <ele>1758</ele>
        <time>2017-06-07T17:51:22Z</time>
      </trkpt>
      <trkpt lat="44.11165" lon="6.9584">
        <ele>1758</ele>
        <time>2017-06-07T17:51:22Z</time>
      </trkpt>
      <trkpt lat="44.11163" lon="6.95835">
        <ele>1758</ele>
        <time>2017-06-07T17:51:22Z</time>
      </trkpt>
      <trkpt lat="44.11158" lon="6.95831">
        <ele>1758</ele>
        <time>2017-06-07T17:51:22Z</time>
      </trkpt>
      <trkpt lat="44.11156" lon="6.95831">
        <ele>1758</ele>
        <time>2017-06-07T17:51:38Z</time>
      </trkpt>
      <trkpt lat="44.11147" lon="6.95825">
        <ele>1752</ele>
        <time>2017-06-07T17:51:39Z</time>
      </trkpt>
      <trkpt lat="44.11141" lon="6.95819">
        <ele>1758</ele>
        <time>2017-06-07T17:51:39Z</time>
      </trkpt>
      <trkpt lat="44.11135" lon="6.95815">
        <ele>1758</ele>
        <time>2017-06-07T17:51:39Z</time>
      </trkpt>
      <trkpt lat="44.11127" lon="6.95819">
        <ele>1758</ele>
        <time>2017-06-07T17:52:05Z</time>
      </trkpt>
      <trkpt lat="44.11126" lon="6.95823">
        <ele>1752</ele>
        <time>2017-06-07T17:52:05Z</time>
      </trkpt>
      <trkpt lat="44.11123" lon="6.95826">
        <ele>1748</ele>
        <time>2017-06-07T17:52:06Z</time>
      </trkpt>
      <trkpt lat="44.11118" lon="6.9583">
        <ele>1748</ele>
        <time>2017-06-07T17:52:06Z</time>
      </trkpt>
      <trkpt lat="44.11114" lon="6.95836">
        <ele>1748</ele>
        <time>2017-06-07T17:52:06Z</time>
      </trkpt>
      <trkpt lat="44.11111" lon="6.95837">
        <ele>1748</ele>
        <time>2017-06-07T17:52:21Z</time>
      </trkpt>
      <trkpt lat="44.11104" lon="6.95838">
        <ele>1748</ele>
        <time>2017-06-07T17:52:21Z</time>
      </trkpt>
      <trkpt lat="44.11097" lon="6.95835">
        <ele>1745</ele>
        <time>2017-06-07T17:52:21Z</time>
      </trkpt>
      <trkpt lat="44.11093" lon="6.95833">
        <ele>1745</ele>
        <time>2017-06-07T17:52:21Z</time>
      </trkpt>
      <trkpt lat="44.11091" lon="6.9583">
        <ele>1745</ele>
        <time>2017-06-07T17:52:42Z</time>
      </trkpt>
      <trkpt lat="44.11088" lon="6.95829">
        <ele>1745</ele>
        <time>2017-06-07T17:52:42Z</time>
      </trkpt>
      <trkpt lat="44.11084" lon="6.95826">
        <ele>1745</ele>
        <time>2017-06-07T17:52:42Z</time>
      </trkpt>
      <trkpt lat="44.11083" lon="6.95825">
        <ele>1745</ele>
        <time>2017-06-07T17:52:42Z</time>
      </trkpt>
      <trkpt lat="44.1108" lon="6.95828">
        <ele>1745</ele>
        <time>2017-06-07T17:52:42Z</time>
      </trkpt>
      <trkpt lat="44.11079" lon="6.95827">
        <ele>1745</ele>
        <time>2017-06-07T17:52:58Z</time>
      </trkpt>
      <trkpt lat="44.11072" lon="6.95828">
        <ele>1745</ele>
        <time>2017-06-07T17:52:58Z</time>
      </trkpt>
      <trkpt lat="44.11068" lon="6.95831">
        <ele>1745</ele>
        <time>2017-06-07T17:52:58Z</time>
      </trkpt>
      <trkpt lat="44.11066" lon="6.95831">
        <ele>1745</ele>
        <time>2017-06-07T17:52:58Z</time>
      </trkpt>
    </trkseg>
  </trk>
</gpx>